<?xml version="1.0" encoding="UTF-8" standalone="no" ?>
<gpx xmlns="http://www.topografix.com/GPX/1/1" xmlns:xsi="http://www.w3.org/2001/XMLSchema-instance" xsi:schemaLocation="http://www.topografix.com/GPX/1/1 http://www.topografix.com/GPX/1/1/gpx.xsd" version="1.1" creator="VisuGPX - https://www.visugpx.com">
  <metadata>
    <name>12ème Balade du Coq (octobre 2012)</name>
    <desc><![CDATA[Cette randonnée est organisée chaque année par l'association Loisirs Nature, basée à Cogolin.
Le circuit n'était pas le plus long proposé, mais c'était le plus technique. Il y avait aussi un parcours d'une cinquantaine de km, avec une longue section de piste à la place d'une partie de celui-ci comportant d'intéressants sentiers.
Le parcours, malgré le dénivelé raisonnable, est plutôt bien physique, avec beaucoup de petites montées raides et de relances "casse-pattes". Quasiment pas de poussage ou portage obligé, sauf le long de la Giscle (quelques dizaines de m de distance en tout).
Descentes de difficultés T2 à T3 dans l'ensemble, avec un peu de T4. Terrain plutôt lisse, quelques parties cassantes.
Beaux sentiers bien entretenus, quelques sections apparemment tracées ou remises en état pour l'occasion. De superbes passages techniques.
Le cadre est le maquis ou la forêt du massif des Maures. Les points de vue sont souvent limités par la couverture végétale, c'est pourquoi le détour à la chapelle Ste-Magdeleine et à son petit piton rocheux, rajouté au programme de la randonnée, est particulièrement intéressant.

]]></desc>
  </metadata>
  <wpt lat="43.25123" lon="6.52899">
    <ele>17</ele>
    <name><![CDATA[Start]]></name>
    <desc><![CDATA[2012-10-07 06:13:15]]></desc>
  </wpt>
  <wpt lat="43.25121" lon="6.52905">
    <ele>16.6</ele>
    <name><![CDATA[Lap 1]]></name>
    <desc><![CDATA[39.52km, 267:01, 8.9kph]]></desc>
  </wpt>
  <trk>
    <name><![CDATA[Balade du Coq 2012 40km]]></name>
    <desc><![CDATA[267:01 - 39.5km]]></desc>
    <trkseg>
      <trkpt lat="43.25123" lon="6.52899">
        <ele>28.366</ele>
        <time>2012-10-07T06:13:16Z</time>
      </trkpt>
      <trkpt lat="43.25131" lon="6.52896">
        <ele>40.316</ele>
        <time>2012-10-07T06:14:11Z</time>
      </trkpt>
      <trkpt lat="43.25127" lon="6.52899">
        <ele>34.166</ele>
        <time>2012-10-07T06:14:42Z</time>
      </trkpt>
      <trkpt lat="43.25132" lon="6.52904">
        <ele>33.237</ele>
        <time>2012-10-07T06:14:48Z</time>
      </trkpt>
      <trkpt lat="43.25133" lon="6.52905">
        <ele>32.867</ele>
        <time>2012-10-07T06:14:49Z</time>
      </trkpt>
      <trkpt lat="43.25137" lon="6.52897">
        <ele>30.747</ele>
        <time>2012-10-07T06:14:55Z</time>
      </trkpt>
      <trkpt lat="43.25134" lon="6.5288">
        <ele>28.446</ele>
        <time>2012-10-07T06:15:03Z</time>
      </trkpt>
      <trkpt lat="43.25133" lon="6.52867">
        <ele>28.088</ele>
        <time>2012-10-07T06:15:11Z</time>
      </trkpt>
      <trkpt lat="43.25132" lon="6.5286">
        <ele>27.787</ele>
        <time>2012-10-07T06:15:18Z</time>
      </trkpt>
      <trkpt lat="43.25129" lon="6.52847">
        <ele>24.646</ele>
        <time>2012-10-07T06:15:30Z</time>
      </trkpt>
      <trkpt lat="43.25124" lon="6.52823">
        <ele>24.706</ele>
        <time>2012-10-07T06:15:37Z</time>
      </trkpt>
      <trkpt lat="43.25108" lon="6.52801">
        <ele>24.986</ele>
        <time>2012-10-07T06:15:44Z</time>
      </trkpt>
      <trkpt lat="43.2508" lon="6.52771">
        <ele>24.947</ele>
        <time>2012-10-07T06:15:54Z</time>
      </trkpt>
      <trkpt lat="43.2505" lon="6.52742">
        <ele>25.767</ele>
        <time>2012-10-07T06:16:05Z</time>
      </trkpt>
      <trkpt lat="43.25029" lon="6.52718">
        <ele>26.797</ele>
        <time>2012-10-07T06:16:13Z</time>
      </trkpt>
      <trkpt lat="43.25026" lon="6.52696">
        <ele>27.294</ele>
        <time>2012-10-07T06:16:18Z</time>
      </trkpt>
      <trkpt lat="43.25035" lon="6.52672">
        <ele>27.378</ele>
        <time>2012-10-07T06:16:24Z</time>
      </trkpt>
      <trkpt lat="43.2505" lon="6.52644">
        <ele>27.677</ele>
        <time>2012-10-07T06:16:31Z</time>
      </trkpt>
      <trkpt lat="43.25055" lon="6.52621">
        <ele>27.957</ele>
        <time>2012-10-07T06:16:36Z</time>
      </trkpt>
      <trkpt lat="43.25052" lon="6.52591">
        <ele>28.036</ele>
        <time>2012-10-07T06:16:42Z</time>
      </trkpt>
      <trkpt lat="43.25043" lon="6.52538">
        <ele>30.168</ele>
        <time>2012-10-07T06:16:53Z</time>
      </trkpt>
      <trkpt lat="43.25035" lon="6.52487">
        <ele>31.817</ele>
        <time>2012-10-07T06:17:04Z</time>
      </trkpt>
      <trkpt lat="43.25027" lon="6.52453">
        <ele>33.448</ele>
        <time>2012-10-07T06:17:12Z</time>
      </trkpt>
      <trkpt lat="43.25016" lon="6.524">
        <ele>34.337</ele>
        <time>2012-10-07T06:17:24Z</time>
      </trkpt>
      <trkpt lat="43.25016" lon="6.52369">
        <ele>34.51</ele>
        <time>2012-10-07T06:17:31Z</time>
      </trkpt>
      <trkpt lat="43.25025" lon="6.52342">
        <ele>35.327</ele>
        <time>2012-10-07T06:17:38Z</time>
      </trkpt>
      <trkpt lat="43.25046" lon="6.52298">
        <ele>36.276</ele>
        <time>2012-10-07T06:17:50Z</time>
      </trkpt>
      <trkpt lat="43.25071" lon="6.52247">
        <ele>37.276</ele>
        <time>2012-10-07T06:18:03Z</time>
      </trkpt>
      <trkpt lat="43.25089" lon="6.52202">
        <ele>38.126</ele>
        <time>2012-10-07T06:18:14Z</time>
      </trkpt>
      <trkpt lat="43.25103" lon="6.52158">
        <ele>38.736</ele>
        <time>2012-10-07T06:18:24Z</time>
      </trkpt>
      <trkpt lat="43.25117" lon="6.52121">
        <ele>39.927</ele>
        <time>2012-10-07T06:18:33Z</time>
      </trkpt>
      <trkpt lat="43.2514" lon="6.52075">
        <ele>41.977</ele>
        <time>2012-10-07T06:18:45Z</time>
      </trkpt>
      <trkpt lat="43.2516" lon="6.5203">
        <ele>44.607</ele>
        <time>2012-10-07T06:18:56Z</time>
      </trkpt>
      <trkpt lat="43.25182" lon="6.51979">
        <ele>48.548</ele>
        <time>2012-10-07T06:19:09Z</time>
      </trkpt>
      <trkpt lat="43.25205" lon="6.51935">
        <ele>49.742</ele>
        <time>2012-10-07T06:19:21Z</time>
      </trkpt>
      <trkpt lat="43.25212" lon="6.51918">
        <ele>49.494</ele>
        <time>2012-10-07T06:19:25Z</time>
      </trkpt>
      <trkpt lat="43.25219" lon="6.51864">
        <ele>48.574</ele>
        <time>2012-10-07T06:19:34Z</time>
      </trkpt>
      <trkpt lat="43.25233" lon="6.51811">
        <ele>48.514</ele>
        <time>2012-10-07T06:19:43Z</time>
      </trkpt>
      <trkpt lat="43.25248" lon="6.51774">
        <ele>50.045</ele>
        <time>2012-10-07T06:19:51Z</time>
      </trkpt>
      <trkpt lat="43.25261" lon="6.51747">
        <ele>49.773</ele>
        <time>2012-10-07T06:19:57Z</time>
      </trkpt>
      <trkpt lat="43.2528" lon="6.51711">
        <ele>49.024</ele>
        <time>2012-10-07T06:20:03Z</time>
      </trkpt>
      <trkpt lat="43.2529" lon="6.51672">
        <ele>48.474</ele>
        <time>2012-10-07T06:20:08Z</time>
      </trkpt>
      <trkpt lat="43.25298" lon="6.5163">
        <ele>47.282</ele>
        <time>2012-10-07T06:20:13Z</time>
      </trkpt>
      <trkpt lat="43.25308" lon="6.5157">
        <ele>44.041</ele>
        <time>2012-10-07T06:20:19Z</time>
      </trkpt>
      <trkpt lat="43.25317" lon="6.515">
        <ele>40.811</ele>
        <time>2012-10-07T06:20:25Z</time>
      </trkpt>
      <trkpt lat="43.25311" lon="6.51443">
        <ele>37.981</ele>
        <time>2012-10-07T06:20:30Z</time>
      </trkpt>
      <trkpt lat="43.25306" lon="6.5141">
        <ele>37.171</ele>
        <time>2012-10-07T06:20:33Z</time>
      </trkpt>
      <trkpt lat="43.25311" lon="6.5135">
        <ele>36.272</ele>
        <time>2012-10-07T06:20:39Z</time>
      </trkpt>
      <trkpt lat="43.25312" lon="6.5134">
        <ele>36.152</ele>
        <time>2012-10-07T06:20:40Z</time>
      </trkpt>
      <trkpt lat="43.25309" lon="6.51303">
        <ele>34.58</ele>
        <time>2012-10-07T06:20:44Z</time>
      </trkpt>
      <trkpt lat="43.25302" lon="6.51271">
        <ele>32.178</ele>
        <time>2012-10-07T06:20:47Z</time>
      </trkpt>
      <trkpt lat="43.253" lon="6.51206">
        <ele>27.428</ele>
        <time>2012-10-07T06:20:52Z</time>
      </trkpt>
      <trkpt lat="43.253" lon="6.51178">
        <ele>25.679</ele>
        <time>2012-10-07T06:20:54Z</time>
      </trkpt>
      <trkpt lat="43.25291" lon="6.51124">
        <ele>23.379</ele>
        <time>2012-10-07T06:20:58Z</time>
      </trkpt>
      <trkpt lat="43.2528" lon="6.51071">
        <ele>21.78</ele>
        <time>2012-10-07T06:21:02Z</time>
      </trkpt>
      <trkpt lat="43.25277" lon="6.51002">
        <ele>20.801</ele>
        <time>2012-10-07T06:21:08Z</time>
      </trkpt>
      <trkpt lat="43.25274" lon="6.50963">
        <ele>20.312</ele>
        <time>2012-10-07T06:21:12Z</time>
      </trkpt>
      <trkpt lat="43.25256" lon="6.50911">
        <ele>20.693</ele>
        <time>2012-10-07T06:21:18Z</time>
      </trkpt>
      <trkpt lat="43.25227" lon="6.50851">
        <ele>22.003</ele>
        <time>2012-10-07T06:21:26Z</time>
      </trkpt>
      <trkpt lat="43.25201" lon="6.50807">
        <ele>21.921</ele>
        <time>2012-10-07T06:21:33Z</time>
      </trkpt>
      <trkpt lat="43.2517" lon="6.50762">
        <ele>22.632</ele>
        <time>2012-10-07T06:21:41Z</time>
      </trkpt>
      <trkpt lat="43.25162" lon="6.50752">
        <ele>22.782</ele>
        <time>2012-10-07T06:21:43Z</time>
      </trkpt>
      <trkpt lat="43.25155" lon="6.50729">
        <ele>22.371</ele>
        <time>2012-10-07T06:21:47Z</time>
      </trkpt>
      <trkpt lat="43.25164" lon="6.50715">
        <ele>22.202</ele>
        <time>2012-10-07T06:21:50Z</time>
      </trkpt>
      <trkpt lat="43.2519" lon="6.50682">
        <ele>21.992</ele>
        <time>2012-10-07T06:21:57Z</time>
      </trkpt>
      <trkpt lat="43.25202" lon="6.50669">
        <ele>22.153</ele>
        <time>2012-10-07T06:22:00Z</time>
      </trkpt>
      <trkpt lat="43.25213" lon="6.50638">
        <ele>21.721</ele>
        <time>2012-10-07T06:22:05Z</time>
      </trkpt>
      <trkpt lat="43.25214" lon="6.50582">
        <ele>19.9</ele>
        <time>2012-10-07T06:22:12Z</time>
      </trkpt>
      <trkpt lat="43.25213" lon="6.50563">
        <ele>19.921</ele>
        <time>2012-10-07T06:22:14Z</time>
      </trkpt>
      <trkpt lat="43.25222" lon="6.50533">
        <ele>20.263</ele>
        <time>2012-10-07T06:22:18Z</time>
      </trkpt>
      <trkpt lat="43.25234" lon="6.50492">
        <ele>20.222</ele>
        <time>2012-10-07T06:22:24Z</time>
      </trkpt>
      <trkpt lat="43.25247" lon="6.50438">
        <ele>20.312</ele>
        <time>2012-10-07T06:22:32Z</time>
      </trkpt>
      <trkpt lat="43.25257" lon="6.50378">
        <ele>21.251</ele>
        <time>2012-10-07T06:22:41Z</time>
      </trkpt>
      <trkpt lat="43.2527" lon="6.50306">
        <ele>21.771</ele>
        <time>2012-10-07T06:22:52Z</time>
      </trkpt>
      <trkpt lat="43.25282" lon="6.50254">
        <ele>21.981</ele>
        <time>2012-10-07T06:23:00Z</time>
      </trkpt>
      <trkpt lat="43.25292" lon="6.50201">
        <ele>22.081</ele>
        <time>2012-10-07T06:23:08Z</time>
      </trkpt>
      <trkpt lat="43.25301" lon="6.50136">
        <ele>22.992</ele>
        <time>2012-10-07T06:23:18Z</time>
      </trkpt>
      <trkpt lat="43.25309" lon="6.50096">
        <ele>24.502</ele>
        <time>2012-10-07T06:23:25Z</time>
      </trkpt>
      <trkpt lat="43.25325" lon="6.50037">
        <ele>26.131</ele>
        <time>2012-10-07T06:23:35Z</time>
      </trkpt>
      <trkpt lat="43.25342" lon="6.49991">
        <ele>27.141</ele>
        <time>2012-10-07T06:23:44Z</time>
      </trkpt>
      <trkpt lat="43.25366" lon="6.49947">
        <ele>27.87</ele>
        <time>2012-10-07T06:23:54Z</time>
      </trkpt>
      <trkpt lat="43.25379" lon="6.49939">
        <ele>28.11</ele>
        <time>2012-10-07T06:23:58Z</time>
      </trkpt>
      <trkpt lat="43.25392" lon="6.49956">
        <ele>28.901</ele>
        <time>2012-10-07T06:24:03Z</time>
      </trkpt>
      <trkpt lat="43.25406" lon="6.49967">
        <ele>30.202</ele>
        <time>2012-10-07T06:24:08Z</time>
      </trkpt>
      <trkpt lat="43.25428" lon="6.49974">
        <ele>32.541</ele>
        <time>2012-10-07T06:24:18Z</time>
      </trkpt>
      <trkpt lat="43.25449" lon="6.49981">
        <ele>35.502</ele>
        <time>2012-10-07T06:24:28Z</time>
      </trkpt>
      <trkpt lat="43.2547" lon="6.49979">
        <ele>38.151</ele>
        <time>2012-10-07T06:24:39Z</time>
      </trkpt>
      <trkpt lat="43.25488" lon="6.49977">
        <ele>38.3</ele>
        <time>2012-10-07T06:24:50Z</time>
      </trkpt>
      <trkpt lat="43.25496" lon="6.49976">
        <ele>38.22</ele>
        <time>2012-10-07T06:24:55Z</time>
      </trkpt>
      <trkpt lat="43.25503" lon="6.49965">
        <ele>37.95</ele>
        <time>2012-10-07T06:25:00Z</time>
      </trkpt>
      <trkpt lat="43.25508" lon="6.49946">
        <ele>39.442</ele>
        <time>2012-10-07T06:25:07Z</time>
      </trkpt>
      <trkpt lat="43.25515" lon="6.49926">
        <ele>40.741</ele>
        <time>2012-10-07T06:25:15Z</time>
      </trkpt>
      <trkpt lat="43.25525" lon="6.49903">
        <ele>41.621</ele>
        <time>2012-10-07T06:25:25Z</time>
      </trkpt>
      <trkpt lat="43.25531" lon="6.49884">
        <ele>41.98</ele>
        <time>2012-10-07T06:25:35Z</time>
      </trkpt>
      <trkpt lat="43.25538" lon="6.49875">
        <ele>41.259</ele>
        <time>2012-10-07T06:25:40Z</time>
      </trkpt>
      <trkpt lat="43.25548" lon="6.49859">
        <ele>42.252</ele>
        <time>2012-10-07T06:25:46Z</time>
      </trkpt>
      <trkpt lat="43.25558" lon="6.49851">
        <ele>44.172</ele>
        <time>2012-10-07T06:25:52Z</time>
      </trkpt>
      <trkpt lat="43.25566" lon="6.49854">
        <ele>45.201</ele>
        <time>2012-10-07T06:25:57Z</time>
      </trkpt>
      <trkpt lat="43.25576" lon="6.49856">
        <ele>46.451</ele>
        <time>2012-10-07T06:26:04Z</time>
      </trkpt>
      <trkpt lat="43.2559" lon="6.49854">
        <ele>48.221</ele>
        <time>2012-10-07T06:26:14Z</time>
      </trkpt>
      <trkpt lat="43.25601" lon="6.49855">
        <ele>50.112</ele>
        <time>2012-10-07T06:26:21Z</time>
      </trkpt>
      <trkpt lat="43.2561" lon="6.49865">
        <ele>51.741</ele>
        <time>2012-10-07T06:26:27Z</time>
      </trkpt>
      <trkpt lat="43.25622" lon="6.49875">
        <ele>54.151</ele>
        <time>2012-10-07T06:26:35Z</time>
      </trkpt>
      <trkpt lat="43.25634" lon="6.49885">
        <ele>56.321</ele>
        <time>2012-10-07T06:26:45Z</time>
      </trkpt>
      <trkpt lat="43.25645" lon="6.4989">
        <ele>57.41</ele>
        <time>2012-10-07T06:26:54Z</time>
      </trkpt>
      <trkpt lat="43.25658" lon="6.49895">
        <ele>58.661</ele>
        <time>2012-10-07T06:27:03Z</time>
      </trkpt>
      <trkpt lat="43.25668" lon="6.49903">
        <ele>61.793</ele>
        <time>2012-10-07T06:27:11Z</time>
      </trkpt>
      <trkpt lat="43.25674" lon="6.49907">
        <ele>63.232</ele>
        <time>2012-10-07T06:27:16Z</time>
      </trkpt>
      <trkpt lat="43.25689" lon="6.49918">
        <ele>65.242</ele>
        <time>2012-10-07T06:27:25Z</time>
      </trkpt>
      <trkpt lat="43.25692" lon="6.49919">
        <ele>65.511</ele>
        <time>2012-10-07T06:27:27Z</time>
      </trkpt>
      <trkpt lat="43.25696" lon="6.49916">
        <ele>66.081</ele>
        <time>2012-10-07T06:27:33Z</time>
      </trkpt>
      <trkpt lat="43.25701" lon="6.49911">
        <ele>66.831</ele>
        <time>2012-10-07T06:27:38Z</time>
      </trkpt>
      <trkpt lat="43.25704" lon="6.49904">
        <ele>67.531</ele>
        <time>2012-10-07T06:27:44Z</time>
      </trkpt>
      <trkpt lat="43.25705" lon="6.49903">
        <ele>67.74</ele>
        <time>2012-10-07T06:27:52Z</time>
      </trkpt>
      <trkpt lat="43.25708" lon="6.49896">
        <ele>68.702</ele>
        <time>2012-10-07T06:28:04Z</time>
      </trkpt>
      <trkpt lat="43.25712" lon="6.49886">
        <ele>70.623</ele>
        <time>2012-10-07T06:28:10Z</time>
      </trkpt>
      <trkpt lat="43.25714" lon="6.49883">
        <ele>71.002</ele>
        <time>2012-10-07T06:28:12Z</time>
      </trkpt>
      <trkpt lat="43.25715" lon="6.49876">
        <ele>71.551</ele>
        <time>2012-10-07T06:28:19Z</time>
      </trkpt>
      <trkpt lat="43.25717" lon="6.49868">
        <ele>72.051</ele>
        <time>2012-10-07T06:28:26Z</time>
      </trkpt>
      <trkpt lat="43.25725" lon="6.49852">
        <ele>72.711</ele>
        <time>2012-10-07T06:28:34Z</time>
      </trkpt>
      <trkpt lat="43.25733" lon="6.49835">
        <ele>72.59</ele>
        <time>2012-10-07T06:28:40Z</time>
      </trkpt>
      <trkpt lat="43.25743" lon="6.49804">
        <ele>73.552</ele>
        <time>2012-10-07T06:28:48Z</time>
      </trkpt>
      <trkpt lat="43.25754" lon="6.49786">
        <ele>75.131</ele>
        <time>2012-10-07T06:28:54Z</time>
      </trkpt>
      <trkpt lat="43.25771" lon="6.49768">
        <ele>76.101</ele>
        <time>2012-10-07T06:29:01Z</time>
      </trkpt>
      <trkpt lat="43.25778" lon="6.49763">
        <ele>76.06</ele>
        <time>2012-10-07T06:29:03Z</time>
      </trkpt>
      <trkpt lat="43.25798" lon="6.49742">
        <ele>74.268</ele>
        <time>2012-10-07T06:29:08Z</time>
      </trkpt>
      <trkpt lat="43.25803" lon="6.49736">
        <ele>73.818</ele>
        <time>2012-10-07T06:29:09Z</time>
      </trkpt>
      <trkpt lat="43.25815" lon="6.49728">
        <ele>73.148</ele>
        <time>2012-10-07T06:29:11Z</time>
      </trkpt>
      <trkpt lat="43.25844" lon="6.49705">
        <ele>73.831</ele>
        <time>2012-10-07T06:29:17Z</time>
      </trkpt>
      <trkpt lat="43.25866" lon="6.49691">
        <ele>75.701</ele>
        <time>2012-10-07T06:29:23Z</time>
      </trkpt>
      <trkpt lat="43.25888" lon="6.49686">
        <ele>77.562</ele>
        <time>2012-10-07T06:29:29Z</time>
      </trkpt>
      <trkpt lat="43.2591" lon="6.49665">
        <ele>78.892</ele>
        <time>2012-10-07T06:29:36Z</time>
      </trkpt>
      <trkpt lat="43.25928" lon="6.49655">
        <ele>79.472</ele>
        <time>2012-10-07T06:29:41Z</time>
      </trkpt>
      <trkpt lat="43.25945" lon="6.49643">
        <ele>78.329</ele>
        <time>2012-10-07T06:29:46Z</time>
      </trkpt>
      <trkpt lat="43.25949" lon="6.4964">
        <ele>77.949</ele>
        <time>2012-10-07T06:29:47Z</time>
      </trkpt>
      <trkpt lat="43.25967" lon="6.49632">
        <ele>76.919</ele>
        <time>2012-10-07T06:29:51Z</time>
      </trkpt>
      <trkpt lat="43.26" lon="6.49624">
        <ele>77.2</ele>
        <time>2012-10-07T06:29:59Z</time>
      </trkpt>
      <trkpt lat="43.26004" lon="6.49623">
        <ele>77.24</ele>
        <time>2012-10-07T06:30:00Z</time>
      </trkpt>
      <trkpt lat="43.2602" lon="6.49616">
        <ele>77.441</ele>
        <time>2012-10-07T06:30:04Z</time>
      </trkpt>
      <trkpt lat="43.26037" lon="6.49603">
        <ele>78.141</ele>
        <time>2012-10-07T06:30:09Z</time>
      </trkpt>
      <trkpt lat="43.26061" lon="6.49604">
        <ele>77.45</ele>
        <time>2012-10-07T06:30:14Z</time>
      </trkpt>
      <trkpt lat="43.26075" lon="6.49618">
        <ele>77.881</ele>
        <time>2012-10-07T06:30:18Z</time>
      </trkpt>
      <trkpt lat="43.26086" lon="6.4962">
        <ele>78.801</ele>
        <time>2012-10-07T06:30:21Z</time>
      </trkpt>
      <trkpt lat="43.26097" lon="6.49615">
        <ele>79.2</ele>
        <time>2012-10-07T06:30:25Z</time>
      </trkpt>
      <trkpt lat="43.261" lon="6.49614">
        <ele>78.79</ele>
        <time>2012-10-07T06:30:26Z</time>
      </trkpt>
      <trkpt lat="43.26104" lon="6.49613">
        <ele>79.211</ele>
        <time>2012-10-07T06:30:28Z</time>
      </trkpt>
      <trkpt lat="43.26111" lon="6.49623">
        <ele>79.831</ele>
        <time>2012-10-07T06:30:33Z</time>
      </trkpt>
      <trkpt lat="43.26112" lon="6.49626">
        <ele>80.142</ele>
        <time>2012-10-07T06:30:34Z</time>
      </trkpt>
      <trkpt lat="43.26118" lon="6.49647">
        <ele>81.972</ele>
        <time>2012-10-07T06:30:41Z</time>
      </trkpt>
      <trkpt lat="43.26127" lon="6.49662">
        <ele>83.903</ele>
        <time>2012-10-07T06:30:46Z</time>
      </trkpt>
      <trkpt lat="43.26141" lon="6.49671">
        <ele>86.072</ele>
        <time>2012-10-07T06:30:52Z</time>
      </trkpt>
      <trkpt lat="43.26156" lon="6.49675">
        <ele>88.722</ele>
        <time>2012-10-07T06:30:59Z</time>
      </trkpt>
      <trkpt lat="43.26173" lon="6.4968">
        <ele>89.913</ele>
        <time>2012-10-07T06:31:05Z</time>
      </trkpt>
      <trkpt lat="43.26195" lon="6.49692">
        <ele>90.242</ele>
        <time>2012-10-07T06:31:12Z</time>
      </trkpt>
      <trkpt lat="43.2621" lon="6.49712">
        <ele>89.221</ele>
        <time>2012-10-07T06:31:18Z</time>
      </trkpt>
      <trkpt lat="43.26217" lon="6.49731">
        <ele>88.7</ele>
        <time>2012-10-07T06:31:23Z</time>
      </trkpt>
      <trkpt lat="43.26219" lon="6.49747">
        <ele>88.821</ele>
        <time>2012-10-07T06:31:27Z</time>
      </trkpt>
      <trkpt lat="43.26225" lon="6.49769">
        <ele>89.721</ele>
        <time>2012-10-07T06:31:33Z</time>
      </trkpt>
      <trkpt lat="43.26233" lon="6.49802">
        <ele>89.552</ele>
        <time>2012-10-07T06:31:42Z</time>
      </trkpt>
      <trkpt lat="43.26242" lon="6.49837">
        <ele>92.162</ele>
        <time>2012-10-07T06:31:50Z</time>
      </trkpt>
      <trkpt lat="43.26243" lon="6.4984">
        <ele>92.833</ele>
        <time>2012-10-07T06:31:51Z</time>
      </trkpt>
      <trkpt lat="43.26253" lon="6.49845">
        <ele>94.003</ele>
        <time>2012-10-07T06:31:55Z</time>
      </trkpt>
      <trkpt lat="43.26259" lon="6.49844">
        <ele>94.112</ele>
        <time>2012-10-07T06:31:57Z</time>
      </trkpt>
      <trkpt lat="43.26278" lon="6.49838">
        <ele>93.482</ele>
        <time>2012-10-07T06:32:03Z</time>
      </trkpt>
      <trkpt lat="43.26297" lon="6.49823">
        <ele>92.631</ele>
        <time>2012-10-07T06:32:10Z</time>
      </trkpt>
      <trkpt lat="43.26317" lon="6.49803">
        <ele>88.809</ele>
        <time>2012-10-07T06:32:18Z</time>
      </trkpt>
      <trkpt lat="43.26324" lon="6.498">
        <ele>88.869</ele>
        <time>2012-10-07T06:32:20Z</time>
      </trkpt>
      <trkpt lat="43.26345" lon="6.49785">
        <ele>87.72</ele>
        <time>2012-10-07T06:32:26Z</time>
      </trkpt>
      <trkpt lat="43.2636" lon="6.49776">
        <ele>86.44</ele>
        <time>2012-10-07T06:32:31Z</time>
      </trkpt>
      <trkpt lat="43.26368" lon="6.49773">
        <ele>87.471</ele>
        <time>2012-10-07T06:32:36Z</time>
      </trkpt>
      <trkpt lat="43.26369" lon="6.49772">
        <ele>87.76</ele>
        <time>2012-10-07T06:32:37Z</time>
      </trkpt>
      <trkpt lat="43.26373" lon="6.49774">
        <ele>88.471</ele>
        <time>2012-10-07T06:32:41Z</time>
      </trkpt>
      <trkpt lat="43.26382" lon="6.49779">
        <ele>92.394</ele>
        <time>2012-10-07T06:32:46Z</time>
      </trkpt>
      <trkpt lat="43.26397" lon="6.49784">
        <ele>93.044</ele>
        <time>2012-10-07T06:32:51Z</time>
      </trkpt>
      <trkpt lat="43.26416" lon="6.49793">
        <ele>97.486</ele>
        <time>2012-10-07T06:32:58Z</time>
      </trkpt>
      <trkpt lat="43.26427" lon="6.49794">
        <ele>97.815</ele>
        <time>2012-10-07T06:33:02Z</time>
      </trkpt>
      <trkpt lat="43.26429" lon="6.49802">
        <ele>98.345</ele>
        <time>2012-10-07T06:33:06Z</time>
      </trkpt>
      <trkpt lat="43.2643" lon="6.49817">
        <ele>98.204</ele>
        <time>2012-10-07T06:33:13Z</time>
      </trkpt>
      <trkpt lat="43.26432" lon="6.49822">
        <ele>97.151</ele>
        <time>2012-10-07T06:33:19Z</time>
      </trkpt>
      <trkpt lat="43.26441" lon="6.4983">
        <ele>92.431</ele>
        <time>2012-10-07T06:33:35Z</time>
      </trkpt>
      <trkpt lat="43.26444" lon="6.49836">
        <ele>93.752</ele>
        <time>2012-10-07T06:33:38Z</time>
      </trkpt>
      <trkpt lat="43.26445" lon="6.49839">
        <ele>95.223</ele>
        <time>2012-10-07T06:33:41Z</time>
      </trkpt>
      <trkpt lat="43.26452" lon="6.49841">
        <ele>95.313</ele>
        <time>2012-10-07T06:33:47Z</time>
      </trkpt>
      <trkpt lat="43.26456" lon="6.49845">
        <ele>96.463</ele>
        <time>2012-10-07T06:33:50Z</time>
      </trkpt>
      <trkpt lat="43.26466" lon="6.49848">
        <ele>99.234</ele>
        <time>2012-10-07T06:33:56Z</time>
      </trkpt>
      <trkpt lat="43.26476" lon="6.49855">
        <ele>100.393</ele>
        <time>2012-10-07T06:34:02Z</time>
      </trkpt>
      <trkpt lat="43.26477" lon="6.49856">
        <ele>100.923</ele>
        <time>2012-10-07T06:34:03Z</time>
      </trkpt>
      <trkpt lat="43.26483" lon="6.4986">
        <ele>102.683</ele>
        <time>2012-10-07T06:34:07Z</time>
      </trkpt>
      <trkpt lat="43.26495" lon="6.49871">
        <ele>103.224</ele>
        <time>2012-10-07T06:34:13Z</time>
      </trkpt>
      <trkpt lat="43.26505" lon="6.49883">
        <ele>104.554</ele>
        <time>2012-10-07T06:34:18Z</time>
      </trkpt>
      <trkpt lat="43.26511" lon="6.49893">
        <ele>107.374</ele>
        <time>2012-10-07T06:34:22Z</time>
      </trkpt>
      <trkpt lat="43.26527" lon="6.49899">
        <ele>106.473</ele>
        <time>2012-10-07T06:34:29Z</time>
      </trkpt>
      <trkpt lat="43.26543" lon="6.49903">
        <ele>107.703</ele>
        <time>2012-10-07T06:34:36Z</time>
      </trkpt>
      <trkpt lat="43.26556" lon="6.49902">
        <ele>108.053</ele>
        <time>2012-10-07T06:34:42Z</time>
      </trkpt>
      <trkpt lat="43.26571" lon="6.49899">
        <ele>108.373</ele>
        <time>2012-10-07T06:34:48Z</time>
      </trkpt>
      <trkpt lat="43.26584" lon="6.49902">
        <ele>108.493</ele>
        <time>2012-10-07T06:34:52Z</time>
      </trkpt>
      <trkpt lat="43.26595" lon="6.4991">
        <ele>107.353</ele>
        <time>2012-10-07T06:34:56Z</time>
      </trkpt>
      <trkpt lat="43.26604" lon="6.49912">
        <ele>107.483</ele>
        <time>2012-10-07T06:34:59Z</time>
      </trkpt>
      <trkpt lat="43.26613" lon="6.49904">
        <ele>105.281</ele>
        <time>2012-10-07T06:35:04Z</time>
      </trkpt>
      <trkpt lat="43.26621" lon="6.49905">
        <ele>105.212</ele>
        <time>2012-10-07T06:35:08Z</time>
      </trkpt>
      <trkpt lat="43.26624" lon="6.49908">
        <ele>106.093</ele>
        <time>2012-10-07T06:35:10Z</time>
      </trkpt>
      <trkpt lat="43.26642" lon="6.49907">
        <ele>108.085</ele>
        <time>2012-10-07T06:35:17Z</time>
      </trkpt>
      <trkpt lat="43.26659" lon="6.49913">
        <ele>109.694</ele>
        <time>2012-10-07T06:35:23Z</time>
      </trkpt>
      <trkpt lat="43.26678" lon="6.49918">
        <ele>110.684</ele>
        <time>2012-10-07T06:35:28Z</time>
      </trkpt>
      <trkpt lat="43.26696" lon="6.49914">
        <ele>109.842</ele>
        <time>2012-10-07T06:35:33Z</time>
      </trkpt>
      <trkpt lat="43.26716" lon="6.49911">
        <ele>106.98</ele>
        <time>2012-10-07T06:35:38Z</time>
      </trkpt>
      <trkpt lat="43.26728" lon="6.49901">
        <ele>102.476</ele>
        <time>2012-10-07T06:35:42Z</time>
      </trkpt>
      <trkpt lat="43.26731" lon="6.49894">
        <ele>99.318</ele>
        <time>2012-10-07T06:35:46Z</time>
      </trkpt>
      <trkpt lat="43.26729" lon="6.49884">
        <ele>95.127</ele>
        <time>2012-10-07T06:35:52Z</time>
      </trkpt>
      <trkpt lat="43.26726" lon="6.4987">
        <ele>91.937</ele>
        <time>2012-10-07T06:35:58Z</time>
      </trkpt>
      <trkpt lat="43.26736" lon="6.49862">
        <ele>88.337</ele>
        <time>2012-10-07T06:36:03Z</time>
      </trkpt>
      <trkpt lat="43.26741" lon="6.49861">
        <ele>87.378</ele>
        <time>2012-10-07T06:36:07Z</time>
      </trkpt>
      <trkpt lat="43.26744" lon="6.49847">
        <ele>84.896</ele>
        <time>2012-10-07T06:36:11Z</time>
      </trkpt>
      <trkpt lat="43.26739" lon="6.49834">
        <ele>81.687</ele>
        <time>2012-10-07T06:36:15Z</time>
      </trkpt>
      <trkpt lat="43.26738" lon="6.49823">
        <ele>79.415</ele>
        <time>2012-10-07T06:36:20Z</time>
      </trkpt>
      <trkpt lat="43.26741" lon="6.49819">
        <ele>78.178</ele>
        <time>2012-10-07T06:36:22Z</time>
      </trkpt>
      <trkpt lat="43.26753" lon="6.4981">
        <ele>72.847</ele>
        <time>2012-10-07T06:36:30Z</time>
      </trkpt>
      <trkpt lat="43.26758" lon="6.49796">
        <ele>68.787</ele>
        <time>2012-10-07T06:36:37Z</time>
      </trkpt>
      <trkpt lat="43.26758" lon="6.49789">
        <ele>68.828</ele>
        <time>2012-10-07T06:36:42Z</time>
      </trkpt>
      <trkpt lat="43.26761" lon="6.49775">
        <ele>67.087</ele>
        <time>2012-10-07T06:36:47Z</time>
      </trkpt>
      <trkpt lat="43.26759" lon="6.49768">
        <ele>67.091</ele>
        <time>2012-10-07T06:36:54Z</time>
      </trkpt>
      <trkpt lat="43.26759" lon="6.49764">
        <ele>67.771</ele>
        <time>2012-10-07T06:37:02Z</time>
      </trkpt>
      <trkpt lat="43.26761" lon="6.49759">
        <ele>65.91</ele>
        <time>2012-10-07T06:37:10Z</time>
      </trkpt>
      <trkpt lat="43.26761" lon="6.49757">
        <ele>65.681</ele>
        <time>2012-10-07T06:37:19Z</time>
      </trkpt>
      <trkpt lat="43.26761" lon="6.49747">
        <ele>64.55</ele>
        <time>2012-10-07T06:37:25Z</time>
      </trkpt>
      <trkpt lat="43.2676" lon="6.49738">
        <ele>62.799</ele>
        <time>2012-10-07T06:37:27Z</time>
      </trkpt>
      <trkpt lat="43.26756" lon="6.49716">
        <ele>60.208</ele>
        <time>2012-10-07T06:37:32Z</time>
      </trkpt>
      <trkpt lat="43.26758" lon="6.49698">
        <ele>57.078</ele>
        <time>2012-10-07T06:37:36Z</time>
      </trkpt>
      <trkpt lat="43.26762" lon="6.49689">
        <ele>55.257</ele>
        <time>2012-10-07T06:37:38Z</time>
      </trkpt>
      <trkpt lat="43.26755" lon="6.49677">
        <ele>52.308</ele>
        <time>2012-10-07T06:37:42Z</time>
      </trkpt>
      <trkpt lat="43.26745" lon="6.4967">
        <ele>50.947</ele>
        <time>2012-10-07T06:37:44Z</time>
      </trkpt>
      <trkpt lat="43.26732" lon="6.49674">
        <ele>49.398</ele>
        <time>2012-10-07T06:37:47Z</time>
      </trkpt>
      <trkpt lat="43.26729" lon="6.49679">
        <ele>49.518</ele>
        <time>2012-10-07T06:37:48Z</time>
      </trkpt>
      <trkpt lat="43.26717" lon="6.49685">
        <ele>50.58</ele>
        <time>2012-10-07T06:37:52Z</time>
      </trkpt>
      <trkpt lat="43.26703" lon="6.49676">
        <ele>51.19</ele>
        <time>2012-10-07T06:37:57Z</time>
      </trkpt>
      <trkpt lat="43.26684" lon="6.49667">
        <ele>50.09</ele>
        <time>2012-10-07T06:38:01Z</time>
      </trkpt>
      <trkpt lat="43.26662" lon="6.49666">
        <ele>50.51</ele>
        <time>2012-10-07T06:38:05Z</time>
      </trkpt>
      <trkpt lat="43.26641" lon="6.49653">
        <ele>52.551</ele>
        <time>2012-10-07T06:38:09Z</time>
      </trkpt>
      <trkpt lat="43.26638" lon="6.49643">
        <ele>50.52</ele>
        <time>2012-10-07T06:38:12Z</time>
      </trkpt>
      <trkpt lat="43.26645" lon="6.49638">
        <ele>46.728</ele>
        <time>2012-10-07T06:38:15Z</time>
      </trkpt>
      <trkpt lat="43.26651" lon="6.49635">
        <ele>45.859</ele>
        <time>2012-10-07T06:38:17Z</time>
      </trkpt>
      <trkpt lat="43.26663" lon="6.49631">
        <ele>44.638</ele>
        <time>2012-10-07T06:38:20Z</time>
      </trkpt>
      <trkpt lat="43.26674" lon="6.49625">
        <ele>43.779</ele>
        <time>2012-10-07T06:38:22Z</time>
      </trkpt>
      <trkpt lat="43.26688" lon="6.49619">
        <ele>41.748</ele>
        <time>2012-10-07T06:38:24Z</time>
      </trkpt>
      <trkpt lat="43.26721" lon="6.49597">
        <ele>38.868</ele>
        <time>2012-10-07T06:38:29Z</time>
      </trkpt>
      <trkpt lat="43.26746" lon="6.49581">
        <ele>38.281</ele>
        <time>2012-10-07T06:38:33Z</time>
      </trkpt>
      <trkpt lat="43.26769" lon="6.49565">
        <ele>40.833</ele>
        <time>2012-10-07T06:38:37Z</time>
      </trkpt>
      <trkpt lat="43.26788" lon="6.49557">
        <ele>41.714</ele>
        <time>2012-10-07T06:38:40Z</time>
      </trkpt>
      <trkpt lat="43.26799" lon="6.49555">
        <ele>43.214</ele>
        <time>2012-10-07T06:38:42Z</time>
      </trkpt>
      <trkpt lat="43.26823" lon="6.4955">
        <ele>44.024</ele>
        <time>2012-10-07T06:38:47Z</time>
      </trkpt>
      <trkpt lat="43.26841" lon="6.49541">
        <ele>44.844</ele>
        <time>2012-10-07T06:38:51Z</time>
      </trkpt>
      <trkpt lat="43.26875" lon="6.49514">
        <ele>43.321</ele>
        <time>2012-10-07T06:38:58Z</time>
      </trkpt>
      <trkpt lat="43.26897" lon="6.49507">
        <ele>43.032</ele>
        <time>2012-10-07T06:39:02Z</time>
      </trkpt>
      <trkpt lat="43.26908" lon="6.49509">
        <ele>42.832</ele>
        <time>2012-10-07T06:39:04Z</time>
      </trkpt>
      <trkpt lat="43.26925" lon="6.4951">
        <ele>42.381</ele>
        <time>2012-10-07T06:39:07Z</time>
      </trkpt>
      <trkpt lat="43.26933" lon="6.49512">
        <ele>41.931</ele>
        <time>2012-10-07T06:39:09Z</time>
      </trkpt>
      <trkpt lat="43.26936" lon="6.49506">
        <ele>41.601</ele>
        <time>2012-10-07T06:39:13Z</time>
      </trkpt>
      <trkpt lat="43.26949" lon="6.49495">
        <ele>40.36</ele>
        <time>2012-10-07T06:39:18Z</time>
      </trkpt>
      <trkpt lat="43.26951" lon="6.49483">
        <ele>39.711</ele>
        <time>2012-10-07T06:39:22Z</time>
      </trkpt>
      <trkpt lat="43.26955" lon="6.49466">
        <ele>38.76</ele>
        <time>2012-10-07T06:39:26Z</time>
      </trkpt>
      <trkpt lat="43.2696" lon="6.4945">
        <ele>38.621</ele>
        <time>2012-10-07T06:39:29Z</time>
      </trkpt>
      <trkpt lat="43.26968" lon="6.49431">
        <ele>37.6</ele>
        <time>2012-10-07T06:39:32Z</time>
      </trkpt>
      <trkpt lat="43.26972" lon="6.49418">
        <ele>37.01</ele>
        <time>2012-10-07T06:39:34Z</time>
      </trkpt>
      <trkpt lat="43.26974" lon="6.49378">
        <ele>36.481</ele>
        <time>2012-10-07T06:39:39Z</time>
      </trkpt>
      <trkpt lat="43.26969" lon="6.49326">
        <ele>36.912</ele>
        <time>2012-10-07T06:39:45Z</time>
      </trkpt>
      <trkpt lat="43.26974" lon="6.49295">
        <ele>36.24</ele>
        <time>2012-10-07T06:39:49Z</time>
      </trkpt>
      <trkpt lat="43.26989" lon="6.49275">
        <ele>36.781</ele>
        <time>2012-10-07T06:39:53Z</time>
      </trkpt>
      <trkpt lat="43.26994" lon="6.49273">
        <ele>36.471</ele>
        <time>2012-10-07T06:39:54Z</time>
      </trkpt>
      <trkpt lat="43.27014" lon="6.49262">
        <ele>36.481</ele>
        <time>2012-10-07T06:39:58Z</time>
      </trkpt>
      <trkpt lat="43.27031" lon="6.49244">
        <ele>36.962</ele>
        <time>2012-10-07T06:40:02Z</time>
      </trkpt>
      <trkpt lat="43.2705" lon="6.49211">
        <ele>35.94</ele>
        <time>2012-10-07T06:40:08Z</time>
      </trkpt>
      <trkpt lat="43.27076" lon="6.49184">
        <ele>32.286</ele>
        <time>2012-10-07T06:40:13Z</time>
      </trkpt>
      <trkpt lat="43.27124" lon="6.49144">
        <ele>28.618</ele>
        <time>2012-10-07T06:40:20Z</time>
      </trkpt>
      <trkpt lat="43.27156" lon="6.49119">
        <ele>27.46</ele>
        <time>2012-10-07T06:40:25Z</time>
      </trkpt>
      <trkpt lat="43.27172" lon="6.49109">
        <ele>27.341</ele>
        <time>2012-10-07T06:40:29Z</time>
      </trkpt>
      <trkpt lat="43.27177" lon="6.49097">
        <ele>27.07</ele>
        <time>2012-10-07T06:40:32Z</time>
      </trkpt>
      <trkpt lat="43.27178" lon="6.49086">
        <ele>26.791</ele>
        <time>2012-10-07T06:40:34Z</time>
      </trkpt>
      <trkpt lat="43.2718" lon="6.49068">
        <ele>26.421</ele>
        <time>2012-10-07T06:40:37Z</time>
      </trkpt>
      <trkpt lat="43.27182" lon="6.4903">
        <ele>26.291</ele>
        <time>2012-10-07T06:40:43Z</time>
      </trkpt>
      <trkpt lat="43.27188" lon="6.48979">
        <ele>26.571</ele>
        <time>2012-10-07T06:40:51Z</time>
      </trkpt>
      <trkpt lat="43.27201" lon="6.48944">
        <ele>26.681</ele>
        <time>2012-10-07T06:40:57Z</time>
      </trkpt>
      <trkpt lat="43.27229" lon="6.48883">
        <ele>27.191</ele>
        <time>2012-10-07T06:41:08Z</time>
      </trkpt>
      <trkpt lat="43.27255" lon="6.48828">
        <ele>27.411</ele>
        <time>2012-10-07T06:41:18Z</time>
      </trkpt>
      <trkpt lat="43.27263" lon="6.48811">
        <ele>27.641</ele>
        <time>2012-10-07T06:41:21Z</time>
      </trkpt>
      <trkpt lat="43.27267" lon="6.48779">
        <ele>27.851</ele>
        <time>2012-10-07T06:41:26Z</time>
      </trkpt>
      <trkpt lat="43.27266" lon="6.48772">
        <ele>27.79</ele>
        <time>2012-10-07T06:41:27Z</time>
      </trkpt>
      <trkpt lat="43.27256" lon="6.48705">
        <ele>27.791</ele>
        <time>2012-10-07T06:41:36Z</time>
      </trkpt>
      <trkpt lat="43.27246" lon="6.4864">
        <ele>29.262</ele>
        <time>2012-10-07T06:41:45Z</time>
      </trkpt>
      <trkpt lat="43.27244" lon="6.48633">
        <ele>29.562</ele>
        <time>2012-10-07T06:41:46Z</time>
      </trkpt>
      <trkpt lat="43.27242" lon="6.48611">
        <ele>29.29</ele>
        <time>2012-10-07T06:41:49Z</time>
      </trkpt>
      <trkpt lat="43.27248" lon="6.48581">
        <ele>29.411</ele>
        <time>2012-10-07T06:41:53Z</time>
      </trkpt>
      <trkpt lat="43.27251" lon="6.48567">
        <ele>29.551</ele>
        <time>2012-10-07T06:41:55Z</time>
      </trkpt>
      <trkpt lat="43.27253" lon="6.48538">
        <ele>29.971</ele>
        <time>2012-10-07T06:41:59Z</time>
      </trkpt>
      <trkpt lat="43.2725" lon="6.48512">
        <ele>32.221</ele>
        <time>2012-10-07T06:42:04Z</time>
      </trkpt>
      <trkpt lat="43.27252" lon="6.48497">
        <ele>34.213</ele>
        <time>2012-10-07T06:42:08Z</time>
      </trkpt>
      <trkpt lat="43.27254" lon="6.48478">
        <ele>35.593</ele>
        <time>2012-10-07T06:42:12Z</time>
      </trkpt>
      <trkpt lat="43.27256" lon="6.48461">
        <ele>36.032</ele>
        <time>2012-10-07T06:42:17Z</time>
      </trkpt>
      <trkpt lat="43.27256" lon="6.48442">
        <ele>35.23</ele>
        <time>2012-10-07T06:42:22Z</time>
      </trkpt>
      <trkpt lat="43.27258" lon="6.48438">
        <ele>35.221</ele>
        <time>2012-10-07T06:42:25Z</time>
      </trkpt>
      <trkpt lat="43.27258" lon="6.48432">
        <ele>33.43</ele>
        <time>2012-10-07T06:42:33Z</time>
      </trkpt>
      <trkpt lat="43.27256" lon="6.48418">
        <ele>28.029</ele>
        <time>2012-10-07T06:42:57Z</time>
      </trkpt>
      <trkpt lat="43.27252" lon="6.48407">
        <ele>28.95</ele>
        <time>2012-10-07T06:43:03Z</time>
      </trkpt>
      <trkpt lat="43.27252" lon="6.48407">
        <ele>30.229</ele>
        <time>2012-10-07T06:43:14Z</time>
      </trkpt>
      <trkpt lat="43.27251" lon="6.48396">
        <ele>27.4</ele>
        <time>2012-10-07T06:43:41Z</time>
      </trkpt>
      <trkpt lat="43.27255" lon="6.48387">
        <ele>26.768</ele>
        <time>2012-10-07T06:43:47Z</time>
      </trkpt>
      <trkpt lat="43.27261" lon="6.48377">
        <ele>24.618</ele>
        <time>2012-10-07T06:43:54Z</time>
      </trkpt>
      <trkpt lat="43.27264" lon="6.48374">
        <ele>24.41</ele>
        <time>2012-10-07T06:43:59Z</time>
      </trkpt>
      <trkpt lat="43.27271" lon="6.48369">
        <ele>25.149</ele>
        <time>2012-10-07T06:44:06Z</time>
      </trkpt>
      <trkpt lat="43.27274" lon="6.48365">
        <ele>25.439</ele>
        <time>2012-10-07T06:44:11Z</time>
      </trkpt>
      <trkpt lat="43.27278" lon="6.48349">
        <ele>26.021</ele>
        <time>2012-10-07T06:44:17Z</time>
      </trkpt>
      <trkpt lat="43.27271" lon="6.48331">
        <ele>26.691</ele>
        <time>2012-10-07T06:44:22Z</time>
      </trkpt>
      <trkpt lat="43.27259" lon="6.48301">
        <ele>26.15</ele>
        <time>2012-10-07T06:44:30Z</time>
      </trkpt>
      <trkpt lat="43.27249" lon="6.48267">
        <ele>26.809</ele>
        <time>2012-10-07T06:44:38Z</time>
      </trkpt>
      <trkpt lat="43.27235" lon="6.48225">
        <ele>26.159</ele>
        <time>2012-10-07T06:44:47Z</time>
      </trkpt>
      <trkpt lat="43.27217" lon="6.48186">
        <ele>27.029</ele>
        <time>2012-10-07T06:44:55Z</time>
      </trkpt>
      <trkpt lat="43.27205" lon="6.48145">
        <ele>27.769</ele>
        <time>2012-10-07T06:45:02Z</time>
      </trkpt>
      <trkpt lat="43.27203" lon="6.48133">
        <ele>27.719</ele>
        <time>2012-10-07T06:45:04Z</time>
      </trkpt>
      <trkpt lat="43.27199" lon="6.48107">
        <ele>27.378</ele>
        <time>2012-10-07T06:45:08Z</time>
      </trkpt>
      <trkpt lat="43.27198" lon="6.48087">
        <ele>27.199</ele>
        <time>2012-10-07T06:45:12Z</time>
      </trkpt>
      <trkpt lat="43.27201" lon="6.48085">
        <ele>27.48</ele>
        <time>2012-10-07T06:45:13Z</time>
      </trkpt>
      <trkpt lat="43.27221" lon="6.48074">
        <ele>28.23</ele>
        <time>2012-10-07T06:45:19Z</time>
      </trkpt>
      <trkpt lat="43.27246" lon="6.48058">
        <ele>28.709</ele>
        <time>2012-10-07T06:45:26Z</time>
      </trkpt>
      <trkpt lat="43.27265" lon="6.48047">
        <ele>29.279</ele>
        <time>2012-10-07T06:45:32Z</time>
      </trkpt>
      <trkpt lat="43.27286" lon="6.48045">
        <ele>31.01</ele>
        <time>2012-10-07T06:45:38Z</time>
      </trkpt>
      <trkpt lat="43.27312" lon="6.48037">
        <ele>33.751</ele>
        <time>2012-10-07T06:45:45Z</time>
      </trkpt>
      <trkpt lat="43.27342" lon="6.48032">
        <ele>35.901</ele>
        <time>2012-10-07T06:45:52Z</time>
      </trkpt>
      <trkpt lat="43.27365" lon="6.48036">
        <ele>36.859</ele>
        <time>2012-10-07T06:45:58Z</time>
      </trkpt>
      <trkpt lat="43.27386" lon="6.48053">
        <ele>37.72</ele>
        <time>2012-10-07T06:46:05Z</time>
      </trkpt>
      <trkpt lat="43.27389" lon="6.48054">
        <ele>37.91</ele>
        <time>2012-10-07T06:46:06Z</time>
      </trkpt>
      <trkpt lat="43.27396" lon="6.48044">
        <ele>38.219</ele>
        <time>2012-10-07T06:46:10Z</time>
      </trkpt>
      <trkpt lat="43.27397" lon="6.4804">
        <ele>38.079</ele>
        <time>2012-10-07T06:46:11Z</time>
      </trkpt>
      <trkpt lat="43.27397" lon="6.48009">
        <ele>37.528</ele>
        <time>2012-10-07T06:46:17Z</time>
      </trkpt>
      <trkpt lat="43.27394" lon="6.47991">
        <ele>37.849</ele>
        <time>2012-10-07T06:46:21Z</time>
      </trkpt>
      <trkpt lat="43.27402" lon="6.47983">
        <ele>38.049</ele>
        <time>2012-10-07T06:46:25Z</time>
      </trkpt>
      <trkpt lat="43.27405" lon="6.47984">
        <ele>38.049</ele>
        <time>2012-10-07T06:46:26Z</time>
      </trkpt>
      <trkpt lat="43.2742" lon="6.47985">
        <ele>38.76</ele>
        <time>2012-10-07T06:46:31Z</time>
      </trkpt>
      <trkpt lat="43.27439" lon="6.47976">
        <ele>40.17</ele>
        <time>2012-10-07T06:46:38Z</time>
      </trkpt>
      <trkpt lat="43.27462" lon="6.47966">
        <ele>41.09</ele>
        <time>2012-10-07T06:46:46Z</time>
      </trkpt>
      <trkpt lat="43.27477" lon="6.47968">
        <ele>42.261</ele>
        <time>2012-10-07T06:46:51Z</time>
      </trkpt>
      <trkpt lat="43.27502" lon="6.47972">
        <ele>43.389</ele>
        <time>2012-10-07T06:47:00Z</time>
      </trkpt>
      <trkpt lat="43.27534" lon="6.47972">
        <ele>43.769</ele>
        <time>2012-10-07T06:47:10Z</time>
      </trkpt>
      <trkpt lat="43.27563" lon="6.47969">
        <ele>44.599</ele>
        <time>2012-10-07T06:47:19Z</time>
      </trkpt>
      <trkpt lat="43.2759" lon="6.47968">
        <ele>46.001</ele>
        <time>2012-10-07T06:47:27Z</time>
      </trkpt>
      <trkpt lat="43.27598" lon="6.47962">
        <ele>46.079</ele>
        <time>2012-10-07T06:47:30Z</time>
      </trkpt>
      <trkpt lat="43.27605" lon="6.47959">
        <ele>45.788</ele>
        <time>2012-10-07T06:47:33Z</time>
      </trkpt>
      <trkpt lat="43.27608" lon="6.4794">
        <ele>45.389</ele>
        <time>2012-10-07T06:47:38Z</time>
      </trkpt>
      <trkpt lat="43.27605" lon="6.47933">
        <ele>45.249</ele>
        <time>2012-10-07T06:47:40Z</time>
      </trkpt>
      <trkpt lat="43.27586" lon="6.47903">
        <ele>45.059</ele>
        <time>2012-10-07T06:47:49Z</time>
      </trkpt>
      <trkpt lat="43.27566" lon="6.47875">
        <ele>44.438</ele>
        <time>2012-10-07T06:47:57Z</time>
      </trkpt>
      <trkpt lat="43.27563" lon="6.47871">
        <ele>44.338</ele>
        <time>2012-10-07T06:47:58Z</time>
      </trkpt>
      <trkpt lat="43.27547" lon="6.47862">
        <ele>43.577</ele>
        <time>2012-10-07T06:48:02Z</time>
      </trkpt>
      <trkpt lat="43.27534" lon="6.47871">
        <ele>42.445</ele>
        <time>2012-10-07T06:48:05Z</time>
      </trkpt>
      <trkpt lat="43.27529" lon="6.47875">
        <ele>42.206</ele>
        <time>2012-10-07T06:48:06Z</time>
      </trkpt>
      <trkpt lat="43.27522" lon="6.47885">
        <ele>41.857</ele>
        <time>2012-10-07T06:48:08Z</time>
      </trkpt>
      <trkpt lat="43.27506" lon="6.47884">
        <ele>41.047</ele>
        <time>2012-10-07T06:48:12Z</time>
      </trkpt>
      <trkpt lat="43.27503" lon="6.47879">
        <ele>40.978</ele>
        <time>2012-10-07T06:48:13Z</time>
      </trkpt>
      <trkpt lat="43.27464" lon="6.47828">
        <ele>39.637</ele>
        <time>2012-10-07T06:48:24Z</time>
      </trkpt>
      <trkpt lat="43.2746" lon="6.47823">
        <ele>39.367</ele>
        <time>2012-10-07T06:48:25Z</time>
      </trkpt>
      <trkpt lat="43.27456" lon="6.47802">
        <ele>39.238</ele>
        <time>2012-10-07T06:48:29Z</time>
      </trkpt>
      <trkpt lat="43.27457" lon="6.47797">
        <ele>39.379</ele>
        <time>2012-10-07T06:48:30Z</time>
      </trkpt>
      <trkpt lat="43.27472" lon="6.47757">
        <ele>41.48</ele>
        <time>2012-10-07T06:48:39Z</time>
      </trkpt>
      <trkpt lat="43.27477" lon="6.47735">
        <ele>41.729</ele>
        <time>2012-10-07T06:48:44Z</time>
      </trkpt>
      <trkpt lat="43.27486" lon="6.47713">
        <ele>42.409</ele>
        <time>2012-10-07T06:48:50Z</time>
      </trkpt>
      <trkpt lat="43.27489" lon="6.4769">
        <ele>42.648</ele>
        <time>2012-10-07T06:48:56Z</time>
      </trkpt>
      <trkpt lat="43.27487" lon="6.47682">
        <ele>42.317</ele>
        <time>2012-10-07T06:48:58Z</time>
      </trkpt>
      <trkpt lat="43.27471" lon="6.47677">
        <ele>41.417</ele>
        <time>2012-10-07T06:49:02Z</time>
      </trkpt>
      <trkpt lat="43.27454" lon="6.47667">
        <ele>39.796</ele>
        <time>2012-10-07T06:49:06Z</time>
      </trkpt>
      <trkpt lat="43.27436" lon="6.47645">
        <ele>39.176</ele>
        <time>2012-10-07T06:49:12Z</time>
      </trkpt>
      <trkpt lat="43.27434" lon="6.4764">
        <ele>38.956</ele>
        <time>2012-10-07T06:49:13Z</time>
      </trkpt>
      <trkpt lat="43.27435" lon="6.47602">
        <ele>38.948</ele>
        <time>2012-10-07T06:49:20Z</time>
      </trkpt>
      <trkpt lat="43.27438" lon="6.47576">
        <ele>39.199</ele>
        <time>2012-10-07T06:49:25Z</time>
      </trkpt>
      <trkpt lat="43.27445" lon="6.47538">
        <ele>39.889</ele>
        <time>2012-10-07T06:49:33Z</time>
      </trkpt>
      <trkpt lat="43.27452" lon="6.47515">
        <ele>40.349</ele>
        <time>2012-10-07T06:49:38Z</time>
      </trkpt>
      <trkpt lat="43.27462" lon="6.47492">
        <ele>41.069</ele>
        <time>2012-10-07T06:49:44Z</time>
      </trkpt>
      <trkpt lat="43.27476" lon="6.47459">
        <ele>42.389</ele>
        <time>2012-10-07T06:49:53Z</time>
      </trkpt>
      <trkpt lat="43.27478" lon="6.47456">
        <ele>42.669</ele>
        <time>2012-10-07T06:49:54Z</time>
      </trkpt>
      <trkpt lat="43.27492" lon="6.47458">
        <ele>44.279</ele>
        <time>2012-10-07T06:49:59Z</time>
      </trkpt>
      <trkpt lat="43.275" lon="6.47452">
        <ele>45.119</ele>
        <time>2012-10-07T06:50:03Z</time>
      </trkpt>
      <trkpt lat="43.27501" lon="6.47433">
        <ele>45.718</ele>
        <time>2012-10-07T06:50:08Z</time>
      </trkpt>
      <trkpt lat="43.27514" lon="6.47399">
        <ele>46.628</ele>
        <time>2012-10-07T06:50:18Z</time>
      </trkpt>
      <trkpt lat="43.27522" lon="6.47391">
        <ele>47.208</ele>
        <time>2012-10-07T06:50:23Z</time>
      </trkpt>
      <trkpt lat="43.27531" lon="6.47381">
        <ele>47.478</ele>
        <time>2012-10-07T06:50:28Z</time>
      </trkpt>
      <trkpt lat="43.27532" lon="6.4738">
        <ele>47.668</ele>
        <time>2012-10-07T06:50:29Z</time>
      </trkpt>
      <trkpt lat="43.27538" lon="6.4737">
        <ele>48.018</ele>
        <time>2012-10-07T06:50:34Z</time>
      </trkpt>
      <trkpt lat="43.27547" lon="6.47364">
        <ele>48.779</ele>
        <time>2012-10-07T06:50:37Z</time>
      </trkpt>
      <trkpt lat="43.27564" lon="6.47365">
        <ele>49.178</ele>
        <time>2012-10-07T06:50:42Z</time>
      </trkpt>
      <trkpt lat="43.27577" lon="6.47369">
        <ele>54.651</ele>
        <time>2012-10-07T06:50:49Z</time>
      </trkpt>
      <trkpt lat="43.27589" lon="6.4738">
        <ele>55.909</ele>
        <time>2012-10-07T06:50:56Z</time>
      </trkpt>
      <trkpt lat="43.27603" lon="6.47386">
        <ele>55.758</ele>
        <time>2012-10-07T06:51:02Z</time>
      </trkpt>
      <trkpt lat="43.27632" lon="6.47384">
        <ele>54.506</ele>
        <time>2012-10-07T06:51:12Z</time>
      </trkpt>
      <trkpt lat="43.27657" lon="6.47378">
        <ele>52.095</ele>
        <time>2012-10-07T06:51:20Z</time>
      </trkpt>
      <trkpt lat="43.27673" lon="6.47361">
        <ele>51.616</ele>
        <time>2012-10-07T06:51:27Z</time>
      </trkpt>
      <trkpt lat="43.27682" lon="6.47343">
        <ele>51.468</ele>
        <time>2012-10-07T06:51:33Z</time>
      </trkpt>
      <trkpt lat="43.27697" lon="6.4733">
        <ele>53.099</ele>
        <time>2012-10-07T06:51:40Z</time>
      </trkpt>
      <trkpt lat="43.27707" lon="6.47322">
        <ele>53.578</ele>
        <time>2012-10-07T06:51:44Z</time>
      </trkpt>
      <trkpt lat="43.27713" lon="6.47307">
        <ele>53.408</ele>
        <time>2012-10-07T06:51:47Z</time>
      </trkpt>
      <trkpt lat="43.27724" lon="6.47279">
        <ele>52.276</ele>
        <time>2012-10-07T06:51:52Z</time>
      </trkpt>
      <trkpt lat="43.27732" lon="6.47259">
        <ele>52.768</ele>
        <time>2012-10-07T06:51:57Z</time>
      </trkpt>
      <trkpt lat="43.27733" lon="6.47257">
        <ele>52.848</ele>
        <time>2012-10-07T06:51:58Z</time>
      </trkpt>
      <trkpt lat="43.27735" lon="6.47241">
        <ele>50.205</ele>
        <time>2012-10-07T06:52:04Z</time>
      </trkpt>
      <trkpt lat="43.27736" lon="6.47239">
        <ele>50.456</ele>
        <time>2012-10-07T06:52:05Z</time>
      </trkpt>
      <trkpt lat="43.27733" lon="6.47227">
        <ele>49.216</ele>
        <time>2012-10-07T06:52:10Z</time>
      </trkpt>
      <trkpt lat="43.27722" lon="6.47213">
        <ele>53.018</ele>
        <time>2012-10-07T06:52:16Z</time>
      </trkpt>
      <trkpt lat="43.27715" lon="6.47195">
        <ele>57.19</ele>
        <time>2012-10-07T06:52:23Z</time>
      </trkpt>
      <trkpt lat="43.27709" lon="6.47182">
        <ele>57.579</ele>
        <time>2012-10-07T06:52:28Z</time>
      </trkpt>
      <trkpt lat="43.27709" lon="6.4716">
        <ele>54.797</ele>
        <time>2012-10-07T06:52:34Z</time>
      </trkpt>
      <trkpt lat="43.27712" lon="6.47133">
        <ele>54.937</ele>
        <time>2012-10-07T06:52:40Z</time>
      </trkpt>
      <trkpt lat="43.27718" lon="6.47103">
        <ele>55.298</ele>
        <time>2012-10-07T06:52:46Z</time>
      </trkpt>
      <trkpt lat="43.27723" lon="6.47069">
        <ele>57.139</ele>
        <time>2012-10-07T06:52:53Z</time>
      </trkpt>
      <trkpt lat="43.27723" lon="6.47041">
        <ele>57.547</ele>
        <time>2012-10-07T06:53:00Z</time>
      </trkpt>
      <trkpt lat="43.27725" lon="6.47019">
        <ele>57.418</ele>
        <time>2012-10-07T06:53:06Z</time>
      </trkpt>
      <trkpt lat="43.27719" lon="6.47005">
        <ele>59.138</ele>
        <time>2012-10-07T06:53:12Z</time>
      </trkpt>
      <trkpt lat="43.27708" lon="6.46991">
        <ele>62</ele>
        <time>2012-10-07T06:53:20Z</time>
      </trkpt>
      <trkpt lat="43.27695" lon="6.46977">
        <ele>64.699</ele>
        <time>2012-10-07T06:53:29Z</time>
      </trkpt>
      <trkpt lat="43.27682" lon="6.46968">
        <ele>66.648</ele>
        <time>2012-10-07T06:53:37Z</time>
      </trkpt>
      <trkpt lat="43.27668" lon="6.46965">
        <ele>68.848</ele>
        <time>2012-10-07T06:53:46Z</time>
      </trkpt>
      <trkpt lat="43.27652" lon="6.46965">
        <ele>71.298</ele>
        <time>2012-10-07T06:53:55Z</time>
      </trkpt>
      <trkpt lat="43.27636" lon="6.46965">
        <ele>72.598</ele>
        <time>2012-10-07T06:54:03Z</time>
      </trkpt>
      <trkpt lat="43.27622" lon="6.46962">
        <ele>74.408</ele>
        <time>2012-10-07T06:54:11Z</time>
      </trkpt>
      <trkpt lat="43.27606" lon="6.46959">
        <ele>76.86</ele>
        <time>2012-10-07T06:54:20Z</time>
      </trkpt>
      <trkpt lat="43.27593" lon="6.46954">
        <ele>79.248</ele>
        <time>2012-10-07T06:54:28Z</time>
      </trkpt>
      <trkpt lat="43.27579" lon="6.46949">
        <ele>80.918</ele>
        <time>2012-10-07T06:54:36Z</time>
      </trkpt>
      <trkpt lat="43.27566" lon="6.46944">
        <ele>81.608</ele>
        <time>2012-10-07T06:54:43Z</time>
      </trkpt>
      <trkpt lat="43.27553" lon="6.46941">
        <ele>82.147</ele>
        <time>2012-10-07T06:54:50Z</time>
      </trkpt>
      <trkpt lat="43.27538" lon="6.46939">
        <ele>83.117</ele>
        <time>2012-10-07T06:54:58Z</time>
      </trkpt>
      <trkpt lat="43.27521" lon="6.46937">
        <ele>83.947</ele>
        <time>2012-10-07T06:55:08Z</time>
      </trkpt>
      <trkpt lat="43.27504" lon="6.46935">
        <ele>86.228</ele>
        <time>2012-10-07T06:55:18Z</time>
      </trkpt>
      <trkpt lat="43.27492" lon="6.46938">
        <ele>89.119</ele>
        <time>2012-10-07T06:55:26Z</time>
      </trkpt>
      <trkpt lat="43.27477" lon="6.4694">
        <ele>91.508</ele>
        <time>2012-10-07T06:55:35Z</time>
      </trkpt>
      <trkpt lat="43.27464" lon="6.46941">
        <ele>94.077</ele>
        <time>2012-10-07T06:55:43Z</time>
      </trkpt>
      <trkpt lat="43.27453" lon="6.46942">
        <ele>96.249</ele>
        <time>2012-10-07T06:55:50Z</time>
      </trkpt>
      <trkpt lat="43.2744" lon="6.46944">
        <ele>99.548</ele>
        <time>2012-10-07T06:55:59Z</time>
      </trkpt>
      <trkpt lat="43.27427" lon="6.46944">
        <ele>101.318</ele>
        <time>2012-10-07T06:56:08Z</time>
      </trkpt>
      <trkpt lat="43.27416" lon="6.46942">
        <ele>103.548</ele>
        <time>2012-10-07T06:56:16Z</time>
      </trkpt>
      <trkpt lat="43.27403" lon="6.46939">
        <ele>106.469</ele>
        <time>2012-10-07T06:56:25Z</time>
      </trkpt>
      <trkpt lat="43.27394" lon="6.46939">
        <ele>108.369</ele>
        <time>2012-10-07T06:56:31Z</time>
      </trkpt>
      <trkpt lat="43.27385" lon="6.46943">
        <ele>109.377</ele>
        <time>2012-10-07T06:56:37Z</time>
      </trkpt>
      <trkpt lat="43.27383" lon="6.46933">
        <ele>109.536</ele>
        <time>2012-10-07T06:56:42Z</time>
      </trkpt>
      <trkpt lat="43.27392" lon="6.46907">
        <ele>110.928</ele>
        <time>2012-10-07T06:56:53Z</time>
      </trkpt>
      <trkpt lat="43.27397" lon="6.46889">
        <ele>113.848</ele>
        <time>2012-10-07T06:57:02Z</time>
      </trkpt>
      <trkpt lat="43.27407" lon="6.46879">
        <ele>115.838</ele>
        <time>2012-10-07T06:57:10Z</time>
      </trkpt>
      <trkpt lat="43.27417" lon="6.46872">
        <ele>116.788</ele>
        <time>2012-10-07T06:57:17Z</time>
      </trkpt>
      <trkpt lat="43.27429" lon="6.46868">
        <ele>118.257</ele>
        <time>2012-10-07T06:57:25Z</time>
      </trkpt>
      <trkpt lat="43.27434" lon="6.46858">
        <ele>119.918</ele>
        <time>2012-10-07T06:57:31Z</time>
      </trkpt>
      <trkpt lat="43.27428" lon="6.46852">
        <ele>120.657</ele>
        <time>2012-10-07T06:57:36Z</time>
      </trkpt>
      <trkpt lat="43.2741" lon="6.46857">
        <ele>122.837</ele>
        <time>2012-10-07T06:57:46Z</time>
      </trkpt>
      <trkpt lat="43.27399" lon="6.46851">
        <ele>124.138</ele>
        <time>2012-10-07T06:57:53Z</time>
      </trkpt>
      <trkpt lat="43.27387" lon="6.46833">
        <ele>124.917</ele>
        <time>2012-10-07T06:58:02Z</time>
      </trkpt>
      <trkpt lat="43.27377" lon="6.46816">
        <ele>126.867</ele>
        <time>2012-10-07T06:58:11Z</time>
      </trkpt>
      <trkpt lat="43.27366" lon="6.46803">
        <ele>128.157</ele>
        <time>2012-10-07T06:58:19Z</time>
      </trkpt>
      <trkpt lat="43.27357" lon="6.46785">
        <ele>129.727</ele>
        <time>2012-10-07T06:58:29Z</time>
      </trkpt>
      <trkpt lat="43.27351" lon="6.46765">
        <ele>130.767</ele>
        <time>2012-10-07T06:58:39Z</time>
      </trkpt>
      <trkpt lat="43.27358" lon="6.46755">
        <ele>132.147</ele>
        <time>2012-10-07T06:58:45Z</time>
      </trkpt>
      <trkpt lat="43.2737" lon="6.46751">
        <ele>134.629</ele>
        <time>2012-10-07T06:58:52Z</time>
      </trkpt>
      <trkpt lat="43.27385" lon="6.46754">
        <ele>137.128</ele>
        <time>2012-10-07T06:59:00Z</time>
      </trkpt>
      <trkpt lat="43.274" lon="6.46758">
        <ele>139.637</ele>
        <time>2012-10-07T06:59:09Z</time>
      </trkpt>
      <trkpt lat="43.27413" lon="6.46753">
        <ele>141.917</ele>
        <time>2012-10-07T06:59:18Z</time>
      </trkpt>
      <trkpt lat="43.27426" lon="6.46741">
        <ele>143.417</ele>
        <time>2012-10-07T06:59:28Z</time>
      </trkpt>
      <trkpt lat="43.27431" lon="6.46729">
        <ele>145.048</ele>
        <time>2012-10-07T06:59:35Z</time>
      </trkpt>
      <trkpt lat="43.27431" lon="6.46727">
        <ele>145.237</ele>
        <time>2012-10-07T06:59:36Z</time>
      </trkpt>
      <trkpt lat="43.27422" lon="6.46715">
        <ele>147.687</ele>
        <time>2012-10-07T06:59:45Z</time>
      </trkpt>
      <trkpt lat="43.27413" lon="6.46696">
        <ele>149.908</ele>
        <time>2012-10-07T06:59:56Z</time>
      </trkpt>
      <trkpt lat="43.2741" lon="6.46678">
        <ele>152.537</ele>
        <time>2012-10-07T07:00:06Z</time>
      </trkpt>
      <trkpt lat="43.27408" lon="6.46659">
        <ele>155.548</ele>
        <time>2012-10-07T07:00:16Z</time>
      </trkpt>
      <trkpt lat="43.27404" lon="6.46646">
        <ele>157.898</ele>
        <time>2012-10-07T07:00:24Z</time>
      </trkpt>
      <trkpt lat="43.27402" lon="6.46628">
        <ele>160.708</ele>
        <time>2012-10-07T07:00:34Z</time>
      </trkpt>
      <trkpt lat="43.27401" lon="6.46612">
        <ele>163.248</ele>
        <time>2012-10-07T07:00:42Z</time>
      </trkpt>
      <trkpt lat="43.27402" lon="6.46595">
        <ele>165.138</ele>
        <time>2012-10-07T07:00:49Z</time>
      </trkpt>
      <trkpt lat="43.27403" lon="6.46571">
        <ele>166.567</ele>
        <time>2012-10-07T07:00:59Z</time>
      </trkpt>
      <trkpt lat="43.27407" lon="6.46544">
        <ele>168.717</ele>
        <time>2012-10-07T07:01:12Z</time>
      </trkpt>
      <trkpt lat="43.27412" lon="6.46522">
        <ele>170.457</ele>
        <time>2012-10-07T07:01:22Z</time>
      </trkpt>
      <trkpt lat="43.27419" lon="6.46505">
        <ele>172.738</ele>
        <time>2012-10-07T07:01:31Z</time>
      </trkpt>
      <trkpt lat="43.27433" lon="6.46494">
        <ele>174.217</ele>
        <time>2012-10-07T07:01:41Z</time>
      </trkpt>
      <trkpt lat="43.27449" lon="6.46485">
        <ele>176.038</ele>
        <time>2012-10-07T07:01:51Z</time>
      </trkpt>
      <trkpt lat="43.27461" lon="6.46477">
        <ele>177.148</ele>
        <time>2012-10-07T07:01:58Z</time>
      </trkpt>
      <trkpt lat="43.27476" lon="6.46468">
        <ele>177.256</ele>
        <time>2012-10-07T07:02:06Z</time>
      </trkpt>
      <trkpt lat="43.27487" lon="6.46456">
        <ele>179.007</ele>
        <time>2012-10-07T07:02:14Z</time>
      </trkpt>
      <trkpt lat="43.27495" lon="6.46435">
        <ele>180.507</ele>
        <time>2012-10-07T07:02:24Z</time>
      </trkpt>
      <trkpt lat="43.27501" lon="6.46408">
        <ele>182.977</ele>
        <time>2012-10-07T07:02:35Z</time>
      </trkpt>
      <trkpt lat="43.27506" lon="6.46393">
        <ele>184.708</ele>
        <time>2012-10-07T07:02:41Z</time>
      </trkpt>
      <trkpt lat="43.27517" lon="6.46376">
        <ele>186.727</ele>
        <time>2012-10-07T07:02:49Z</time>
      </trkpt>
      <trkpt lat="43.27527" lon="6.46364">
        <ele>188.468</ele>
        <time>2012-10-07T07:02:55Z</time>
      </trkpt>
      <trkpt lat="43.27546" lon="6.46355">
        <ele>190.607</ele>
        <time>2012-10-07T07:03:03Z</time>
      </trkpt>
      <trkpt lat="43.27565" lon="6.46351">
        <ele>191.327</ele>
        <time>2012-10-07T07:03:10Z</time>
      </trkpt>
      <trkpt lat="43.2758" lon="6.46336">
        <ele>192.587</ele>
        <time>2012-10-07T07:03:16Z</time>
      </trkpt>
      <trkpt lat="43.27596" lon="6.46304">
        <ele>197.298</ele>
        <time>2012-10-07T07:03:24Z</time>
      </trkpt>
      <trkpt lat="43.27605" lon="6.46278">
        <ele>200.358</ele>
        <time>2012-10-07T07:03:31Z</time>
      </trkpt>
      <trkpt lat="43.27616" lon="6.46246">
        <ele>203.047</ele>
        <time>2012-10-07T07:03:40Z</time>
      </trkpt>
      <trkpt lat="43.27618" lon="6.46214">
        <ele>205.108</ele>
        <time>2012-10-07T07:03:48Z</time>
      </trkpt>
      <trkpt lat="43.27616" lon="6.46186">
        <ele>206.527</ele>
        <time>2012-10-07T07:03:56Z</time>
      </trkpt>
      <trkpt lat="43.27615" lon="6.46158">
        <ele>206.997</ele>
        <time>2012-10-07T07:04:03Z</time>
      </trkpt>
      <trkpt lat="43.27614" lon="6.46131">
        <ele>207.376</ele>
        <time>2012-10-07T07:04:10Z</time>
      </trkpt>
      <trkpt lat="43.27613" lon="6.4609">
        <ele>207.285</ele>
        <time>2012-10-07T07:04:20Z</time>
      </trkpt>
      <trkpt lat="43.27615" lon="6.46056">
        <ele>207.546</ele>
        <time>2012-10-07T07:04:28Z</time>
      </trkpt>
      <trkpt lat="43.27611" lon="6.46027">
        <ele>208.206</ele>
        <time>2012-10-07T07:04:36Z</time>
      </trkpt>
      <trkpt lat="43.27609" lon="6.46007">
        <ele>209.035</ele>
        <time>2012-10-07T07:04:43Z</time>
      </trkpt>
      <trkpt lat="43.27604" lon="6.45984">
        <ele>210.145</ele>
        <time>2012-10-07T07:04:51Z</time>
      </trkpt>
      <trkpt lat="43.27601" lon="6.4597">
        <ele>211.816</ele>
        <time>2012-10-07T07:04:57Z</time>
      </trkpt>
      <trkpt lat="43.27598" lon="6.45948">
        <ele>214.396</ele>
        <time>2012-10-07T07:05:06Z</time>
      </trkpt>
      <trkpt lat="43.27592" lon="6.45924">
        <ele>217.155</ele>
        <time>2012-10-07T07:05:17Z</time>
      </trkpt>
      <trkpt lat="43.27583" lon="6.459">
        <ele>219.425</ele>
        <time>2012-10-07T07:05:28Z</time>
      </trkpt>
      <trkpt lat="43.27578" lon="6.45877">
        <ele>220.785</ele>
        <time>2012-10-07T07:05:37Z</time>
      </trkpt>
      <trkpt lat="43.27576" lon="6.45852">
        <ele>222.456</ele>
        <time>2012-10-07T07:05:47Z</time>
      </trkpt>
      <trkpt lat="43.27574" lon="6.45833">
        <ele>224.316</ele>
        <time>2012-10-07T07:05:55Z</time>
      </trkpt>
      <trkpt lat="43.2757" lon="6.45806">
        <ele>229.475</ele>
        <time>2012-10-07T07:06:06Z</time>
      </trkpt>
      <trkpt lat="43.27567" lon="6.45789">
        <ele>231.255</ele>
        <time>2012-10-07T07:06:13Z</time>
      </trkpt>
      <trkpt lat="43.27565" lon="6.45762">
        <ele>231.825</ele>
        <time>2012-10-07T07:06:24Z</time>
      </trkpt>
      <trkpt lat="43.27564" lon="6.45733">
        <ele>232.585</ele>
        <time>2012-10-07T07:06:36Z</time>
      </trkpt>
      <trkpt lat="43.27564" lon="6.45718">
        <ele>233.094</ele>
        <time>2012-10-07T07:06:42Z</time>
      </trkpt>
      <trkpt lat="43.27565" lon="6.45696">
        <ele>233.285</ele>
        <time>2012-10-07T07:06:51Z</time>
      </trkpt>
      <trkpt lat="43.27571" lon="6.45675">
        <ele>235.256</ele>
        <time>2012-10-07T07:07:00Z</time>
      </trkpt>
      <trkpt lat="43.27578" lon="6.45657">
        <ele>236.275</ele>
        <time>2012-10-07T07:07:08Z</time>
      </trkpt>
      <trkpt lat="43.27583" lon="6.45637">
        <ele>237.595</ele>
        <time>2012-10-07T07:07:17Z</time>
      </trkpt>
      <trkpt lat="43.27587" lon="6.45613">
        <ele>238.955</ele>
        <time>2012-10-07T07:07:28Z</time>
      </trkpt>
      <trkpt lat="43.27588" lon="6.45589">
        <ele>240.645</ele>
        <time>2012-10-07T07:07:38Z</time>
      </trkpt>
      <trkpt lat="43.2759" lon="6.45567">
        <ele>241.965</ele>
        <time>2012-10-07T07:07:47Z</time>
      </trkpt>
      <trkpt lat="43.27591" lon="6.45549">
        <ele>243.375</ele>
        <time>2012-10-07T07:07:55Z</time>
      </trkpt>
      <trkpt lat="43.27588" lon="6.45528">
        <ele>244.855</ele>
        <time>2012-10-07T07:08:05Z</time>
      </trkpt>
      <trkpt lat="43.27584" lon="6.45511">
        <ele>246.485</ele>
        <time>2012-10-07T07:08:14Z</time>
      </trkpt>
      <trkpt lat="43.2758" lon="6.45488">
        <ele>248.264</ele>
        <time>2012-10-07T07:08:25Z</time>
      </trkpt>
      <trkpt lat="43.27581" lon="6.45473">
        <ele>249.475</ele>
        <time>2012-10-07T07:08:31Z</time>
      </trkpt>
      <trkpt lat="43.27586" lon="6.45455">
        <ele>251.735</ele>
        <time>2012-10-07T07:08:40Z</time>
      </trkpt>
      <trkpt lat="43.2759" lon="6.45436">
        <ele>253.905</ele>
        <time>2012-10-07T07:08:49Z</time>
      </trkpt>
      <trkpt lat="43.27595" lon="6.45415">
        <ele>255.054</ele>
        <time>2012-10-07T07:09:00Z</time>
      </trkpt>
      <trkpt lat="43.27599" lon="6.454">
        <ele>255.884</ele>
        <time>2012-10-07T07:09:08Z</time>
      </trkpt>
      <trkpt lat="43.27607" lon="6.45385">
        <ele>257.324</ele>
        <time>2012-10-07T07:09:16Z</time>
      </trkpt>
      <trkpt lat="43.27617" lon="6.45375">
        <ele>259.605</ele>
        <time>2012-10-07T07:09:24Z</time>
      </trkpt>
      <trkpt lat="43.27625" lon="6.45363">
        <ele>261.684</ele>
        <time>2012-10-07T07:09:31Z</time>
      </trkpt>
      <trkpt lat="43.27629" lon="6.45345">
        <ele>263.924</ele>
        <time>2012-10-07T07:09:41Z</time>
      </trkpt>
      <trkpt lat="43.27631" lon="6.45331">
        <ele>265.314</ele>
        <time>2012-10-07T07:09:48Z</time>
      </trkpt>
      <trkpt lat="43.27635" lon="6.45314">
        <ele>267.084</ele>
        <time>2012-10-07T07:09:57Z</time>
      </trkpt>
      <trkpt lat="43.27639" lon="6.45295">
        <ele>268.504</ele>
        <time>2012-10-07T07:10:07Z</time>
      </trkpt>
      <trkpt lat="43.27642" lon="6.45281">
        <ele>269.164</ele>
        <time>2012-10-07T07:10:14Z</time>
      </trkpt>
      <trkpt lat="43.27646" lon="6.45262">
        <ele>270.924</ele>
        <time>2012-10-07T07:10:24Z</time>
      </trkpt>
      <trkpt lat="43.27652" lon="6.45234">
        <ele>274.454</ele>
        <time>2012-10-07T07:10:38Z</time>
      </trkpt>
      <trkpt lat="43.27656" lon="6.45216">
        <ele>275.294</ele>
        <time>2012-10-07T07:10:45Z</time>
      </trkpt>
      <trkpt lat="43.27661" lon="6.45199">
        <ele>277.085</ele>
        <time>2012-10-07T07:10:53Z</time>
      </trkpt>
      <trkpt lat="43.27667" lon="6.45182">
        <ele>279.495</ele>
        <time>2012-10-07T07:11:01Z</time>
      </trkpt>
      <trkpt lat="43.27675" lon="6.45165">
        <ele>282.005</ele>
        <time>2012-10-07T07:11:09Z</time>
      </trkpt>
      <trkpt lat="43.27685" lon="6.45146">
        <ele>283.204</ele>
        <time>2012-10-07T07:11:17Z</time>
      </trkpt>
      <trkpt lat="43.27693" lon="6.45129">
        <ele>284.234</ele>
        <time>2012-10-07T07:11:24Z</time>
      </trkpt>
      <trkpt lat="43.27705" lon="6.45108">
        <ele>285.043</ele>
        <time>2012-10-07T07:11:35Z</time>
      </trkpt>
      <trkpt lat="43.27712" lon="6.45095">
        <ele>287.014</ele>
        <time>2012-10-07T07:11:42Z</time>
      </trkpt>
      <trkpt lat="43.27722" lon="6.45084">
        <ele>288.224</ele>
        <time>2012-10-07T07:11:50Z</time>
      </trkpt>
      <trkpt lat="43.27735" lon="6.45077">
        <ele>290.054</ele>
        <time>2012-10-07T07:11:58Z</time>
      </trkpt>
      <trkpt lat="43.27745" lon="6.4507">
        <ele>291.023</ele>
        <time>2012-10-07T07:12:05Z</time>
      </trkpt>
      <trkpt lat="43.27755" lon="6.45056">
        <ele>292.253</ele>
        <time>2012-10-07T07:12:14Z</time>
      </trkpt>
      <trkpt lat="43.27761" lon="6.45039">
        <ele>293.413</ele>
        <time>2012-10-07T07:12:23Z</time>
      </trkpt>
      <trkpt lat="43.27762" lon="6.45021">
        <ele>294.223</ele>
        <time>2012-10-07T07:12:31Z</time>
      </trkpt>
      <trkpt lat="43.27763" lon="6.45006">
        <ele>295.464</ele>
        <time>2012-10-07T07:12:38Z</time>
      </trkpt>
      <trkpt lat="43.2777" lon="6.44993">
        <ele>297.554</ele>
        <time>2012-10-07T07:12:45Z</time>
      </trkpt>
      <trkpt lat="43.27783" lon="6.44977">
        <ele>300.023</ele>
        <time>2012-10-07T07:12:55Z</time>
      </trkpt>
      <trkpt lat="43.27794" lon="6.44957">
        <ele>300.153</ele>
        <time>2012-10-07T07:13:05Z</time>
      </trkpt>
      <trkpt lat="43.27805" lon="6.44951">
        <ele>301.054</ele>
        <time>2012-10-07T07:13:11Z</time>
      </trkpt>
      <trkpt lat="43.27818" lon="6.44949">
        <ele>304.505</ele>
        <time>2012-10-07T07:13:18Z</time>
      </trkpt>
      <trkpt lat="43.27832" lon="6.44943">
        <ele>307.625</ele>
        <time>2012-10-07T07:13:26Z</time>
      </trkpt>
      <trkpt lat="43.27848" lon="6.44926">
        <ele>308.584</ele>
        <time>2012-10-07T07:13:37Z</time>
      </trkpt>
      <trkpt lat="43.27859" lon="6.44907">
        <ele>309.573</ele>
        <time>2012-10-07T07:13:47Z</time>
      </trkpt>
      <trkpt lat="43.27867" lon="6.44881">
        <ele>310.772</ele>
        <time>2012-10-07T07:13:58Z</time>
      </trkpt>
      <trkpt lat="43.27875" lon="6.44861">
        <ele>311.323</ele>
        <time>2012-10-07T07:14:07Z</time>
      </trkpt>
      <trkpt lat="43.27883" lon="6.44839">
        <ele>312.233</ele>
        <time>2012-10-07T07:14:17Z</time>
      </trkpt>
      <trkpt lat="43.2789" lon="6.44815">
        <ele>313.393</ele>
        <time>2012-10-07T07:14:27Z</time>
      </trkpt>
      <trkpt lat="43.27895" lon="6.44797">
        <ele>315.324</ele>
        <time>2012-10-07T07:14:35Z</time>
      </trkpt>
      <trkpt lat="43.27904" lon="6.44776">
        <ele>320.085</ele>
        <time>2012-10-07T07:14:45Z</time>
      </trkpt>
      <trkpt lat="43.2791" lon="6.44761">
        <ele>321.123</ele>
        <time>2012-10-07T07:14:51Z</time>
      </trkpt>
      <trkpt lat="43.27919" lon="6.44747">
        <ele>324.034</ele>
        <time>2012-10-07T07:14:59Z</time>
      </trkpt>
      <trkpt lat="43.27927" lon="6.44731">
        <ele>326.944</ele>
        <time>2012-10-07T07:15:07Z</time>
      </trkpt>
      <trkpt lat="43.27935" lon="6.44712">
        <ele>329.023</ele>
        <time>2012-10-07T07:15:16Z</time>
      </trkpt>
      <trkpt lat="43.27942" lon="6.44692">
        <ele>330.664</ele>
        <time>2012-10-07T07:15:24Z</time>
      </trkpt>
      <trkpt lat="43.27949" lon="6.44679">
        <ele>333.214</ele>
        <time>2012-10-07T07:15:30Z</time>
      </trkpt>
      <trkpt lat="43.27958" lon="6.44664">
        <ele>334.464</ele>
        <time>2012-10-07T07:15:38Z</time>
      </trkpt>
      <trkpt lat="43.27968" lon="6.4465">
        <ele>336.254</ele>
        <time>2012-10-07T07:15:46Z</time>
      </trkpt>
      <trkpt lat="43.27977" lon="6.44639">
        <ele>337.524</ele>
        <time>2012-10-07T07:15:53Z</time>
      </trkpt>
      <trkpt lat="43.27988" lon="6.44624">
        <ele>340.855</ele>
        <time>2012-10-07T07:16:02Z</time>
      </trkpt>
      <trkpt lat="43.27998" lon="6.44608">
        <ele>339.413</ele>
        <time>2012-10-07T07:16:10Z</time>
      </trkpt>
      <trkpt lat="43.28005" lon="6.44588">
        <ele>338.212</ele>
        <time>2012-10-07T07:16:19Z</time>
      </trkpt>
      <trkpt lat="43.28006" lon="6.44582">
        <ele>337.571</ele>
        <time>2012-10-07T07:16:24Z</time>
      </trkpt>
      <trkpt lat="43.28006" lon="6.44582">
        <ele>337.101</ele>
        <time>2012-10-07T07:16:32Z</time>
      </trkpt>
      <trkpt lat="43.28008" lon="6.44583">
        <ele>336.881</ele>
        <time>2012-10-07T07:16:36Z</time>
      </trkpt>
      <trkpt lat="43.28008" lon="6.44587">
        <ele>336.141</ele>
        <time>2012-10-07T07:16:44Z</time>
      </trkpt>
      <trkpt lat="43.28008" lon="6.44589">
        <ele>335.601</ele>
        <time>2012-10-07T07:16:50Z</time>
      </trkpt>
      <trkpt lat="43.28008" lon="6.44588">
        <ele>333.64</ele>
        <time>2012-10-07T07:16:58Z</time>
      </trkpt>
      <trkpt lat="43.28008" lon="6.44588">
        <ele>332.49</ele>
        <time>2012-10-07T07:17:04Z</time>
      </trkpt>
      <trkpt lat="43.28006" lon="6.44587">
        <ele>331.822</ele>
        <time>2012-10-07T07:20:43Z</time>
      </trkpt>
      <trkpt lat="43.28006" lon="6.44588">
        <ele>333.632</ele>
        <time>2012-10-07T07:20:58Z</time>
      </trkpt>
      <trkpt lat="43.28006" lon="6.44583">
        <ele>335.012</ele>
        <time>2012-10-07T07:21:05Z</time>
      </trkpt>
      <trkpt lat="43.2801" lon="6.44573">
        <ele>335.892</ele>
        <time>2012-10-07T07:21:11Z</time>
      </trkpt>
      <trkpt lat="43.28012" lon="6.44555">
        <ele>334.832</ele>
        <time>2012-10-07T07:21:18Z</time>
      </trkpt>
      <trkpt lat="43.28016" lon="6.44536">
        <ele>334.883</ele>
        <time>2012-10-07T07:21:26Z</time>
      </trkpt>
      <trkpt lat="43.28019" lon="6.44515">
        <ele>336.663</ele>
        <time>2012-10-07T07:21:35Z</time>
      </trkpt>
      <trkpt lat="43.28019" lon="6.44495">
        <ele>337.763</ele>
        <time>2012-10-07T07:21:44Z</time>
      </trkpt>
      <trkpt lat="43.28019" lon="6.44473">
        <ele>339.443</ele>
        <time>2012-10-07T07:21:54Z</time>
      </trkpt>
      <trkpt lat="43.28017" lon="6.44453">
        <ele>341.833</ele>
        <time>2012-10-07T07:22:03Z</time>
      </trkpt>
      <trkpt lat="43.28015" lon="6.44435">
        <ele>343.624</ele>
        <time>2012-10-07T07:22:11Z</time>
      </trkpt>
      <trkpt lat="43.28014" lon="6.44418">
        <ele>345.563</ele>
        <time>2012-10-07T07:22:18Z</time>
      </trkpt>
      <trkpt lat="43.28012" lon="6.444">
        <ele>347.533</ele>
        <time>2012-10-07T07:22:25Z</time>
      </trkpt>
      <trkpt lat="43.28009" lon="6.44381">
        <ele>348.742</ele>
        <time>2012-10-07T07:22:32Z</time>
      </trkpt>
      <trkpt lat="43.28007" lon="6.44361">
        <ele>349.572</ele>
        <time>2012-10-07T07:22:39Z</time>
      </trkpt>
      <trkpt lat="43.28005" lon="6.4434">
        <ele>351.102</ele>
        <time>2012-10-07T07:22:46Z</time>
      </trkpt>
      <trkpt lat="43.28003" lon="6.44318">
        <ele>351.883</ele>
        <time>2012-10-07T07:22:53Z</time>
      </trkpt>
      <trkpt lat="43.28001" lon="6.44292">
        <ele>353.933</ele>
        <time>2012-10-07T07:23:02Z</time>
      </trkpt>
      <trkpt lat="43.27999" lon="6.4427">
        <ele>354.212</ele>
        <time>2012-10-07T07:23:10Z</time>
      </trkpt>
      <trkpt lat="43.27996" lon="6.44247">
        <ele>356.082</ele>
        <time>2012-10-07T07:23:19Z</time>
      </trkpt>
      <trkpt lat="43.27996" lon="6.44231">
        <ele>355.951</ele>
        <time>2012-10-07T07:23:24Z</time>
      </trkpt>
      <trkpt lat="43.28" lon="6.44209">
        <ele>356.972</ele>
        <time>2012-10-07T07:23:32Z</time>
      </trkpt>
      <trkpt lat="43.28009" lon="6.44189">
        <ele>358.532</ele>
        <time>2012-10-07T07:23:40Z</time>
      </trkpt>
      <trkpt lat="43.28015" lon="6.44165">
        <ele>358.572</ele>
        <time>2012-10-07T07:23:48Z</time>
      </trkpt>
      <trkpt lat="43.28012" lon="6.4414">
        <ele>357.411</ele>
        <time>2012-10-07T07:23:55Z</time>
      </trkpt>
      <trkpt lat="43.28011" lon="6.44109">
        <ele>356.14</ele>
        <time>2012-10-07T07:24:02Z</time>
      </trkpt>
      <trkpt lat="43.28021" lon="6.4407">
        <ele>353.999</ele>
        <time>2012-10-07T07:24:08Z</time>
      </trkpt>
      <trkpt lat="43.28034" lon="6.44019">
        <ele>351.378</ele>
        <time>2012-10-07T07:24:14Z</time>
      </trkpt>
      <trkpt lat="43.28049" lon="6.43962">
        <ele>348.365</ele>
        <time>2012-10-07T07:24:20Z</time>
      </trkpt>
      <trkpt lat="43.28065" lon="6.4389">
        <ele>345.487</ele>
        <time>2012-10-07T07:24:27Z</time>
      </trkpt>
      <trkpt lat="43.28075" lon="6.43826">
        <ele>341.174</ele>
        <time>2012-10-07T07:24:33Z</time>
      </trkpt>
      <trkpt lat="43.28086" lon="6.43765">
        <ele>337.165</ele>
        <time>2012-10-07T07:24:39Z</time>
      </trkpt>
      <trkpt lat="43.28091" lon="6.43702">
        <ele>333.396</ele>
        <time>2012-10-07T07:24:45Z</time>
      </trkpt>
      <trkpt lat="43.28093" lon="6.43641">
        <ele>329.055</ele>
        <time>2012-10-07T07:24:51Z</time>
      </trkpt>
      <trkpt lat="43.2809" lon="6.43575">
        <ele>325.316</ele>
        <time>2012-10-07T07:24:57Z</time>
      </trkpt>
      <trkpt lat="43.28076" lon="6.43545">
        <ele>323.597</ele>
        <time>2012-10-07T07:25:01Z</time>
      </trkpt>
      <trkpt lat="43.28061" lon="6.43518">
        <ele>321.837</ele>
        <time>2012-10-07T07:25:06Z</time>
      </trkpt>
      <trkpt lat="43.28059" lon="6.43501">
        <ele>320.546</ele>
        <time>2012-10-07T07:25:08Z</time>
      </trkpt>
      <trkpt lat="43.28043" lon="6.43459">
        <ele>317.726</ele>
        <time>2012-10-07T07:25:13Z</time>
      </trkpt>
      <trkpt lat="43.28033" lon="6.43436">
        <ele>316.948</ele>
        <time>2012-10-07T07:25:17Z</time>
      </trkpt>
      <trkpt lat="43.28028" lon="6.43419">
        <ele>313.783</ele>
        <time>2012-10-07T07:25:21Z</time>
      </trkpt>
      <trkpt lat="43.28012" lon="6.43407">
        <ele>310.554</ele>
        <time>2012-10-07T07:25:26Z</time>
      </trkpt>
      <trkpt lat="43.28006" lon="6.43396">
        <ele>309.114</ele>
        <time>2012-10-07T07:25:28Z</time>
      </trkpt>
      <trkpt lat="43.27993" lon="6.43381">
        <ele>306.675</ele>
        <time>2012-10-07T07:25:33Z</time>
      </trkpt>
      <trkpt lat="43.27984" lon="6.43368">
        <ele>305.247</ele>
        <time>2012-10-07T07:25:37Z</time>
      </trkpt>
      <trkpt lat="43.27981" lon="6.43365">
        <ele>305.428</ele>
        <time>2012-10-07T07:25:38Z</time>
      </trkpt>
      <trkpt lat="43.27974" lon="6.43366">
        <ele>306.059</ele>
        <time>2012-10-07T07:25:42Z</time>
      </trkpt>
      <trkpt lat="43.27968" lon="6.43359">
        <ele>305.547</ele>
        <time>2012-10-07T07:25:46Z</time>
      </trkpt>
      <trkpt lat="43.27963" lon="6.43347">
        <ele>302.464</ele>
        <time>2012-10-07T07:25:51Z</time>
      </trkpt>
      <trkpt lat="43.27953" lon="6.43344">
        <ele>298.383</ele>
        <time>2012-10-07T07:25:57Z</time>
      </trkpt>
      <trkpt lat="43.27942" lon="6.4334">
        <ele>294.462</ele>
        <time>2012-10-07T07:26:01Z</time>
      </trkpt>
      <trkpt lat="43.27934" lon="6.43338">
        <ele>290.78</ele>
        <time>2012-10-07T07:26:04Z</time>
      </trkpt>
      <trkpt lat="43.27917" lon="6.43346">
        <ele>284.81</ele>
        <time>2012-10-07T07:26:09Z</time>
      </trkpt>
      <trkpt lat="43.27912" lon="6.43357">
        <ele>281.761</ele>
        <time>2012-10-07T07:26:12Z</time>
      </trkpt>
      <trkpt lat="43.279" lon="6.43365">
        <ele>278.122</ele>
        <time>2012-10-07T07:26:16Z</time>
      </trkpt>
      <trkpt lat="43.27897" lon="6.43374">
        <ele>275.892</ele>
        <time>2012-10-07T07:26:19Z</time>
      </trkpt>
      <trkpt lat="43.27889" lon="6.43374">
        <ele>275.005</ele>
        <time>2012-10-07T07:26:22Z</time>
      </trkpt>
      <trkpt lat="43.27863" lon="6.43367">
        <ele>274.017</ele>
        <time>2012-10-07T07:26:30Z</time>
      </trkpt>
      <trkpt lat="43.27845" lon="6.43359">
        <ele>273.957</ele>
        <time>2012-10-07T07:26:36Z</time>
      </trkpt>
      <trkpt lat="43.27833" lon="6.43358">
        <ele>272.575</ele>
        <time>2012-10-07T07:26:40Z</time>
      </trkpt>
      <trkpt lat="43.27823" lon="6.43352">
        <ele>271.496</ele>
        <time>2012-10-07T07:26:43Z</time>
      </trkpt>
      <trkpt lat="43.2781" lon="6.43331">
        <ele>269.213</ele>
        <time>2012-10-07T07:26:49Z</time>
      </trkpt>
      <trkpt lat="43.278" lon="6.43307">
        <ele>266.333</ele>
        <time>2012-10-07T07:26:54Z</time>
      </trkpt>
      <trkpt lat="43.27783" lon="6.43285">
        <ele>263.915</ele>
        <time>2012-10-07T07:26:59Z</time>
      </trkpt>
      <trkpt lat="43.27779" lon="6.43282">
        <ele>263.746</ele>
        <time>2012-10-07T07:27:00Z</time>
      </trkpt>
      <trkpt lat="43.27767" lon="6.43276">
        <ele>262.545</ele>
        <time>2012-10-07T07:27:04Z</time>
      </trkpt>
      <trkpt lat="43.27759" lon="6.43268">
        <ele>259.332</ele>
        <time>2012-10-07T07:27:08Z</time>
      </trkpt>
      <trkpt lat="43.27747" lon="6.43258">
        <ele>256.081</ele>
        <time>2012-10-07T07:27:12Z</time>
      </trkpt>
      <trkpt lat="43.27736" lon="6.43256">
        <ele>253.303</ele>
        <time>2012-10-07T07:27:16Z</time>
      </trkpt>
      <trkpt lat="43.27718" lon="6.43255">
        <ele>248.131</ele>
        <time>2012-10-07T07:27:22Z</time>
      </trkpt>
      <trkpt lat="43.27702" lon="6.43258">
        <ele>244.3</ele>
        <time>2012-10-07T07:27:26Z</time>
      </trkpt>
      <trkpt lat="43.27685" lon="6.43258">
        <ele>241.423</ele>
        <time>2012-10-07T07:27:31Z</time>
      </trkpt>
      <trkpt lat="43.27673" lon="6.43262">
        <ele>239.884</ele>
        <time>2012-10-07T07:27:34Z</time>
      </trkpt>
      <trkpt lat="43.27664" lon="6.43267">
        <ele>238.402</ele>
        <time>2012-10-07T07:27:36Z</time>
      </trkpt>
      <trkpt lat="43.27643" lon="6.43284">
        <ele>233.731</ele>
        <time>2012-10-07T07:27:41Z</time>
      </trkpt>
      <trkpt lat="43.2762" lon="6.43316">
        <ele>227.17</ele>
        <time>2012-10-07T07:27:48Z</time>
      </trkpt>
      <trkpt lat="43.2761" lon="6.43327">
        <ele>224.781</ele>
        <time>2012-10-07T07:27:51Z</time>
      </trkpt>
      <trkpt lat="43.27604" lon="6.43342">
        <ele>222.231</ele>
        <time>2012-10-07T07:27:54Z</time>
      </trkpt>
      <trkpt lat="43.27596" lon="6.43371">
        <ele>217.172</ele>
        <time>2012-10-07T07:28:00Z</time>
      </trkpt>
      <trkpt lat="43.27583" lon="6.43396">
        <ele>211.341</ele>
        <time>2012-10-07T07:28:06Z</time>
      </trkpt>
      <trkpt lat="43.27567" lon="6.43423">
        <ele>206.584</ele>
        <time>2012-10-07T07:28:12Z</time>
      </trkpt>
      <trkpt lat="43.27563" lon="6.43427">
        <ele>205.944</ele>
        <time>2012-10-07T07:28:13Z</time>
      </trkpt>
      <trkpt lat="43.27537" lon="6.43452">
        <ele>201.472</ele>
        <time>2012-10-07T07:28:19Z</time>
      </trkpt>
      <trkpt lat="43.2751" lon="6.43481">
        <ele>195.461</ele>
        <time>2012-10-07T07:28:25Z</time>
      </trkpt>
      <trkpt lat="43.27487" lon="6.43512">
        <ele>189.29</ele>
        <time>2012-10-07T07:28:31Z</time>
      </trkpt>
      <trkpt lat="43.27473" lon="6.43532">
        <ele>184.31</ele>
        <time>2012-10-07T07:28:36Z</time>
      </trkpt>
      <trkpt lat="43.27459" lon="6.43552">
        <ele>179.401</ele>
        <time>2012-10-07T07:28:41Z</time>
      </trkpt>
      <trkpt lat="43.27445" lon="6.43571">
        <ele>176.173</ele>
        <time>2012-10-07T07:28:46Z</time>
      </trkpt>
      <trkpt lat="43.2744" lon="6.43577">
        <ele>174.526</ele>
        <time>2012-10-07T07:28:50Z</time>
      </trkpt>
      <trkpt lat="43.27435" lon="6.43583">
        <ele>173.077</ele>
        <time>2012-10-07T07:29:49Z</time>
      </trkpt>
      <trkpt lat="43.27434" lon="6.43586">
        <ele>172.847</ele>
        <time>2012-10-07T07:29:50Z</time>
      </trkpt>
      <trkpt lat="43.27439" lon="6.4359">
        <ele>171.896</ele>
        <time>2012-10-07T07:29:54Z</time>
      </trkpt>
      <trkpt lat="43.27466" lon="6.43576">
        <ele>169.123</ele>
        <time>2012-10-07T07:30:00Z</time>
      </trkpt>
      <trkpt lat="43.27478" lon="6.43571">
        <ele>167.804</ele>
        <time>2012-10-07T07:30:03Z</time>
      </trkpt>
      <trkpt lat="43.2748" lon="6.43575">
        <ele>164.933</ele>
        <time>2012-10-07T07:30:07Z</time>
      </trkpt>
      <trkpt lat="43.2747" lon="6.43593">
        <ele>161.312</ele>
        <time>2012-10-07T07:30:11Z</time>
      </trkpt>
      <trkpt lat="43.27455" lon="6.43633">
        <ele>155.243</ele>
        <time>2012-10-07T07:30:18Z</time>
      </trkpt>
      <trkpt lat="43.27447" lon="6.43646">
        <ele>153.145</ele>
        <time>2012-10-07T07:30:22Z</time>
      </trkpt>
      <trkpt lat="43.27444" lon="6.43647">
        <ele>152.738</ele>
        <time>2012-10-07T07:30:27Z</time>
      </trkpt>
      <trkpt lat="43.27439" lon="6.43651">
        <ele>151.982</ele>
        <time>2012-10-07T07:31:54Z</time>
      </trkpt>
      <trkpt lat="43.27433" lon="6.43651">
        <ele>153.811</ele>
        <time>2012-10-07T07:31:57Z</time>
      </trkpt>
      <trkpt lat="43.27423" lon="6.43658">
        <ele>153.417</ele>
        <time>2012-10-07T07:32:02Z</time>
      </trkpt>
      <trkpt lat="43.27416" lon="6.43663">
        <ele>152.566</ele>
        <time>2012-10-07T07:32:04Z</time>
      </trkpt>
      <trkpt lat="43.27392" lon="6.43668">
        <ele>148.763</ele>
        <time>2012-10-07T07:32:09Z</time>
      </trkpt>
      <trkpt lat="43.2738" lon="6.43661">
        <ele>146.674</ele>
        <time>2012-10-07T07:32:12Z</time>
      </trkpt>
      <trkpt lat="43.27378" lon="6.43656">
        <ele>146.274</ele>
        <time>2012-10-07T07:32:13Z</time>
      </trkpt>
      <trkpt lat="43.27373" lon="6.43618">
        <ele>141.563</ele>
        <time>2012-10-07T07:32:19Z</time>
      </trkpt>
      <trkpt lat="43.27371" lon="6.43605">
        <ele>139.394</ele>
        <time>2012-10-07T07:32:23Z</time>
      </trkpt>
      <trkpt lat="43.27372" lon="6.43588">
        <ele>137.054</ele>
        <time>2012-10-07T07:32:28Z</time>
      </trkpt>
      <trkpt lat="43.27372" lon="6.43578">
        <ele>137.495</ele>
        <time>2012-10-07T07:32:31Z</time>
      </trkpt>
      <trkpt lat="43.27366" lon="6.43569">
        <ele>133.193</ele>
        <time>2012-10-07T07:32:36Z</time>
      </trkpt>
      <trkpt lat="43.27362" lon="6.43567">
        <ele>131.173</ele>
        <time>2012-10-07T07:32:38Z</time>
      </trkpt>
      <trkpt lat="43.27348" lon="6.43559">
        <ele>127.153</ele>
        <time>2012-10-07T07:32:43Z</time>
      </trkpt>
      <trkpt lat="43.27341" lon="6.43548">
        <ele>125.063</ele>
        <time>2012-10-07T07:32:47Z</time>
      </trkpt>
      <trkpt lat="43.27333" lon="6.4354">
        <ele>123.394</ele>
        <time>2012-10-07T07:32:50Z</time>
      </trkpt>
      <trkpt lat="43.27322" lon="6.43549">
        <ele>120.401</ele>
        <time>2012-10-07T07:32:54Z</time>
      </trkpt>
      <trkpt lat="43.27318" lon="6.43557">
        <ele>118.811</ele>
        <time>2012-10-07T07:32:56Z</time>
      </trkpt>
      <trkpt lat="43.2732" lon="6.43572">
        <ele>113.811</ele>
        <time>2012-10-07T07:33:00Z</time>
      </trkpt>
      <trkpt lat="43.27315" lon="6.43588">
        <ele>113.113</ele>
        <time>2012-10-07T07:33:05Z</time>
      </trkpt>
      <trkpt lat="43.27303" lon="6.43592">
        <ele>113.196</ele>
        <time>2012-10-07T07:33:10Z</time>
      </trkpt>
      <trkpt lat="43.273" lon="6.43593">
        <ele>112.857</ele>
        <time>2012-10-07T07:33:15Z</time>
      </trkpt>
      <trkpt lat="43.27289" lon="6.43593">
        <ele>111.565</ele>
        <time>2012-10-07T07:33:19Z</time>
      </trkpt>
      <trkpt lat="43.27269" lon="6.43597">
        <ele>109.927</ele>
        <time>2012-10-07T07:33:24Z</time>
      </trkpt>
      <trkpt lat="43.27267" lon="6.43598">
        <ele>109.456</ele>
        <time>2012-10-07T07:33:25Z</time>
      </trkpt>
      <trkpt lat="43.27259" lon="6.4361">
        <ele>106.586</ele>
        <time>2012-10-07T07:33:32Z</time>
      </trkpt>
      <trkpt lat="43.27251" lon="6.43617">
        <ele>108.778</ele>
        <time>2012-10-07T07:33:37Z</time>
      </trkpt>
      <trkpt lat="43.27248" lon="6.4362">
        <ele>108.727</ele>
        <time>2012-10-07T07:33:42Z</time>
      </trkpt>
      <trkpt lat="43.27243" lon="6.43628">
        <ele>107.346</ele>
        <time>2012-10-07T07:33:46Z</time>
      </trkpt>
      <trkpt lat="43.2724" lon="6.43634">
        <ele>106.687</ele>
        <time>2012-10-07T07:33:50Z</time>
      </trkpt>
      <trkpt lat="43.27238" lon="6.43636">
        <ele>105.836</ele>
        <time>2012-10-07T07:33:55Z</time>
      </trkpt>
      <trkpt lat="43.27236" lon="6.43638">
        <ele>105.558</ele>
        <time>2012-10-07T07:34:00Z</time>
      </trkpt>
      <trkpt lat="43.27232" lon="6.4364">
        <ele>106.729</ele>
        <time>2012-10-07T07:34:06Z</time>
      </trkpt>
      <trkpt lat="43.27226" lon="6.43643">
        <ele>110.179</ele>
        <time>2012-10-07T07:34:12Z</time>
      </trkpt>
      <trkpt lat="43.27221" lon="6.43648">
        <ele>110.817</ele>
        <time>2012-10-07T07:34:21Z</time>
      </trkpt>
      <trkpt lat="43.27219" lon="6.4365">
        <ele>111.018</ele>
        <time>2012-10-07T07:34:25Z</time>
      </trkpt>
      <trkpt lat="43.27213" lon="6.43653">
        <ele>110.257</ele>
        <time>2012-10-07T07:34:32Z</time>
      </trkpt>
      <trkpt lat="43.27207" lon="6.43655">
        <ele>108.987</ele>
        <time>2012-10-07T07:34:40Z</time>
      </trkpt>
      <trkpt lat="43.272" lon="6.43656">
        <ele>111.438</ele>
        <time>2012-10-07T07:34:48Z</time>
      </trkpt>
      <trkpt lat="43.27197" lon="6.43657">
        <ele>112.218</ele>
        <time>2012-10-07T07:34:54Z</time>
      </trkpt>
      <trkpt lat="43.27195" lon="6.43659">
        <ele>109.786</ele>
        <time>2012-10-07T07:35:00Z</time>
      </trkpt>
      <trkpt lat="43.27191" lon="6.43664">
        <ele>112.548</ele>
        <time>2012-10-07T07:35:05Z</time>
      </trkpt>
      <trkpt lat="43.27187" lon="6.43668">
        <ele>107.846</ele>
        <time>2012-10-07T07:35:11Z</time>
      </trkpt>
      <trkpt lat="43.27183" lon="6.43674">
        <ele>106.615</ele>
        <time>2012-10-07T07:35:16Z</time>
      </trkpt>
      <trkpt lat="43.27177" lon="6.43674">
        <ele>108.978</ele>
        <time>2012-10-07T07:35:22Z</time>
      </trkpt>
      <trkpt lat="43.27175" lon="6.43678">
        <ele>108.957</ele>
        <time>2012-10-07T07:35:27Z</time>
      </trkpt>
      <trkpt lat="43.27173" lon="6.43682">
        <ele>107.666</ele>
        <time>2012-10-07T07:35:32Z</time>
      </trkpt>
      <trkpt lat="43.27169" lon="6.43686">
        <ele>106.767</ele>
        <time>2012-10-07T07:35:37Z</time>
      </trkpt>
      <trkpt lat="43.27165" lon="6.43687">
        <ele>107.518</ele>
        <time>2012-10-07T07:35:43Z</time>
      </trkpt>
      <trkpt lat="43.27164" lon="6.43698">
        <ele>106.116</ele>
        <time>2012-10-07T07:35:48Z</time>
      </trkpt>
      <trkpt lat="43.27163" lon="6.43706">
        <ele>105.447</ele>
        <time>2012-10-07T07:35:52Z</time>
      </trkpt>
      <trkpt lat="43.27166" lon="6.4371">
        <ele>105.328</ele>
        <time>2012-10-07T07:35:57Z</time>
      </trkpt>
      <trkpt lat="43.27165" lon="6.43719">
        <ele>106.909</ele>
        <time>2012-10-07T07:36:05Z</time>
      </trkpt>
      <trkpt lat="43.27165" lon="6.43725">
        <ele>108.91</ele>
        <time>2012-10-07T07:36:12Z</time>
      </trkpt>
      <trkpt lat="43.27163" lon="6.43731">
        <ele>111.01</ele>
        <time>2012-10-07T07:36:19Z</time>
      </trkpt>
      <trkpt lat="43.27163" lon="6.43732">
        <ele>111.432</ele>
        <time>2012-10-07T07:36:20Z</time>
      </trkpt>
      <trkpt lat="43.27162" lon="6.43735">
        <ele>112.31</ele>
        <time>2012-10-07T07:36:23Z</time>
      </trkpt>
      <trkpt lat="43.27162" lon="6.43738">
        <ele>113.101</ele>
        <time>2012-10-07T07:36:26Z</time>
      </trkpt>
      <trkpt lat="43.27162" lon="6.4374">
        <ele>113.229</ele>
        <time>2012-10-07T07:36:29Z</time>
      </trkpt>
      <trkpt lat="43.27158" lon="6.4375">
        <ele>111.455</ele>
        <time>2012-10-07T07:36:35Z</time>
      </trkpt>
      <trkpt lat="43.27152" lon="6.43758">
        <ele>108.004</ele>
        <time>2012-10-07T07:36:42Z</time>
      </trkpt>
      <trkpt lat="43.27145" lon="6.43764">
        <ele>104.434</ele>
        <time>2012-10-07T07:36:49Z</time>
      </trkpt>
      <trkpt lat="43.27142" lon="6.43772">
        <ele>101.663</ele>
        <time>2012-10-07T07:36:55Z</time>
      </trkpt>
      <trkpt lat="43.27139" lon="6.43777">
        <ele>99.425</ele>
        <time>2012-10-07T07:37:00Z</time>
      </trkpt>
      <trkpt lat="43.27137" lon="6.43785">
        <ele>96.605</ele>
        <time>2012-10-07T07:37:06Z</time>
      </trkpt>
      <trkpt lat="43.27139" lon="6.43787">
        <ele>95.697</ele>
        <time>2012-10-07T07:37:11Z</time>
      </trkpt>
      <trkpt lat="43.2714" lon="6.43791">
        <ele>94.356</ele>
        <time>2012-10-07T07:37:17Z</time>
      </trkpt>
      <trkpt lat="43.27138" lon="6.438">
        <ele>92.145</ele>
        <time>2012-10-07T07:37:23Z</time>
      </trkpt>
      <trkpt lat="43.27135" lon="6.43812">
        <ele>91.096</ele>
        <time>2012-10-07T07:37:27Z</time>
      </trkpt>
      <trkpt lat="43.27134" lon="6.43814">
        <ele>90.958</ele>
        <time>2012-10-07T07:37:31Z</time>
      </trkpt>
      <trkpt lat="43.27134" lon="6.43816">
        <ele>90.708</ele>
        <time>2012-10-07T07:37:38Z</time>
      </trkpt>
      <trkpt lat="43.27134" lon="6.43818">
        <ele>89.947</ele>
        <time>2012-10-07T07:37:42Z</time>
      </trkpt>
      <trkpt lat="43.27135" lon="6.43824">
        <ele>89.668</ele>
        <time>2012-10-07T07:37:49Z</time>
      </trkpt>
      <trkpt lat="43.27138" lon="6.43829">
        <ele>89.879</ele>
        <time>2012-10-07T07:37:56Z</time>
      </trkpt>
      <trkpt lat="43.27138" lon="6.43831">
        <ele>89.908</ele>
        <time>2012-10-07T07:38:02Z</time>
      </trkpt>
      <trkpt lat="43.2714" lon="6.43834">
        <ele>89.898</ele>
        <time>2012-10-07T07:38:08Z</time>
      </trkpt>
      <trkpt lat="43.2714" lon="6.43835">
        <ele>89.708</ele>
        <time>2012-10-07T07:38:09Z</time>
      </trkpt>
      <trkpt lat="43.27137" lon="6.43838">
        <ele>89.949</ele>
        <time>2012-10-07T07:38:13Z</time>
      </trkpt>
      <trkpt lat="43.2714" lon="6.43842">
        <ele>89.898</ele>
        <time>2012-10-07T07:38:18Z</time>
      </trkpt>
      <trkpt lat="43.27142" lon="6.43845">
        <ele>90.228</ele>
        <time>2012-10-07T07:38:22Z</time>
      </trkpt>
      <trkpt lat="43.27143" lon="6.43851">
        <ele>89.668</ele>
        <time>2012-10-07T07:38:27Z</time>
      </trkpt>
      <trkpt lat="43.27144" lon="6.43859">
        <ele>89.628</ele>
        <time>2012-10-07T07:38:33Z</time>
      </trkpt>
      <trkpt lat="43.27146" lon="6.43865">
        <ele>89.958</ele>
        <time>2012-10-07T07:38:40Z</time>
      </trkpt>
      <trkpt lat="43.27148" lon="6.43871">
        <ele>89.308</ele>
        <time>2012-10-07T07:38:45Z</time>
      </trkpt>
      <trkpt lat="43.27149" lon="6.43875">
        <ele>90.829</ele>
        <time>2012-10-07T07:38:51Z</time>
      </trkpt>
      <trkpt lat="43.27151" lon="6.4388">
        <ele>92.04</ele>
        <time>2012-10-07T07:38:56Z</time>
      </trkpt>
      <trkpt lat="43.27151" lon="6.43884">
        <ele>91.769</ele>
        <time>2012-10-07T07:38:59Z</time>
      </trkpt>
      <trkpt lat="43.27151" lon="6.4389">
        <ele>90.647</ele>
        <time>2012-10-07T07:39:05Z</time>
      </trkpt>
      <trkpt lat="43.2715" lon="6.43891">
        <ele>90.467</ele>
        <time>2012-10-07T07:39:06Z</time>
      </trkpt>
      <trkpt lat="43.27149" lon="6.43897">
        <ele>88.446</ele>
        <time>2012-10-07T07:39:13Z</time>
      </trkpt>
      <trkpt lat="43.27148" lon="6.43898">
        <ele>88.507</ele>
        <time>2012-10-07T07:39:15Z</time>
      </trkpt>
      <trkpt lat="43.27151" lon="6.43911">
        <ele>90.399</ele>
        <time>2012-10-07T07:39:23Z</time>
      </trkpt>
      <trkpt lat="43.27153" lon="6.43919">
        <ele>92.8</ele>
        <time>2012-10-07T07:39:29Z</time>
      </trkpt>
      <trkpt lat="43.27157" lon="6.4393">
        <ele>93.46</ele>
        <time>2012-10-07T07:39:36Z</time>
      </trkpt>
      <trkpt lat="43.2716" lon="6.43938">
        <ele>93.89</ele>
        <time>2012-10-07T07:39:41Z</time>
      </trkpt>
      <trkpt lat="43.27155" lon="6.43953">
        <ele>89.848</ele>
        <time>2012-10-07T07:39:46Z</time>
      </trkpt>
      <trkpt lat="43.27155" lon="6.43961">
        <ele>89.738</ele>
        <time>2012-10-07T07:39:50Z</time>
      </trkpt>
      <trkpt lat="43.27157" lon="6.43967">
        <ele>91.5</ele>
        <time>2012-10-07T07:39:54Z</time>
      </trkpt>
      <trkpt lat="43.27158" lon="6.43973">
        <ele>91.049</ele>
        <time>2012-10-07T07:39:58Z</time>
      </trkpt>
      <trkpt lat="43.2716" lon="6.43978">
        <ele>90.249</ele>
        <time>2012-10-07T07:40:02Z</time>
      </trkpt>
      <trkpt lat="43.27161" lon="6.4398">
        <ele>90.319</ele>
        <time>2012-10-07T07:40:04Z</time>
      </trkpt>
      <trkpt lat="43.27161" lon="6.43988">
        <ele>90.329</ele>
        <time>2012-10-07T07:40:11Z</time>
      </trkpt>
      <trkpt lat="43.2716" lon="6.43989">
        <ele>97.997</ele>
        <time>2012-10-07T07:40:18Z</time>
      </trkpt>
      <trkpt lat="43.27167" lon="6.43992">
        <ele>92.818</ele>
        <time>2012-10-07T07:40:32Z</time>
      </trkpt>
      <trkpt lat="43.27167" lon="6.43993">
        <ele>92.828</ele>
        <time>2012-10-07T07:40:33Z</time>
      </trkpt>
      <trkpt lat="43.27171" lon="6.44004">
        <ele>91.787</ele>
        <time>2012-10-07T07:40:41Z</time>
      </trkpt>
      <trkpt lat="43.27172" lon="6.44008">
        <ele>91.036</ele>
        <time>2012-10-07T07:40:46Z</time>
      </trkpt>
      <trkpt lat="43.27171" lon="6.44011">
        <ele>83.202</ele>
        <time>2012-10-07T07:41:19Z</time>
      </trkpt>
      <trkpt lat="43.2717" lon="6.44012">
        <ele>82.725</ele>
        <time>2012-10-07T07:41:25Z</time>
      </trkpt>
      <trkpt lat="43.2717" lon="6.44024">
        <ele>84.48</ele>
        <time>2012-10-07T07:41:31Z</time>
      </trkpt>
      <trkpt lat="43.27173" lon="6.44032">
        <ele>88.599</ele>
        <time>2012-10-07T07:41:36Z</time>
      </trkpt>
      <trkpt lat="43.27174" lon="6.44045">
        <ele>94.722</ele>
        <time>2012-10-07T07:41:43Z</time>
      </trkpt>
      <trkpt lat="43.27175" lon="6.44054">
        <ele>96.97</ele>
        <time>2012-10-07T07:41:46Z</time>
      </trkpt>
      <trkpt lat="43.27173" lon="6.44065">
        <ele>99.985</ele>
        <time>2012-10-07T07:41:50Z</time>
      </trkpt>
      <trkpt lat="43.27177" lon="6.44079">
        <ele>101.078</ele>
        <time>2012-10-07T07:41:55Z</time>
      </trkpt>
      <trkpt lat="43.27178" lon="6.44096">
        <ele>98.773</ele>
        <time>2012-10-07T07:42:00Z</time>
      </trkpt>
      <trkpt lat="43.27182" lon="6.4411">
        <ele>96.25</ele>
        <time>2012-10-07T07:42:04Z</time>
      </trkpt>
      <trkpt lat="43.27183" lon="6.44119">
        <ele>96.389</ele>
        <time>2012-10-07T07:42:06Z</time>
      </trkpt>
      <trkpt lat="43.27178" lon="6.44134">
        <ele>96.498</ele>
        <time>2012-10-07T07:42:13Z</time>
      </trkpt>
      <trkpt lat="43.27176" lon="6.4414">
        <ele>96.561</ele>
        <time>2012-10-07T07:42:18Z</time>
      </trkpt>
      <trkpt lat="43.27175" lon="6.4415">
        <ele>95.237</ele>
        <time>2012-10-07T07:42:27Z</time>
      </trkpt>
      <trkpt lat="43.27175" lon="6.44158">
        <ele>93.306</ele>
        <time>2012-10-07T07:42:33Z</time>
      </trkpt>
      <trkpt lat="43.27176" lon="6.4416">
        <ele>92.877</ele>
        <time>2012-10-07T07:42:35Z</time>
      </trkpt>
      <trkpt lat="43.27178" lon="6.4417">
        <ele>92.305</ele>
        <time>2012-10-07T07:42:40Z</time>
      </trkpt>
      <trkpt lat="43.27178" lon="6.44183">
        <ele>88.734</ele>
        <time>2012-10-07T07:42:46Z</time>
      </trkpt>
      <trkpt lat="43.27178" lon="6.44184">
        <ele>88.615</ele>
        <time>2012-10-07T07:42:47Z</time>
      </trkpt>
      <trkpt lat="43.2718" lon="6.44186">
        <ele>88.425</ele>
        <time>2012-10-07T07:42:49Z</time>
      </trkpt>
      <trkpt lat="43.27185" lon="6.44186">
        <ele>88.178</ele>
        <time>2012-10-07T07:42:55Z</time>
      </trkpt>
      <trkpt lat="43.27187" lon="6.44188">
        <ele>88.731</ele>
        <time>2012-10-07T07:42:57Z</time>
      </trkpt>
      <trkpt lat="43.2719" lon="6.44193">
        <ele>90.355</ele>
        <time>2012-10-07T07:43:03Z</time>
      </trkpt>
      <trkpt lat="43.27189" lon="6.442">
        <ele>92.967</ele>
        <time>2012-10-07T07:43:10Z</time>
      </trkpt>
      <trkpt lat="43.27189" lon="6.44201">
        <ele>92.492</ele>
        <time>2012-10-07T07:43:18Z</time>
      </trkpt>
      <trkpt lat="43.27181" lon="6.44212">
        <ele>92.761</ele>
        <time>2012-10-07T07:43:24Z</time>
      </trkpt>
      <trkpt lat="43.27173" lon="6.44222">
        <ele>94.088</ele>
        <time>2012-10-07T07:43:29Z</time>
      </trkpt>
      <trkpt lat="43.27172" lon="6.44224">
        <ele>94.36</ele>
        <time>2012-10-07T07:43:30Z</time>
      </trkpt>
      <trkpt lat="43.27165" lon="6.4423">
        <ele>95.389</ele>
        <time>2012-10-07T07:43:36Z</time>
      </trkpt>
      <trkpt lat="43.27158" lon="6.44235">
        <ele>95.066</ele>
        <time>2012-10-07T07:43:41Z</time>
      </trkpt>
      <trkpt lat="43.27151" lon="6.44238">
        <ele>94.314</ele>
        <time>2012-10-07T07:43:46Z</time>
      </trkpt>
      <trkpt lat="43.27149" lon="6.44242">
        <ele>94.717</ele>
        <time>2012-10-07T07:43:49Z</time>
      </trkpt>
      <trkpt lat="43.27155" lon="6.44246">
        <ele>96.157</ele>
        <time>2012-10-07T07:43:55Z</time>
      </trkpt>
      <trkpt lat="43.27153" lon="6.44252">
        <ele>96.404</ele>
        <time>2012-10-07T07:43:59Z</time>
      </trkpt>
      <trkpt lat="43.27148" lon="6.44256">
        <ele>96.906</ele>
        <time>2012-10-07T07:44:05Z</time>
      </trkpt>
      <trkpt lat="43.27145" lon="6.44266">
        <ele>99.021</ele>
        <time>2012-10-07T07:44:12Z</time>
      </trkpt>
      <trkpt lat="43.27143" lon="6.44273">
        <ele>98.754</ele>
        <time>2012-10-07T07:44:19Z</time>
      </trkpt>
      <trkpt lat="43.27144" lon="6.44275">
        <ele>98.225</ele>
        <time>2012-10-07T07:44:22Z</time>
      </trkpt>
      <trkpt lat="43.27147" lon="6.4428">
        <ele>98.52</ele>
        <time>2012-10-07T07:44:26Z</time>
      </trkpt>
      <trkpt lat="43.27148" lon="6.4429">
        <ele>100.401</ele>
        <time>2012-10-07T07:44:32Z</time>
      </trkpt>
      <trkpt lat="43.2715" lon="6.44295">
        <ele>101.814</ele>
        <time>2012-10-07T07:44:39Z</time>
      </trkpt>
      <trkpt lat="43.27153" lon="6.443">
        <ele>102.231</ele>
        <time>2012-10-07T07:44:43Z</time>
      </trkpt>
      <trkpt lat="43.27159" lon="6.44312">
        <ele>103.072</ele>
        <time>2012-10-07T07:44:50Z</time>
      </trkpt>
      <trkpt lat="43.27165" lon="6.44318">
        <ele>104.134</ele>
        <time>2012-10-07T07:44:57Z</time>
      </trkpt>
      <trkpt lat="43.27168" lon="6.44318">
        <ele>105.045</ele>
        <time>2012-10-07T07:45:00Z</time>
      </trkpt>
      <trkpt lat="43.27174" lon="6.44317">
        <ele>107.86</ele>
        <time>2012-10-07T07:45:07Z</time>
      </trkpt>
      <trkpt lat="43.27175" lon="6.44316">
        <ele>108.378</ele>
        <time>2012-10-07T07:45:08Z</time>
      </trkpt>
      <trkpt lat="43.27178" lon="6.44308">
        <ele>111.661</ele>
        <time>2012-10-07T07:45:14Z</time>
      </trkpt>
      <trkpt lat="43.27184" lon="6.44312">
        <ele>113.966</ele>
        <time>2012-10-07T07:45:19Z</time>
      </trkpt>
      <trkpt lat="43.27189" lon="6.44311">
        <ele>114.755</ele>
        <time>2012-10-07T07:45:25Z</time>
      </trkpt>
      <trkpt lat="43.2719" lon="6.44311">
        <ele>114.883</ele>
        <time>2012-10-07T07:45:27Z</time>
      </trkpt>
      <trkpt lat="43.27195" lon="6.44309">
        <ele>115.211</ele>
        <time>2012-10-07T07:45:34Z</time>
      </trkpt>
      <trkpt lat="43.27197" lon="6.4431">
        <ele>115.455</ele>
        <time>2012-10-07T07:45:36Z</time>
      </trkpt>
      <trkpt lat="43.27201" lon="6.44308">
        <ele>114.876</ele>
        <time>2012-10-07T07:45:40Z</time>
      </trkpt>
      <trkpt lat="43.27202" lon="6.44312">
        <ele>114.002</ele>
        <time>2012-10-07T07:45:47Z</time>
      </trkpt>
      <trkpt lat="43.27202" lon="6.44313">
        <ele>113.732</ele>
        <time>2012-10-07T07:45:48Z</time>
      </trkpt>
      <trkpt lat="43.27196" lon="6.44323">
        <ele>114.648</ele>
        <time>2012-10-07T07:45:56Z</time>
      </trkpt>
      <trkpt lat="43.27189" lon="6.44332">
        <ele>115.326</ele>
        <time>2012-10-07T07:46:02Z</time>
      </trkpt>
      <trkpt lat="43.27182" lon="6.44345">
        <ele>114.348</ele>
        <time>2012-10-07T07:46:06Z</time>
      </trkpt>
      <trkpt lat="43.27175" lon="6.4436">
        <ele>114.354</ele>
        <time>2012-10-07T07:46:11Z</time>
      </trkpt>
      <trkpt lat="43.2717" lon="6.44378">
        <ele>115.653</ele>
        <time>2012-10-07T07:46:17Z</time>
      </trkpt>
      <trkpt lat="43.27163" lon="6.44393">
        <ele>117.174</ele>
        <time>2012-10-07T07:46:22Z</time>
      </trkpt>
      <trkpt lat="43.27153" lon="6.4441">
        <ele>116.78</ele>
        <time>2012-10-07T07:46:27Z</time>
      </trkpt>
      <trkpt lat="43.27147" lon="6.4443">
        <ele>117.036</ele>
        <time>2012-10-07T07:46:32Z</time>
      </trkpt>
      <trkpt lat="43.27141" lon="6.44449">
        <ele>117.929</ele>
        <time>2012-10-07T07:46:39Z</time>
      </trkpt>
      <trkpt lat="43.27136" lon="6.44461">
        <ele>119.049</ele>
        <time>2012-10-07T07:46:45Z</time>
      </trkpt>
      <trkpt lat="43.27132" lon="6.44475">
        <ele>120.669</ele>
        <time>2012-10-07T07:46:51Z</time>
      </trkpt>
      <trkpt lat="43.27127" lon="6.44488">
        <ele>122.625</ele>
        <time>2012-10-07T07:46:57Z</time>
      </trkpt>
      <trkpt lat="43.2712" lon="6.44509">
        <ele>124.392</ele>
        <time>2012-10-07T07:47:05Z</time>
      </trkpt>
      <trkpt lat="43.27114" lon="6.4453">
        <ele>126.033</ele>
        <time>2012-10-07T07:47:13Z</time>
      </trkpt>
      <trkpt lat="43.27112" lon="6.4455">
        <ele>126.508</ele>
        <time>2012-10-07T07:47:19Z</time>
      </trkpt>
      <trkpt lat="43.27108" lon="6.44571">
        <ele>125.992</ele>
        <time>2012-10-07T07:47:24Z</time>
      </trkpt>
      <trkpt lat="43.27108" lon="6.44584">
        <ele>125.46</ele>
        <time>2012-10-07T07:47:26Z</time>
      </trkpt>
      <trkpt lat="43.27114" lon="6.44611">
        <ele>123.391</ele>
        <time>2012-10-07T07:47:30Z</time>
      </trkpt>
      <trkpt lat="43.2712" lon="6.44626">
        <ele>120.194</ele>
        <time>2012-10-07T07:47:32Z</time>
      </trkpt>
      <trkpt lat="43.27135" lon="6.44652">
        <ele>116.992</ele>
        <time>2012-10-07T07:47:37Z</time>
      </trkpt>
      <trkpt lat="43.27151" lon="6.4468">
        <ele>116.141</ele>
        <time>2012-10-07T07:47:44Z</time>
      </trkpt>
      <trkpt lat="43.27158" lon="6.447">
        <ele>118.14</ele>
        <time>2012-10-07T07:47:48Z</time>
      </trkpt>
      <trkpt lat="43.27172" lon="6.44732">
        <ele>121.087</ele>
        <time>2012-10-07T07:47:55Z</time>
      </trkpt>
      <trkpt lat="43.27177" lon="6.44755">
        <ele>124.586</ele>
        <time>2012-10-07T07:48:01Z</time>
      </trkpt>
      <trkpt lat="43.27181" lon="6.44775">
        <ele>127.789</ele>
        <time>2012-10-07T07:48:07Z</time>
      </trkpt>
      <trkpt lat="43.27185" lon="6.44791">
        <ele>128.939</ele>
        <time>2012-10-07T07:48:12Z</time>
      </trkpt>
      <trkpt lat="43.27183" lon="6.44808">
        <ele>131.803</ele>
        <time>2012-10-07T07:48:18Z</time>
      </trkpt>
      <trkpt lat="43.27183" lon="6.44828">
        <ele>131.13</ele>
        <time>2012-10-07T07:48:24Z</time>
      </trkpt>
      <trkpt lat="43.27183" lon="6.44845">
        <ele>132.011</ele>
        <time>2012-10-07T07:48:30Z</time>
      </trkpt>
      <trkpt lat="43.27181" lon="6.44859">
        <ele>133.098</ele>
        <time>2012-10-07T07:48:36Z</time>
      </trkpt>
      <trkpt lat="43.2718" lon="6.44879">
        <ele>132.128</ele>
        <time>2012-10-07T07:48:41Z</time>
      </trkpt>
      <trkpt lat="43.27178" lon="6.44884">
        <ele>131.404</ele>
        <time>2012-10-07T07:48:42Z</time>
      </trkpt>
      <trkpt lat="43.27166" lon="6.44915">
        <ele>127.081</ele>
        <time>2012-10-07T07:48:48Z</time>
      </trkpt>
      <trkpt lat="43.27162" lon="6.44928">
        <ele>124.196</ele>
        <time>2012-10-07T07:48:53Z</time>
      </trkpt>
      <trkpt lat="43.27152" lon="6.44953">
        <ele>122.261</ele>
        <time>2012-10-07T07:48:59Z</time>
      </trkpt>
      <trkpt lat="43.27139" lon="6.44968">
        <ele>118.097</ele>
        <time>2012-10-07T07:49:05Z</time>
      </trkpt>
      <trkpt lat="43.27126" lon="6.44981">
        <ele>113.147</ele>
        <time>2012-10-07T07:49:10Z</time>
      </trkpt>
      <trkpt lat="43.27119" lon="6.4499">
        <ele>110.626</ele>
        <time>2012-10-07T07:49:13Z</time>
      </trkpt>
      <trkpt lat="43.27107" lon="6.45019">
        <ele>106.025</ele>
        <time>2012-10-07T07:49:19Z</time>
      </trkpt>
      <trkpt lat="43.27105" lon="6.45029">
        <ele>104.425</ele>
        <time>2012-10-07T07:49:21Z</time>
      </trkpt>
      <trkpt lat="43.27107" lon="6.45057">
        <ele>102.109</ele>
        <time>2012-10-07T07:49:25Z</time>
      </trkpt>
      <trkpt lat="43.27106" lon="6.45078">
        <ele>99.272</ele>
        <time>2012-10-07T07:49:28Z</time>
      </trkpt>
      <trkpt lat="43.27109" lon="6.451">
        <ele>97.578</ele>
        <time>2012-10-07T07:49:31Z</time>
      </trkpt>
      <trkpt lat="43.27122" lon="6.45122">
        <ele>96.768</ele>
        <time>2012-10-07T07:49:36Z</time>
      </trkpt>
      <trkpt lat="43.27128" lon="6.45127">
        <ele>96.839</ele>
        <time>2012-10-07T07:49:38Z</time>
      </trkpt>
      <trkpt lat="43.27139" lon="6.45141">
        <ele>97.783</ele>
        <time>2012-10-07T07:49:44Z</time>
      </trkpt>
      <trkpt lat="43.27151" lon="6.45155">
        <ele>98.995</ele>
        <time>2012-10-07T07:49:51Z</time>
      </trkpt>
      <trkpt lat="43.27165" lon="6.45166">
        <ele>100.886</ele>
        <time>2012-10-07T07:49:59Z</time>
      </trkpt>
      <trkpt lat="43.27175" lon="6.45177">
        <ele>103.745</ele>
        <time>2012-10-07T07:50:06Z</time>
      </trkpt>
      <trkpt lat="43.27186" lon="6.4519">
        <ele>104.901</ele>
        <time>2012-10-07T07:50:14Z</time>
      </trkpt>
      <trkpt lat="43.27197" lon="6.452">
        <ele>105.512</ele>
        <time>2012-10-07T07:50:22Z</time>
      </trkpt>
      <trkpt lat="43.27208" lon="6.45207">
        <ele>106.331</ele>
        <time>2012-10-07T07:50:29Z</time>
      </trkpt>
      <trkpt lat="43.27217" lon="6.45216">
        <ele>107.533</ele>
        <time>2012-10-07T07:50:36Z</time>
      </trkpt>
      <trkpt lat="43.27228" lon="6.4523">
        <ele>107.68</ele>
        <time>2012-10-07T07:50:43Z</time>
      </trkpt>
      <trkpt lat="43.2724" lon="6.45239">
        <ele>106.642</ele>
        <time>2012-10-07T07:50:47Z</time>
      </trkpt>
      <trkpt lat="43.27257" lon="6.45259">
        <ele>105.323</ele>
        <time>2012-10-07T07:50:53Z</time>
      </trkpt>
      <trkpt lat="43.27262" lon="6.45278">
        <ele>105.15</ele>
        <time>2012-10-07T07:50:58Z</time>
      </trkpt>
      <trkpt lat="43.27261" lon="6.45298">
        <ele>105.34</ele>
        <time>2012-10-07T07:51:03Z</time>
      </trkpt>
      <trkpt lat="43.27262" lon="6.45309">
        <ele>104.695</ele>
        <time>2012-10-07T07:51:06Z</time>
      </trkpt>
      <trkpt lat="43.27266" lon="6.4534">
        <ele>101.557</ele>
        <time>2012-10-07T07:51:11Z</time>
      </trkpt>
      <trkpt lat="43.2727" lon="6.45361">
        <ele>98.31</ele>
        <time>2012-10-07T07:51:15Z</time>
      </trkpt>
      <trkpt lat="43.27267" lon="6.4537">
        <ele>98.099</ele>
        <time>2012-10-07T07:51:17Z</time>
      </trkpt>
      <trkpt lat="43.27261" lon="6.45408">
        <ele>98.636</ele>
        <time>2012-10-07T07:51:26Z</time>
      </trkpt>
      <trkpt lat="43.27263" lon="6.45434">
        <ele>98.509</ele>
        <time>2012-10-07T07:51:32Z</time>
      </trkpt>
      <trkpt lat="43.27264" lon="6.45442">
        <ele>98.467</ele>
        <time>2012-10-07T07:51:35Z</time>
      </trkpt>
      <trkpt lat="43.27258" lon="6.45447">
        <ele>98.839</ele>
        <time>2012-10-07T07:51:40Z</time>
      </trkpt>
      <trkpt lat="43.27254" lon="6.45448">
        <ele>99.45</ele>
        <time>2012-10-07T07:51:45Z</time>
      </trkpt>
      <trkpt lat="43.27251" lon="6.45451">
        <ele>98.486</ele>
        <time>2012-10-07T07:51:49Z</time>
      </trkpt>
      <trkpt lat="43.27248" lon="6.45465">
        <ele>96.092</ele>
        <time>2012-10-07T07:51:55Z</time>
      </trkpt>
      <trkpt lat="43.27251" lon="6.45495">
        <ele>94.301</ele>
        <time>2012-10-07T07:52:02Z</time>
      </trkpt>
      <trkpt lat="43.27251" lon="6.45522">
        <ele>92.316</ele>
        <time>2012-10-07T07:52:08Z</time>
      </trkpt>
      <trkpt lat="43.27259" lon="6.45538">
        <ele>91.321</ele>
        <time>2012-10-07T07:52:12Z</time>
      </trkpt>
      <trkpt lat="43.27264" lon="6.45548">
        <ele>91.37</ele>
        <time>2012-10-07T07:52:15Z</time>
      </trkpt>
      <trkpt lat="43.27259" lon="6.45569">
        <ele>89.866</ele>
        <time>2012-10-07T07:52:19Z</time>
      </trkpt>
      <trkpt lat="43.27251" lon="6.45578">
        <ele>88.559</ele>
        <time>2012-10-07T07:52:21Z</time>
      </trkpt>
      <trkpt lat="43.27234" lon="6.45592">
        <ele>86.652</ele>
        <time>2012-10-07T07:52:25Z</time>
      </trkpt>
      <trkpt lat="43.27224" lon="6.45605">
        <ele>85.007</ele>
        <time>2012-10-07T07:52:29Z</time>
      </trkpt>
      <trkpt lat="43.27217" lon="6.45622">
        <ele>82.637</ele>
        <time>2012-10-07T07:52:32Z</time>
      </trkpt>
      <trkpt lat="43.27208" lon="6.4564">
        <ele>81.917</ele>
        <time>2012-10-07T07:52:35Z</time>
      </trkpt>
      <trkpt lat="43.27203" lon="6.45661">
        <ele>82.043</ele>
        <time>2012-10-07T07:52:40Z</time>
      </trkpt>
      <trkpt lat="43.27203" lon="6.45697">
        <ele>81.65</ele>
        <time>2012-10-07T07:52:48Z</time>
      </trkpt>
      <trkpt lat="43.27197" lon="6.45707">
        <ele>80.039</ele>
        <time>2012-10-07T07:52:52Z</time>
      </trkpt>
      <trkpt lat="43.27184" lon="6.45708">
        <ele>76.616</ele>
        <time>2012-10-07T07:52:56Z</time>
      </trkpt>
      <trkpt lat="43.27173" lon="6.45708">
        <ele>73.442</ele>
        <time>2012-10-07T07:53:00Z</time>
      </trkpt>
      <trkpt lat="43.27168" lon="6.45718">
        <ele>70.775</ele>
        <time>2012-10-07T07:53:04Z</time>
      </trkpt>
      <trkpt lat="43.27169" lon="6.45731">
        <ele>69.643</ele>
        <time>2012-10-07T07:53:07Z</time>
      </trkpt>
      <trkpt lat="43.27159" lon="6.45734">
        <ele>69.632</ele>
        <time>2012-10-07T07:53:10Z</time>
      </trkpt>
      <trkpt lat="43.27144" lon="6.45733">
        <ele>68.038</ele>
        <time>2012-10-07T07:53:14Z</time>
      </trkpt>
      <trkpt lat="43.27136" lon="6.45739">
        <ele>66.878</ele>
        <time>2012-10-07T07:53:16Z</time>
      </trkpt>
      <trkpt lat="43.27126" lon="6.45753">
        <ele>63.912</ele>
        <time>2012-10-07T07:53:21Z</time>
      </trkpt>
      <trkpt lat="43.27115" lon="6.45763">
        <ele>60.971</ele>
        <time>2012-10-07T07:53:25Z</time>
      </trkpt>
      <trkpt lat="43.27102" lon="6.45769">
        <ele>59.022</ele>
        <time>2012-10-07T07:53:28Z</time>
      </trkpt>
      <trkpt lat="43.27082" lon="6.45768">
        <ele>56.235</ele>
        <time>2012-10-07T07:53:33Z</time>
      </trkpt>
      <trkpt lat="43.2707" lon="6.4577">
        <ele>54.024</ele>
        <time>2012-10-07T07:53:37Z</time>
      </trkpt>
      <trkpt lat="43.27064" lon="6.45781">
        <ele>52.488</ele>
        <time>2012-10-07T07:53:40Z</time>
      </trkpt>
      <trkpt lat="43.27055" lon="6.45774">
        <ele>51.875</ele>
        <time>2012-10-07T07:53:43Z</time>
      </trkpt>
      <trkpt lat="43.27054" lon="6.45759">
        <ele>51.828</ele>
        <time>2012-10-07T07:53:46Z</time>
      </trkpt>
      <trkpt lat="43.27056" lon="6.45735">
        <ele>50.864</ele>
        <time>2012-10-07T07:53:50Z</time>
      </trkpt>
      <trkpt lat="43.27066" lon="6.45703">
        <ele>49.755</ele>
        <time>2012-10-07T07:53:55Z</time>
      </trkpt>
      <trkpt lat="43.27069" lon="6.45697">
        <ele>49.829</ele>
        <time>2012-10-07T07:53:56Z</time>
      </trkpt>
      <trkpt lat="43.27083" lon="6.4568">
        <ele>50.22</ele>
        <time>2012-10-07T07:54:00Z</time>
      </trkpt>
      <trkpt lat="43.27093" lon="6.45662">
        <ele>49.192</ele>
        <time>2012-10-07T07:54:05Z</time>
      </trkpt>
      <trkpt lat="43.27096" lon="6.45645">
        <ele>47.887</ele>
        <time>2012-10-07T07:54:09Z</time>
      </trkpt>
      <trkpt lat="43.27101" lon="6.45637">
        <ele>49.778</ele>
        <time>2012-10-07T07:54:14Z</time>
      </trkpt>
      <trkpt lat="43.27108" lon="6.45627">
        <ele>51.93</ele>
        <time>2012-10-07T07:54:20Z</time>
      </trkpt>
      <trkpt lat="43.27115" lon="6.45614">
        <ele>53.41</ele>
        <time>2012-10-07T07:54:27Z</time>
      </trkpt>
      <trkpt lat="43.27116" lon="6.45612">
        <ele>53.56</ele>
        <time>2012-10-07T07:54:28Z</time>
      </trkpt>
      <trkpt lat="43.2711" lon="6.45611">
        <ele>54.917</ele>
        <time>2012-10-07T07:54:33Z</time>
      </trkpt>
      <trkpt lat="43.27107" lon="6.45613">
        <ele>55.324</ele>
        <time>2012-10-07T07:54:35Z</time>
      </trkpt>
      <trkpt lat="43.27093" lon="6.45621">
        <ele>56.827</ele>
        <time>2012-10-07T07:54:44Z</time>
      </trkpt>
      <trkpt lat="43.27081" lon="6.45631">
        <ele>56.349</ele>
        <time>2012-10-07T07:54:49Z</time>
      </trkpt>
      <trkpt lat="43.27066" lon="6.45637">
        <ele>55.616</ele>
        <time>2012-10-07T07:54:54Z</time>
      </trkpt>
      <trkpt lat="43.27053" lon="6.45635">
        <ele>55.081</ele>
        <time>2012-10-07T07:54:57Z</time>
      </trkpt>
      <trkpt lat="43.27045" lon="6.4564">
        <ele>56.364</ele>
        <time>2012-10-07T07:55:01Z</time>
      </trkpt>
      <trkpt lat="43.27035" lon="6.45651">
        <ele>58.09</ele>
        <time>2012-10-07T07:55:07Z</time>
      </trkpt>
      <trkpt lat="43.27021" lon="6.45661">
        <ele>57.738</ele>
        <time>2012-10-07T07:55:13Z</time>
      </trkpt>
      <trkpt lat="43.27" lon="6.45652">
        <ele>55.263</ele>
        <time>2012-10-07T07:55:18Z</time>
      </trkpt>
      <trkpt lat="43.26995" lon="6.45651">
        <ele>54.985</ele>
        <time>2012-10-07T07:55:19Z</time>
      </trkpt>
      <trkpt lat="43.26985" lon="6.45654">
        <ele>55.967</ele>
        <time>2012-10-07T07:55:24Z</time>
      </trkpt>
      <trkpt lat="43.26975" lon="6.45663">
        <ele>59.009</ele>
        <time>2012-10-07T07:55:32Z</time>
      </trkpt>
      <trkpt lat="43.26967" lon="6.4567">
        <ele>62.059</ele>
        <time>2012-10-07T07:55:40Z</time>
      </trkpt>
      <trkpt lat="43.2696" lon="6.45672">
        <ele>63.941</ele>
        <time>2012-10-07T07:55:46Z</time>
      </trkpt>
      <trkpt lat="43.26959" lon="6.45674">
        <ele>64.152</ele>
        <time>2012-10-07T07:55:51Z</time>
      </trkpt>
      <trkpt lat="43.26956" lon="6.45674">
        <ele>65.003</ele>
        <time>2012-10-07T07:55:56Z</time>
      </trkpt>
      <trkpt lat="43.26949" lon="6.45675">
        <ele>67.908</ele>
        <time>2012-10-07T07:56:07Z</time>
      </trkpt>
      <trkpt lat="43.26943" lon="6.45678">
        <ele>70.096</ele>
        <time>2012-10-07T07:56:18Z</time>
      </trkpt>
      <trkpt lat="43.26941" lon="6.45679">
        <ele>70.945</ele>
        <time>2012-10-07T07:56:24Z</time>
      </trkpt>
      <trkpt lat="43.26939" lon="6.45679">
        <ele>71.121</ele>
        <time>2012-10-07T07:56:33Z</time>
      </trkpt>
      <trkpt lat="43.26939" lon="6.45679">
        <ele>71.991</ele>
        <time>2012-10-07T07:57:04Z</time>
      </trkpt>
      <trkpt lat="43.26941" lon="6.45678">
        <ele>71.282</ele>
        <time>2012-10-07T07:57:36Z</time>
      </trkpt>
      <trkpt lat="43.2695" lon="6.45674">
        <ele>70.287</ele>
        <time>2012-10-07T07:57:40Z</time>
      </trkpt>
      <trkpt lat="43.26972" lon="6.45667">
        <ele>64.344</ele>
        <time>2012-10-07T07:57:48Z</time>
      </trkpt>
      <trkpt lat="43.2699" lon="6.45652">
        <ele>59.373</ele>
        <time>2012-10-07T07:57:54Z</time>
      </trkpt>
      <trkpt lat="43.26996" lon="6.45649">
        <ele>58.162</ele>
        <time>2012-10-07T07:57:56Z</time>
      </trkpt>
      <trkpt lat="43.2701" lon="6.45654">
        <ele>56.719</ele>
        <time>2012-10-07T07:58:00Z</time>
      </trkpt>
      <trkpt lat="43.27019" lon="6.45661">
        <ele>56.905</ele>
        <time>2012-10-07T07:58:06Z</time>
      </trkpt>
      <trkpt lat="43.27025" lon="6.4566">
        <ele>57.679</ele>
        <time>2012-10-07T07:58:09Z</time>
      </trkpt>
      <trkpt lat="43.27041" lon="6.45647">
        <ele>57.865</ele>
        <time>2012-10-07T07:58:17Z</time>
      </trkpt>
      <trkpt lat="43.27051" lon="6.45636">
        <ele>55.736</ele>
        <time>2012-10-07T07:58:21Z</time>
      </trkpt>
      <trkpt lat="43.27067" lon="6.45635">
        <ele>53.697</ele>
        <time>2012-10-07T07:58:25Z</time>
      </trkpt>
      <trkpt lat="43.27076" lon="6.45636">
        <ele>54.168</ele>
        <time>2012-10-07T07:58:30Z</time>
      </trkpt>
      <trkpt lat="43.27084" lon="6.45628">
        <ele>54.693</ele>
        <time>2012-10-07T07:58:35Z</time>
      </trkpt>
      <trkpt lat="43.27086" lon="6.45626">
        <ele>54.773</ele>
        <time>2012-10-07T07:58:38Z</time>
      </trkpt>
      <trkpt lat="43.27089" lon="6.45623">
        <ele>57.146</ele>
        <time>2012-10-07T07:58:45Z</time>
      </trkpt>
      <trkpt lat="43.27091" lon="6.45621">
        <ele>56.892</ele>
        <time>2012-10-07T07:58:55Z</time>
      </trkpt>
      <trkpt lat="43.2709" lon="6.45621">
        <ele>56.934</ele>
        <time>2012-10-07T07:58:58Z</time>
      </trkpt>
      <trkpt lat="43.27087" lon="6.45612">
        <ele>58.007</ele>
        <time>2012-10-07T07:59:04Z</time>
      </trkpt>
      <trkpt lat="43.27087" lon="6.456">
        <ele>58.505</ele>
        <time>2012-10-07T07:59:10Z</time>
      </trkpt>
      <trkpt lat="43.27083" lon="6.45588">
        <ele>59.336</ele>
        <time>2012-10-07T07:59:16Z</time>
      </trkpt>
      <trkpt lat="43.2708" lon="6.45585">
        <ele>60.307</ele>
        <time>2012-10-07T07:59:18Z</time>
      </trkpt>
      <trkpt lat="43.27081" lon="6.45573">
        <ele>61.176</ele>
        <time>2012-10-07T07:59:24Z</time>
      </trkpt>
      <trkpt lat="43.27082" lon="6.45555">
        <ele>61.943</ele>
        <time>2012-10-07T07:59:32Z</time>
      </trkpt>
      <trkpt lat="43.27082" lon="6.45537">
        <ele>62.695</ele>
        <time>2012-10-07T07:59:40Z</time>
      </trkpt>
      <trkpt lat="43.27077" lon="6.45519">
        <ele>64.315</ele>
        <time>2012-10-07T07:59:49Z</time>
      </trkpt>
      <trkpt lat="43.27068" lon="6.45502">
        <ele>65.554</ele>
        <time>2012-10-07T07:59:58Z</time>
      </trkpt>
      <trkpt lat="43.27059" lon="6.45486">
        <ele>66.505</ele>
        <time>2012-10-07T08:00:07Z</time>
      </trkpt>
      <trkpt lat="43.27053" lon="6.45472">
        <ele>67.555</ele>
        <time>2012-10-07T08:00:14Z</time>
      </trkpt>
      <trkpt lat="43.2705" lon="6.45456">
        <ele>68.735</ele>
        <time>2012-10-07T08:00:21Z</time>
      </trkpt>
      <trkpt lat="43.27044" lon="6.45437">
        <ele>69.894</ele>
        <time>2012-10-07T08:00:30Z</time>
      </trkpt>
      <trkpt lat="43.27044" lon="6.45438">
        <ele>69.091</ele>
        <time>2012-10-07T08:00:36Z</time>
      </trkpt>
      <trkpt lat="43.27044" lon="6.45438">
        <ele>68.33</ele>
        <time>2012-10-07T08:00:43Z</time>
      </trkpt>
      <trkpt lat="43.27048" lon="6.45444">
        <ele>67.29</ele>
        <time>2012-10-07T08:00:50Z</time>
      </trkpt>
      <trkpt lat="43.27048" lon="6.45445">
        <ele>66.801</ele>
        <time>2012-10-07T08:00:55Z</time>
      </trkpt>
      <trkpt lat="43.27048" lon="6.45447">
        <ele>65.86</ele>
        <time>2012-10-07T08:01:31Z</time>
      </trkpt>
      <trkpt lat="43.27048" lon="6.45447">
        <ele>65.811</ele>
        <time>2012-10-07T08:01:48Z</time>
      </trkpt>
      <trkpt lat="43.27048" lon="6.45449">
        <ele>65.72</ele>
        <time>2012-10-07T08:02:01Z</time>
      </trkpt>
      <trkpt lat="43.27049" lon="6.45449">
        <ele>65.911</ele>
        <time>2012-10-07T08:02:04Z</time>
      </trkpt>
      <trkpt lat="43.27045" lon="6.45436">
        <ele>67.165</ele>
        <time>2012-10-07T08:02:11Z</time>
      </trkpt>
      <trkpt lat="43.2704" lon="6.45421">
        <ele>69.399</ele>
        <time>2012-10-07T08:02:18Z</time>
      </trkpt>
      <trkpt lat="43.27032" lon="6.45411">
        <ele>70.908</ele>
        <time>2012-10-07T08:02:24Z</time>
      </trkpt>
      <trkpt lat="43.27019" lon="6.45398">
        <ele>72.244</ele>
        <time>2012-10-07T08:02:34Z</time>
      </trkpt>
      <trkpt lat="43.27008" lon="6.45386">
        <ele>73.527</ele>
        <time>2012-10-07T08:02:44Z</time>
      </trkpt>
      <trkpt lat="43.26999" lon="6.45376">
        <ele>75.87</ele>
        <time>2012-10-07T08:02:52Z</time>
      </trkpt>
      <trkpt lat="43.26996" lon="6.45368">
        <ele>77.957</ele>
        <time>2012-10-07T08:02:58Z</time>
      </trkpt>
      <trkpt lat="43.2699" lon="6.45354">
        <ele>80.33</ele>
        <time>2012-10-07T08:03:06Z</time>
      </trkpt>
      <trkpt lat="43.26988" lon="6.45345">
        <ele>82.871</ele>
        <time>2012-10-07T08:03:11Z</time>
      </trkpt>
      <trkpt lat="43.26985" lon="6.45345">
        <ele>83.574</ele>
        <time>2012-10-07T08:03:15Z</time>
      </trkpt>
      <trkpt lat="43.26986" lon="6.45345">
        <ele>84.023</ele>
        <time>2012-10-07T08:03:22Z</time>
      </trkpt>
      <trkpt lat="43.26985" lon="6.4534">
        <ele>85.122</ele>
        <time>2012-10-07T08:03:29Z</time>
      </trkpt>
      <trkpt lat="43.26985" lon="6.45339">
        <ele>85.533</ele>
        <time>2012-10-07T08:03:34Z</time>
      </trkpt>
      <trkpt lat="43.26982" lon="6.45331">
        <ele>86.856</ele>
        <time>2012-10-07T08:03:40Z</time>
      </trkpt>
      <trkpt lat="43.26975" lon="6.45319">
        <ele>89.109</ele>
        <time>2012-10-07T08:03:48Z</time>
      </trkpt>
      <trkpt lat="43.26969" lon="6.45311">
        <ele>90.454</ele>
        <time>2012-10-07T08:03:55Z</time>
      </trkpt>
      <trkpt lat="43.26967" lon="6.45299">
        <ele>91.756</ele>
        <time>2012-10-07T08:04:01Z</time>
      </trkpt>
      <trkpt lat="43.26964" lon="6.45287">
        <ele>93.556</ele>
        <time>2012-10-07T08:04:08Z</time>
      </trkpt>
      <trkpt lat="43.26958" lon="6.45274">
        <ele>95.476</ele>
        <time>2012-10-07T08:04:16Z</time>
      </trkpt>
      <trkpt lat="43.26953" lon="6.45262">
        <ele>97.236</ele>
        <time>2012-10-07T08:04:24Z</time>
      </trkpt>
      <trkpt lat="43.26946" lon="6.4525">
        <ele>99.376</ele>
        <time>2012-10-07T08:04:33Z</time>
      </trkpt>
      <trkpt lat="43.2694" lon="6.45235">
        <ele>101.156</ele>
        <time>2012-10-07T08:04:43Z</time>
      </trkpt>
      <trkpt lat="43.26936" lon="6.45223">
        <ele>103.332</ele>
        <time>2012-10-07T08:04:49Z</time>
      </trkpt>
      <trkpt lat="43.26937" lon="6.45212">
        <ele>104.055</ele>
        <time>2012-10-07T08:04:55Z</time>
      </trkpt>
      <trkpt lat="43.26936" lon="6.45191">
        <ele>104.084</ele>
        <time>2012-10-07T08:05:04Z</time>
      </trkpt>
      <trkpt lat="43.26936" lon="6.45173">
        <ele>104.863</ele>
        <time>2012-10-07T08:05:13Z</time>
      </trkpt>
      <trkpt lat="43.26934" lon="6.45162">
        <ele>105.728</ele>
        <time>2012-10-07T08:05:18Z</time>
      </trkpt>
      <trkpt lat="43.26934" lon="6.45149">
        <ele>106.275</ele>
        <time>2012-10-07T08:05:24Z</time>
      </trkpt>
      <trkpt lat="43.26937" lon="6.4513">
        <ele>105.701</ele>
        <time>2012-10-07T08:05:32Z</time>
      </trkpt>
      <trkpt lat="43.26945" lon="6.45116">
        <ele>106.516</ele>
        <time>2012-10-07T08:05:40Z</time>
      </trkpt>
      <trkpt lat="43.26949" lon="6.45102">
        <ele>108.619</ele>
        <time>2012-10-07T08:05:47Z</time>
      </trkpt>
      <trkpt lat="43.26947" lon="6.45083">
        <ele>108.575</ele>
        <time>2012-10-07T08:05:55Z</time>
      </trkpt>
      <trkpt lat="43.26944" lon="6.45063">
        <ele>108.873</ele>
        <time>2012-10-07T08:06:02Z</time>
      </trkpt>
      <trkpt lat="43.26944" lon="6.4504">
        <ele>109.084</ele>
        <time>2012-10-07T08:06:09Z</time>
      </trkpt>
      <trkpt lat="43.26949" lon="6.45019">
        <ele>110.006</ele>
        <time>2012-10-07T08:06:16Z</time>
      </trkpt>
      <trkpt lat="43.26952" lon="6.44996">
        <ele>110.756</ele>
        <time>2012-10-07T08:06:23Z</time>
      </trkpt>
      <trkpt lat="43.26957" lon="6.44969">
        <ele>110.848</ele>
        <time>2012-10-07T08:06:30Z</time>
      </trkpt>
      <trkpt lat="43.26959" lon="6.4495">
        <ele>111.288</ele>
        <time>2012-10-07T08:06:37Z</time>
      </trkpt>
      <trkpt lat="43.26961" lon="6.44938">
        <ele>112.912</ele>
        <time>2012-10-07T08:06:43Z</time>
      </trkpt>
      <trkpt lat="43.26961" lon="6.4493">
        <ele>113.384</ele>
        <time>2012-10-07T08:06:47Z</time>
      </trkpt>
      <trkpt lat="43.26965" lon="6.44919">
        <ele>115.07</ele>
        <time>2012-10-07T08:06:53Z</time>
      </trkpt>
      <trkpt lat="43.26967" lon="6.44906">
        <ele>117.387</ele>
        <time>2012-10-07T08:06:59Z</time>
      </trkpt>
      <trkpt lat="43.2697" lon="6.44893">
        <ele>117.986</ele>
        <time>2012-10-07T08:07:05Z</time>
      </trkpt>
      <trkpt lat="43.26972" lon="6.4488">
        <ele>120.735</ele>
        <time>2012-10-07T08:07:12Z</time>
      </trkpt>
      <trkpt lat="43.26973" lon="6.44864">
        <ele>121.315</ele>
        <time>2012-10-07T08:07:20Z</time>
      </trkpt>
      <trkpt lat="43.26972" lon="6.44861">
        <ele>121.633</ele>
        <time>2012-10-07T08:07:22Z</time>
      </trkpt>
      <trkpt lat="43.2697" lon="6.44848">
        <ele>122.067</ele>
        <time>2012-10-07T08:07:29Z</time>
      </trkpt>
      <trkpt lat="43.26969" lon="6.44834">
        <ele>123.397</ele>
        <time>2012-10-07T08:07:38Z</time>
      </trkpt>
      <trkpt lat="43.26967" lon="6.44821">
        <ele>125.479</ele>
        <time>2012-10-07T08:07:46Z</time>
      </trkpt>
      <trkpt lat="43.26963" lon="6.44807">
        <ele>127.005</ele>
        <time>2012-10-07T08:07:54Z</time>
      </trkpt>
      <trkpt lat="43.26962" lon="6.44796">
        <ele>127.456</ele>
        <time>2012-10-07T08:08:00Z</time>
      </trkpt>
      <trkpt lat="43.26957" lon="6.44781">
        <ele>128.545</ele>
        <time>2012-10-07T08:08:09Z</time>
      </trkpt>
      <trkpt lat="43.26951" lon="6.44766">
        <ele>129.725</ele>
        <time>2012-10-07T08:08:19Z</time>
      </trkpt>
      <trkpt lat="43.26943" lon="6.44761">
        <ele>130.829</ele>
        <time>2012-10-07T08:08:25Z</time>
      </trkpt>
      <trkpt lat="43.26937" lon="6.44764">
        <ele>132.298</ele>
        <time>2012-10-07T08:08:30Z</time>
      </trkpt>
      <trkpt lat="43.26927" lon="6.44775">
        <ele>133.261</ele>
        <time>2012-10-07T08:08:38Z</time>
      </trkpt>
      <trkpt lat="43.26914" lon="6.44779">
        <ele>134.913</ele>
        <time>2012-10-07T08:08:46Z</time>
      </trkpt>
      <trkpt lat="43.26901" lon="6.4478">
        <ele>137.085</ele>
        <time>2012-10-07T08:08:55Z</time>
      </trkpt>
      <trkpt lat="43.26889" lon="6.44776">
        <ele>139.216</ele>
        <time>2012-10-07T08:09:03Z</time>
      </trkpt>
      <trkpt lat="43.26881" lon="6.44771">
        <ele>139.715</ele>
        <time>2012-10-07T08:09:10Z</time>
      </trkpt>
      <trkpt lat="43.26874" lon="6.44764">
        <ele>141.09</ele>
        <time>2012-10-07T08:09:16Z</time>
      </trkpt>
      <trkpt lat="43.26868" lon="6.44754">
        <ele>142.988</ele>
        <time>2012-10-07T08:09:23Z</time>
      </trkpt>
      <trkpt lat="43.26863" lon="6.44745">
        <ele>145.211</ele>
        <time>2012-10-07T08:09:29Z</time>
      </trkpt>
      <trkpt lat="43.26856" lon="6.44743">
        <ele>146.438</ele>
        <time>2012-10-07T08:09:35Z</time>
      </trkpt>
      <trkpt lat="43.26844" lon="6.44743">
        <ele>149.144</ele>
        <time>2012-10-07T08:09:44Z</time>
      </trkpt>
      <trkpt lat="43.26834" lon="6.44747">
        <ele>151.275</ele>
        <time>2012-10-07T08:09:52Z</time>
      </trkpt>
      <trkpt lat="43.26825" lon="6.44749">
        <ele>152.684</ele>
        <time>2012-10-07T08:09:59Z</time>
      </trkpt>
      <trkpt lat="43.26817" lon="6.44751">
        <ele>153.883</ele>
        <time>2012-10-07T08:10:06Z</time>
      </trkpt>
      <trkpt lat="43.26809" lon="6.44755">
        <ele>155.243</ele>
        <time>2012-10-07T08:10:13Z</time>
      </trkpt>
      <trkpt lat="43.26802" lon="6.44758">
        <ele>157.63</ele>
        <time>2012-10-07T08:10:20Z</time>
      </trkpt>
      <trkpt lat="43.26793" lon="6.44765">
        <ele>160.488</ele>
        <time>2012-10-07T08:10:28Z</time>
      </trkpt>
      <trkpt lat="43.26782" lon="6.44772">
        <ele>162</ele>
        <time>2012-10-07T08:10:37Z</time>
      </trkpt>
      <trkpt lat="43.26781" lon="6.44772">
        <ele>162.257</ele>
        <time>2012-10-07T08:10:38Z</time>
      </trkpt>
      <trkpt lat="43.2677" lon="6.44775">
        <ele>162.023</ele>
        <time>2012-10-07T08:10:46Z</time>
      </trkpt>
      <trkpt lat="43.26761" lon="6.44775">
        <ele>162.654</ele>
        <time>2012-10-07T08:10:53Z</time>
      </trkpt>
      <trkpt lat="43.2675" lon="6.44776">
        <ele>164.203</ele>
        <time>2012-10-07T08:11:02Z</time>
      </trkpt>
      <trkpt lat="43.26742" lon="6.44774">
        <ele>164.553</ele>
        <time>2012-10-07T08:11:09Z</time>
      </trkpt>
      <trkpt lat="43.26733" lon="6.44772">
        <ele>165.778</ele>
        <time>2012-10-07T08:11:17Z</time>
      </trkpt>
      <trkpt lat="43.26724" lon="6.44772">
        <ele>168.811</ele>
        <time>2012-10-07T08:11:24Z</time>
      </trkpt>
      <trkpt lat="43.2672" lon="6.44772">
        <ele>169.066</ele>
        <time>2012-10-07T08:11:26Z</time>
      </trkpt>
      <trkpt lat="43.26719" lon="6.44779">
        <ele>172.936</ele>
        <time>2012-10-07T08:11:32Z</time>
      </trkpt>
      <trkpt lat="43.26723" lon="6.44779">
        <ele>175.282</ele>
        <time>2012-10-07T08:11:35Z</time>
      </trkpt>
      <trkpt lat="43.26732" lon="6.44777">
        <ele>180.4</ele>
        <time>2012-10-07T08:11:41Z</time>
      </trkpt>
      <trkpt lat="43.2674" lon="6.44782">
        <ele>181.034</ele>
        <time>2012-10-07T08:11:47Z</time>
      </trkpt>
      <trkpt lat="43.26749" lon="6.44791">
        <ele>181.647</ele>
        <time>2012-10-07T08:11:54Z</time>
      </trkpt>
      <trkpt lat="43.2676" lon="6.44799">
        <ele>183.177</ele>
        <time>2012-10-07T08:12:03Z</time>
      </trkpt>
      <trkpt lat="43.26768" lon="6.44805">
        <ele>181.988</ele>
        <time>2012-10-07T08:12:10Z</time>
      </trkpt>
      <trkpt lat="43.26783" lon="6.4481">
        <ele>184.365</ele>
        <time>2012-10-07T08:12:21Z</time>
      </trkpt>
      <trkpt lat="43.26796" lon="6.44817">
        <ele>181.804</ele>
        <time>2012-10-07T08:12:31Z</time>
      </trkpt>
      <trkpt lat="43.26808" lon="6.44823">
        <ele>181.337</ele>
        <time>2012-10-07T08:12:39Z</time>
      </trkpt>
      <trkpt lat="43.26814" lon="6.44836">
        <ele>180.753</ele>
        <time>2012-10-07T08:12:46Z</time>
      </trkpt>
      <trkpt lat="43.26819" lon="6.44853">
        <ele>181.668</ele>
        <time>2012-10-07T08:12:55Z</time>
      </trkpt>
      <trkpt lat="43.26823" lon="6.44866">
        <ele>183.045</ele>
        <time>2012-10-07T08:13:02Z</time>
      </trkpt>
      <trkpt lat="43.26827" lon="6.44883">
        <ele>184.371</ele>
        <time>2012-10-07T08:13:10Z</time>
      </trkpt>
      <trkpt lat="43.26827" lon="6.44893">
        <ele>186.457</ele>
        <time>2012-10-07T08:13:14Z</time>
      </trkpt>
      <trkpt lat="43.26825" lon="6.44901">
        <ele>188.151</ele>
        <time>2012-10-07T08:13:18Z</time>
      </trkpt>
      <trkpt lat="43.2682" lon="6.44911">
        <ele>190.191</ele>
        <time>2012-10-07T08:13:25Z</time>
      </trkpt>
      <trkpt lat="43.26812" lon="6.44919">
        <ele>192.037</ele>
        <time>2012-10-07T08:13:33Z</time>
      </trkpt>
      <trkpt lat="43.26802" lon="6.44923">
        <ele>194.872</ele>
        <time>2012-10-07T08:13:42Z</time>
      </trkpt>
      <trkpt lat="43.26793" lon="6.4492">
        <ele>196.639</ele>
        <time>2012-10-07T08:13:49Z</time>
      </trkpt>
      <trkpt lat="43.26785" lon="6.44914">
        <ele>197.641</ele>
        <time>2012-10-07T08:13:56Z</time>
      </trkpt>
      <trkpt lat="43.26779" lon="6.44905">
        <ele>199.11</ele>
        <time>2012-10-07T08:14:04Z</time>
      </trkpt>
      <trkpt lat="43.26773" lon="6.44899">
        <ele>200.043</ele>
        <time>2012-10-07T08:14:10Z</time>
      </trkpt>
      <trkpt lat="43.26765" lon="6.44894">
        <ele>202.666</ele>
        <time>2012-10-07T08:14:18Z</time>
      </trkpt>
      <trkpt lat="43.26756" lon="6.44891">
        <ele>204.74</ele>
        <time>2012-10-07T08:14:25Z</time>
      </trkpt>
      <trkpt lat="43.26744" lon="6.44885">
        <ele>205.976</ele>
        <time>2012-10-07T08:14:34Z</time>
      </trkpt>
      <trkpt lat="43.2673" lon="6.44879">
        <ele>205.83</ele>
        <time>2012-10-07T08:14:43Z</time>
      </trkpt>
      <trkpt lat="43.26716" lon="6.44872">
        <ele>205.26</ele>
        <time>2012-10-07T08:14:50Z</time>
      </trkpt>
      <trkpt lat="43.26704" lon="6.44863">
        <ele>204.409</ele>
        <time>2012-10-07T08:14:56Z</time>
      </trkpt>
      <trkpt lat="43.2669" lon="6.44858">
        <ele>205.054</ele>
        <time>2012-10-07T08:15:05Z</time>
      </trkpt>
      <trkpt lat="43.26677" lon="6.44855">
        <ele>207.524</ele>
        <time>2012-10-07T08:15:14Z</time>
      </trkpt>
      <trkpt lat="43.26666" lon="6.44855">
        <ele>209.717</ele>
        <time>2012-10-07T08:15:23Z</time>
      </trkpt>
      <trkpt lat="43.26657" lon="6.44854">
        <ele>211.727</ele>
        <time>2012-10-07T08:15:29Z</time>
      </trkpt>
      <trkpt lat="43.26647" lon="6.44857">
        <ele>213.886</ele>
        <time>2012-10-07T08:15:37Z</time>
      </trkpt>
      <trkpt lat="43.26638" lon="6.44864">
        <ele>217.026</ele>
        <time>2012-10-07T08:15:45Z</time>
      </trkpt>
      <trkpt lat="43.2663" lon="6.44865">
        <ele>219.128</ele>
        <time>2012-10-07T08:15:51Z</time>
      </trkpt>
      <trkpt lat="43.26621" lon="6.4486">
        <ele>218.915</ele>
        <time>2012-10-07T08:15:58Z</time>
      </trkpt>
      <trkpt lat="43.2661" lon="6.44848">
        <ele>218.834</ele>
        <time>2012-10-07T08:16:07Z</time>
      </trkpt>
      <trkpt lat="43.26602" lon="6.44846">
        <ele>219.374</ele>
        <time>2012-10-07T08:16:13Z</time>
      </trkpt>
      <trkpt lat="43.26589" lon="6.44849">
        <ele>220.763</ele>
        <time>2012-10-07T08:16:22Z</time>
      </trkpt>
      <trkpt lat="43.26579" lon="6.44845">
        <ele>220.926</ele>
        <time>2012-10-07T08:16:29Z</time>
      </trkpt>
      <trkpt lat="43.26574" lon="6.44836">
        <ele>221.174</ele>
        <time>2012-10-07T08:16:35Z</time>
      </trkpt>
      <trkpt lat="43.26571" lon="6.44828">
        <ele>226.755</ele>
        <time>2012-10-07T08:16:42Z</time>
      </trkpt>
      <trkpt lat="43.26566" lon="6.44833">
        <ele>229.886</ele>
        <time>2012-10-07T08:16:47Z</time>
      </trkpt>
      <trkpt lat="43.26558" lon="6.44844">
        <ele>231.4</ele>
        <time>2012-10-07T08:16:55Z</time>
      </trkpt>
      <trkpt lat="43.26551" lon="6.44858">
        <ele>233.245</ele>
        <time>2012-10-07T08:17:05Z</time>
      </trkpt>
      <trkpt lat="43.26545" lon="6.44868">
        <ele>238.311</ele>
        <time>2012-10-07T08:17:13Z</time>
      </trkpt>
      <trkpt lat="43.26541" lon="6.44873">
        <ele>238.767</ele>
        <time>2012-10-07T08:17:16Z</time>
      </trkpt>
      <trkpt lat="43.2654" lon="6.44878">
        <ele>239.275</ele>
        <time>2012-10-07T08:17:20Z</time>
      </trkpt>
      <trkpt lat="43.26542" lon="6.4489">
        <ele>242.397</ele>
        <time>2012-10-07T08:17:28Z</time>
      </trkpt>
      <trkpt lat="43.26541" lon="6.44887">
        <ele>244.832</ele>
        <time>2012-10-07T08:17:33Z</time>
      </trkpt>
      <trkpt lat="43.26542" lon="6.44883">
        <ele>246.177</ele>
        <time>2012-10-07T08:17:43Z</time>
      </trkpt>
      <trkpt lat="43.26542" lon="6.44877">
        <ele>245.55</ele>
        <time>2012-10-07T08:17:50Z</time>
      </trkpt>
      <trkpt lat="43.26542" lon="6.44878">
        <ele>243.687</ele>
        <time>2012-10-07T08:17:55Z</time>
      </trkpt>
      <trkpt lat="43.26544" lon="6.44889">
        <ele>243.016</ele>
        <time>2012-10-07T08:18:02Z</time>
      </trkpt>
      <trkpt lat="43.26545" lon="6.44892">
        <ele>243.166</ele>
        <time>2012-10-07T08:18:04Z</time>
      </trkpt>
      <trkpt lat="43.26552" lon="6.44904">
        <ele>243.22</ele>
        <time>2012-10-07T08:18:12Z</time>
      </trkpt>
      <trkpt lat="43.2656" lon="6.44912">
        <ele>243.921</ele>
        <time>2012-10-07T08:18:20Z</time>
      </trkpt>
      <trkpt lat="43.26569" lon="6.44916">
        <ele>246.6</ele>
        <time>2012-10-07T08:18:28Z</time>
      </trkpt>
      <trkpt lat="43.26576" lon="6.44922">
        <ele>247.685</ele>
        <time>2012-10-07T08:18:35Z</time>
      </trkpt>
      <trkpt lat="43.26584" lon="6.4493">
        <ele>249.199</ele>
        <time>2012-10-07T08:18:44Z</time>
      </trkpt>
      <trkpt lat="43.2659" lon="6.44935">
        <ele>249.771</ele>
        <time>2012-10-07T08:18:50Z</time>
      </trkpt>
      <trkpt lat="43.26592" lon="6.44947">
        <ele>251.418</ele>
        <time>2012-10-07T08:18:58Z</time>
      </trkpt>
      <trkpt lat="43.26586" lon="6.44956">
        <ele>251.713</ele>
        <time>2012-10-07T08:19:04Z</time>
      </trkpt>
      <trkpt lat="43.2658" lon="6.44966">
        <ele>250.831</ele>
        <time>2012-10-07T08:19:09Z</time>
      </trkpt>
      <trkpt lat="43.26567" lon="6.44992">
        <ele>248.536</ele>
        <time>2012-10-07T08:19:14Z</time>
      </trkpt>
      <trkpt lat="43.26546" lon="6.45034">
        <ele>245.71</ele>
        <time>2012-10-07T08:19:21Z</time>
      </trkpt>
      <trkpt lat="43.26527" lon="6.45062">
        <ele>243.259</ele>
        <time>2012-10-07T08:19:26Z</time>
      </trkpt>
      <trkpt lat="43.26512" lon="6.45085">
        <ele>240.718</ele>
        <time>2012-10-07T08:19:32Z</time>
      </trkpt>
      <trkpt lat="43.26508" lon="6.45088">
        <ele>240.115</ele>
        <time>2012-10-07T08:19:33Z</time>
      </trkpt>
      <trkpt lat="43.26491" lon="6.45118">
        <ele>237.869</ele>
        <time>2012-10-07T08:19:39Z</time>
      </trkpt>
      <trkpt lat="43.26485" lon="6.4513">
        <ele>237.059</ele>
        <time>2012-10-07T08:19:41Z</time>
      </trkpt>
      <trkpt lat="43.26487" lon="6.45159">
        <ele>237.964</ele>
        <time>2012-10-07T08:19:45Z</time>
      </trkpt>
      <trkpt lat="43.26489" lon="6.45193">
        <ele>237.213</ele>
        <time>2012-10-07T08:19:50Z</time>
      </trkpt>
      <trkpt lat="43.26487" lon="6.45199">
        <ele>236.601</ele>
        <time>2012-10-07T08:19:51Z</time>
      </trkpt>
      <trkpt lat="43.26465" lon="6.4523">
        <ele>233.974</ele>
        <time>2012-10-07T08:19:57Z</time>
      </trkpt>
      <trkpt lat="43.26463" lon="6.45234">
        <ele>233.486</ele>
        <time>2012-10-07T08:19:58Z</time>
      </trkpt>
      <trkpt lat="43.26471" lon="6.45246">
        <ele>232.673</ele>
        <time>2012-10-07T08:20:02Z</time>
      </trkpt>
      <trkpt lat="43.26487" lon="6.45258">
        <ele>230.935</ele>
        <time>2012-10-07T08:20:07Z</time>
      </trkpt>
      <trkpt lat="43.265" lon="6.45254">
        <ele>229.769</ele>
        <time>2012-10-07T08:20:12Z</time>
      </trkpt>
      <trkpt lat="43.26517" lon="6.45252">
        <ele>228.065</ele>
        <time>2012-10-07T08:20:18Z</time>
      </trkpt>
      <trkpt lat="43.2652" lon="6.45254">
        <ele>227.458</ele>
        <time>2012-10-07T08:20:19Z</time>
      </trkpt>
      <trkpt lat="43.26527" lon="6.4526">
        <ele>226.602</ele>
        <time>2012-10-07T08:20:21Z</time>
      </trkpt>
      <trkpt lat="43.26554" lon="6.4528">
        <ele>223.391</ele>
        <time>2012-10-07T08:20:29Z</time>
      </trkpt>
      <trkpt lat="43.26559" lon="6.45288">
        <ele>222.694</ele>
        <time>2012-10-07T08:20:31Z</time>
      </trkpt>
      <trkpt lat="43.26565" lon="6.45308">
        <ele>220.511</ele>
        <time>2012-10-07T08:20:35Z</time>
      </trkpt>
      <trkpt lat="43.26564" lon="6.45336">
        <ele>217.554</ele>
        <time>2012-10-07T08:20:42Z</time>
      </trkpt>
      <trkpt lat="43.26563" lon="6.45361">
        <ele>216.273</ele>
        <time>2012-10-07T08:20:47Z</time>
      </trkpt>
      <trkpt lat="43.26571" lon="6.45384">
        <ele>216.751</ele>
        <time>2012-10-07T08:20:52Z</time>
      </trkpt>
      <trkpt lat="43.26572" lon="6.45388">
        <ele>216.679</ele>
        <time>2012-10-07T08:20:53Z</time>
      </trkpt>
      <trkpt lat="43.2657" lon="6.45417">
        <ele>215.542</ele>
        <time>2012-10-07T08:20:58Z</time>
      </trkpt>
      <trkpt lat="43.26566" lon="6.45423">
        <ele>215.233</ele>
        <time>2012-10-07T08:21:00Z</time>
      </trkpt>
      <trkpt lat="43.26559" lon="6.45429">
        <ele>213.858</ele>
        <time>2012-10-07T08:21:03Z</time>
      </trkpt>
      <trkpt lat="43.26551" lon="6.45449">
        <ele>211.325</ele>
        <time>2012-10-07T08:21:07Z</time>
      </trkpt>
      <trkpt lat="43.26552" lon="6.45454">
        <ele>211.134</ele>
        <time>2012-10-07T08:21:08Z</time>
      </trkpt>
      <trkpt lat="43.26562" lon="6.45485">
        <ele>208.531</ele>
        <time>2012-10-07T08:21:15Z</time>
      </trkpt>
      <trkpt lat="43.26563" lon="6.45491">
        <ele>208.215</ele>
        <time>2012-10-07T08:21:16Z</time>
      </trkpt>
      <trkpt lat="43.26567" lon="6.45513">
        <ele>206.321</ele>
        <time>2012-10-07T08:21:21Z</time>
      </trkpt>
      <trkpt lat="43.26567" lon="6.45518">
        <ele>205.861</ele>
        <time>2012-10-07T08:21:22Z</time>
      </trkpt>
      <trkpt lat="43.26559" lon="6.45524">
        <ele>204.979</ele>
        <time>2012-10-07T08:21:26Z</time>
      </trkpt>
      <trkpt lat="43.26546" lon="6.45529">
        <ele>202.321</ele>
        <time>2012-10-07T08:21:31Z</time>
      </trkpt>
      <trkpt lat="43.26535" lon="6.45535">
        <ele>200.447</ele>
        <time>2012-10-07T08:21:35Z</time>
      </trkpt>
      <trkpt lat="43.26526" lon="6.45546">
        <ele>197.942</ele>
        <time>2012-10-07T08:21:39Z</time>
      </trkpt>
      <trkpt lat="43.26521" lon="6.45555">
        <ele>196.835</ele>
        <time>2012-10-07T08:21:42Z</time>
      </trkpt>
      <trkpt lat="43.26525" lon="6.45566">
        <ele>195.927</ele>
        <time>2012-10-07T08:21:46Z</time>
      </trkpt>
      <trkpt lat="43.2654" lon="6.45583">
        <ele>192.958</ele>
        <time>2012-10-07T08:21:52Z</time>
      </trkpt>
      <trkpt lat="43.26552" lon="6.45597">
        <ele>191.04</ele>
        <time>2012-10-07T08:21:56Z</time>
      </trkpt>
      <trkpt lat="43.26554" lon="6.45613">
        <ele>188.992</ele>
        <time>2012-10-07T08:22:00Z</time>
      </trkpt>
      <trkpt lat="43.26545" lon="6.45626">
        <ele>187.495</ele>
        <time>2012-10-07T08:22:04Z</time>
      </trkpt>
      <trkpt lat="43.26542" lon="6.45632">
        <ele>186.966</ele>
        <time>2012-10-07T08:22:06Z</time>
      </trkpt>
      <trkpt lat="43.26539" lon="6.45643">
        <ele>185.808</ele>
        <time>2012-10-07T08:22:08Z</time>
      </trkpt>
      <trkpt lat="43.26542" lon="6.45664">
        <ele>184.176</ele>
        <time>2012-10-07T08:22:12Z</time>
      </trkpt>
      <trkpt lat="43.26553" lon="6.45686">
        <ele>182.23</ele>
        <time>2012-10-07T08:22:16Z</time>
      </trkpt>
      <trkpt lat="43.26555" lon="6.45691">
        <ele>181.448</ele>
        <time>2012-10-07T08:22:17Z</time>
      </trkpt>
      <trkpt lat="43.26566" lon="6.45714">
        <ele>178.483</ele>
        <time>2012-10-07T08:22:22Z</time>
      </trkpt>
      <trkpt lat="43.26579" lon="6.4573">
        <ele>177.127</ele>
        <time>2012-10-07T08:22:26Z</time>
      </trkpt>
      <trkpt lat="43.26592" lon="6.45749">
        <ele>175.529</ele>
        <time>2012-10-07T08:22:30Z</time>
      </trkpt>
      <trkpt lat="43.26598" lon="6.45769">
        <ele>173.005</ele>
        <time>2012-10-07T08:22:36Z</time>
      </trkpt>
      <trkpt lat="43.26602" lon="6.45787">
        <ele>170.678</ele>
        <time>2012-10-07T08:22:39Z</time>
      </trkpt>
      <trkpt lat="43.26614" lon="6.45798">
        <ele>169.427</ele>
        <time>2012-10-07T08:22:43Z</time>
      </trkpt>
      <trkpt lat="43.26631" lon="6.45804">
        <ele>167.488</ele>
        <time>2012-10-07T08:22:48Z</time>
      </trkpt>
      <trkpt lat="43.26641" lon="6.45823">
        <ele>164.501</ele>
        <time>2012-10-07T08:22:53Z</time>
      </trkpt>
      <trkpt lat="43.26648" lon="6.45841">
        <ele>162.684</ele>
        <time>2012-10-07T08:22:58Z</time>
      </trkpt>
      <trkpt lat="43.26658" lon="6.45857">
        <ele>161.223</ele>
        <time>2012-10-07T08:23:03Z</time>
      </trkpt>
      <trkpt lat="43.26665" lon="6.45869">
        <ele>159.464</ele>
        <time>2012-10-07T08:23:08Z</time>
      </trkpt>
      <trkpt lat="43.26667" lon="6.45877">
        <ele>159.37</ele>
        <time>2012-10-07T08:23:11Z</time>
      </trkpt>
      <trkpt lat="43.26667" lon="6.4588">
        <ele>159.673</ele>
        <time>2012-10-07T08:23:13Z</time>
      </trkpt>
      <trkpt lat="43.2666" lon="6.45893">
        <ele>160.655</ele>
        <time>2012-10-07T08:23:21Z</time>
      </trkpt>
      <trkpt lat="43.2665" lon="6.459">
        <ele>161.976</ele>
        <time>2012-10-07T08:23:27Z</time>
      </trkpt>
      <trkpt lat="43.26639" lon="6.45911">
        <ele>163.278</ele>
        <time>2012-10-07T08:23:35Z</time>
      </trkpt>
      <trkpt lat="43.26626" lon="6.45922">
        <ele>165.057</ele>
        <time>2012-10-07T08:23:44Z</time>
      </trkpt>
      <trkpt lat="43.26612" lon="6.45932">
        <ele>166.35</ele>
        <time>2012-10-07T08:23:53Z</time>
      </trkpt>
      <trkpt lat="43.26605" lon="6.45936">
        <ele>167.681</ele>
        <time>2012-10-07T08:23:58Z</time>
      </trkpt>
      <trkpt lat="43.26597" lon="6.45943">
        <ele>169.039</ele>
        <time>2012-10-07T08:24:05Z</time>
      </trkpt>
      <trkpt lat="43.26587" lon="6.45949">
        <ele>170.338</ele>
        <time>2012-10-07T08:24:12Z</time>
      </trkpt>
      <trkpt lat="43.26574" lon="6.45954">
        <ele>172.866</ele>
        <time>2012-10-07T08:24:22Z</time>
      </trkpt>
      <trkpt lat="43.26564" lon="6.45957">
        <ele>174.253</ele>
        <time>2012-10-07T08:24:29Z</time>
      </trkpt>
      <trkpt lat="43.26556" lon="6.45958">
        <ele>174.837</ele>
        <time>2012-10-07T08:24:35Z</time>
      </trkpt>
      <trkpt lat="43.26545" lon="6.45958">
        <ele>177.155</ele>
        <time>2012-10-07T08:24:41Z</time>
      </trkpt>
      <trkpt lat="43.26534" lon="6.45961">
        <ele>175.91</ele>
        <time>2012-10-07T08:24:47Z</time>
      </trkpt>
      <trkpt lat="43.26524" lon="6.45982">
        <ele>174.967</ele>
        <time>2012-10-07T08:24:53Z</time>
      </trkpt>
      <trkpt lat="43.26516" lon="6.46005">
        <ele>173.903</ele>
        <time>2012-10-07T08:24:58Z</time>
      </trkpt>
      <trkpt lat="43.26502" lon="6.46015">
        <ele>172.097</ele>
        <time>2012-10-07T08:25:03Z</time>
      </trkpt>
      <trkpt lat="43.26489" lon="6.46016">
        <ele>172.163</ele>
        <time>2012-10-07T08:25:09Z</time>
      </trkpt>
      <trkpt lat="43.2647" lon="6.46015">
        <ele>172.505</ele>
        <time>2012-10-07T08:25:17Z</time>
      </trkpt>
      <trkpt lat="43.26446" lon="6.46006">
        <ele>171.858</ele>
        <time>2012-10-07T08:25:26Z</time>
      </trkpt>
      <trkpt lat="43.26426" lon="6.45995">
        <ele>171.826</ele>
        <time>2012-10-07T08:25:33Z</time>
      </trkpt>
      <trkpt lat="43.26414" lon="6.45982">
        <ele>171.482</ele>
        <time>2012-10-07T08:25:39Z</time>
      </trkpt>
      <trkpt lat="43.26404" lon="6.45973">
        <ele>173.879</ele>
        <time>2012-10-07T08:25:46Z</time>
      </trkpt>
      <trkpt lat="43.26397" lon="6.45962">
        <ele>175.628</ele>
        <time>2012-10-07T08:25:54Z</time>
      </trkpt>
      <trkpt lat="43.26396" lon="6.45945">
        <ele>178.543</ele>
        <time>2012-10-07T08:26:03Z</time>
      </trkpt>
      <trkpt lat="43.26389" lon="6.45932">
        <ele>179.391</ele>
        <time>2012-10-07T08:26:10Z</time>
      </trkpt>
      <trkpt lat="43.2638" lon="6.45928">
        <ele>180.963</ele>
        <time>2012-10-07T08:26:15Z</time>
      </trkpt>
      <trkpt lat="43.26368" lon="6.45923">
        <ele>183.142</ele>
        <time>2012-10-07T08:26:23Z</time>
      </trkpt>
      <trkpt lat="43.26354" lon="6.45916">
        <ele>184.36</ele>
        <time>2012-10-07T08:26:32Z</time>
      </trkpt>
      <trkpt lat="43.26343" lon="6.4591">
        <ele>187.755</ele>
        <time>2012-10-07T08:26:39Z</time>
      </trkpt>
      <trkpt lat="43.26332" lon="6.45909">
        <ele>191.667</ele>
        <time>2012-10-07T08:26:46Z</time>
      </trkpt>
      <trkpt lat="43.26323" lon="6.4591">
        <ele>191.67</ele>
        <time>2012-10-07T08:26:53Z</time>
      </trkpt>
      <trkpt lat="43.26317" lon="6.45909">
        <ele>191.671</ele>
        <time>2012-10-07T08:26:58Z</time>
      </trkpt>
      <trkpt lat="43.26304" lon="6.45908">
        <ele>193.583</ele>
        <time>2012-10-07T08:27:07Z</time>
      </trkpt>
      <trkpt lat="43.26293" lon="6.45908">
        <ele>194.122</ele>
        <time>2012-10-07T08:27:14Z</time>
      </trkpt>
      <trkpt lat="43.26285" lon="6.45902">
        <ele>195.06</ele>
        <time>2012-10-07T08:27:21Z</time>
      </trkpt>
      <trkpt lat="43.2628" lon="6.45891">
        <ele>196.473</ele>
        <time>2012-10-07T08:27:28Z</time>
      </trkpt>
      <trkpt lat="43.26272" lon="6.45881">
        <ele>198.489</ele>
        <time>2012-10-07T08:27:36Z</time>
      </trkpt>
      <trkpt lat="43.26263" lon="6.45874">
        <ele>202.648</ele>
        <time>2012-10-07T08:27:45Z</time>
      </trkpt>
      <trkpt lat="43.26258" lon="6.45865">
        <ele>204.149</ele>
        <time>2012-10-07T08:27:52Z</time>
      </trkpt>
      <trkpt lat="43.26254" lon="6.45859">
        <ele>207.009</ele>
        <time>2012-10-07T08:27:58Z</time>
      </trkpt>
      <trkpt lat="43.26243" lon="6.45859">
        <ele>207.171</ele>
        <time>2012-10-07T08:28:05Z</time>
      </trkpt>
      <trkpt lat="43.2624" lon="6.45874">
        <ele>207.01</ele>
        <time>2012-10-07T08:28:10Z</time>
      </trkpt>
      <trkpt lat="43.26238" lon="6.4589">
        <ele>207.907</ele>
        <time>2012-10-07T08:28:18Z</time>
      </trkpt>
      <trkpt lat="43.26236" lon="6.4591">
        <ele>208.677</ele>
        <time>2012-10-07T08:28:27Z</time>
      </trkpt>
      <trkpt lat="43.26233" lon="6.45927">
        <ele>209.538</ele>
        <time>2012-10-07T08:28:35Z</time>
      </trkpt>
      <trkpt lat="43.2623" lon="6.45944">
        <ele>209.586</ele>
        <time>2012-10-07T08:28:43Z</time>
      </trkpt>
      <trkpt lat="43.26224" lon="6.45961">
        <ele>210.148</ele>
        <time>2012-10-07T08:28:50Z</time>
      </trkpt>
      <trkpt lat="43.26214" lon="6.45974">
        <ele>210.364</ele>
        <time>2012-10-07T08:28:57Z</time>
      </trkpt>
      <trkpt lat="43.2621" lon="6.45989">
        <ele>210.037</ele>
        <time>2012-10-07T08:29:03Z</time>
      </trkpt>
      <trkpt lat="43.26204" lon="6.45996">
        <ele>209.355</ele>
        <time>2012-10-07T08:29:07Z</time>
      </trkpt>
      <trkpt lat="43.26198" lon="6.45993">
        <ele>208.344</ele>
        <time>2012-10-07T08:29:11Z</time>
      </trkpt>
      <trkpt lat="43.26187" lon="6.45986">
        <ele>205.954</ele>
        <time>2012-10-07T08:29:16Z</time>
      </trkpt>
      <trkpt lat="43.26178" lon="6.45981">
        <ele>204.306</ele>
        <time>2012-10-07T08:29:18Z</time>
      </trkpt>
      <trkpt lat="43.26152" lon="6.45982">
        <ele>199.66</ele>
        <time>2012-10-07T08:29:23Z</time>
      </trkpt>
      <trkpt lat="43.26143" lon="6.45974">
        <ele>198.4</ele>
        <time>2012-10-07T08:29:25Z</time>
      </trkpt>
      <trkpt lat="43.26114" lon="6.45958">
        <ele>194.841</ele>
        <time>2012-10-07T08:29:30Z</time>
      </trkpt>
      <trkpt lat="43.26095" lon="6.4595">
        <ele>191.211</ele>
        <time>2012-10-07T08:29:34Z</time>
      </trkpt>
      <trkpt lat="43.2609" lon="6.45953">
        <ele>190.493</ele>
        <time>2012-10-07T08:29:35Z</time>
      </trkpt>
      <trkpt lat="43.2608" lon="6.45965">
        <ele>189.433</ele>
        <time>2012-10-07T08:29:37Z</time>
      </trkpt>
      <trkpt lat="43.26057" lon="6.45987">
        <ele>187.107</ele>
        <time>2012-10-07T08:29:42Z</time>
      </trkpt>
      <trkpt lat="43.26042" lon="6.46">
        <ele>186.144</ele>
        <time>2012-10-07T08:29:47Z</time>
      </trkpt>
      <trkpt lat="43.26036" lon="6.46006">
        <ele>186.112</ele>
        <time>2012-10-07T08:29:49Z</time>
      </trkpt>
      <trkpt lat="43.2602" lon="6.46027">
        <ele>184.942</ele>
        <time>2012-10-07T08:29:54Z</time>
      </trkpt>
      <trkpt lat="43.26007" lon="6.46035">
        <ele>183.681</ele>
        <time>2012-10-07T08:29:57Z</time>
      </trkpt>
      <trkpt lat="43.25998" lon="6.46028">
        <ele>182.321</ele>
        <time>2012-10-07T08:29:59Z</time>
      </trkpt>
      <trkpt lat="43.25965" lon="6.45997">
        <ele>178.694</ele>
        <time>2012-10-07T08:30:05Z</time>
      </trkpt>
      <trkpt lat="43.25949" lon="6.4597">
        <ele>174.244</ele>
        <time>2012-10-07T08:30:09Z</time>
      </trkpt>
      <trkpt lat="43.25937" lon="6.45957">
        <ele>171.741</ele>
        <time>2012-10-07T08:30:12Z</time>
      </trkpt>
      <trkpt lat="43.25931" lon="6.45969">
        <ele>170.212</ele>
        <time>2012-10-07T08:30:14Z</time>
      </trkpt>
      <trkpt lat="43.25933" lon="6.45996">
        <ele>167.83</ele>
        <time>2012-10-07T08:30:17Z</time>
      </trkpt>
      <trkpt lat="43.25939" lon="6.46031">
        <ele>163.378</ele>
        <time>2012-10-07T08:30:21Z</time>
      </trkpt>
      <trkpt lat="43.25933" lon="6.46045">
        <ele>161.727</ele>
        <time>2012-10-07T08:30:24Z</time>
      </trkpt>
      <trkpt lat="43.25921" lon="6.4604">
        <ele>161.549</ele>
        <time>2012-10-07T08:30:27Z</time>
      </trkpt>
      <trkpt lat="43.25894" lon="6.4602">
        <ele>158.032</ele>
        <time>2012-10-07T08:30:32Z</time>
      </trkpt>
      <trkpt lat="43.25858" lon="6.46006">
        <ele>153.178</ele>
        <time>2012-10-07T08:30:37Z</time>
      </trkpt>
      <trkpt lat="43.25809" lon="6.45997">
        <ele>148.653</ele>
        <time>2012-10-07T08:30:43Z</time>
      </trkpt>
      <trkpt lat="43.25775" lon="6.45988">
        <ele>143.607</ele>
        <time>2012-10-07T08:30:48Z</time>
      </trkpt>
      <trkpt lat="43.2575" lon="6.45965">
        <ele>138.548</ele>
        <time>2012-10-07T08:30:52Z</time>
      </trkpt>
      <trkpt lat="43.2573" lon="6.45942">
        <ele>136.205</ele>
        <time>2012-10-07T08:30:55Z</time>
      </trkpt>
      <trkpt lat="43.25714" lon="6.45937">
        <ele>135.734</ele>
        <time>2012-10-07T08:30:58Z</time>
      </trkpt>
      <trkpt lat="43.25707" lon="6.45946">
        <ele>136.19</ele>
        <time>2012-10-07T08:31:00Z</time>
      </trkpt>
      <trkpt lat="43.2569" lon="6.45973">
        <ele>138.457</ele>
        <time>2012-10-07T08:31:07Z</time>
      </trkpt>
      <trkpt lat="43.25677" lon="6.45988">
        <ele>138.428</ele>
        <time>2012-10-07T08:31:12Z</time>
      </trkpt>
      <trkpt lat="43.25657" lon="6.45994">
        <ele>136.644</ele>
        <time>2012-10-07T08:31:16Z</time>
      </trkpt>
      <trkpt lat="43.25645" lon="6.45996">
        <ele>135.396</ele>
        <time>2012-10-07T08:31:18Z</time>
      </trkpt>
      <trkpt lat="43.25632" lon="6.46012">
        <ele>132.904</ele>
        <time>2012-10-07T08:31:22Z</time>
      </trkpt>
      <trkpt lat="43.25631" lon="6.46037">
        <ele>130.235</ele>
        <time>2012-10-07T08:31:25Z</time>
      </trkpt>
      <trkpt lat="43.25635" lon="6.46087">
        <ele>127.548</ele>
        <time>2012-10-07T08:31:30Z</time>
      </trkpt>
      <trkpt lat="43.25637" lon="6.46097">
        <ele>127.34</ele>
        <time>2012-10-07T08:31:31Z</time>
      </trkpt>
      <trkpt lat="43.25634" lon="6.4614">
        <ele>124.302</ele>
        <time>2012-10-07T08:31:35Z</time>
      </trkpt>
      <trkpt lat="43.25629" lon="6.46194">
        <ele>119.477</ele>
        <time>2012-10-07T08:31:40Z</time>
      </trkpt>
      <trkpt lat="43.25628" lon="6.46215">
        <ele>118.068</ele>
        <time>2012-10-07T08:31:42Z</time>
      </trkpt>
      <trkpt lat="43.25627" lon="6.46236">
        <ele>116.557</ele>
        <time>2012-10-07T08:31:45Z</time>
      </trkpt>
      <trkpt lat="43.25616" lon="6.46235">
        <ele>114.843</ele>
        <time>2012-10-07T08:31:49Z</time>
      </trkpt>
      <trkpt lat="43.25612" lon="6.46221">
        <ele>113.976</ele>
        <time>2012-10-07T08:31:52Z</time>
      </trkpt>
      <trkpt lat="43.25609" lon="6.46188">
        <ele>111.923</ele>
        <time>2012-10-07T08:31:58Z</time>
      </trkpt>
      <trkpt lat="43.25603" lon="6.46172">
        <ele>110.953</ele>
        <time>2012-10-07T08:32:01Z</time>
      </trkpt>
      <trkpt lat="43.25597" lon="6.46135">
        <ele>109.117</ele>
        <time>2012-10-07T08:32:07Z</time>
      </trkpt>
      <trkpt lat="43.25586" lon="6.46107">
        <ele>108.351</ele>
        <time>2012-10-07T08:32:12Z</time>
      </trkpt>
      <trkpt lat="43.25579" lon="6.46084">
        <ele>108.044</ele>
        <time>2012-10-07T08:32:17Z</time>
      </trkpt>
      <trkpt lat="43.25569" lon="6.46078">
        <ele>107.789</ele>
        <time>2012-10-07T08:32:21Z</time>
      </trkpt>
      <trkpt lat="43.25557" lon="6.46086">
        <ele>105.819</ele>
        <time>2012-10-07T08:32:24Z</time>
      </trkpt>
      <trkpt lat="43.25548" lon="6.46094">
        <ele>104.474</ele>
        <time>2012-10-07T08:32:26Z</time>
      </trkpt>
      <trkpt lat="43.25509" lon="6.46119">
        <ele>97.194</ele>
        <time>2012-10-07T08:32:34Z</time>
      </trkpt>
      <trkpt lat="43.25504" lon="6.46122">
        <ele>95.984</ele>
        <time>2012-10-07T08:32:35Z</time>
      </trkpt>
      <trkpt lat="43.25485" lon="6.46123">
        <ele>92.11</ele>
        <time>2012-10-07T08:32:39Z</time>
      </trkpt>
      <trkpt lat="43.25469" lon="6.46103">
        <ele>89.044</ele>
        <time>2012-10-07T08:32:43Z</time>
      </trkpt>
      <trkpt lat="43.25457" lon="6.46078">
        <ele>85.214</ele>
        <time>2012-10-07T08:32:47Z</time>
      </trkpt>
      <trkpt lat="43.25455" lon="6.46047">
        <ele>82.501</ele>
        <time>2012-10-07T08:32:51Z</time>
      </trkpt>
      <trkpt lat="43.25453" lon="6.46017">
        <ele>80.422</ele>
        <time>2012-10-07T08:32:55Z</time>
      </trkpt>
      <trkpt lat="43.2544" lon="6.45979">
        <ele>78.083</ele>
        <time>2012-10-07T08:33:00Z</time>
      </trkpt>
      <trkpt lat="43.25425" lon="6.45961">
        <ele>76.782</ele>
        <time>2012-10-07T08:33:04Z</time>
      </trkpt>
      <trkpt lat="43.25419" lon="6.4596">
        <ele>76.262</ele>
        <time>2012-10-07T08:33:05Z</time>
      </trkpt>
      <trkpt lat="43.25398" lon="6.45947">
        <ele>73.862</ele>
        <time>2012-10-07T08:33:10Z</time>
      </trkpt>
      <trkpt lat="43.25394" lon="6.45924">
        <ele>72.765</ele>
        <time>2012-10-07T08:33:13Z</time>
      </trkpt>
      <trkpt lat="43.25395" lon="6.45916">
        <ele>72.706</ele>
        <time>2012-10-07T08:33:14Z</time>
      </trkpt>
      <trkpt lat="43.25398" lon="6.45895">
        <ele>72.602</ele>
        <time>2012-10-07T08:33:17Z</time>
      </trkpt>
      <trkpt lat="43.25394" lon="6.45868">
        <ele>74.29</ele>
        <time>2012-10-07T08:33:22Z</time>
      </trkpt>
      <trkpt lat="43.25382" lon="6.45865">
        <ele>73.358</ele>
        <time>2012-10-07T08:33:25Z</time>
      </trkpt>
      <trkpt lat="43.2537" lon="6.45876">
        <ele>72.374</ele>
        <time>2012-10-07T08:33:28Z</time>
      </trkpt>
      <trkpt lat="43.25363" lon="6.45887">
        <ele>71.926</ele>
        <time>2012-10-07T08:33:30Z</time>
      </trkpt>
      <trkpt lat="43.25358" lon="6.45899">
        <ele>71.881</ele>
        <time>2012-10-07T08:33:32Z</time>
      </trkpt>
      <trkpt lat="43.25351" lon="6.45934">
        <ele>70.018</ele>
        <time>2012-10-07T08:33:37Z</time>
      </trkpt>
      <trkpt lat="43.2535" lon="6.4596">
        <ele>69.004</ele>
        <time>2012-10-07T08:33:42Z</time>
      </trkpt>
      <trkpt lat="43.25342" lon="6.45989">
        <ele>66.75</ele>
        <time>2012-10-07T08:33:48Z</time>
      </trkpt>
      <trkpt lat="43.25332" lon="6.46015">
        <ele>65.759</ele>
        <time>2012-10-07T08:33:54Z</time>
      </trkpt>
      <trkpt lat="43.25324" lon="6.46029">
        <ele>65.329</ele>
        <time>2012-10-07T08:34:00Z</time>
      </trkpt>
      <trkpt lat="43.25319" lon="6.46041">
        <ele>65.02</ele>
        <time>2012-10-07T08:34:07Z</time>
      </trkpt>
      <trkpt lat="43.25316" lon="6.46052">
        <ele>65.29</ele>
        <time>2012-10-07T08:34:13Z</time>
      </trkpt>
      <trkpt lat="43.2531" lon="6.4607">
        <ele>65.592</ele>
        <time>2012-10-07T08:34:20Z</time>
      </trkpt>
      <trkpt lat="43.25303" lon="6.46097">
        <ele>65.558</ele>
        <time>2012-10-07T08:34:28Z</time>
      </trkpt>
      <trkpt lat="43.25295" lon="6.4613">
        <ele>64.927</ele>
        <time>2012-10-07T08:34:36Z</time>
      </trkpt>
      <trkpt lat="43.25293" lon="6.46154">
        <ele>64.334</ele>
        <time>2012-10-07T08:34:41Z</time>
      </trkpt>
      <trkpt lat="43.25292" lon="6.46159">
        <ele>64.235</ele>
        <time>2012-10-07T08:34:42Z</time>
      </trkpt>
      <trkpt lat="43.25285" lon="6.46192">
        <ele>63.125</ele>
        <time>2012-10-07T08:34:49Z</time>
      </trkpt>
      <trkpt lat="43.25293" lon="6.4622">
        <ele>61.651</ele>
        <time>2012-10-07T08:34:54Z</time>
      </trkpt>
      <trkpt lat="43.25312" lon="6.46258">
        <ele>60.379</ele>
        <time>2012-10-07T08:35:01Z</time>
      </trkpt>
      <trkpt lat="43.25317" lon="6.46268">
        <ele>59.687</ele>
        <time>2012-10-07T08:35:03Z</time>
      </trkpt>
      <trkpt lat="43.25325" lon="6.46294">
        <ele>57.887</ele>
        <time>2012-10-07T08:35:08Z</time>
      </trkpt>
      <trkpt lat="43.25332" lon="6.46312">
        <ele>56.698</ele>
        <time>2012-10-07T08:35:12Z</time>
      </trkpt>
      <trkpt lat="43.25337" lon="6.46332">
        <ele>55.277</ele>
        <time>2012-10-07T08:35:17Z</time>
      </trkpt>
      <trkpt lat="43.2534" lon="6.46347">
        <ele>55.586</ele>
        <time>2012-10-07T08:35:22Z</time>
      </trkpt>
      <trkpt lat="43.25344" lon="6.46365">
        <ele>56.823</ele>
        <time>2012-10-07T08:35:28Z</time>
      </trkpt>
      <trkpt lat="43.25348" lon="6.46383">
        <ele>59.763</ele>
        <time>2012-10-07T08:35:35Z</time>
      </trkpt>
      <trkpt lat="43.25351" lon="6.46391">
        <ele>60.317</ele>
        <time>2012-10-07T08:35:40Z</time>
      </trkpt>
      <trkpt lat="43.25356" lon="6.46405">
        <ele>61.226</ele>
        <time>2012-10-07T08:35:45Z</time>
      </trkpt>
      <trkpt lat="43.25367" lon="6.46428">
        <ele>60.885</ele>
        <time>2012-10-07T08:35:51Z</time>
      </trkpt>
      <trkpt lat="43.25374" lon="6.46451">
        <ele>60.421</ele>
        <time>2012-10-07T08:35:56Z</time>
      </trkpt>
      <trkpt lat="43.25387" lon="6.46493">
        <ele>60.212</ele>
        <time>2012-10-07T08:36:04Z</time>
      </trkpt>
      <trkpt lat="43.25391" lon="6.46509">
        <ele>60.053</ele>
        <time>2012-10-07T08:36:07Z</time>
      </trkpt>
      <trkpt lat="43.25394" lon="6.4655">
        <ele>57.037</ele>
        <time>2012-10-07T08:36:14Z</time>
      </trkpt>
      <trkpt lat="43.25398" lon="6.46564">
        <ele>56.361</ele>
        <time>2012-10-07T08:36:18Z</time>
      </trkpt>
      <trkpt lat="43.25408" lon="6.46589">
        <ele>57.703</ele>
        <time>2012-10-07T08:36:25Z</time>
      </trkpt>
      <trkpt lat="43.25417" lon="6.46613">
        <ele>57.974</ele>
        <time>2012-10-07T08:36:31Z</time>
      </trkpt>
      <trkpt lat="43.25433" lon="6.46654">
        <ele>57.515</ele>
        <time>2012-10-07T08:36:40Z</time>
      </trkpt>
      <trkpt lat="43.2544" lon="6.46675">
        <ele>56.921</ele>
        <time>2012-10-07T08:36:44Z</time>
      </trkpt>
      <trkpt lat="43.2545" lon="6.46715">
        <ele>55.628</ele>
        <time>2012-10-07T08:36:51Z</time>
      </trkpt>
      <trkpt lat="43.25454" lon="6.46733">
        <ele>54.805</ele>
        <time>2012-10-07T08:36:54Z</time>
      </trkpt>
      <trkpt lat="43.25452" lon="6.46769">
        <ele>53.596</ele>
        <time>2012-10-07T08:37:00Z</time>
      </trkpt>
      <trkpt lat="43.2545" lon="6.46774">
        <ele>53.466</ele>
        <time>2012-10-07T08:37:01Z</time>
      </trkpt>
      <trkpt lat="43.2544" lon="6.46795">
        <ele>53.637</ele>
        <time>2012-10-07T08:37:06Z</time>
      </trkpt>
      <trkpt lat="43.25437" lon="6.46799">
        <ele>53.562</ele>
        <time>2012-10-07T08:37:07Z</time>
      </trkpt>
      <trkpt lat="43.25432" lon="6.46807">
        <ele>52.643</ele>
        <time>2012-10-07T08:37:09Z</time>
      </trkpt>
      <trkpt lat="43.25422" lon="6.46828">
        <ele>52.325</ele>
        <time>2012-10-07T08:37:13Z</time>
      </trkpt>
      <trkpt lat="43.25418" lon="6.46851">
        <ele>52.599</ele>
        <time>2012-10-07T08:37:17Z</time>
      </trkpt>
      <trkpt lat="43.25405" lon="6.46873">
        <ele>50.168</ele>
        <time>2012-10-07T08:37:21Z</time>
      </trkpt>
      <trkpt lat="43.25397" lon="6.46891">
        <ele>49.775</ele>
        <time>2012-10-07T08:37:24Z</time>
      </trkpt>
      <trkpt lat="43.25394" lon="6.46904">
        <ele>49.464</ele>
        <time>2012-10-07T08:37:27Z</time>
      </trkpt>
      <trkpt lat="43.2539" lon="6.46915">
        <ele>49.204</ele>
        <time>2012-10-07T08:37:29Z</time>
      </trkpt>
      <trkpt lat="43.25385" lon="6.46933">
        <ele>48.642</ele>
        <time>2012-10-07T08:37:32Z</time>
      </trkpt>
      <trkpt lat="43.25382" lon="6.46973">
        <ele>48.45</ele>
        <time>2012-10-07T08:37:38Z</time>
      </trkpt>
      <trkpt lat="43.25383" lon="6.4698">
        <ele>48.501</ele>
        <time>2012-10-07T08:37:39Z</time>
      </trkpt>
      <trkpt lat="43.25388" lon="6.46998">
        <ele>48.652</ele>
        <time>2012-10-07T08:37:42Z</time>
      </trkpt>
      <trkpt lat="43.25389" lon="6.47038">
        <ele>48.943</ele>
        <time>2012-10-07T08:37:48Z</time>
      </trkpt>
      <trkpt lat="43.25384" lon="6.47085">
        <ele>48.292</ele>
        <time>2012-10-07T08:37:55Z</time>
      </trkpt>
      <trkpt lat="43.25384" lon="6.47129">
        <ele>47.474</ele>
        <time>2012-10-07T08:38:01Z</time>
      </trkpt>
      <trkpt lat="43.25374" lon="6.47159">
        <ele>47.23</ele>
        <time>2012-10-07T08:38:06Z</time>
      </trkpt>
      <trkpt lat="43.25366" lon="6.47169">
        <ele>47.02</ele>
        <time>2012-10-07T08:38:08Z</time>
      </trkpt>
      <trkpt lat="43.25352" lon="6.47195">
        <ele>47.267</ele>
        <time>2012-10-07T08:38:13Z</time>
      </trkpt>
      <trkpt lat="43.25347" lon="6.47219">
        <ele>47.154</ele>
        <time>2012-10-07T08:38:17Z</time>
      </trkpt>
      <trkpt lat="43.2534" lon="6.47236">
        <ele>47</ele>
        <time>2012-10-07T08:38:20Z</time>
      </trkpt>
      <trkpt lat="43.25337" lon="6.47249">
        <ele>47.02</ele>
        <time>2012-10-07T08:38:22Z</time>
      </trkpt>
      <trkpt lat="43.25334" lon="6.47269">
        <ele>46.407</ele>
        <time>2012-10-07T08:38:25Z</time>
      </trkpt>
      <trkpt lat="43.25329" lon="6.47288">
        <ele>46.501</ele>
        <time>2012-10-07T08:38:28Z</time>
      </trkpt>
      <trkpt lat="43.25327" lon="6.47309">
        <ele>46.11</ele>
        <time>2012-10-07T08:38:31Z</time>
      </trkpt>
      <trkpt lat="43.25315" lon="6.47347">
        <ele>46.053</ele>
        <time>2012-10-07T08:38:37Z</time>
      </trkpt>
      <trkpt lat="43.25304" lon="6.4738">
        <ele>45.932</ele>
        <time>2012-10-07T08:38:42Z</time>
      </trkpt>
      <trkpt lat="43.2529" lon="6.47429">
        <ele>45.296</ele>
        <time>2012-10-07T08:38:49Z</time>
      </trkpt>
      <trkpt lat="43.25279" lon="6.47477">
        <ele>45.545</ele>
        <time>2012-10-07T08:38:56Z</time>
      </trkpt>
      <trkpt lat="43.25263" lon="6.47527">
        <ele>44.547</ele>
        <time>2012-10-07T08:39:03Z</time>
      </trkpt>
      <trkpt lat="43.25246" lon="6.47611">
        <ele>43.896</ele>
        <time>2012-10-07T08:39:14Z</time>
      </trkpt>
      <trkpt lat="43.25244" lon="6.47617">
        <ele>43.984</ele>
        <time>2012-10-07T08:39:15Z</time>
      </trkpt>
      <trkpt lat="43.25231" lon="6.47634">
        <ele>45.557</ele>
        <time>2012-10-07T08:39:20Z</time>
      </trkpt>
      <trkpt lat="43.25212" lon="6.47644">
        <ele>48.186</ele>
        <time>2012-10-07T08:39:27Z</time>
      </trkpt>
      <trkpt lat="43.2519" lon="6.47655">
        <ele>49.986</ele>
        <time>2012-10-07T08:39:35Z</time>
      </trkpt>
      <trkpt lat="43.25169" lon="6.47663">
        <ele>51.676</ele>
        <time>2012-10-07T08:39:43Z</time>
      </trkpt>
      <trkpt lat="43.25159" lon="6.47654">
        <ele>50.914</ele>
        <time>2012-10-07T08:39:47Z</time>
      </trkpt>
      <trkpt lat="43.25143" lon="6.47629">
        <ele>49.944</ele>
        <time>2012-10-07T08:39:56Z</time>
      </trkpt>
      <trkpt lat="43.25124" lon="6.47601">
        <ele>48.424</ele>
        <time>2012-10-07T08:40:07Z</time>
      </trkpt>
      <trkpt lat="43.25109" lon="6.47577">
        <ele>49.105</ele>
        <time>2012-10-07T08:40:16Z</time>
      </trkpt>
      <trkpt lat="43.25096" lon="6.47553">
        <ele>49.215</ele>
        <time>2012-10-07T08:40:25Z</time>
      </trkpt>
      <trkpt lat="43.25088" lon="6.47536">
        <ele>49.836</ele>
        <time>2012-10-07T08:40:31Z</time>
      </trkpt>
      <trkpt lat="43.25075" lon="6.47531">
        <ele>51.254</ele>
        <time>2012-10-07T08:40:37Z</time>
      </trkpt>
      <trkpt lat="43.25055" lon="6.47522">
        <ele>52.314</ele>
        <time>2012-10-07T08:40:45Z</time>
      </trkpt>
      <trkpt lat="43.25045" lon="6.47507">
        <ele>51.393</ele>
        <time>2012-10-07T08:40:50Z</time>
      </trkpt>
      <trkpt lat="43.25035" lon="6.47475">
        <ele>50.424</ele>
        <time>2012-10-07T08:40:58Z</time>
      </trkpt>
      <trkpt lat="43.25026" lon="6.47455">
        <ele>50.465</ele>
        <time>2012-10-07T08:41:04Z</time>
      </trkpt>
      <trkpt lat="43.2501" lon="6.47442">
        <ele>52.024</ele>
        <time>2012-10-07T08:41:11Z</time>
      </trkpt>
      <trkpt lat="43.24995" lon="6.47447">
        <ele>53.393</ele>
        <time>2012-10-07T08:41:17Z</time>
      </trkpt>
      <trkpt lat="43.24979" lon="6.47452">
        <ele>56.265</ele>
        <time>2012-10-07T08:41:25Z</time>
      </trkpt>
      <trkpt lat="43.24967" lon="6.4746">
        <ele>59.365</ele>
        <time>2012-10-07T08:41:33Z</time>
      </trkpt>
      <trkpt lat="43.24956" lon="6.47462">
        <ele>61.396</ele>
        <time>2012-10-07T08:41:38Z</time>
      </trkpt>
      <trkpt lat="43.2494" lon="6.47466">
        <ele>64.246</ele>
        <time>2012-10-07T08:41:45Z</time>
      </trkpt>
      <trkpt lat="43.24931" lon="6.47478">
        <ele>65.174</ele>
        <time>2012-10-07T08:41:51Z</time>
      </trkpt>
      <trkpt lat="43.24918" lon="6.47495">
        <ele>67.365</ele>
        <time>2012-10-07T08:41:59Z</time>
      </trkpt>
      <trkpt lat="43.24902" lon="6.47509">
        <ele>67.733</ele>
        <time>2012-10-07T08:42:06Z</time>
      </trkpt>
      <trkpt lat="43.24889" lon="6.47533">
        <ele>66.821</ele>
        <time>2012-10-07T08:42:13Z</time>
      </trkpt>
      <trkpt lat="43.24884" lon="6.47541">
        <ele>66.311</ele>
        <time>2012-10-07T08:42:15Z</time>
      </trkpt>
      <trkpt lat="43.24876" lon="6.47556">
        <ele>65.611</ele>
        <time>2012-10-07T08:42:18Z</time>
      </trkpt>
      <trkpt lat="43.24864" lon="6.47569">
        <ele>64.687</ele>
        <time>2012-10-07T08:42:21Z</time>
      </trkpt>
      <trkpt lat="43.24843" lon="6.47576">
        <ele>64.233</ele>
        <time>2012-10-07T08:42:25Z</time>
      </trkpt>
      <trkpt lat="43.24838" lon="6.47574">
        <ele>64.233</ele>
        <time>2012-10-07T08:42:26Z</time>
      </trkpt>
      <trkpt lat="43.24817" lon="6.47561">
        <ele>63.112</ele>
        <time>2012-10-07T08:42:32Z</time>
      </trkpt>
      <trkpt lat="43.24806" lon="6.47554">
        <ele>62.222</ele>
        <time>2012-10-07T08:42:36Z</time>
      </trkpt>
      <trkpt lat="43.24789" lon="6.47548">
        <ele>61.292</ele>
        <time>2012-10-07T08:42:40Z</time>
      </trkpt>
      <trkpt lat="43.24779" lon="6.47559">
        <ele>62.124</ele>
        <time>2012-10-07T08:42:44Z</time>
      </trkpt>
      <trkpt lat="43.24774" lon="6.47581">
        <ele>63.214</ele>
        <time>2012-10-07T08:42:49Z</time>
      </trkpt>
      <trkpt lat="43.2477" lon="6.4761">
        <ele>63.824</ele>
        <time>2012-10-07T08:42:55Z</time>
      </trkpt>
      <trkpt lat="43.24756" lon="6.47621">
        <ele>64.274</ele>
        <time>2012-10-07T08:42:59Z</time>
      </trkpt>
      <trkpt lat="43.24751" lon="6.47623">
        <ele>64.054</ele>
        <time>2012-10-07T08:43:00Z</time>
      </trkpt>
      <trkpt lat="43.24726" lon="6.47632">
        <ele>62.633</ele>
        <time>2012-10-07T08:43:06Z</time>
      </trkpt>
      <trkpt lat="43.24711" lon="6.47632">
        <ele>61.253</ele>
        <time>2012-10-07T08:43:11Z</time>
      </trkpt>
      <trkpt lat="43.24694" lon="6.47634">
        <ele>63.925</ele>
        <time>2012-10-07T08:43:17Z</time>
      </trkpt>
      <trkpt lat="43.24672" lon="6.47628">
        <ele>65.695</ele>
        <time>2012-10-07T08:43:24Z</time>
      </trkpt>
      <trkpt lat="43.24663" lon="6.47615">
        <ele>69.307</ele>
        <time>2012-10-07T08:43:30Z</time>
      </trkpt>
      <trkpt lat="43.24661" lon="6.4761">
        <ele>70.027</ele>
        <time>2012-10-07T08:43:32Z</time>
      </trkpt>
      <trkpt lat="43.24642" lon="6.47594">
        <ele>67.514</ele>
        <time>2012-10-07T08:43:40Z</time>
      </trkpt>
      <trkpt lat="43.24633" lon="6.47577">
        <ele>65.243</ele>
        <time>2012-10-07T08:43:46Z</time>
      </trkpt>
      <trkpt lat="43.24629" lon="6.47555">
        <ele>65.134</ele>
        <time>2012-10-07T08:43:52Z</time>
      </trkpt>
      <trkpt lat="43.24628" lon="6.47533">
        <ele>66.885</ele>
        <time>2012-10-07T08:43:58Z</time>
      </trkpt>
      <trkpt lat="43.24624" lon="6.47515">
        <ele>67.325</ele>
        <time>2012-10-07T08:44:03Z</time>
      </trkpt>
      <trkpt lat="43.24614" lon="6.47495">
        <ele>72.307</ele>
        <time>2012-10-07T08:44:10Z</time>
      </trkpt>
      <trkpt lat="43.24606" lon="6.47479">
        <ele>74.877</ele>
        <time>2012-10-07T08:44:16Z</time>
      </trkpt>
      <trkpt lat="43.24596" lon="6.47466">
        <ele>76.405</ele>
        <time>2012-10-07T08:44:22Z</time>
      </trkpt>
      <trkpt lat="43.24582" lon="6.4745">
        <ele>79.366</ele>
        <time>2012-10-07T08:44:29Z</time>
      </trkpt>
      <trkpt lat="43.24572" lon="6.47437">
        <ele>78.894</ele>
        <time>2012-10-07T08:44:34Z</time>
      </trkpt>
      <trkpt lat="43.24563" lon="6.47422">
        <ele>76.013</ele>
        <time>2012-10-07T08:44:39Z</time>
      </trkpt>
      <trkpt lat="43.24555" lon="6.47407">
        <ele>75.984</ele>
        <time>2012-10-07T08:44:45Z</time>
      </trkpt>
      <trkpt lat="43.24546" lon="6.47387">
        <ele>75.193</ele>
        <time>2012-10-07T08:44:52Z</time>
      </trkpt>
      <trkpt lat="43.24533" lon="6.4738">
        <ele>76.404</ele>
        <time>2012-10-07T08:44:57Z</time>
      </trkpt>
      <trkpt lat="43.24528" lon="6.47376">
        <ele>76.524</ele>
        <time>2012-10-07T08:44:59Z</time>
      </trkpt>
      <trkpt lat="43.24519" lon="6.47381">
        <ele>76.824</ele>
        <time>2012-10-07T08:45:04Z</time>
      </trkpt>
      <trkpt lat="43.24512" lon="6.47391">
        <ele>77.275</ele>
        <time>2012-10-07T08:45:09Z</time>
      </trkpt>
      <trkpt lat="43.24511" lon="6.47396">
        <ele>78.494</ele>
        <time>2012-10-07T08:45:12Z</time>
      </trkpt>
      <trkpt lat="43.24516" lon="6.47411">
        <ele>78.463</ele>
        <time>2012-10-07T08:45:19Z</time>
      </trkpt>
      <trkpt lat="43.24519" lon="6.47422">
        <ele>78.222</ele>
        <time>2012-10-07T08:45:24Z</time>
      </trkpt>
      <trkpt lat="43.24517" lon="6.47436">
        <ele>77.854</ele>
        <time>2012-10-07T08:45:29Z</time>
      </trkpt>
      <trkpt lat="43.24515" lon="6.47437">
        <ele>78.115</ele>
        <time>2012-10-07T08:45:30Z</time>
      </trkpt>
      <trkpt lat="43.245" lon="6.47438">
        <ele>79.395</ele>
        <time>2012-10-07T08:45:39Z</time>
      </trkpt>
      <trkpt lat="43.24486" lon="6.47444">
        <ele>80.156</ele>
        <time>2012-10-07T08:45:45Z</time>
      </trkpt>
      <trkpt lat="43.24475" lon="6.47459">
        <ele>79.794</ele>
        <time>2012-10-07T08:45:51Z</time>
      </trkpt>
      <trkpt lat="43.24465" lon="6.4748">
        <ele>80.445</ele>
        <time>2012-10-07T08:45:59Z</time>
      </trkpt>
      <trkpt lat="43.24458" lon="6.47499">
        <ele>81.755</ele>
        <time>2012-10-07T08:46:08Z</time>
      </trkpt>
      <trkpt lat="43.24454" lon="6.47515">
        <ele>83.175</ele>
        <time>2012-10-07T08:46:16Z</time>
      </trkpt>
      <trkpt lat="43.24448" lon="6.47531">
        <ele>82.533</ele>
        <time>2012-10-07T08:46:23Z</time>
      </trkpt>
      <trkpt lat="43.24442" lon="6.47549">
        <ele>82.503</ele>
        <time>2012-10-07T08:46:32Z</time>
      </trkpt>
      <trkpt lat="43.24436" lon="6.4756">
        <ele>83.524</ele>
        <time>2012-10-07T08:46:39Z</time>
      </trkpt>
      <trkpt lat="43.24431" lon="6.47552">
        <ele>84.263</ele>
        <time>2012-10-07T08:46:45Z</time>
      </trkpt>
      <trkpt lat="43.24426" lon="6.47542">
        <ele>85.495</ele>
        <time>2012-10-07T08:46:51Z</time>
      </trkpt>
      <trkpt lat="43.24417" lon="6.47527">
        <ele>86.164</ele>
        <time>2012-10-07T08:46:59Z</time>
      </trkpt>
      <trkpt lat="43.24407" lon="6.47506">
        <ele>86.353</ele>
        <time>2012-10-07T08:47:08Z</time>
      </trkpt>
      <trkpt lat="43.24396" lon="6.47477">
        <ele>86.864</ele>
        <time>2012-10-07T08:47:17Z</time>
      </trkpt>
      <trkpt lat="43.24388" lon="6.47452">
        <ele>87.853</ele>
        <time>2012-10-07T08:47:23Z</time>
      </trkpt>
      <trkpt lat="43.24379" lon="6.47423">
        <ele>85.911</ele>
        <time>2012-10-07T08:47:29Z</time>
      </trkpt>
      <trkpt lat="43.24368" lon="6.4741">
        <ele>86.332</ele>
        <time>2012-10-07T08:47:33Z</time>
      </trkpt>
      <trkpt lat="43.24356" lon="6.47411">
        <ele>89.625</ele>
        <time>2012-10-07T08:47:39Z</time>
      </trkpt>
      <trkpt lat="43.24352" lon="6.47411">
        <ele>89.725</ele>
        <time>2012-10-07T08:47:41Z</time>
      </trkpt>
      <trkpt lat="43.24341" lon="6.47401">
        <ele>92.345</ele>
        <time>2012-10-07T08:47:48Z</time>
      </trkpt>
      <trkpt lat="43.24333" lon="6.47384">
        <ele>90.032</ele>
        <time>2012-10-07T08:47:55Z</time>
      </trkpt>
      <trkpt lat="43.24325" lon="6.47371">
        <ele>89.613</ele>
        <time>2012-10-07T08:48:02Z</time>
      </trkpt>
      <trkpt lat="43.24317" lon="6.47364">
        <ele>92.255</ele>
        <time>2012-10-07T08:48:08Z</time>
      </trkpt>
      <trkpt lat="43.24308" lon="6.47358">
        <ele>92.064</ele>
        <time>2012-10-07T08:48:14Z</time>
      </trkpt>
      <trkpt lat="43.24301" lon="6.47351">
        <ele>93.884</ele>
        <time>2012-10-07T08:48:21Z</time>
      </trkpt>
      <trkpt lat="43.24299" lon="6.47349">
        <ele>94.624</ele>
        <time>2012-10-07T08:48:23Z</time>
      </trkpt>
      <trkpt lat="43.2429" lon="6.47352">
        <ele>96.204</ele>
        <time>2012-10-07T08:48:29Z</time>
      </trkpt>
      <trkpt lat="43.24288" lon="6.47359">
        <ele>97.644</ele>
        <time>2012-10-07T08:48:34Z</time>
      </trkpt>
      <trkpt lat="43.2429" lon="6.47373">
        <ele>97.692</ele>
        <time>2012-10-07T08:48:40Z</time>
      </trkpt>
      <trkpt lat="43.24291" lon="6.47375">
        <ele>97.972</ele>
        <time>2012-10-07T08:48:41Z</time>
      </trkpt>
      <trkpt lat="43.24304" lon="6.47394">
        <ele>94.909</ele>
        <time>2012-10-07T08:48:46Z</time>
      </trkpt>
      <trkpt lat="43.24313" lon="6.47429">
        <ele>92.199</ele>
        <time>2012-10-07T08:48:51Z</time>
      </trkpt>
      <trkpt lat="43.24311" lon="6.47439">
        <ele>91.739</ele>
        <time>2012-10-07T08:48:53Z</time>
      </trkpt>
      <trkpt lat="43.24307" lon="6.47451">
        <ele>93.543</ele>
        <time>2012-10-07T08:48:59Z</time>
      </trkpt>
      <trkpt lat="43.24301" lon="6.47449">
        <ele>96.074</ele>
        <time>2012-10-07T08:49:04Z</time>
      </trkpt>
      <trkpt lat="43.243" lon="6.47448">
        <ele>96.524</ele>
        <time>2012-10-07T08:49:05Z</time>
      </trkpt>
      <trkpt lat="43.24294" lon="6.47439">
        <ele>97.815</ele>
        <time>2012-10-07T08:49:12Z</time>
      </trkpt>
      <trkpt lat="43.24288" lon="6.47429">
        <ele>99.406</ele>
        <time>2012-10-07T08:49:20Z</time>
      </trkpt>
      <trkpt lat="43.2428" lon="6.47417">
        <ele>99.963</ele>
        <time>2012-10-07T08:49:29Z</time>
      </trkpt>
      <trkpt lat="43.24276" lon="6.4741">
        <ele>99.853</ele>
        <time>2012-10-07T08:49:34Z</time>
      </trkpt>
      <trkpt lat="43.24268" lon="6.474">
        <ele>102.304</ele>
        <time>2012-10-07T08:49:43Z</time>
      </trkpt>
      <trkpt lat="43.24261" lon="6.47389">
        <ele>106.655</ele>
        <time>2012-10-07T08:49:53Z</time>
      </trkpt>
      <trkpt lat="43.24257" lon="6.47392">
        <ele>106.904</ele>
        <time>2012-10-07T08:49:57Z</time>
      </trkpt>
      <trkpt lat="43.24253" lon="6.47407">
        <ele>107.864</ele>
        <time>2012-10-07T08:50:07Z</time>
      </trkpt>
      <trkpt lat="43.2425" lon="6.4742">
        <ele>111.145</ele>
        <time>2012-10-07T08:50:15Z</time>
      </trkpt>
      <trkpt lat="43.24247" lon="6.47432">
        <ele>113.764</ele>
        <time>2012-10-07T08:50:22Z</time>
      </trkpt>
      <trkpt lat="43.24242" lon="6.47449">
        <ele>114.844</ele>
        <time>2012-10-07T08:50:31Z</time>
      </trkpt>
      <trkpt lat="43.24236" lon="6.47461">
        <ele>115.383</ele>
        <time>2012-10-07T08:50:39Z</time>
      </trkpt>
      <trkpt lat="43.24234" lon="6.47464">
        <ele>115.554</ele>
        <time>2012-10-07T08:50:41Z</time>
      </trkpt>
      <trkpt lat="43.24226" lon="6.47461">
        <ele>116.674</ele>
        <time>2012-10-07T08:50:48Z</time>
      </trkpt>
      <trkpt lat="43.24226" lon="6.4746">
        <ele>117.305</ele>
        <time>2012-10-07T08:50:49Z</time>
      </trkpt>
      <trkpt lat="43.24222" lon="6.47448">
        <ele>120.445</ele>
        <time>2012-10-07T08:50:58Z</time>
      </trkpt>
      <trkpt lat="43.24216" lon="6.47437">
        <ele>120.393</ele>
        <time>2012-10-07T08:51:06Z</time>
      </trkpt>
      <trkpt lat="43.24211" lon="6.47428">
        <ele>120.623</ele>
        <time>2012-10-07T08:51:13Z</time>
      </trkpt>
      <trkpt lat="43.24204" lon="6.4742">
        <ele>121.684</ele>
        <time>2012-10-07T08:51:21Z</time>
      </trkpt>
      <trkpt lat="43.24197" lon="6.47409">
        <ele>122.984</ele>
        <time>2012-10-07T08:51:30Z</time>
      </trkpt>
      <trkpt lat="43.2419" lon="6.47399">
        <ele>124.595</ele>
        <time>2012-10-07T08:51:39Z</time>
      </trkpt>
      <trkpt lat="43.24188" lon="6.47392">
        <ele>128.465</ele>
        <time>2012-10-07T08:51:45Z</time>
      </trkpt>
      <trkpt lat="43.24186" lon="6.47391">
        <ele>130.195</ele>
        <time>2012-10-07T08:51:48Z</time>
      </trkpt>
      <trkpt lat="43.24182" lon="6.47397">
        <ele>133.064</ele>
        <time>2012-10-07T08:51:54Z</time>
      </trkpt>
      <trkpt lat="43.24182" lon="6.47399">
        <ele>133.564</ele>
        <time>2012-10-07T08:51:55Z</time>
      </trkpt>
      <trkpt lat="43.24179" lon="6.47411">
        <ele>133.573</ele>
        <time>2012-10-07T08:52:03Z</time>
      </trkpt>
      <trkpt lat="43.24175" lon="6.47421">
        <ele>132.422</ele>
        <time>2012-10-07T08:52:09Z</time>
      </trkpt>
      <trkpt lat="43.24176" lon="6.47434">
        <ele>131.982</ele>
        <time>2012-10-07T08:52:16Z</time>
      </trkpt>
      <trkpt lat="43.24175" lon="6.47447">
        <ele>130.212</ele>
        <time>2012-10-07T08:52:23Z</time>
      </trkpt>
      <trkpt lat="43.24173" lon="6.47453">
        <ele>129.932</ele>
        <time>2012-10-07T08:52:27Z</time>
      </trkpt>
      <trkpt lat="43.24169" lon="6.47455">
        <ele>130.002</ele>
        <time>2012-10-07T08:52:31Z</time>
      </trkpt>
      <trkpt lat="43.24163" lon="6.47445">
        <ele>132.324</ele>
        <time>2012-10-07T08:52:40Z</time>
      </trkpt>
      <trkpt lat="43.2416" lon="6.47441">
        <ele>132.664</ele>
        <time>2012-10-07T08:52:44Z</time>
      </trkpt>
      <trkpt lat="43.24157" lon="6.47434">
        <ele>138.495</ele>
        <time>2012-10-07T08:52:53Z</time>
      </trkpt>
      <trkpt lat="43.2415" lon="6.47422">
        <ele>137.962</ele>
        <time>2012-10-07T08:53:02Z</time>
      </trkpt>
      <trkpt lat="43.24145" lon="6.47409">
        <ele>137.491</ele>
        <time>2012-10-07T08:53:10Z</time>
      </trkpt>
      <trkpt lat="43.24141" lon="6.474">
        <ele>136.832</ele>
        <time>2012-10-07T08:53:16Z</time>
      </trkpt>
      <trkpt lat="43.24138" lon="6.47391">
        <ele>137.613</ele>
        <time>2012-10-07T08:53:22Z</time>
      </trkpt>
      <trkpt lat="43.24134" lon="6.47381">
        <ele>138.042</ele>
        <time>2012-10-07T08:53:29Z</time>
      </trkpt>
      <trkpt lat="43.24129" lon="6.47378">
        <ele>137.872</ele>
        <time>2012-10-07T08:53:33Z</time>
      </trkpt>
      <trkpt lat="43.24125" lon="6.47383">
        <ele>137.582</ele>
        <time>2012-10-07T08:53:37Z</time>
      </trkpt>
      <trkpt lat="43.24122" lon="6.47395">
        <ele>139.494</ele>
        <time>2012-10-07T08:53:45Z</time>
      </trkpt>
      <trkpt lat="43.24119" lon="6.47405">
        <ele>140.015</ele>
        <time>2012-10-07T08:53:53Z</time>
      </trkpt>
      <trkpt lat="43.24119" lon="6.4741">
        <ele>141.185</ele>
        <time>2012-10-07T08:53:56Z</time>
      </trkpt>
      <trkpt lat="43.24118" lon="6.47419">
        <ele>141.174</ele>
        <time>2012-10-07T08:54:02Z</time>
      </trkpt>
      <trkpt lat="43.24118" lon="6.47429">
        <ele>142.375</ele>
        <time>2012-10-07T08:54:08Z</time>
      </trkpt>
      <trkpt lat="43.24118" lon="6.47434">
        <ele>141.884</ele>
        <time>2012-10-07T08:54:11Z</time>
      </trkpt>
      <trkpt lat="43.24115" lon="6.47452">
        <ele>141.725</ele>
        <time>2012-10-07T08:54:21Z</time>
      </trkpt>
      <trkpt lat="43.24114" lon="6.47469">
        <ele>143.995</ele>
        <time>2012-10-07T08:54:30Z</time>
      </trkpt>
      <trkpt lat="43.24115" lon="6.47486">
        <ele>148.037</ele>
        <time>2012-10-07T08:54:38Z</time>
      </trkpt>
      <trkpt lat="43.24113" lon="6.47503">
        <ele>150.726</ele>
        <time>2012-10-07T08:54:46Z</time>
      </trkpt>
      <trkpt lat="43.24107" lon="6.47517">
        <ele>151.407</ele>
        <time>2012-10-07T08:54:54Z</time>
      </trkpt>
      <trkpt lat="43.24106" lon="6.4753">
        <ele>155.687</ele>
        <time>2012-10-07T08:55:00Z</time>
      </trkpt>
      <trkpt lat="43.24102" lon="6.47546">
        <ele>157.825</ele>
        <time>2012-10-07T08:55:09Z</time>
      </trkpt>
      <trkpt lat="43.24096" lon="6.47561">
        <ele>160.297</ele>
        <time>2012-10-07T08:55:18Z</time>
      </trkpt>
      <trkpt lat="43.24086" lon="6.47569">
        <ele>162.105</ele>
        <time>2012-10-07T08:55:26Z</time>
      </trkpt>
      <trkpt lat="43.24075" lon="6.47575">
        <ele>162.514</ele>
        <time>2012-10-07T08:55:33Z</time>
      </trkpt>
      <trkpt lat="43.24065" lon="6.47587">
        <ele>161.834</ele>
        <time>2012-10-07T08:55:41Z</time>
      </trkpt>
      <trkpt lat="43.24058" lon="6.476">
        <ele>164.534</ele>
        <time>2012-10-07T08:55:49Z</time>
      </trkpt>
      <trkpt lat="43.24052" lon="6.47609">
        <ele>163.912</ele>
        <time>2012-10-07T08:55:57Z</time>
      </trkpt>
      <trkpt lat="43.2405" lon="6.47611">
        <ele>163.632</ele>
        <time>2012-10-07T08:55:59Z</time>
      </trkpt>
      <trkpt lat="43.24043" lon="6.47608">
        <ele>163.653</ele>
        <time>2012-10-07T08:56:05Z</time>
      </trkpt>
      <trkpt lat="43.24035" lon="6.476">
        <ele>165.093</ele>
        <time>2012-10-07T08:56:14Z</time>
      </trkpt>
      <trkpt lat="43.24028" lon="6.47594">
        <ele>165.314</ele>
        <time>2012-10-07T08:56:20Z</time>
      </trkpt>
      <trkpt lat="43.24021" lon="6.47589">
        <ele>166.233</ele>
        <time>2012-10-07T08:56:28Z</time>
      </trkpt>
      <trkpt lat="43.24012" lon="6.47582">
        <ele>167.444</ele>
        <time>2012-10-07T08:56:37Z</time>
      </trkpt>
      <trkpt lat="43.24007" lon="6.47575">
        <ele>170.085</ele>
        <time>2012-10-07T08:56:45Z</time>
      </trkpt>
      <trkpt lat="43.23998" lon="6.47566">
        <ele>172.814</ele>
        <time>2012-10-07T08:56:55Z</time>
      </trkpt>
      <trkpt lat="43.23991" lon="6.47557">
        <ele>175.335</ele>
        <time>2012-10-07T08:57:03Z</time>
      </trkpt>
      <trkpt lat="43.23985" lon="6.47549">
        <ele>177.404</ele>
        <time>2012-10-07T08:57:11Z</time>
      </trkpt>
      <trkpt lat="43.23979" lon="6.47541">
        <ele>179.985</ele>
        <time>2012-10-07T08:57:19Z</time>
      </trkpt>
      <trkpt lat="43.23977" lon="6.47527">
        <ele>182.423</ele>
        <time>2012-10-07T08:57:28Z</time>
      </trkpt>
      <trkpt lat="43.23976" lon="6.47514">
        <ele>183.274</ele>
        <time>2012-10-07T08:57:36Z</time>
      </trkpt>
      <trkpt lat="43.2398" lon="6.47503">
        <ele>185.004</ele>
        <time>2012-10-07T08:57:44Z</time>
      </trkpt>
      <trkpt lat="43.23984" lon="6.47489">
        <ele>189.194</ele>
        <time>2012-10-07T08:57:55Z</time>
      </trkpt>
      <trkpt lat="43.23988" lon="6.47478">
        <ele>191.024</ele>
        <time>2012-10-07T08:58:03Z</time>
      </trkpt>
      <trkpt lat="43.23992" lon="6.47462">
        <ele>191.453</ele>
        <time>2012-10-07T08:58:13Z</time>
      </trkpt>
      <trkpt lat="43.23997" lon="6.47449">
        <ele>191.963</ele>
        <time>2012-10-07T08:58:22Z</time>
      </trkpt>
      <trkpt lat="43.24" lon="6.47442">
        <ele>191.852</ele>
        <time>2012-10-07T08:58:27Z</time>
      </trkpt>
      <trkpt lat="43.24001" lon="6.47437">
        <ele>191.923</ele>
        <time>2012-10-07T08:58:30Z</time>
      </trkpt>
      <trkpt lat="43.23996" lon="6.47434">
        <ele>193.644</ele>
        <time>2012-10-07T08:58:36Z</time>
      </trkpt>
      <trkpt lat="43.23994" lon="6.47435">
        <ele>194.285</ele>
        <time>2012-10-07T08:58:38Z</time>
      </trkpt>
      <trkpt lat="43.23987" lon="6.47441">
        <ele>198.816</ele>
        <time>2012-10-07T08:58:47Z</time>
      </trkpt>
      <trkpt lat="43.23977" lon="6.47448">
        <ele>201.265</ele>
        <time>2012-10-07T08:58:56Z</time>
      </trkpt>
      <trkpt lat="43.23968" lon="6.47452">
        <ele>202.174</ele>
        <time>2012-10-07T08:59:04Z</time>
      </trkpt>
      <trkpt lat="43.23956" lon="6.47455">
        <ele>202.314</ele>
        <time>2012-10-07T08:59:13Z</time>
      </trkpt>
      <trkpt lat="43.23946" lon="6.47456">
        <ele>203.164</ele>
        <time>2012-10-07T08:59:21Z</time>
      </trkpt>
      <trkpt lat="43.23932" lon="6.47453">
        <ele>205.069</ele>
        <time>2012-10-07T08:59:32Z</time>
      </trkpt>
      <trkpt lat="43.23926" lon="6.47443">
        <ele>205.743</ele>
        <time>2012-10-07T08:59:40Z</time>
      </trkpt>
      <trkpt lat="43.23927" lon="6.47428">
        <ele>207.043</ele>
        <time>2012-10-07T08:59:48Z</time>
      </trkpt>
      <trkpt lat="43.23929" lon="6.47413">
        <ele>208.793</ele>
        <time>2012-10-07T08:59:57Z</time>
      </trkpt>
      <trkpt lat="43.23927" lon="6.47398">
        <ele>210.633</ele>
        <time>2012-10-07T09:00:06Z</time>
      </trkpt>
      <trkpt lat="43.23924" lon="6.47388">
        <ele>212.072</ele>
        <time>2012-10-07T09:00:13Z</time>
      </trkpt>
      <trkpt lat="43.23916" lon="6.47374">
        <ele>214.643</ele>
        <time>2012-10-07T09:00:24Z</time>
      </trkpt>
      <trkpt lat="43.23911" lon="6.47364">
        <ele>215.192</ele>
        <time>2012-10-07T09:00:31Z</time>
      </trkpt>
      <trkpt lat="43.23904" lon="6.47353">
        <ele>216.923</ele>
        <time>2012-10-07T09:00:39Z</time>
      </trkpt>
      <trkpt lat="43.23901" lon="6.47352">
        <ele>218.103</ele>
        <time>2012-10-07T09:00:42Z</time>
      </trkpt>
      <trkpt lat="43.23897" lon="6.4736">
        <ele>218.542</ele>
        <time>2012-10-07T09:00:48Z</time>
      </trkpt>
      <trkpt lat="43.23897" lon="6.47362">
        <ele>218.912</ele>
        <time>2012-10-07T09:00:49Z</time>
      </trkpt>
      <trkpt lat="43.23898" lon="6.47378">
        <ele>219.211</ele>
        <time>2012-10-07T09:00:57Z</time>
      </trkpt>
      <trkpt lat="43.23895" lon="6.47382">
        <ele>219.392</ele>
        <time>2012-10-07T09:01:00Z</time>
      </trkpt>
      <trkpt lat="43.23887" lon="6.47382">
        <ele>220.233</ele>
        <time>2012-10-07T09:01:05Z</time>
      </trkpt>
      <trkpt lat="43.23879" lon="6.47373">
        <ele>221.702</ele>
        <time>2012-10-07T09:01:13Z</time>
      </trkpt>
      <trkpt lat="43.23872" lon="6.47361">
        <ele>222.823</ele>
        <time>2012-10-07T09:01:20Z</time>
      </trkpt>
      <trkpt lat="43.23862" lon="6.47344">
        <ele>223.822</ele>
        <time>2012-10-07T09:01:30Z</time>
      </trkpt>
      <trkpt lat="43.23852" lon="6.47326">
        <ele>225.432</ele>
        <time>2012-10-07T09:01:40Z</time>
      </trkpt>
      <trkpt lat="43.23843" lon="6.47314">
        <ele>226.867</ele>
        <time>2012-10-07T09:01:48Z</time>
      </trkpt>
      <trkpt lat="43.23834" lon="6.4731">
        <ele>227.502</ele>
        <time>2012-10-07T09:01:54Z</time>
      </trkpt>
      <trkpt lat="43.23823" lon="6.47308">
        <ele>227.851</ele>
        <time>2012-10-07T09:02:01Z</time>
      </trkpt>
      <trkpt lat="43.23815" lon="6.47308">
        <ele>227.651</ele>
        <time>2012-10-07T09:02:06Z</time>
      </trkpt>
      <trkpt lat="43.2381" lon="6.47298">
        <ele>227.661</ele>
        <time>2012-10-07T09:02:11Z</time>
      </trkpt>
      <trkpt lat="43.23809" lon="6.47274">
        <ele>227.772</ele>
        <time>2012-10-07T09:02:20Z</time>
      </trkpt>
      <trkpt lat="43.2381" lon="6.47257">
        <ele>228.652</ele>
        <time>2012-10-07T09:02:27Z</time>
      </trkpt>
      <trkpt lat="43.2381" lon="6.47237">
        <ele>229.602</ele>
        <time>2012-10-07T09:02:35Z</time>
      </trkpt>
      <trkpt lat="43.23816" lon="6.47214">
        <ele>229.741</ele>
        <time>2012-10-07T09:02:44Z</time>
      </trkpt>
      <trkpt lat="43.2382" lon="6.47202">
        <ele>230.932</ele>
        <time>2012-10-07T09:02:50Z</time>
      </trkpt>
      <trkpt lat="43.23824" lon="6.47188">
        <ele>233.533</ele>
        <time>2012-10-07T09:02:57Z</time>
      </trkpt>
      <trkpt lat="43.23831" lon="6.47167">
        <ele>235.312</ele>
        <time>2012-10-07T09:03:06Z</time>
      </trkpt>
      <trkpt lat="43.23836" lon="6.47149">
        <ele>238.042</ele>
        <time>2012-10-07T09:03:14Z</time>
      </trkpt>
      <trkpt lat="43.23841" lon="6.47132">
        <ele>238.152</ele>
        <time>2012-10-07T09:03:21Z</time>
      </trkpt>
      <trkpt lat="43.23847" lon="6.4711">
        <ele>239.422</ele>
        <time>2012-10-07T09:03:30Z</time>
      </trkpt>
      <trkpt lat="43.23855" lon="6.47086">
        <ele>240.091</ele>
        <time>2012-10-07T09:03:39Z</time>
      </trkpt>
      <trkpt lat="43.23863" lon="6.47062">
        <ele>241.761</ele>
        <time>2012-10-07T09:03:49Z</time>
      </trkpt>
      <trkpt lat="43.23874" lon="6.47039">
        <ele>242.74</ele>
        <time>2012-10-07T09:03:58Z</time>
      </trkpt>
      <trkpt lat="43.23889" lon="6.4702">
        <ele>241.939</ele>
        <time>2012-10-07T09:04:04Z</time>
      </trkpt>
      <trkpt lat="43.23907" lon="6.46996">
        <ele>241.35</ele>
        <time>2012-10-07T09:04:11Z</time>
      </trkpt>
      <trkpt lat="43.23913" lon="6.46978">
        <ele>241.671</ele>
        <time>2012-10-07T09:04:16Z</time>
      </trkpt>
      <trkpt lat="43.23927" lon="6.46948">
        <ele>242.59</ele>
        <time>2012-10-07T09:04:25Z</time>
      </trkpt>
      <trkpt lat="43.23937" lon="6.46924">
        <ele>243.272</ele>
        <time>2012-10-07T09:04:32Z</time>
      </trkpt>
      <trkpt lat="43.23944" lon="6.46898">
        <ele>244.771</ele>
        <time>2012-10-07T09:04:40Z</time>
      </trkpt>
      <trkpt lat="43.23951" lon="6.4687">
        <ele>245.03</ele>
        <time>2012-10-07T09:04:48Z</time>
      </trkpt>
      <trkpt lat="43.23959" lon="6.46842">
        <ele>245.68</ele>
        <time>2012-10-07T09:04:56Z</time>
      </trkpt>
      <trkpt lat="43.23965" lon="6.46822">
        <ele>247.461</ele>
        <time>2012-10-07T09:05:03Z</time>
      </trkpt>
      <trkpt lat="43.23971" lon="6.46807">
        <ele>248.931</ele>
        <time>2012-10-07T09:05:10Z</time>
      </trkpt>
      <trkpt lat="43.23979" lon="6.46786">
        <ele>250.451</ele>
        <time>2012-10-07T09:05:19Z</time>
      </trkpt>
      <trkpt lat="43.23983" lon="6.46766">
        <ele>251.46</ele>
        <time>2012-10-07T09:05:27Z</time>
      </trkpt>
      <trkpt lat="43.23983" lon="6.46739">
        <ele>251.92</ele>
        <time>2012-10-07T09:05:37Z</time>
      </trkpt>
      <trkpt lat="43.2398" lon="6.4672">
        <ele>252.56</ele>
        <time>2012-10-07T09:05:45Z</time>
      </trkpt>
      <trkpt lat="43.23972" lon="6.46704">
        <ele>253.371</ele>
        <time>2012-10-07T09:05:52Z</time>
      </trkpt>
      <trkpt lat="43.2396" lon="6.4669">
        <ele>254.631</ele>
        <time>2012-10-07T09:06:00Z</time>
      </trkpt>
      <trkpt lat="43.23944" lon="6.46672">
        <ele>256.211</ele>
        <time>2012-10-07T09:06:11Z</time>
      </trkpt>
      <trkpt lat="43.2394" lon="6.46656">
        <ele>257.681</ele>
        <time>2012-10-07T09:06:18Z</time>
      </trkpt>
      <trkpt lat="43.23945" lon="6.46638">
        <ele>259.071</ele>
        <time>2012-10-07T09:06:26Z</time>
      </trkpt>
      <trkpt lat="43.23953" lon="6.4662">
        <ele>261.761</ele>
        <time>2012-10-07T09:06:37Z</time>
      </trkpt>
      <trkpt lat="43.23961" lon="6.46606">
        <ele>264.251</ele>
        <time>2012-10-07T09:06:45Z</time>
      </trkpt>
      <trkpt lat="43.23967" lon="6.46588">
        <ele>266.009</ele>
        <time>2012-10-07T09:06:54Z</time>
      </trkpt>
      <trkpt lat="43.23969" lon="6.46569">
        <ele>267.58</ele>
        <time>2012-10-07T09:07:03Z</time>
      </trkpt>
      <trkpt lat="43.23967" lon="6.4655">
        <ele>269.33</ele>
        <time>2012-10-07T09:07:13Z</time>
      </trkpt>
      <trkpt lat="43.23963" lon="6.46526">
        <ele>269.929</ele>
        <time>2012-10-07T09:07:24Z</time>
      </trkpt>
      <trkpt lat="43.23961" lon="6.46508">
        <ele>269.759</ele>
        <time>2012-10-07T09:07:30Z</time>
      </trkpt>
      <trkpt lat="43.2396" lon="6.46483">
        <ele>270.719</ele>
        <time>2012-10-07T09:07:41Z</time>
      </trkpt>
      <trkpt lat="43.23959" lon="6.46461">
        <ele>272.1</ele>
        <time>2012-10-07T09:07:51Z</time>
      </trkpt>
      <trkpt lat="43.23958" lon="6.46441">
        <ele>272.99</ele>
        <time>2012-10-07T09:08:00Z</time>
      </trkpt>
      <trkpt lat="43.23957" lon="6.4642">
        <ele>274.71</ele>
        <time>2012-10-07T09:08:08Z</time>
      </trkpt>
      <trkpt lat="43.23962" lon="6.464">
        <ele>275.399</ele>
        <time>2012-10-07T09:08:17Z</time>
      </trkpt>
      <trkpt lat="43.23965" lon="6.46386">
        <ele>275.4</ele>
        <time>2012-10-07T09:08:22Z</time>
      </trkpt>
      <trkpt lat="43.23957" lon="6.46381">
        <ele>275.268</ele>
        <time>2012-10-07T09:08:26Z</time>
      </trkpt>
      <trkpt lat="43.23947" lon="6.4638">
        <ele>274.677</ele>
        <time>2012-10-07T09:08:29Z</time>
      </trkpt>
      <trkpt lat="43.2393" lon="6.46383">
        <ele>273.586</ele>
        <time>2012-10-07T09:08:33Z</time>
      </trkpt>
      <trkpt lat="43.23894" lon="6.46389">
        <ele>271.697</ele>
        <time>2012-10-07T09:08:40Z</time>
      </trkpt>
      <trkpt lat="43.23873" lon="6.46403">
        <ele>269.866</ele>
        <time>2012-10-07T09:08:45Z</time>
      </trkpt>
      <trkpt lat="43.23869" lon="6.46408">
        <ele>269.436</ele>
        <time>2012-10-07T09:08:46Z</time>
      </trkpt>
      <trkpt lat="43.23839" lon="6.46453">
        <ele>265.895</ele>
        <time>2012-10-07T09:08:53Z</time>
      </trkpt>
      <trkpt lat="43.23824" lon="6.46472">
        <ele>264.615</ele>
        <time>2012-10-07T09:08:56Z</time>
      </trkpt>
      <trkpt lat="43.2379" lon="6.46493">
        <ele>262.025</ele>
        <time>2012-10-07T09:09:01Z</time>
      </trkpt>
      <trkpt lat="43.23763" lon="6.46508">
        <ele>259.985</ele>
        <time>2012-10-07T09:09:05Z</time>
      </trkpt>
      <trkpt lat="43.23742" lon="6.46531">
        <ele>258.385</ele>
        <time>2012-10-07T09:09:09Z</time>
      </trkpt>
      <trkpt lat="43.23724" lon="6.4656">
        <ele>257.146</ele>
        <time>2012-10-07T09:09:13Z</time>
      </trkpt>
      <trkpt lat="43.23695" lon="6.46588">
        <ele>255.256</ele>
        <time>2012-10-07T09:09:18Z</time>
      </trkpt>
      <trkpt lat="43.23682" lon="6.46599">
        <ele>254.384</ele>
        <time>2012-10-07T09:09:20Z</time>
      </trkpt>
      <trkpt lat="43.23652" lon="6.46604">
        <ele>252.354</ele>
        <time>2012-10-07T09:09:24Z</time>
      </trkpt>
      <trkpt lat="43.23603" lon="6.46599">
        <ele>248.844</ele>
        <time>2012-10-07T09:09:30Z</time>
      </trkpt>
      <trkpt lat="43.23576" lon="6.46596">
        <ele>246.924</ele>
        <time>2012-10-07T09:09:33Z</time>
      </trkpt>
      <trkpt lat="43.23549" lon="6.46575">
        <ele>244.984</ele>
        <time>2012-10-07T09:09:37Z</time>
      </trkpt>
      <trkpt lat="43.23541" lon="6.46545">
        <ele>243.465</ele>
        <time>2012-10-07T09:09:40Z</time>
      </trkpt>
      <trkpt lat="43.2354" lon="6.46534">
        <ele>243.035</ele>
        <time>2012-10-07T09:09:41Z</time>
      </trkpt>
      <trkpt lat="43.23529" lon="6.46503">
        <ele>240.274</ele>
        <time>2012-10-07T09:09:45Z</time>
      </trkpt>
      <trkpt lat="43.23516" lon="6.46497">
        <ele>239.023</ele>
        <time>2012-10-07T09:09:47Z</time>
      </trkpt>
      <trkpt lat="43.23477" lon="6.46503">
        <ele>235.764</ele>
        <time>2012-10-07T09:09:52Z</time>
      </trkpt>
      <trkpt lat="43.23465" lon="6.46516">
        <ele>235.206</ele>
        <time>2012-10-07T09:09:54Z</time>
      </trkpt>
      <trkpt lat="43.2344" lon="6.4655">
        <ele>234.788</ele>
        <time>2012-10-07T09:09:59Z</time>
      </trkpt>
      <trkpt lat="43.23423" lon="6.4659">
        <ele>235.349</ele>
        <time>2012-10-07T09:10:05Z</time>
      </trkpt>
      <trkpt lat="43.23401" lon="6.46637">
        <ele>235.598</ele>
        <time>2012-10-07T09:10:13Z</time>
      </trkpt>
      <trkpt lat="43.2339" lon="6.46659">
        <ele>235.357</ele>
        <time>2012-10-07T09:10:17Z</time>
      </trkpt>
      <trkpt lat="43.23381" lon="6.46688">
        <ele>235.338</ele>
        <time>2012-10-07T09:10:22Z</time>
      </trkpt>
      <trkpt lat="43.23365" lon="6.46724">
        <ele>233.956</ele>
        <time>2012-10-07T09:10:28Z</time>
      </trkpt>
      <trkpt lat="43.23349" lon="6.46754">
        <ele>232.036</ele>
        <time>2012-10-07T09:10:32Z</time>
      </trkpt>
      <trkpt lat="43.23325" lon="6.46774">
        <ele>228.152</ele>
        <time>2012-10-07T09:10:36Z</time>
      </trkpt>
      <trkpt lat="43.23309" lon="6.46795">
        <ele>225.573</ele>
        <time>2012-10-07T09:10:39Z</time>
      </trkpt>
      <trkpt lat="43.23287" lon="6.46825">
        <ele>221.863</ele>
        <time>2012-10-07T09:10:43Z</time>
      </trkpt>
      <trkpt lat="43.23263" lon="6.46825">
        <ele>220.445</ele>
        <time>2012-10-07T09:10:46Z</time>
      </trkpt>
      <trkpt lat="43.23255" lon="6.4682">
        <ele>219.715</ele>
        <time>2012-10-07T09:10:47Z</time>
      </trkpt>
      <trkpt lat="43.23206" lon="6.46785">
        <ele>213.682</ele>
        <time>2012-10-07T09:10:53Z</time>
      </trkpt>
      <trkpt lat="43.23168" lon="6.46768">
        <ele>209.532</ele>
        <time>2012-10-07T09:10:57Z</time>
      </trkpt>
      <trkpt lat="43.23134" lon="6.46766">
        <ele>206.203</ele>
        <time>2012-10-07T09:11:01Z</time>
      </trkpt>
      <trkpt lat="43.23112" lon="6.46784">
        <ele>204.194</ele>
        <time>2012-10-07T09:11:04Z</time>
      </trkpt>
      <trkpt lat="43.23106" lon="6.46792">
        <ele>203.584</ele>
        <time>2012-10-07T09:11:05Z</time>
      </trkpt>
      <trkpt lat="43.23075" lon="6.46849">
        <ele>203.147</ele>
        <time>2012-10-07T09:11:12Z</time>
      </trkpt>
      <trkpt lat="43.23058" lon="6.46881">
        <ele>204.81</ele>
        <time>2012-10-07T09:11:18Z</time>
      </trkpt>
      <trkpt lat="43.2304" lon="6.4691">
        <ele>207.67</ele>
        <time>2012-10-07T09:11:25Z</time>
      </trkpt>
      <trkpt lat="43.23025" lon="6.46928">
        <ele>209.191</ele>
        <time>2012-10-07T09:11:30Z</time>
      </trkpt>
      <trkpt lat="43.23007" lon="6.46948">
        <ele>211.781</ele>
        <time>2012-10-07T09:11:37Z</time>
      </trkpt>
      <trkpt lat="43.22991" lon="6.4696">
        <ele>212.94</ele>
        <time>2012-10-07T09:11:43Z</time>
      </trkpt>
      <trkpt lat="43.22974" lon="6.46971">
        <ele>213.46</ele>
        <time>2012-10-07T09:11:48Z</time>
      </trkpt>
      <trkpt lat="43.22962" lon="6.46983">
        <ele>215.02</ele>
        <time>2012-10-07T09:11:53Z</time>
      </trkpt>
      <trkpt lat="43.22936" lon="6.47003">
        <ele>216.07</ele>
        <time>2012-10-07T09:12:03Z</time>
      </trkpt>
      <trkpt lat="43.22928" lon="6.47006">
        <ele>215.409</ele>
        <time>2012-10-07T09:12:07Z</time>
      </trkpt>
      <trkpt lat="43.22911" lon="6.47013">
        <ele>214.448</ele>
        <time>2012-10-07T09:12:13Z</time>
      </trkpt>
      <trkpt lat="43.22895" lon="6.47016">
        <ele>214.389</ele>
        <time>2012-10-07T09:12:18Z</time>
      </trkpt>
      <trkpt lat="43.22873" lon="6.47019">
        <ele>215.109</ele>
        <time>2012-10-07T09:12:26Z</time>
      </trkpt>
      <trkpt lat="43.22854" lon="6.47023">
        <ele>215.169</ele>
        <time>2012-10-07T09:12:33Z</time>
      </trkpt>
      <trkpt lat="43.22835" lon="6.47034">
        <ele>216.469</ele>
        <time>2012-10-07T09:12:40Z</time>
      </trkpt>
      <trkpt lat="43.22809" lon="6.47053">
        <ele>218.46</ele>
        <time>2012-10-07T09:12:49Z</time>
      </trkpt>
      <trkpt lat="43.22794" lon="6.47067">
        <ele>221.08</ele>
        <time>2012-10-07T09:12:55Z</time>
      </trkpt>
      <trkpt lat="43.22778" lon="6.4708">
        <ele>221.939</ele>
        <time>2012-10-07T09:13:01Z</time>
      </trkpt>
      <trkpt lat="43.22757" lon="6.47098">
        <ele>223.74</ele>
        <time>2012-10-07T09:13:09Z</time>
      </trkpt>
      <trkpt lat="43.22735" lon="6.47114">
        <ele>224.139</ele>
        <time>2012-10-07T09:13:17Z</time>
      </trkpt>
      <trkpt lat="43.22714" lon="6.47139">
        <ele>225.809</ele>
        <time>2012-10-07T09:13:25Z</time>
      </trkpt>
      <trkpt lat="43.227" lon="6.47173">
        <ele>227.84</ele>
        <time>2012-10-07T09:13:33Z</time>
      </trkpt>
      <trkpt lat="43.22691" lon="6.47219">
        <ele>227.568</ele>
        <time>2012-10-07T09:13:42Z</time>
      </trkpt>
      <trkpt lat="43.22691" lon="6.47263">
        <ele>225.257</ele>
        <time>2012-10-07T09:13:49Z</time>
      </trkpt>
      <trkpt lat="43.22691" lon="6.47271">
        <ele>224.526</ele>
        <time>2012-10-07T09:13:50Z</time>
      </trkpt>
      <trkpt lat="43.2269" lon="6.47286">
        <ele>223.656</ele>
        <time>2012-10-07T09:13:52Z</time>
      </trkpt>
      <trkpt lat="43.22676" lon="6.47347">
        <ele>221.036</ele>
        <time>2012-10-07T09:13:59Z</time>
      </trkpt>
      <trkpt lat="43.22658" lon="6.47417">
        <ele>218.747</ele>
        <time>2012-10-07T09:14:07Z</time>
      </trkpt>
      <trkpt lat="43.22649" lon="6.47447">
        <ele>217.636</ele>
        <time>2012-10-07T09:14:11Z</time>
      </trkpt>
      <trkpt lat="43.22645" lon="6.47487">
        <ele>216.907</ele>
        <time>2012-10-07T09:14:16Z</time>
      </trkpt>
      <trkpt lat="43.2265" lon="6.47519">
        <ele>215.916</ele>
        <time>2012-10-07T09:14:20Z</time>
      </trkpt>
      <trkpt lat="43.22644" lon="6.47563">
        <ele>214.055</ele>
        <time>2012-10-07T09:14:25Z</time>
      </trkpt>
      <trkpt lat="43.22635" lon="6.476">
        <ele>212.717</ele>
        <time>2012-10-07T09:14:29Z</time>
      </trkpt>
      <trkpt lat="43.22622" lon="6.47622">
        <ele>211.746</ele>
        <time>2012-10-07T09:14:32Z</time>
      </trkpt>
      <trkpt lat="43.226" lon="6.47621">
        <ele>209.905</ele>
        <time>2012-10-07T09:14:35Z</time>
      </trkpt>
      <trkpt lat="43.22585" lon="6.47624">
        <ele>208.444</ele>
        <time>2012-10-07T09:14:37Z</time>
      </trkpt>
      <trkpt lat="43.22551" lon="6.47638">
        <ele>205.205</ele>
        <time>2012-10-07T09:14:42Z</time>
      </trkpt>
      <trkpt lat="43.22539" lon="6.47643">
        <ele>204.196</ele>
        <time>2012-10-07T09:14:44Z</time>
      </trkpt>
      <trkpt lat="43.22524" lon="6.4766">
        <ele>203.278</ele>
        <time>2012-10-07T09:14:49Z</time>
      </trkpt>
      <trkpt lat="43.22521" lon="6.47671">
        <ele>203.99</ele>
        <time>2012-10-07T09:14:54Z</time>
      </trkpt>
      <trkpt lat="43.2252" lon="6.4767">
        <ele>204.359</ele>
        <time>2012-10-07T09:14:59Z</time>
      </trkpt>
      <trkpt lat="43.22523" lon="6.47665">
        <ele>204.63</ele>
        <time>2012-10-07T09:15:05Z</time>
      </trkpt>
      <trkpt lat="43.22523" lon="6.47671">
        <ele>205.009</ele>
        <time>2012-10-07T09:15:09Z</time>
      </trkpt>
      <trkpt lat="43.22523" lon="6.47671">
        <ele>205.049</ele>
        <time>2012-10-07T09:15:16Z</time>
      </trkpt>
      <trkpt lat="43.22523" lon="6.47672">
        <ele>205.449</ele>
        <time>2012-10-07T09:16:15Z</time>
      </trkpt>
      <trkpt lat="43.22523" lon="6.47671">
        <ele>206.299</ele>
        <time>2012-10-07T09:16:26Z</time>
      </trkpt>
      <trkpt lat="43.22523" lon="6.47672">
        <ele>206.529</ele>
        <time>2012-10-07T09:16:32Z</time>
      </trkpt>
      <trkpt lat="43.22521" lon="6.4767">
        <ele>203.641</ele>
        <time>2012-10-07T09:25:44Z</time>
      </trkpt>
      <trkpt lat="43.22522" lon="6.4767">
        <ele>203.239</ele>
        <time>2012-10-07T09:25:54Z</time>
      </trkpt>
      <trkpt lat="43.2252" lon="6.47671">
        <ele>204.149</ele>
        <time>2012-10-07T09:25:59Z</time>
      </trkpt>
      <trkpt lat="43.2252" lon="6.4767">
        <ele>203.999</ele>
        <time>2012-10-07T09:26:02Z</time>
      </trkpt>
      <trkpt lat="43.22525" lon="6.4766">
        <ele>204.62</ele>
        <time>2012-10-07T09:26:08Z</time>
      </trkpt>
      <trkpt lat="43.22534" lon="6.47645">
        <ele>205.32</ele>
        <time>2012-10-07T09:26:13Z</time>
      </trkpt>
      <trkpt lat="43.22548" lon="6.4764">
        <ele>205.48</ele>
        <time>2012-10-07T09:26:18Z</time>
      </trkpt>
      <trkpt lat="43.22572" lon="6.47625">
        <ele>206.471</ele>
        <time>2012-10-07T09:26:27Z</time>
      </trkpt>
      <trkpt lat="43.22592" lon="6.47616">
        <ele>208.382</ele>
        <time>2012-10-07T09:26:34Z</time>
      </trkpt>
      <trkpt lat="43.22608" lon="6.47616">
        <ele>211.243</ele>
        <time>2012-10-07T09:26:40Z</time>
      </trkpt>
      <trkpt lat="43.22624" lon="6.47614">
        <ele>212.091</ele>
        <time>2012-10-07T09:26:46Z</time>
      </trkpt>
      <trkpt lat="43.22632" lon="6.47599">
        <ele>212.58</ele>
        <time>2012-10-07T09:26:51Z</time>
      </trkpt>
      <trkpt lat="43.22641" lon="6.47564">
        <ele>212.75</ele>
        <time>2012-10-07T09:27:01Z</time>
      </trkpt>
      <trkpt lat="43.22648" lon="6.47542">
        <ele>213.661</ele>
        <time>2012-10-07T09:27:07Z</time>
      </trkpt>
      <trkpt lat="43.2265" lon="6.4751">
        <ele>214.871</ele>
        <time>2012-10-07T09:27:16Z</time>
      </trkpt>
      <trkpt lat="43.22646" lon="6.47484">
        <ele>215.27</ele>
        <time>2012-10-07T09:27:24Z</time>
      </trkpt>
      <trkpt lat="43.22638" lon="6.4748">
        <ele>216.411</ele>
        <time>2012-10-07T09:27:29Z</time>
      </trkpt>
      <trkpt lat="43.22632" lon="6.47483">
        <ele>218.082</ele>
        <time>2012-10-07T09:27:33Z</time>
      </trkpt>
      <trkpt lat="43.22623" lon="6.47483">
        <ele>220.682</ele>
        <time>2012-10-07T09:27:40Z</time>
      </trkpt>
      <trkpt lat="43.22614" lon="6.47483">
        <ele>221.31</ele>
        <time>2012-10-07T09:27:46Z</time>
      </trkpt>
      <trkpt lat="43.22604" lon="6.47478">
        <ele>223.401</ele>
        <time>2012-10-07T09:27:53Z</time>
      </trkpt>
      <trkpt lat="43.22599" lon="6.4747">
        <ele>222.959</ele>
        <time>2012-10-07T09:27:57Z</time>
      </trkpt>
      <trkpt lat="43.22605" lon="6.47455">
        <ele>222.69</ele>
        <time>2012-10-07T09:28:04Z</time>
      </trkpt>
      <trkpt lat="43.22612" lon="6.47441">
        <ele>223.871</ele>
        <time>2012-10-07T09:28:11Z</time>
      </trkpt>
      <trkpt lat="43.22617" lon="6.4743">
        <ele>223.609</ele>
        <time>2012-10-07T09:28:17Z</time>
      </trkpt>
      <trkpt lat="43.22612" lon="6.47421">
        <ele>224.231</ele>
        <time>2012-10-07T09:28:23Z</time>
      </trkpt>
      <trkpt lat="43.22611" lon="6.47419">
        <ele>224.32</ele>
        <time>2012-10-07T09:28:24Z</time>
      </trkpt>
      <trkpt lat="43.22603" lon="6.47411">
        <ele>224.49</ele>
        <time>2012-10-07T09:28:31Z</time>
      </trkpt>
      <trkpt lat="43.22599" lon="6.47407">
        <ele>225.781</ele>
        <time>2012-10-07T09:28:35Z</time>
      </trkpt>
      <trkpt lat="43.22596" lon="6.474">
        <ele>226.691</ele>
        <time>2012-10-07T09:28:39Z</time>
      </trkpt>
      <trkpt lat="43.22592" lon="6.47388">
        <ele>226.279</ele>
        <time>2012-10-07T09:28:46Z</time>
      </trkpt>
      <trkpt lat="43.22589" lon="6.47372">
        <ele>226.169</ele>
        <time>2012-10-07T09:28:55Z</time>
      </trkpt>
      <trkpt lat="43.22589" lon="6.47357">
        <ele>227.6</ele>
        <time>2012-10-07T09:29:02Z</time>
      </trkpt>
      <trkpt lat="43.22589" lon="6.47344">
        <ele>229.021</ele>
        <time>2012-10-07T09:29:09Z</time>
      </trkpt>
      <trkpt lat="43.22587" lon="6.47331">
        <ele>229.67</ele>
        <time>2012-10-07T09:29:16Z</time>
      </trkpt>
      <trkpt lat="43.22588" lon="6.47324">
        <ele>229.439</ele>
        <time>2012-10-07T09:29:22Z</time>
      </trkpt>
      <trkpt lat="43.22589" lon="6.47324">
        <ele>229.559</ele>
        <time>2012-10-07T09:29:23Z</time>
      </trkpt>
      <trkpt lat="43.22594" lon="6.47318">
        <ele>233.171</ele>
        <time>2012-10-07T09:29:34Z</time>
      </trkpt>
      <trkpt lat="43.22596" lon="6.47314">
        <ele>235.492</ele>
        <time>2012-10-07T09:29:40Z</time>
      </trkpt>
      <trkpt lat="43.22599" lon="6.4731">
        <ele>237.16</ele>
        <time>2012-10-07T09:29:46Z</time>
      </trkpt>
      <trkpt lat="43.22602" lon="6.47304">
        <ele>238.37</ele>
        <time>2012-10-07T09:29:53Z</time>
      </trkpt>
      <trkpt lat="43.22604" lon="6.47298">
        <ele>240.269</ele>
        <time>2012-10-07T09:30:01Z</time>
      </trkpt>
      <trkpt lat="43.22605" lon="6.47295">
        <ele>241.94</ele>
        <time>2012-10-07T09:30:11Z</time>
      </trkpt>
      <trkpt lat="43.22611" lon="6.47285">
        <ele>243.631</ele>
        <time>2012-10-07T09:30:18Z</time>
      </trkpt>
      <trkpt lat="43.22613" lon="6.47274">
        <ele>245.571</ele>
        <time>2012-10-07T09:30:25Z</time>
      </trkpt>
      <trkpt lat="43.22615" lon="6.47263">
        <ele>246.53</ele>
        <time>2012-10-07T09:30:31Z</time>
      </trkpt>
      <trkpt lat="43.2261" lon="6.47259">
        <ele>249.14</ele>
        <time>2012-10-07T09:30:37Z</time>
      </trkpt>
      <trkpt lat="43.22609" lon="6.47259">
        <ele>249.56</ele>
        <time>2012-10-07T09:30:38Z</time>
      </trkpt>
      <trkpt lat="43.22598" lon="6.47261">
        <ele>250.7</ele>
        <time>2012-10-07T09:30:46Z</time>
      </trkpt>
      <trkpt lat="43.22597" lon="6.47261">
        <ele>250.8</ele>
        <time>2012-10-07T09:30:47Z</time>
      </trkpt>
      <trkpt lat="43.22595" lon="6.47257">
        <ele>251.009</ele>
        <time>2012-10-07T09:30:53Z</time>
      </trkpt>
      <trkpt lat="43.22593" lon="6.47254">
        <ele>251.859</ele>
        <time>2012-10-07T09:31:12Z</time>
      </trkpt>
      <trkpt lat="43.22592" lon="6.47249">
        <ele>253.26</ele>
        <time>2012-10-07T09:31:21Z</time>
      </trkpt>
      <trkpt lat="43.22593" lon="6.47246">
        <ele>254.84</ele>
        <time>2012-10-07T09:31:27Z</time>
      </trkpt>
      <trkpt lat="43.22589" lon="6.47243">
        <ele>256.58</ele>
        <time>2012-10-07T09:31:35Z</time>
      </trkpt>
      <trkpt lat="43.2259" lon="6.4724">
        <ele>257.96</ele>
        <time>2012-10-07T09:31:41Z</time>
      </trkpt>
      <trkpt lat="43.22592" lon="6.47237">
        <ele>259.27</ele>
        <time>2012-10-07T09:31:47Z</time>
      </trkpt>
      <trkpt lat="43.22592" lon="6.47234">
        <ele>259.94</ele>
        <time>2012-10-07T09:31:53Z</time>
      </trkpt>
      <trkpt lat="43.22593" lon="6.47229">
        <ele>261.249</ele>
        <time>2012-10-07T09:32:00Z</time>
      </trkpt>
      <trkpt lat="43.22591" lon="6.47228">
        <ele>263.541</ele>
        <time>2012-10-07T09:32:07Z</time>
      </trkpt>
      <trkpt lat="43.22589" lon="6.47226">
        <ele>264.116</ele>
        <time>2012-10-07T09:32:12Z</time>
      </trkpt>
      <trkpt lat="43.22588" lon="6.47223">
        <ele>265.14</ele>
        <time>2012-10-07T09:32:18Z</time>
      </trkpt>
      <trkpt lat="43.22587" lon="6.47221">
        <ele>265.41</ele>
        <time>2012-10-07T09:32:23Z</time>
      </trkpt>
      <trkpt lat="43.22588" lon="6.47218">
        <ele>266.48</ele>
        <time>2012-10-07T09:32:29Z</time>
      </trkpt>
      <trkpt lat="43.22588" lon="6.47216">
        <ele>268.301</ele>
        <time>2012-10-07T09:32:37Z</time>
      </trkpt>
      <trkpt lat="43.22588" lon="6.47212">
        <ele>268.829</ele>
        <time>2012-10-07T09:32:43Z</time>
      </trkpt>
      <trkpt lat="43.22588" lon="6.47209">
        <ele>268.91</ele>
        <time>2012-10-07T09:32:48Z</time>
      </trkpt>
      <trkpt lat="43.22586" lon="6.47208">
        <ele>270.39</ele>
        <time>2012-10-07T09:32:53Z</time>
      </trkpt>
      <trkpt lat="43.22585" lon="6.47207">
        <ele>272.181</ele>
        <time>2012-10-07T09:32:59Z</time>
      </trkpt>
      <trkpt lat="43.22582" lon="6.47206">
        <ele>273.138</ele>
        <time>2012-10-07T09:33:05Z</time>
      </trkpt>
      <trkpt lat="43.22581" lon="6.47205">
        <ele>273.709</ele>
        <time>2012-10-07T09:33:10Z</time>
      </trkpt>
      <trkpt lat="43.22581" lon="6.47206">
        <ele>277.609</ele>
        <time>2012-10-07T09:34:49Z</time>
      </trkpt>
      <trkpt lat="43.22581" lon="6.47207">
        <ele>280.448</ele>
        <time>2012-10-07T09:35:58Z</time>
      </trkpt>
      <trkpt lat="43.22583" lon="6.4721">
        <ele>277.247</ele>
        <time>2012-10-07T09:36:31Z</time>
      </trkpt>
      <trkpt lat="43.22585" lon="6.4721">
        <ele>276.838</ele>
        <time>2012-10-07T09:36:36Z</time>
      </trkpt>
      <trkpt lat="43.22587" lon="6.47211">
        <ele>276.137</ele>
        <time>2012-10-07T09:36:41Z</time>
      </trkpt>
      <trkpt lat="43.22588" lon="6.47214">
        <ele>275.448</ele>
        <time>2012-10-07T09:36:47Z</time>
      </trkpt>
      <trkpt lat="43.22587" lon="6.47219">
        <ele>274.028</ele>
        <time>2012-10-07T09:36:54Z</time>
      </trkpt>
      <trkpt lat="43.22586" lon="6.47223">
        <ele>273.939</ele>
        <time>2012-10-07T09:37:01Z</time>
      </trkpt>
      <trkpt lat="43.22589" lon="6.47226">
        <ele>273.018</ele>
        <time>2012-10-07T09:37:07Z</time>
      </trkpt>
      <trkpt lat="43.2259" lon="6.4723">
        <ele>272.498</ele>
        <time>2012-10-07T09:37:11Z</time>
      </trkpt>
      <trkpt lat="43.22587" lon="6.47238">
        <ele>270.487</ele>
        <time>2012-10-07T09:37:19Z</time>
      </trkpt>
      <trkpt lat="43.22587" lon="6.47242">
        <ele>267.797</ele>
        <time>2012-10-07T09:37:25Z</time>
      </trkpt>
      <trkpt lat="43.22588" lon="6.47246">
        <ele>265.547</ele>
        <time>2012-10-07T09:37:31Z</time>
      </trkpt>
      <trkpt lat="43.22589" lon="6.47248">
        <ele>265.238</ele>
        <time>2012-10-07T09:37:33Z</time>
      </trkpt>
      <trkpt lat="43.22591" lon="6.47256">
        <ele>264.889</ele>
        <time>2012-10-07T09:37:41Z</time>
      </trkpt>
      <trkpt lat="43.22592" lon="6.47257">
        <ele>260.278</ele>
        <time>2012-10-07T09:38:03Z</time>
      </trkpt>
      <trkpt lat="43.22601" lon="6.47259">
        <ele>259.739</ele>
        <time>2012-10-07T09:38:07Z</time>
      </trkpt>
      <trkpt lat="43.22613" lon="6.47268">
        <ele>260.568</ele>
        <time>2012-10-07T09:38:12Z</time>
      </trkpt>
      <trkpt lat="43.2261" lon="6.47282">
        <ele>260.038</ele>
        <time>2012-10-07T09:38:15Z</time>
      </trkpt>
      <trkpt lat="43.22594" lon="6.47311">
        <ele>256.195</ele>
        <time>2012-10-07T09:38:21Z</time>
      </trkpt>
      <trkpt lat="43.22582" lon="6.47322">
        <ele>253.335</ele>
        <time>2012-10-07T09:38:25Z</time>
      </trkpt>
      <trkpt lat="43.22583" lon="6.47342">
        <ele>248.704</ele>
        <time>2012-10-07T09:38:29Z</time>
      </trkpt>
      <trkpt lat="43.22583" lon="6.47371">
        <ele>243.653</ele>
        <time>2012-10-07T09:38:33Z</time>
      </trkpt>
      <trkpt lat="43.22591" lon="6.47398">
        <ele>239.863</ele>
        <time>2012-10-07T09:38:37Z</time>
      </trkpt>
      <trkpt lat="43.22603" lon="6.47413">
        <ele>241.357</ele>
        <time>2012-10-07T09:38:41Z</time>
      </trkpt>
      <trkpt lat="43.22612" lon="6.47423">
        <ele>238.356</ele>
        <time>2012-10-07T09:38:45Z</time>
      </trkpt>
      <trkpt lat="43.2261" lon="6.47437">
        <ele>235.916</ele>
        <time>2012-10-07T09:38:48Z</time>
      </trkpt>
      <trkpt lat="43.22597" lon="6.47463">
        <ele>230.897</ele>
        <time>2012-10-07T09:38:54Z</time>
      </trkpt>
      <trkpt lat="43.22582" lon="6.47486">
        <ele>229.818</ele>
        <time>2012-10-07T09:39:00Z</time>
      </trkpt>
      <trkpt lat="43.22567" lon="6.475">
        <ele>228.108</ele>
        <time>2012-10-07T09:39:05Z</time>
      </trkpt>
      <trkpt lat="43.22554" lon="6.47526">
        <ele>228.288</ele>
        <time>2012-10-07T09:39:11Z</time>
      </trkpt>
      <trkpt lat="43.22548" lon="6.4755">
        <ele>227.627</ele>
        <time>2012-10-07T09:39:16Z</time>
      </trkpt>
      <trkpt lat="43.22545" lon="6.47559">
        <ele>226.847</ele>
        <time>2012-10-07T09:39:18Z</time>
      </trkpt>
      <trkpt lat="43.2253" lon="6.47565">
        <ele>222.804</ele>
        <time>2012-10-07T09:39:23Z</time>
      </trkpt>
      <trkpt lat="43.22528" lon="6.4758">
        <ele>220.383</ele>
        <time>2012-10-07T09:39:26Z</time>
      </trkpt>
      <trkpt lat="43.22527" lon="6.47615">
        <ele>216.935</ele>
        <time>2012-10-07T09:39:31Z</time>
      </trkpt>
      <trkpt lat="43.22525" lon="6.47637">
        <ele>216.738</ele>
        <time>2012-10-07T09:39:35Z</time>
      </trkpt>
      <trkpt lat="43.22526" lon="6.47639">
        <ele>215.579</ele>
        <time>2012-10-07T09:39:40Z</time>
      </trkpt>
      <trkpt lat="43.22526" lon="6.47638">
        <ele>214.389</ele>
        <time>2012-10-07T09:39:43Z</time>
      </trkpt>
      <trkpt lat="43.22525" lon="6.47636">
        <ele>213.109</ele>
        <time>2012-10-07T09:39:47Z</time>
      </trkpt>
      <trkpt lat="43.22525" lon="6.47624">
        <ele>212.41</ele>
        <time>2012-10-07T09:39:56Z</time>
      </trkpt>
      <trkpt lat="43.22528" lon="6.47615">
        <ele>211.73</ele>
        <time>2012-10-07T09:40:04Z</time>
      </trkpt>
      <trkpt lat="43.2253" lon="6.47613">
        <ele>211.249</ele>
        <time>2012-10-07T09:40:11Z</time>
      </trkpt>
      <trkpt lat="43.22531" lon="6.47613">
        <ele>208.79</ele>
        <time>2012-10-07T09:40:30Z</time>
      </trkpt>
      <trkpt lat="43.22529" lon="6.47624">
        <ele>210.42</ele>
        <time>2012-10-07T09:40:38Z</time>
      </trkpt>
      <trkpt lat="43.22528" lon="6.47635">
        <ele>213.571</ele>
        <time>2012-10-07T09:40:47Z</time>
      </trkpt>
      <trkpt lat="43.22528" lon="6.47638">
        <ele>212.998</ele>
        <time>2012-10-07T09:40:54Z</time>
      </trkpt>
      <trkpt lat="43.22528" lon="6.47637">
        <ele>212.599</ele>
        <time>2012-10-07T09:40:56Z</time>
      </trkpt>
      <trkpt lat="43.22528" lon="6.47634">
        <ele>212.329</ele>
        <time>2012-10-07T09:40:59Z</time>
      </trkpt>
      <trkpt lat="43.22529" lon="6.47632">
        <ele>213.479</ele>
        <time>2012-10-07T09:41:06Z</time>
      </trkpt>
      <trkpt lat="43.2253" lon="6.4763">
        <ele>217.031</ele>
        <time>2012-10-07T09:41:28Z</time>
      </trkpt>
      <trkpt lat="43.22529" lon="6.47639">
        <ele>216.679</ele>
        <time>2012-10-07T09:41:35Z</time>
      </trkpt>
      <trkpt lat="43.22525" lon="6.4765">
        <ele>216.85</ele>
        <time>2012-10-07T09:41:41Z</time>
      </trkpt>
      <trkpt lat="43.22521" lon="6.47667">
        <ele>217.6</ele>
        <time>2012-10-07T09:41:47Z</time>
      </trkpt>
      <trkpt lat="43.22512" lon="6.47681">
        <ele>219.121</ele>
        <time>2012-10-07T09:41:55Z</time>
      </trkpt>
      <trkpt lat="43.22512" lon="6.47683">
        <ele>219.422</ele>
        <time>2012-10-07T09:41:56Z</time>
      </trkpt>
      <trkpt lat="43.22504" lon="6.477">
        <ele>221.032</ele>
        <time>2012-10-07T09:42:05Z</time>
      </trkpt>
      <trkpt lat="43.22501" lon="6.4772">
        <ele>223.881</ele>
        <time>2012-10-07T09:42:15Z</time>
      </trkpt>
      <trkpt lat="43.22498" lon="6.47731">
        <ele>225.286</ele>
        <time>2012-10-07T09:42:21Z</time>
      </trkpt>
      <trkpt lat="43.22495" lon="6.47744">
        <ele>227.242</ele>
        <time>2012-10-07T09:42:28Z</time>
      </trkpt>
      <trkpt lat="43.22496" lon="6.47758">
        <ele>228.762</ele>
        <time>2012-10-07T09:42:35Z</time>
      </trkpt>
      <trkpt lat="43.22491" lon="6.4777">
        <ele>230.062</ele>
        <time>2012-10-07T09:42:43Z</time>
      </trkpt>
      <trkpt lat="43.2249" lon="6.47774">
        <ele>230.692</ele>
        <time>2012-10-07T09:42:46Z</time>
      </trkpt>
      <trkpt lat="43.22488" lon="6.47789">
        <ele>233.544</ele>
        <time>2012-10-07T09:42:53Z</time>
      </trkpt>
      <trkpt lat="43.22486" lon="6.47795">
        <ele>234.102</ele>
        <time>2012-10-07T09:42:57Z</time>
      </trkpt>
      <trkpt lat="43.22477" lon="6.4781">
        <ele>235.973</ele>
        <time>2012-10-07T09:43:07Z</time>
      </trkpt>
      <trkpt lat="43.22469" lon="6.47817">
        <ele>236.642</ele>
        <time>2012-10-07T09:43:14Z</time>
      </trkpt>
      <trkpt lat="43.22462" lon="6.47823">
        <ele>237.133</ele>
        <time>2012-10-07T09:43:20Z</time>
      </trkpt>
      <trkpt lat="43.22455" lon="6.47834">
        <ele>239.103</ele>
        <time>2012-10-07T09:43:28Z</time>
      </trkpt>
      <trkpt lat="43.22452" lon="6.47837">
        <ele>239.822</ele>
        <time>2012-10-07T09:43:32Z</time>
      </trkpt>
      <trkpt lat="43.22443" lon="6.47839">
        <ele>240.222</ele>
        <time>2012-10-07T09:43:39Z</time>
      </trkpt>
      <trkpt lat="43.2244" lon="6.47842">
        <ele>240.503</ele>
        <time>2012-10-07T09:43:44Z</time>
      </trkpt>
      <trkpt lat="43.22437" lon="6.47844">
        <ele>240.401</ele>
        <time>2012-10-07T09:43:51Z</time>
      </trkpt>
      <trkpt lat="43.22435" lon="6.47846">
        <ele>242.002</ele>
        <time>2012-10-07T09:43:57Z</time>
      </trkpt>
      <trkpt lat="43.22432" lon="6.47849">
        <ele>244.423</ele>
        <time>2012-10-07T09:44:04Z</time>
      </trkpt>
      <trkpt lat="43.22427" lon="6.47855">
        <ele>244.712</ele>
        <time>2012-10-07T09:44:12Z</time>
      </trkpt>
      <trkpt lat="43.22426" lon="6.47857">
        <ele>244.922</ele>
        <time>2012-10-07T09:44:14Z</time>
      </trkpt>
      <trkpt lat="43.22423" lon="6.47861">
        <ele>245.642</ele>
        <time>2012-10-07T09:44:22Z</time>
      </trkpt>
      <trkpt lat="43.22423" lon="6.47861">
        <ele>245.661</ele>
        <time>2012-10-07T09:44:23Z</time>
      </trkpt>
      <trkpt lat="43.22411" lon="6.47866">
        <ele>246.882</ele>
        <time>2012-10-07T09:44:31Z</time>
      </trkpt>
      <trkpt lat="43.22398" lon="6.4787">
        <ele>246.931</ele>
        <time>2012-10-07T09:44:37Z</time>
      </trkpt>
      <trkpt lat="43.22376" lon="6.47876">
        <ele>246.581</ele>
        <time>2012-10-07T09:44:44Z</time>
      </trkpt>
      <trkpt lat="43.22364" lon="6.4788">
        <ele>246.541</ele>
        <time>2012-10-07T09:44:49Z</time>
      </trkpt>
      <trkpt lat="43.22353" lon="6.47884">
        <ele>246.461</ele>
        <time>2012-10-07T09:44:56Z</time>
      </trkpt>
      <trkpt lat="43.22345" lon="6.47887">
        <ele>249.453</ele>
        <time>2012-10-07T09:45:03Z</time>
      </trkpt>
      <trkpt lat="43.22336" lon="6.4789">
        <ele>249.742</ele>
        <time>2012-10-07T09:45:09Z</time>
      </trkpt>
      <trkpt lat="43.22328" lon="6.47897">
        <ele>250.432</ele>
        <time>2012-10-07T09:45:15Z</time>
      </trkpt>
      <trkpt lat="43.22319" lon="6.47899">
        <ele>251.673</ele>
        <time>2012-10-07T09:45:20Z</time>
      </trkpt>
      <trkpt lat="43.22309" lon="6.47906">
        <ele>253.974</ele>
        <time>2012-10-07T09:45:27Z</time>
      </trkpt>
      <trkpt lat="43.22304" lon="6.47908">
        <ele>253.372</ele>
        <time>2012-10-07T09:45:30Z</time>
      </trkpt>
      <trkpt lat="43.22296" lon="6.47914">
        <ele>254.561</ele>
        <time>2012-10-07T09:45:35Z</time>
      </trkpt>
      <trkpt lat="43.22283" lon="6.4792">
        <ele>253.87</ele>
        <time>2012-10-07T09:45:41Z</time>
      </trkpt>
      <trkpt lat="43.22277" lon="6.47926">
        <ele>254.001</ele>
        <time>2012-10-07T09:45:45Z</time>
      </trkpt>
      <trkpt lat="43.22266" lon="6.47932">
        <ele>255.332</ele>
        <time>2012-10-07T09:45:51Z</time>
      </trkpt>
      <trkpt lat="43.22265" lon="6.47933">
        <ele>255.602</ele>
        <time>2012-10-07T09:45:52Z</time>
      </trkpt>
      <trkpt lat="43.22256" lon="6.47934">
        <ele>255.281</ele>
        <time>2012-10-07T09:45:56Z</time>
      </trkpt>
      <trkpt lat="43.2225" lon="6.47936">
        <ele>255.401</ele>
        <time>2012-10-07T09:46:00Z</time>
      </trkpt>
      <trkpt lat="43.22243" lon="6.47945">
        <ele>254.72</ele>
        <time>2012-10-07T09:46:07Z</time>
      </trkpt>
      <trkpt lat="43.2224" lon="6.47948">
        <ele>256.252</ele>
        <time>2012-10-07T09:46:10Z</time>
      </trkpt>
      <trkpt lat="43.22234" lon="6.47953">
        <ele>256.582</ele>
        <time>2012-10-07T09:46:15Z</time>
      </trkpt>
      <trkpt lat="43.22222" lon="6.47956">
        <ele>258.103</ele>
        <time>2012-10-07T09:46:21Z</time>
      </trkpt>
      <trkpt lat="43.22213" lon="6.47962">
        <ele>256.71</ele>
        <time>2012-10-07T09:46:26Z</time>
      </trkpt>
      <trkpt lat="43.22202" lon="6.47968">
        <ele>255.8</ele>
        <time>2012-10-07T09:46:31Z</time>
      </trkpt>
      <trkpt lat="43.22186" lon="6.47977">
        <ele>255.55</ele>
        <time>2012-10-07T09:46:36Z</time>
      </trkpt>
      <trkpt lat="43.22176" lon="6.47989">
        <ele>254.469</ele>
        <time>2012-10-07T09:46:41Z</time>
      </trkpt>
      <trkpt lat="43.22169" lon="6.47993">
        <ele>253.979</ele>
        <time>2012-10-07T09:46:44Z</time>
      </trkpt>
      <trkpt lat="43.22157" lon="6.48007">
        <ele>252.6</ele>
        <time>2012-10-07T09:46:52Z</time>
      </trkpt>
      <trkpt lat="43.22156" lon="6.48008">
        <ele>252.11</ele>
        <time>2012-10-07T09:46:53Z</time>
      </trkpt>
      <trkpt lat="43.22147" lon="6.48017">
        <ele>251.299</ele>
        <time>2012-10-07T09:47:00Z</time>
      </trkpt>
      <trkpt lat="43.22133" lon="6.48027">
        <ele>250.828</ele>
        <time>2012-10-07T09:47:06Z</time>
      </trkpt>
      <trkpt lat="43.22123" lon="6.48043">
        <ele>250.579</ele>
        <time>2012-10-07T09:47:11Z</time>
      </trkpt>
      <trkpt lat="43.22119" lon="6.48051">
        <ele>251.35</ele>
        <time>2012-10-07T09:47:15Z</time>
      </trkpt>
      <trkpt lat="43.22116" lon="6.48063">
        <ele>252.291</ele>
        <time>2012-10-07T09:47:21Z</time>
      </trkpt>
      <trkpt lat="43.22115" lon="6.48075">
        <ele>256.766</ele>
        <time>2012-10-07T09:47:27Z</time>
      </trkpt>
      <trkpt lat="43.22111" lon="6.48086">
        <ele>258.884</ele>
        <time>2012-10-07T09:47:32Z</time>
      </trkpt>
      <trkpt lat="43.22105" lon="6.48097">
        <ele>260.403</ele>
        <time>2012-10-07T09:47:37Z</time>
      </trkpt>
      <trkpt lat="43.22104" lon="6.48108">
        <ele>262.073</ele>
        <time>2012-10-07T09:47:43Z</time>
      </trkpt>
      <trkpt lat="43.22108" lon="6.48117">
        <ele>264.084</ele>
        <time>2012-10-07T09:47:49Z</time>
      </trkpt>
      <trkpt lat="43.22108" lon="6.48118">
        <ele>264.023</ele>
        <time>2012-10-07T09:47:50Z</time>
      </trkpt>
      <trkpt lat="43.22109" lon="6.48125">
        <ele>266.363</ele>
        <time>2012-10-07T09:47:55Z</time>
      </trkpt>
      <trkpt lat="43.2211" lon="6.48135">
        <ele>268.103</ele>
        <time>2012-10-07T09:48:01Z</time>
      </trkpt>
      <trkpt lat="43.22112" lon="6.48139">
        <ele>268.802</ele>
        <time>2012-10-07T09:48:06Z</time>
      </trkpt>
      <trkpt lat="43.22113" lon="6.4814">
        <ele>263.898</ele>
        <time>2012-10-07T09:48:17Z</time>
      </trkpt>
      <trkpt lat="43.22118" lon="6.48153">
        <ele>267.783</ele>
        <time>2012-10-07T09:48:25Z</time>
      </trkpt>
      <trkpt lat="43.22119" lon="6.48163">
        <ele>270.153</ele>
        <time>2012-10-07T09:48:31Z</time>
      </trkpt>
      <trkpt lat="43.2212" lon="6.48169">
        <ele>271.794</ele>
        <time>2012-10-07T09:48:34Z</time>
      </trkpt>
      <trkpt lat="43.22119" lon="6.4818">
        <ele>273.304</ele>
        <time>2012-10-07T09:48:41Z</time>
      </trkpt>
      <trkpt lat="43.2212" lon="6.48189">
        <ele>275.534</ele>
        <time>2012-10-07T09:48:45Z</time>
      </trkpt>
      <trkpt lat="43.22118" lon="6.48202">
        <ele>277.923</ele>
        <time>2012-10-07T09:48:52Z</time>
      </trkpt>
      <trkpt lat="43.22119" lon="6.48206">
        <ele>279.814</ele>
        <time>2012-10-07T09:48:55Z</time>
      </trkpt>
      <trkpt lat="43.22122" lon="6.48204">
        <ele>286.647</ele>
        <time>2012-10-07T09:49:01Z</time>
      </trkpt>
      <trkpt lat="43.22123" lon="6.48203">
        <ele>290.628</ele>
        <time>2012-10-07T09:49:03Z</time>
      </trkpt>
      <trkpt lat="43.22129" lon="6.48203">
        <ele>286.293</ele>
        <time>2012-10-07T09:49:09Z</time>
      </trkpt>
      <trkpt lat="43.22138" lon="6.4821">
        <ele>283.072</ele>
        <time>2012-10-07T09:49:16Z</time>
      </trkpt>
      <trkpt lat="43.22143" lon="6.48215">
        <ele>282.221</ele>
        <time>2012-10-07T09:49:23Z</time>
      </trkpt>
      <trkpt lat="43.2215" lon="6.48219">
        <ele>285.283</ele>
        <time>2012-10-07T09:49:29Z</time>
      </trkpt>
      <trkpt lat="43.22151" lon="6.4822">
        <ele>286.014</ele>
        <time>2012-10-07T09:49:31Z</time>
      </trkpt>
      <trkpt lat="43.22153" lon="6.48233">
        <ele>287.003</ele>
        <time>2012-10-07T09:49:39Z</time>
      </trkpt>
      <trkpt lat="43.22153" lon="6.48241">
        <ele>288.753</ele>
        <time>2012-10-07T09:49:44Z</time>
      </trkpt>
      <trkpt lat="43.22153" lon="6.48251">
        <ele>289.744</ele>
        <time>2012-10-07T09:49:51Z</time>
      </trkpt>
      <trkpt lat="43.22153" lon="6.48252">
        <ele>290.054</ele>
        <time>2012-10-07T09:49:52Z</time>
      </trkpt>
      <trkpt lat="43.22157" lon="6.48263">
        <ele>293.055</ele>
        <time>2012-10-07T09:49:59Z</time>
      </trkpt>
      <trkpt lat="43.22164" lon="6.48272">
        <ele>295.295</ele>
        <time>2012-10-07T09:50:06Z</time>
      </trkpt>
      <trkpt lat="43.22167" lon="6.4828">
        <ele>296.184</ele>
        <time>2012-10-07T09:50:11Z</time>
      </trkpt>
      <trkpt lat="43.22172" lon="6.48288">
        <ele>298.335</ele>
        <time>2012-10-07T09:50:18Z</time>
      </trkpt>
      <trkpt lat="43.22176" lon="6.48299">
        <ele>301.156</ele>
        <time>2012-10-07T09:50:26Z</time>
      </trkpt>
      <trkpt lat="43.22178" lon="6.48301">
        <ele>302.166</ele>
        <time>2012-10-07T09:50:28Z</time>
      </trkpt>
      <trkpt lat="43.22182" lon="6.483">
        <ele>301.605</ele>
        <time>2012-10-07T09:50:32Z</time>
      </trkpt>
      <trkpt lat="43.22191" lon="6.48289">
        <ele>305.005</ele>
        <time>2012-10-07T09:50:40Z</time>
      </trkpt>
      <trkpt lat="43.22195" lon="6.48286">
        <ele>305.736</ele>
        <time>2012-10-07T09:50:43Z</time>
      </trkpt>
      <trkpt lat="43.22203" lon="6.48285">
        <ele>306.484</ele>
        <time>2012-10-07T09:50:49Z</time>
      </trkpt>
      <trkpt lat="43.22212" lon="6.48276">
        <ele>304.574</ele>
        <time>2012-10-07T09:50:57Z</time>
      </trkpt>
      <trkpt lat="43.22213" lon="6.48262">
        <ele>297.7</ele>
        <time>2012-10-07T09:51:04Z</time>
      </trkpt>
      <trkpt lat="43.22216" lon="6.48245">
        <ele>293.811</ele>
        <time>2012-10-07T09:51:11Z</time>
      </trkpt>
      <trkpt lat="43.22224" lon="6.48239">
        <ele>292.711</ele>
        <time>2012-10-07T09:51:17Z</time>
      </trkpt>
      <trkpt lat="43.22225" lon="6.48239">
        <ele>293.042</ele>
        <time>2012-10-07T09:51:18Z</time>
      </trkpt>
      <trkpt lat="43.22238" lon="6.48236">
        <ele>295.182</ele>
        <time>2012-10-07T09:51:26Z</time>
      </trkpt>
      <trkpt lat="43.22249" lon="6.48221">
        <ele>292.42</ele>
        <time>2012-10-07T09:51:33Z</time>
      </trkpt>
      <trkpt lat="43.22258" lon="6.48203">
        <ele>291.14</ele>
        <time>2012-10-07T09:51:39Z</time>
      </trkpt>
      <trkpt lat="43.22272" lon="6.48185">
        <ele>292.462</ele>
        <time>2012-10-07T09:51:46Z</time>
      </trkpt>
      <trkpt lat="43.22288" lon="6.48162">
        <ele>291.511</ele>
        <time>2012-10-07T09:51:53Z</time>
      </trkpt>
      <trkpt lat="43.22303" lon="6.48142">
        <ele>292.112</ele>
        <time>2012-10-07T09:52:00Z</time>
      </trkpt>
      <trkpt lat="43.22314" lon="6.48143">
        <ele>293.733</ele>
        <time>2012-10-07T09:52:04Z</time>
      </trkpt>
      <trkpt lat="43.22328" lon="6.48139">
        <ele>294.984</ele>
        <time>2012-10-07T09:52:09Z</time>
      </trkpt>
      <trkpt lat="43.22334" lon="6.48136">
        <ele>295.264</ele>
        <time>2012-10-07T09:52:11Z</time>
      </trkpt>
      <trkpt lat="43.22342" lon="6.48143">
        <ele>295.663</ele>
        <time>2012-10-07T09:52:15Z</time>
      </trkpt>
      <trkpt lat="43.22343" lon="6.48147">
        <ele>295.933</ele>
        <time>2012-10-07T09:52:16Z</time>
      </trkpt>
      <trkpt lat="43.22348" lon="6.4818">
        <ele>297.102</ele>
        <time>2012-10-07T09:52:23Z</time>
      </trkpt>
      <trkpt lat="43.2235" lon="6.48191">
        <ele>297.031</ele>
        <time>2012-10-07T09:52:25Z</time>
      </trkpt>
      <trkpt lat="43.22366" lon="6.48197">
        <ele>297.821</ele>
        <time>2012-10-07T09:52:30Z</time>
      </trkpt>
      <trkpt lat="43.22371" lon="6.48192">
        <ele>298.432</ele>
        <time>2012-10-07T09:52:32Z</time>
      </trkpt>
      <trkpt lat="43.22392" lon="6.48174">
        <ele>296.16</ele>
        <time>2012-10-07T09:52:38Z</time>
      </trkpt>
      <trkpt lat="43.22412" lon="6.48159">
        <ele>294.15</ele>
        <time>2012-10-07T09:52:44Z</time>
      </trkpt>
      <trkpt lat="43.22427" lon="6.48143">
        <ele>291.437</ele>
        <time>2012-10-07T09:52:49Z</time>
      </trkpt>
      <trkpt lat="43.22442" lon="6.48124">
        <ele>287.706</ele>
        <time>2012-10-07T09:52:55Z</time>
      </trkpt>
      <trkpt lat="43.22452" lon="6.4812">
        <ele>288.907</ele>
        <time>2012-10-07T09:52:58Z</time>
      </trkpt>
      <trkpt lat="43.22473" lon="6.48129">
        <ele>292.492</ele>
        <time>2012-10-07T09:53:03Z</time>
      </trkpt>
      <trkpt lat="43.22489" lon="6.48131">
        <ele>292.481</ele>
        <time>2012-10-07T09:53:07Z</time>
      </trkpt>
      <trkpt lat="43.22492" lon="6.48133">
        <ele>292.471</ele>
        <time>2012-10-07T09:53:08Z</time>
      </trkpt>
      <trkpt lat="43.22501" lon="6.48153">
        <ele>293.331</ele>
        <time>2012-10-07T09:53:13Z</time>
      </trkpt>
      <trkpt lat="43.22514" lon="6.48179">
        <ele>295.422</ele>
        <time>2012-10-07T09:53:19Z</time>
      </trkpt>
      <trkpt lat="43.22515" lon="6.48199">
        <ele>295.152</ele>
        <time>2012-10-07T09:53:22Z</time>
      </trkpt>
      <trkpt lat="43.22513" lon="6.48224">
        <ele>294.19</ele>
        <time>2012-10-07T09:53:25Z</time>
      </trkpt>
      <trkpt lat="43.22508" lon="6.48259">
        <ele>292.239</ele>
        <time>2012-10-07T09:53:29Z</time>
      </trkpt>
      <trkpt lat="43.22504" lon="6.48294">
        <ele>288.477</ele>
        <time>2012-10-07T09:53:34Z</time>
      </trkpt>
      <trkpt lat="43.22505" lon="6.48301">
        <ele>287.677</ele>
        <time>2012-10-07T09:53:35Z</time>
      </trkpt>
      <trkpt lat="43.22508" lon="6.48322">
        <ele>283.405</ele>
        <time>2012-10-07T09:53:39Z</time>
      </trkpt>
      <trkpt lat="43.22509" lon="6.48346">
        <ele>280.885</ele>
        <time>2012-10-07T09:53:44Z</time>
      </trkpt>
      <trkpt lat="43.22513" lon="6.48372">
        <ele>278.817</ele>
        <time>2012-10-07T09:53:49Z</time>
      </trkpt>
      <trkpt lat="43.2251" lon="6.48393">
        <ele>278.339</ele>
        <time>2012-10-07T09:53:53Z</time>
      </trkpt>
      <trkpt lat="43.22511" lon="6.48406">
        <ele>278.039</ele>
        <time>2012-10-07T09:53:55Z</time>
      </trkpt>
      <trkpt lat="43.22512" lon="6.48437">
        <ele>277.8</ele>
        <time>2012-10-07T09:54:00Z</time>
      </trkpt>
      <trkpt lat="43.22504" lon="6.48461">
        <ele>275.57</ele>
        <time>2012-10-07T09:54:04Z</time>
      </trkpt>
      <trkpt lat="43.22498" lon="6.48471">
        <ele>274.86</ele>
        <time>2012-10-07T09:54:06Z</time>
      </trkpt>
      <trkpt lat="43.2249" lon="6.48493">
        <ele>276.752</ele>
        <time>2012-10-07T09:54:10Z</time>
      </trkpt>
      <trkpt lat="43.22478" lon="6.48523">
        <ele>274.82</ele>
        <time>2012-10-07T09:54:16Z</time>
      </trkpt>
      <trkpt lat="43.22472" lon="6.48542">
        <ele>273.561</ele>
        <time>2012-10-07T09:54:21Z</time>
      </trkpt>
      <trkpt lat="43.22477" lon="6.48557">
        <ele>273.463</ele>
        <time>2012-10-07T09:54:25Z</time>
      </trkpt>
      <trkpt lat="43.22481" lon="6.48565">
        <ele>273.293</ele>
        <time>2012-10-07T09:54:28Z</time>
      </trkpt>
      <trkpt lat="43.22478" lon="6.48571">
        <ele>269.87</ele>
        <time>2012-10-07T09:54:33Z</time>
      </trkpt>
      <trkpt lat="43.22478" lon="6.48571">
        <ele>265.77</ele>
        <time>2012-10-07T09:54:42Z</time>
      </trkpt>
      <trkpt lat="43.22468" lon="6.4857">
        <ele>262.82</ele>
        <time>2012-10-07T09:54:48Z</time>
      </trkpt>
      <trkpt lat="43.22452" lon="6.48568">
        <ele>263.522</ele>
        <time>2012-10-07T09:54:54Z</time>
      </trkpt>
      <trkpt lat="43.22436" lon="6.48569">
        <ele>265.752</ele>
        <time>2012-10-07T09:55:00Z</time>
      </trkpt>
      <trkpt lat="43.22425" lon="6.4857">
        <ele>268.844</ele>
        <time>2012-10-07T09:55:05Z</time>
      </trkpt>
      <trkpt lat="43.22414" lon="6.48573">
        <ele>272.964</ele>
        <time>2012-10-07T09:55:11Z</time>
      </trkpt>
      <trkpt lat="43.22402" lon="6.48571">
        <ele>276.734</ele>
        <time>2012-10-07T09:55:17Z</time>
      </trkpt>
      <trkpt lat="43.22388" lon="6.48569">
        <ele>277.632</ele>
        <time>2012-10-07T09:55:24Z</time>
      </trkpt>
      <trkpt lat="43.22374" lon="6.48564">
        <ele>278.133</ele>
        <time>2012-10-07T09:55:31Z</time>
      </trkpt>
      <trkpt lat="43.22355" lon="6.48559">
        <ele>277.413</ele>
        <time>2012-10-07T09:55:39Z</time>
      </trkpt>
      <trkpt lat="43.22341" lon="6.48555">
        <ele>278.284</ele>
        <time>2012-10-07T09:55:45Z</time>
      </trkpt>
      <trkpt lat="43.22325" lon="6.48548">
        <ele>279.064</ele>
        <time>2012-10-07T09:55:51Z</time>
      </trkpt>
      <trkpt lat="43.22303" lon="6.48537">
        <ele>280.093</ele>
        <time>2012-10-07T09:55:58Z</time>
      </trkpt>
      <trkpt lat="43.22287" lon="6.48539">
        <ele>280.793</ele>
        <time>2012-10-07T09:56:02Z</time>
      </trkpt>
      <trkpt lat="43.22283" lon="6.48543">
        <ele>280.832</ele>
        <time>2012-10-07T09:56:04Z</time>
      </trkpt>
      <trkpt lat="43.22278" lon="6.48538">
        <ele>276.421</ele>
        <time>2012-10-07T09:56:09Z</time>
      </trkpt>
      <trkpt lat="43.22277" lon="6.48536">
        <ele>275.941</ele>
        <time>2012-10-07T09:56:10Z</time>
      </trkpt>
      <trkpt lat="43.22268" lon="6.4852">
        <ele>273.111</ele>
        <time>2012-10-07T09:56:18Z</time>
      </trkpt>
      <trkpt lat="43.22256" lon="6.48509">
        <ele>272.601</ele>
        <time>2012-10-07T09:56:24Z</time>
      </trkpt>
      <trkpt lat="43.22249" lon="6.48497">
        <ele>272.551</ele>
        <time>2012-10-07T09:56:29Z</time>
      </trkpt>
      <trkpt lat="43.22244" lon="6.48485">
        <ele>273.224</ele>
        <time>2012-10-07T09:56:34Z</time>
      </trkpt>
      <trkpt lat="43.22239" lon="6.4847">
        <ele>274.842</ele>
        <time>2012-10-07T09:56:41Z</time>
      </trkpt>
      <trkpt lat="43.22237" lon="6.48461">
        <ele>276.493</ele>
        <time>2012-10-07T09:56:45Z</time>
      </trkpt>
      <trkpt lat="43.22236" lon="6.48459">
        <ele>277.204</ele>
        <time>2012-10-07T09:56:47Z</time>
      </trkpt>
      <trkpt lat="43.2223" lon="6.48461">
        <ele>279.074</ele>
        <time>2012-10-07T09:56:53Z</time>
      </trkpt>
      <trkpt lat="43.22226" lon="6.48459">
        <ele>279.523</ele>
        <time>2012-10-07T09:56:56Z</time>
      </trkpt>
      <trkpt lat="43.22222" lon="6.48462">
        <ele>281.403</ele>
        <time>2012-10-07T09:57:01Z</time>
      </trkpt>
      <trkpt lat="43.22212" lon="6.48464">
        <ele>284.743</ele>
        <time>2012-10-07T09:57:08Z</time>
      </trkpt>
      <trkpt lat="43.22205" lon="6.48466">
        <ele>284.442</ele>
        <time>2012-10-07T09:57:14Z</time>
      </trkpt>
      <trkpt lat="43.22196" lon="6.48474">
        <ele>285.712</ele>
        <time>2012-10-07T09:57:21Z</time>
      </trkpt>
      <trkpt lat="43.22188" lon="6.48487">
        <ele>288.083</ele>
        <time>2012-10-07T09:57:28Z</time>
      </trkpt>
      <trkpt lat="43.22185" lon="6.48495">
        <ele>289.555</ele>
        <time>2012-10-07T09:57:32Z</time>
      </trkpt>
      <trkpt lat="43.22182" lon="6.48515">
        <ele>290.223</ele>
        <time>2012-10-07T09:57:40Z</time>
      </trkpt>
      <trkpt lat="43.22175" lon="6.48525">
        <ele>290.222</ele>
        <time>2012-10-07T09:57:45Z</time>
      </trkpt>
      <trkpt lat="43.22165" lon="6.48531">
        <ele>290.332</ele>
        <time>2012-10-07T09:57:50Z</time>
      </trkpt>
      <trkpt lat="43.22153" lon="6.48534">
        <ele>290.182</ele>
        <time>2012-10-07T09:57:55Z</time>
      </trkpt>
      <trkpt lat="43.22142" lon="6.48542">
        <ele>289.44</ele>
        <time>2012-10-07T09:57:59Z</time>
      </trkpt>
      <trkpt lat="43.2213" lon="6.48553">
        <ele>287.969</ele>
        <time>2012-10-07T09:58:04Z</time>
      </trkpt>
      <trkpt lat="43.22124" lon="6.48557">
        <ele>287.961</ele>
        <time>2012-10-07T09:58:08Z</time>
      </trkpt>
      <trkpt lat="43.22117" lon="6.48554">
        <ele>288.131</ele>
        <time>2012-10-07T09:58:12Z</time>
      </trkpt>
      <trkpt lat="43.22104" lon="6.48562">
        <ele>286.939</ele>
        <time>2012-10-07T09:58:17Z</time>
      </trkpt>
      <trkpt lat="43.22099" lon="6.48563">
        <ele>284.919</ele>
        <time>2012-10-07T09:58:19Z</time>
      </trkpt>
      <trkpt lat="43.22096" lon="6.48563">
        <ele>284.56</ele>
        <time>2012-10-07T09:58:21Z</time>
      </trkpt>
      <trkpt lat="43.22084" lon="6.48578">
        <ele>282.549</ele>
        <time>2012-10-07T09:58:26Z</time>
      </trkpt>
      <trkpt lat="43.22082" lon="6.48582">
        <ele>281.819</ele>
        <time>2012-10-07T09:58:27Z</time>
      </trkpt>
      <trkpt lat="43.22085" lon="6.48597">
        <ele>279.96</ele>
        <time>2012-10-07T09:58:31Z</time>
      </trkpt>
      <trkpt lat="43.22094" lon="6.48613">
        <ele>281.473</ele>
        <time>2012-10-07T09:58:37Z</time>
      </trkpt>
      <trkpt lat="43.22107" lon="6.48623">
        <ele>284.244</ele>
        <time>2012-10-07T09:58:44Z</time>
      </trkpt>
      <trkpt lat="43.22119" lon="6.48635">
        <ele>287.035</ele>
        <time>2012-10-07T09:58:50Z</time>
      </trkpt>
      <trkpt lat="43.22127" lon="6.4865">
        <ele>290.536</ele>
        <time>2012-10-07T09:58:55Z</time>
      </trkpt>
      <trkpt lat="43.22132" lon="6.48658">
        <ele>291.106</ele>
        <time>2012-10-07T09:58:57Z</time>
      </trkpt>
      <trkpt lat="43.2215" lon="6.48676">
        <ele>292.675</ele>
        <time>2012-10-07T09:59:03Z</time>
      </trkpt>
      <trkpt lat="43.22156" lon="6.4868">
        <ele>292.926</ele>
        <time>2012-10-07T09:59:05Z</time>
      </trkpt>
      <trkpt lat="43.22174" lon="6.48674">
        <ele>292.904</ele>
        <time>2012-10-07T09:59:11Z</time>
      </trkpt>
      <trkpt lat="43.22197" lon="6.48671">
        <ele>292.723</ele>
        <time>2012-10-07T09:59:18Z</time>
      </trkpt>
      <trkpt lat="43.22211" lon="6.48664">
        <ele>291.933</ele>
        <time>2012-10-07T09:59:22Z</time>
      </trkpt>
      <trkpt lat="43.2223" lon="6.4867">
        <ele>291.623</ele>
        <time>2012-10-07T09:59:27Z</time>
      </trkpt>
      <trkpt lat="43.22234" lon="6.4867">
        <ele>291.383</ele>
        <time>2012-10-07T09:59:28Z</time>
      </trkpt>
      <trkpt lat="43.22238" lon="6.48669">
        <ele>292.265</ele>
        <time>2012-10-07T09:59:30Z</time>
      </trkpt>
      <trkpt lat="43.22243" lon="6.48673">
        <ele>292.414</ele>
        <time>2012-10-07T09:59:33Z</time>
      </trkpt>
      <trkpt lat="43.22243" lon="6.48686">
        <ele>292.824</ele>
        <time>2012-10-07T09:59:38Z</time>
      </trkpt>
      <trkpt lat="43.22244" lon="6.48706">
        <ele>291.211</ele>
        <time>2012-10-07T09:59:44Z</time>
      </trkpt>
      <trkpt lat="43.22243" lon="6.4873">
        <ele>289.131</ele>
        <time>2012-10-07T09:59:51Z</time>
      </trkpt>
      <trkpt lat="43.22242" lon="6.48745">
        <ele>287.369</ele>
        <time>2012-10-07T09:59:55Z</time>
      </trkpt>
      <trkpt lat="43.22244" lon="6.48762">
        <ele>285.729</ele>
        <time>2012-10-07T10:00:00Z</time>
      </trkpt>
      <trkpt lat="43.22245" lon="6.48768">
        <ele>284.519</ele>
        <time>2012-10-07T10:00:02Z</time>
      </trkpt>
      <trkpt lat="43.2225" lon="6.48786">
        <ele>283.03</ele>
        <time>2012-10-07T10:00:07Z</time>
      </trkpt>
      <trkpt lat="43.22249" lon="6.48809">
        <ele>281.081</ele>
        <time>2012-10-07T10:00:13Z</time>
      </trkpt>
      <trkpt lat="43.22242" lon="6.48819">
        <ele>280.391</ele>
        <time>2012-10-07T10:00:17Z</time>
      </trkpt>
      <trkpt lat="43.22233" lon="6.48841">
        <ele>277.77</ele>
        <time>2012-10-07T10:00:22Z</time>
      </trkpt>
      <trkpt lat="43.22226" lon="6.48866">
        <ele>277.511</ele>
        <time>2012-10-07T10:00:27Z</time>
      </trkpt>
      <trkpt lat="43.22218" lon="6.48888">
        <ele>277.09</ele>
        <time>2012-10-07T10:00:32Z</time>
      </trkpt>
      <trkpt lat="43.22207" lon="6.48902">
        <ele>277.761</ele>
        <time>2012-10-07T10:00:37Z</time>
      </trkpt>
      <trkpt lat="43.222" lon="6.4892">
        <ele>278.861</ele>
        <time>2012-10-07T10:00:42Z</time>
      </trkpt>
      <trkpt lat="43.22193" lon="6.48938">
        <ele>280.121</ele>
        <time>2012-10-07T10:00:48Z</time>
      </trkpt>
      <trkpt lat="43.22184" lon="6.48946">
        <ele>280.532</ele>
        <time>2012-10-07T10:00:52Z</time>
      </trkpt>
      <trkpt lat="43.22176" lon="6.48972">
        <ele>281.343</ele>
        <time>2012-10-07T10:00:59Z</time>
      </trkpt>
      <trkpt lat="43.22169" lon="6.48999">
        <ele>282.793</ele>
        <time>2012-10-07T10:01:06Z</time>
      </trkpt>
      <trkpt lat="43.22166" lon="6.49012">
        <ele>281.683</ele>
        <time>2012-10-07T10:01:10Z</time>
      </trkpt>
      <trkpt lat="43.22158" lon="6.4902">
        <ele>282.713</ele>
        <time>2012-10-07T10:01:14Z</time>
      </trkpt>
      <trkpt lat="43.22159" lon="6.49031">
        <ele>283.853</ele>
        <time>2012-10-07T10:01:18Z</time>
      </trkpt>
      <trkpt lat="43.22155" lon="6.49042">
        <ele>283.403</ele>
        <time>2012-10-07T10:01:22Z</time>
      </trkpt>
      <trkpt lat="43.22153" lon="6.49054">
        <ele>281.593</ele>
        <time>2012-10-07T10:01:26Z</time>
      </trkpt>
      <trkpt lat="43.22154" lon="6.4907">
        <ele>280.533</ele>
        <time>2012-10-07T10:01:31Z</time>
      </trkpt>
      <trkpt lat="43.22153" lon="6.49076">
        <ele>279.963</ele>
        <time>2012-10-07T10:01:33Z</time>
      </trkpt>
      <trkpt lat="43.22153" lon="6.49086">
        <ele>280.533</ele>
        <time>2012-10-07T10:01:37Z</time>
      </trkpt>
      <trkpt lat="43.22153" lon="6.49097">
        <ele>282.183</ele>
        <time>2012-10-07T10:01:42Z</time>
      </trkpt>
      <trkpt lat="43.22155" lon="6.49106">
        <ele>284.334</ele>
        <time>2012-10-07T10:01:47Z</time>
      </trkpt>
      <trkpt lat="43.22151" lon="6.49115">
        <ele>287.155</ele>
        <time>2012-10-07T10:01:52Z</time>
      </trkpt>
      <trkpt lat="43.22148" lon="6.49136">
        <ele>288.394</ele>
        <time>2012-10-07T10:02:00Z</time>
      </trkpt>
      <trkpt lat="43.22147" lon="6.49143">
        <ele>288.053</ele>
        <time>2012-10-07T10:02:03Z</time>
      </trkpt>
      <trkpt lat="43.22145" lon="6.49162">
        <ele>286.822</ele>
        <time>2012-10-07T10:02:09Z</time>
      </trkpt>
      <trkpt lat="43.22143" lon="6.49178">
        <ele>286.722</ele>
        <time>2012-10-07T10:02:14Z</time>
      </trkpt>
      <trkpt lat="43.22139" lon="6.49196">
        <ele>286.871</ele>
        <time>2012-10-07T10:02:19Z</time>
      </trkpt>
      <trkpt lat="43.22139" lon="6.49211">
        <ele>285.841</ele>
        <time>2012-10-07T10:02:24Z</time>
      </trkpt>
      <trkpt lat="43.22146" lon="6.49213">
        <ele>285.982</ele>
        <time>2012-10-07T10:02:28Z</time>
      </trkpt>
      <trkpt lat="43.2216" lon="6.49212">
        <ele>289.724</ele>
        <time>2012-10-07T10:02:34Z</time>
      </trkpt>
      <trkpt lat="43.22171" lon="6.49215">
        <ele>292.624</ele>
        <time>2012-10-07T10:02:38Z</time>
      </trkpt>
      <trkpt lat="43.22174" lon="6.49217">
        <ele>293.084</ele>
        <time>2012-10-07T10:02:39Z</time>
      </trkpt>
      <trkpt lat="43.22183" lon="6.49212">
        <ele>294.145</ele>
        <time>2012-10-07T10:02:43Z</time>
      </trkpt>
      <trkpt lat="43.22189" lon="6.49203">
        <ele>293.543</ele>
        <time>2012-10-07T10:02:47Z</time>
      </trkpt>
      <trkpt lat="43.22188" lon="6.49196">
        <ele>292.864</ele>
        <time>2012-10-07T10:02:51Z</time>
      </trkpt>
      <trkpt lat="43.22189" lon="6.49189">
        <ele>293.164</ele>
        <time>2012-10-07T10:02:55Z</time>
      </trkpt>
      <trkpt lat="43.22197" lon="6.49179">
        <ele>292.963</ele>
        <time>2012-10-07T10:03:01Z</time>
      </trkpt>
      <trkpt lat="43.22203" lon="6.49171">
        <ele>291.702</ele>
        <time>2012-10-07T10:03:06Z</time>
      </trkpt>
      <trkpt lat="43.22207" lon="6.49163">
        <ele>289.562</ele>
        <time>2012-10-07T10:03:11Z</time>
      </trkpt>
      <trkpt lat="43.22211" lon="6.49149">
        <ele>285.771</ele>
        <time>2012-10-07T10:03:18Z</time>
      </trkpt>
      <trkpt lat="43.22209" lon="6.49142">
        <ele>284.221</ele>
        <time>2012-10-07T10:03:23Z</time>
      </trkpt>
      <trkpt lat="43.22215" lon="6.49136">
        <ele>283.592</ele>
        <time>2012-10-07T10:03:29Z</time>
      </trkpt>
      <trkpt lat="43.2222" lon="6.49128">
        <ele>283.872</ele>
        <time>2012-10-07T10:03:34Z</time>
      </trkpt>
      <trkpt lat="43.22225" lon="6.49122">
        <ele>283.452</ele>
        <time>2012-10-07T10:03:38Z</time>
      </trkpt>
      <trkpt lat="43.22229" lon="6.49119">
        <ele>284.892</ele>
        <time>2012-10-07T10:03:42Z</time>
      </trkpt>
      <trkpt lat="43.2223" lon="6.49111">
        <ele>284.022</ele>
        <time>2012-10-07T10:03:48Z</time>
      </trkpt>
      <trkpt lat="43.22236" lon="6.49106">
        <ele>285.053</ele>
        <time>2012-10-07T10:03:52Z</time>
      </trkpt>
      <trkpt lat="43.22241" lon="6.49092">
        <ele>286.424</ele>
        <time>2012-10-07T10:03:58Z</time>
      </trkpt>
      <trkpt lat="43.22241" lon="6.49087">
        <ele>285.833</ele>
        <time>2012-10-07T10:04:00Z</time>
      </trkpt>
      <trkpt lat="43.22243" lon="6.49075">
        <ele>286.964</ele>
        <time>2012-10-07T10:04:05Z</time>
      </trkpt>
      <trkpt lat="43.22247" lon="6.49065">
        <ele>286.594</ele>
        <time>2012-10-07T10:04:11Z</time>
      </trkpt>
      <trkpt lat="43.22249" lon="6.49058">
        <ele>287.794</ele>
        <time>2012-10-07T10:04:15Z</time>
      </trkpt>
      <trkpt lat="43.22249" lon="6.49046">
        <ele>285.902</ele>
        <time>2012-10-07T10:04:22Z</time>
      </trkpt>
      <trkpt lat="43.22249" lon="6.49045">
        <ele>285.602</ele>
        <time>2012-10-07T10:04:23Z</time>
      </trkpt>
      <trkpt lat="43.22254" lon="6.49047">
        <ele>282.513</ele>
        <time>2012-10-07T10:04:28Z</time>
      </trkpt>
      <trkpt lat="43.22256" lon="6.49048">
        <ele>282.273</ele>
        <time>2012-10-07T10:04:29Z</time>
      </trkpt>
      <trkpt lat="43.22258" lon="6.49051">
        <ele>281.123</ele>
        <time>2012-10-07T10:04:31Z</time>
      </trkpt>
      <trkpt lat="43.2227" lon="6.49047">
        <ele>276.972</ele>
        <time>2012-10-07T10:04:37Z</time>
      </trkpt>
      <trkpt lat="43.22283" lon="6.49043">
        <ele>274.601</ele>
        <time>2012-10-07T10:04:43Z</time>
      </trkpt>
      <trkpt lat="43.2229" lon="6.49039">
        <ele>273.721</ele>
        <time>2012-10-07T10:04:46Z</time>
      </trkpt>
      <trkpt lat="43.2229" lon="6.4903">
        <ele>273.992</ele>
        <time>2012-10-07T10:04:50Z</time>
      </trkpt>
      <trkpt lat="43.22284" lon="6.49023">
        <ele>274.512</ele>
        <time>2012-10-07T10:04:55Z</time>
      </trkpt>
      <trkpt lat="43.22285" lon="6.49011">
        <ele>273.811</ele>
        <time>2012-10-07T10:05:00Z</time>
      </trkpt>
      <trkpt lat="43.22288" lon="6.48999">
        <ele>273.551</ele>
        <time>2012-10-07T10:05:05Z</time>
      </trkpt>
      <trkpt lat="43.22286" lon="6.48977">
        <ele>271.359</ele>
        <time>2012-10-07T10:05:11Z</time>
      </trkpt>
      <trkpt lat="43.22285" lon="6.48962">
        <ele>270.19</ele>
        <time>2012-10-07T10:05:16Z</time>
      </trkpt>
      <trkpt lat="43.22288" lon="6.48956">
        <ele>268.589</ele>
        <time>2012-10-07T10:05:20Z</time>
      </trkpt>
      <trkpt lat="43.2229" lon="6.48957">
        <ele>268.54</ele>
        <time>2012-10-07T10:05:22Z</time>
      </trkpt>
      <trkpt lat="43.22302" lon="6.48963">
        <ele>269.772</ele>
        <time>2012-10-07T10:05:28Z</time>
      </trkpt>
      <trkpt lat="43.22313" lon="6.48968">
        <ele>271.692</ele>
        <time>2012-10-07T10:05:33Z</time>
      </trkpt>
      <trkpt lat="43.22326" lon="6.4897">
        <ele>275.004</ele>
        <time>2012-10-07T10:05:37Z</time>
      </trkpt>
      <trkpt lat="43.22337" lon="6.48959">
        <ele>278.414</ele>
        <time>2012-10-07T10:05:41Z</time>
      </trkpt>
      <trkpt lat="43.22351" lon="6.48952">
        <ele>279.553</ele>
        <time>2012-10-07T10:05:46Z</time>
      </trkpt>
      <trkpt lat="43.22358" lon="6.48941">
        <ele>280.543</ele>
        <time>2012-10-07T10:05:51Z</time>
      </trkpt>
      <trkpt lat="43.2236" lon="6.48938">
        <ele>280.343</ele>
        <time>2012-10-07T10:05:52Z</time>
      </trkpt>
      <trkpt lat="43.22371" lon="6.48933">
        <ele>279.752</ele>
        <time>2012-10-07T10:05:57Z</time>
      </trkpt>
      <trkpt lat="43.22383" lon="6.48934">
        <ele>278.581</ele>
        <time>2012-10-07T10:06:01Z</time>
      </trkpt>
      <trkpt lat="43.22399" lon="6.48937">
        <ele>277.391</ele>
        <time>2012-10-07T10:06:05Z</time>
      </trkpt>
      <trkpt lat="43.22407" lon="6.48934">
        <ele>276.751</ele>
        <time>2012-10-07T10:06:07Z</time>
      </trkpt>
      <trkpt lat="43.22417" lon="6.48927">
        <ele>273.941</ele>
        <time>2012-10-07T10:06:10Z</time>
      </trkpt>
      <trkpt lat="43.22427" lon="6.48924">
        <ele>268.93</ele>
        <time>2012-10-07T10:06:15Z</time>
      </trkpt>
      <trkpt lat="43.22432" lon="6.48927">
        <ele>263.829</ele>
        <time>2012-10-07T10:06:19Z</time>
      </trkpt>
      <trkpt lat="43.22435" lon="6.48928">
        <ele>264.199</ele>
        <time>2012-10-07T10:06:20Z</time>
      </trkpt>
      <trkpt lat="43.22456" lon="6.4893">
        <ele>262.87</ele>
        <time>2012-10-07T10:06:26Z</time>
      </trkpt>
      <trkpt lat="43.22475" lon="6.48923">
        <ele>258.97</ele>
        <time>2012-10-07T10:06:32Z</time>
      </trkpt>
      <trkpt lat="43.22484" lon="6.48913">
        <ele>256.441</ele>
        <time>2012-10-07T10:06:37Z</time>
      </trkpt>
      <trkpt lat="43.22485" lon="6.48912">
        <ele>255.751</ele>
        <time>2012-10-07T10:06:38Z</time>
      </trkpt>
      <trkpt lat="43.22485" lon="6.48909">
        <ele>248.5</ele>
        <time>2012-10-07T10:06:45Z</time>
      </trkpt>
      <trkpt lat="43.22484" lon="6.48904">
        <ele>241.33</ele>
        <time>2012-10-07T10:06:53Z</time>
      </trkpt>
      <trkpt lat="43.22481" lon="6.48901">
        <ele>238.882</ele>
        <time>2012-10-07T10:06:57Z</time>
      </trkpt>
      <trkpt lat="43.22478" lon="6.48901">
        <ele>238.071</ele>
        <time>2012-10-07T10:07:02Z</time>
      </trkpt>
      <trkpt lat="43.22477" lon="6.48897">
        <ele>237.981</ele>
        <time>2012-10-07T10:07:05Z</time>
      </trkpt>
      <trkpt lat="43.22479" lon="6.4889">
        <ele>239.173</ele>
        <time>2012-10-07T10:07:11Z</time>
      </trkpt>
      <trkpt lat="43.22475" lon="6.48884">
        <ele>239.353</ele>
        <time>2012-10-07T10:07:16Z</time>
      </trkpt>
      <trkpt lat="43.22469" lon="6.48881">
        <ele>239.122</ele>
        <time>2012-10-07T10:07:22Z</time>
      </trkpt>
      <trkpt lat="43.22468" lon="6.4888">
        <ele>234.452</ele>
        <time>2012-10-07T10:07:52Z</time>
      </trkpt>
      <trkpt lat="43.22465" lon="6.48872">
        <ele>234.452</ele>
        <time>2012-10-07T10:07:58Z</time>
      </trkpt>
      <trkpt lat="43.22464" lon="6.48868">
        <ele>235.913</ele>
        <time>2012-10-07T10:08:03Z</time>
      </trkpt>
      <trkpt lat="43.22464" lon="6.48865">
        <ele>242.714</ele>
        <time>2012-10-07T10:08:09Z</time>
      </trkpt>
      <trkpt lat="43.22465" lon="6.48863">
        <ele>244.934</ele>
        <time>2012-10-07T10:08:14Z</time>
      </trkpt>
      <trkpt lat="43.22466" lon="6.48862">
        <ele>245.443</ele>
        <time>2012-10-07T10:08:16Z</time>
      </trkpt>
      <trkpt lat="43.22472" lon="6.4886">
        <ele>244.834</ele>
        <time>2012-10-07T10:08:20Z</time>
      </trkpt>
      <trkpt lat="43.2248" lon="6.48858">
        <ele>245.233</ele>
        <time>2012-10-07T10:08:22Z</time>
      </trkpt>
      <trkpt lat="43.22497" lon="6.48857">
        <ele>247.445</ele>
        <time>2012-10-07T10:08:26Z</time>
      </trkpt>
      <trkpt lat="43.22506" lon="6.48862">
        <ele>248.365</ele>
        <time>2012-10-07T10:08:30Z</time>
      </trkpt>
      <trkpt lat="43.22511" lon="6.48865">
        <ele>246.514</ele>
        <time>2012-10-07T10:08:36Z</time>
      </trkpt>
      <trkpt lat="43.22522" lon="6.4887">
        <ele>246.223</ele>
        <time>2012-10-07T10:08:42Z</time>
      </trkpt>
      <trkpt lat="43.22529" lon="6.48871">
        <ele>242.513</ele>
        <time>2012-10-07T10:08:47Z</time>
      </trkpt>
      <trkpt lat="43.22538" lon="6.48876">
        <ele>240.584</ele>
        <time>2012-10-07T10:08:54Z</time>
      </trkpt>
      <trkpt lat="43.2255" lon="6.4888">
        <ele>238.332</ele>
        <time>2012-10-07T10:09:01Z</time>
      </trkpt>
      <trkpt lat="43.2256" lon="6.48883">
        <ele>231.901</ele>
        <time>2012-10-07T10:09:06Z</time>
      </trkpt>
      <trkpt lat="43.22572" lon="6.48878">
        <ele>231.991</ele>
        <time>2012-10-07T10:09:11Z</time>
      </trkpt>
      <trkpt lat="43.2258" lon="6.48884">
        <ele>233.513</ele>
        <time>2012-10-07T10:09:14Z</time>
      </trkpt>
      <trkpt lat="43.22585" lon="6.48891">
        <ele>234.254</ele>
        <time>2012-10-07T10:09:16Z</time>
      </trkpt>
      <trkpt lat="43.22595" lon="6.48904">
        <ele>237.166</ele>
        <time>2012-10-07T10:09:20Z</time>
      </trkpt>
      <trkpt lat="43.22603" lon="6.48916">
        <ele>239.485</ele>
        <time>2012-10-07T10:09:24Z</time>
      </trkpt>
      <trkpt lat="43.22605" lon="6.48919">
        <ele>239.735</ele>
        <time>2012-10-07T10:09:25Z</time>
      </trkpt>
      <trkpt lat="43.22606" lon="6.48932">
        <ele>239.645</ele>
        <time>2012-10-07T10:09:29Z</time>
      </trkpt>
      <trkpt lat="43.22613" lon="6.48948">
        <ele>239.705</ele>
        <time>2012-10-07T10:09:32Z</time>
      </trkpt>
      <trkpt lat="43.22622" lon="6.4896">
        <ele>238.884</ele>
        <time>2012-10-07T10:09:36Z</time>
      </trkpt>
      <trkpt lat="43.22628" lon="6.4897">
        <ele>239.003</ele>
        <time>2012-10-07T10:09:39Z</time>
      </trkpt>
      <trkpt lat="43.22642" lon="6.48985">
        <ele>238.874</ele>
        <time>2012-10-07T10:09:44Z</time>
      </trkpt>
      <trkpt lat="43.22646" lon="6.48988">
        <ele>239.265</ele>
        <time>2012-10-07T10:09:45Z</time>
      </trkpt>
      <trkpt lat="43.22663" lon="6.49014">
        <ele>243.006</ele>
        <time>2012-10-07T10:09:51Z</time>
      </trkpt>
      <trkpt lat="43.22667" lon="6.49033">
        <ele>243.474</ele>
        <time>2012-10-07T10:09:54Z</time>
      </trkpt>
      <trkpt lat="43.22683" lon="6.49065">
        <ele>241.393</ele>
        <time>2012-10-07T10:09:59Z</time>
      </trkpt>
      <trkpt lat="43.22688" lon="6.49064">
        <ele>238.782</ele>
        <time>2012-10-07T10:10:03Z</time>
      </trkpt>
      <trkpt lat="43.22697" lon="6.4905">
        <ele>234.791</ele>
        <time>2012-10-07T10:10:08Z</time>
      </trkpt>
      <trkpt lat="43.22702" lon="6.49037">
        <ele>231.22</ele>
        <time>2012-10-07T10:10:12Z</time>
      </trkpt>
      <trkpt lat="43.22699" lon="6.49015">
        <ele>223.971</ele>
        <time>2012-10-07T10:10:17Z</time>
      </trkpt>
      <trkpt lat="43.22701" lon="6.49001">
        <ele>222.821</ele>
        <time>2012-10-07T10:10:21Z</time>
      </trkpt>
      <trkpt lat="43.22714" lon="6.49">
        <ele>221.391</ele>
        <time>2012-10-07T10:10:26Z</time>
      </trkpt>
      <trkpt lat="43.22716" lon="6.49001">
        <ele>218.311</ele>
        <time>2012-10-07T10:10:27Z</time>
      </trkpt>
      <trkpt lat="43.2273" lon="6.49011">
        <ele>219.793</ele>
        <time>2012-10-07T10:10:32Z</time>
      </trkpt>
      <trkpt lat="43.2274" lon="6.49018">
        <ele>215.012</ele>
        <time>2012-10-07T10:10:36Z</time>
      </trkpt>
      <trkpt lat="43.22744" lon="6.49023">
        <ele>208.483</ele>
        <time>2012-10-07T10:10:39Z</time>
      </trkpt>
      <trkpt lat="43.22745" lon="6.49027">
        <ele>203.983</ele>
        <time>2012-10-07T10:10:42Z</time>
      </trkpt>
      <trkpt lat="43.22745" lon="6.49037">
        <ele>199.813</ele>
        <time>2012-10-07T10:10:46Z</time>
      </trkpt>
      <trkpt lat="43.22747" lon="6.49056">
        <ele>198.204</ele>
        <time>2012-10-07T10:10:52Z</time>
      </trkpt>
      <trkpt lat="43.22745" lon="6.49067">
        <ele>197.863</ele>
        <time>2012-10-07T10:10:56Z</time>
      </trkpt>
      <trkpt lat="43.2275" lon="6.49079">
        <ele>196.602</ele>
        <time>2012-10-07T10:11:00Z</time>
      </trkpt>
      <trkpt lat="43.22752" lon="6.49082">
        <ele>195.381</ele>
        <time>2012-10-07T10:11:01Z</time>
      </trkpt>
      <trkpt lat="43.2276" lon="6.491">
        <ele>195.131</ele>
        <time>2012-10-07T10:11:06Z</time>
      </trkpt>
      <trkpt lat="43.2276" lon="6.49103">
        <ele>193.131</ele>
        <time>2012-10-07T10:11:09Z</time>
      </trkpt>
      <trkpt lat="43.22763" lon="6.49118">
        <ele>193.712</ele>
        <time>2012-10-07T10:11:14Z</time>
      </trkpt>
      <trkpt lat="43.22762" lon="6.49125">
        <ele>193.323</ele>
        <time>2012-10-07T10:11:16Z</time>
      </trkpt>
      <trkpt lat="43.22761" lon="6.49143">
        <ele>193.702</ele>
        <time>2012-10-07T10:11:22Z</time>
      </trkpt>
      <trkpt lat="43.22759" lon="6.49159">
        <ele>192.432</ele>
        <time>2012-10-07T10:11:26Z</time>
      </trkpt>
      <trkpt lat="43.22757" lon="6.49171">
        <ele>194.744</ele>
        <time>2012-10-07T10:11:30Z</time>
      </trkpt>
      <trkpt lat="43.22755" lon="6.49179">
        <ele>198.606</ele>
        <time>2012-10-07T10:11:33Z</time>
      </trkpt>
      <trkpt lat="43.22754" lon="6.49195">
        <ele>203.018</ele>
        <time>2012-10-07T10:11:38Z</time>
      </trkpt>
      <trkpt lat="43.22753" lon="6.49201">
        <ele>195.345</ele>
        <time>2012-10-07T10:11:42Z</time>
      </trkpt>
      <trkpt lat="43.22743" lon="6.4921">
        <ele>191.765</ele>
        <time>2012-10-07T10:11:49Z</time>
      </trkpt>
      <trkpt lat="43.22734" lon="6.49222">
        <ele>190.986</ele>
        <time>2012-10-07T10:11:55Z</time>
      </trkpt>
      <trkpt lat="43.22725" lon="6.4924">
        <ele>190.885</ele>
        <time>2012-10-07T10:12:00Z</time>
      </trkpt>
      <trkpt lat="43.22716" lon="6.49259">
        <ele>191.196</ele>
        <time>2012-10-07T10:12:04Z</time>
      </trkpt>
      <trkpt lat="43.22704" lon="6.49289">
        <ele>192.896</ele>
        <time>2012-10-07T10:12:08Z</time>
      </trkpt>
      <trkpt lat="43.22691" lon="6.4932">
        <ele>193.917</ele>
        <time>2012-10-07T10:12:13Z</time>
      </trkpt>
      <trkpt lat="43.22687" lon="6.49332">
        <ele>193.716</ele>
        <time>2012-10-07T10:12:15Z</time>
      </trkpt>
      <trkpt lat="43.22681" lon="6.49361">
        <ele>195.33</ele>
        <time>2012-10-07T10:12:21Z</time>
      </trkpt>
      <trkpt lat="43.22677" lon="6.49378">
        <ele>195.296</ele>
        <time>2012-10-07T10:12:26Z</time>
      </trkpt>
      <trkpt lat="43.22672" lon="6.49394">
        <ele>184.205</ele>
        <time>2012-10-07T10:12:33Z</time>
      </trkpt>
      <trkpt lat="43.22669" lon="6.49412">
        <ele>179.366</ele>
        <time>2012-10-07T10:12:40Z</time>
      </trkpt>
      <trkpt lat="43.22669" lon="6.49428">
        <ele>174.466</ele>
        <time>2012-10-07T10:12:46Z</time>
      </trkpt>
      <trkpt lat="43.22672" lon="6.49448">
        <ele>172.414</ele>
        <time>2012-10-07T10:12:52Z</time>
      </trkpt>
      <trkpt lat="43.22675" lon="6.49457">
        <ele>171.883</ele>
        <time>2012-10-07T10:12:54Z</time>
      </trkpt>
      <trkpt lat="43.22676" lon="6.49485">
        <ele>169.871</ele>
        <time>2012-10-07T10:12:59Z</time>
      </trkpt>
      <trkpt lat="43.22676" lon="6.495">
        <ele>167.899</ele>
        <time>2012-10-07T10:13:01Z</time>
      </trkpt>
      <trkpt lat="43.22679" lon="6.49532">
        <ele>162.318</ele>
        <time>2012-10-07T10:13:05Z</time>
      </trkpt>
      <trkpt lat="43.22693" lon="6.49563">
        <ele>156.629</ele>
        <time>2012-10-07T10:13:10Z</time>
      </trkpt>
      <trkpt lat="43.2271" lon="6.49597">
        <ele>152.59</ele>
        <time>2012-10-07T10:13:15Z</time>
      </trkpt>
      <trkpt lat="43.22726" lon="6.49626">
        <ele>147.388</ele>
        <time>2012-10-07T10:13:20Z</time>
      </trkpt>
      <trkpt lat="43.22729" lon="6.49631">
        <ele>146.059</ele>
        <time>2012-10-07T10:13:21Z</time>
      </trkpt>
      <trkpt lat="43.22736" lon="6.49643">
        <ele>144.98</ele>
        <time>2012-10-07T10:13:23Z</time>
      </trkpt>
      <trkpt lat="43.22744" lon="6.49672">
        <ele>142.911</ele>
        <time>2012-10-07T10:13:27Z</time>
      </trkpt>
      <trkpt lat="43.22752" lon="6.49701">
        <ele>142.763</ele>
        <time>2012-10-07T10:13:31Z</time>
      </trkpt>
      <trkpt lat="43.22769" lon="6.49725">
        <ele>143.423</ele>
        <time>2012-10-07T10:13:36Z</time>
      </trkpt>
      <trkpt lat="43.22792" lon="6.49739">
        <ele>141.721</ele>
        <time>2012-10-07T10:13:41Z</time>
      </trkpt>
      <trkpt lat="43.22803" lon="6.49754">
        <ele>141.05</ele>
        <time>2012-10-07T10:13:44Z</time>
      </trkpt>
      <trkpt lat="43.22807" lon="6.4976">
        <ele>140.701</ele>
        <time>2012-10-07T10:13:45Z</time>
      </trkpt>
      <trkpt lat="43.22836" lon="6.49791">
        <ele>140.131</ele>
        <time>2012-10-07T10:13:51Z</time>
      </trkpt>
      <trkpt lat="43.22842" lon="6.49794">
        <ele>140.531</ele>
        <time>2012-10-07T10:13:52Z</time>
      </trkpt>
      <trkpt lat="43.22864" lon="6.49794">
        <ele>141.704</ele>
        <time>2012-10-07T10:13:56Z</time>
      </trkpt>
      <trkpt lat="43.22879" lon="6.49788">
        <ele>144.096</ele>
        <time>2012-10-07T10:14:00Z</time>
      </trkpt>
      <trkpt lat="43.22883" lon="6.49785">
        <ele>144.856</ele>
        <time>2012-10-07T10:14:01Z</time>
      </trkpt>
      <trkpt lat="43.22902" lon="6.49784">
        <ele>149.017</ele>
        <time>2012-10-07T10:14:06Z</time>
      </trkpt>
      <trkpt lat="43.2291" lon="6.49788">
        <ele>150.047</ele>
        <time>2012-10-07T10:14:08Z</time>
      </trkpt>
      <trkpt lat="43.22919" lon="6.49791">
        <ele>151.837</ele>
        <time>2012-10-07T10:14:10Z</time>
      </trkpt>
      <trkpt lat="43.22937" lon="6.49793">
        <ele>154.708</ele>
        <time>2012-10-07T10:14:14Z</time>
      </trkpt>
      <trkpt lat="43.22941" lon="6.49811">
        <ele>155.928</ele>
        <time>2012-10-07T10:14:18Z</time>
      </trkpt>
      <trkpt lat="43.22944" lon="6.49821">
        <ele>156.189</ele>
        <time>2012-10-07T10:14:20Z</time>
      </trkpt>
      <trkpt lat="43.22951" lon="6.49843">
        <ele>156.688</ele>
        <time>2012-10-07T10:14:26Z</time>
      </trkpt>
      <trkpt lat="43.22955" lon="6.49854">
        <ele>157.658</ele>
        <time>2012-10-07T10:14:31Z</time>
      </trkpt>
      <trkpt lat="43.22956" lon="6.49866">
        <ele>159.317</ele>
        <time>2012-10-07T10:14:37Z</time>
      </trkpt>
      <trkpt lat="43.22962" lon="6.49867">
        <ele>159.467</ele>
        <time>2012-10-07T10:14:41Z</time>
      </trkpt>
      <trkpt lat="43.22968" lon="6.49873">
        <ele>157.756</ele>
        <time>2012-10-07T10:14:45Z</time>
      </trkpt>
      <trkpt lat="43.22969" lon="6.49883">
        <ele>152.867</ele>
        <time>2012-10-07T10:14:50Z</time>
      </trkpt>
      <trkpt lat="43.22971" lon="6.49888">
        <ele>152.456</ele>
        <time>2012-10-07T10:14:52Z</time>
      </trkpt>
      <trkpt lat="43.22986" lon="6.49897">
        <ele>150.966</ele>
        <time>2012-10-07T10:14:57Z</time>
      </trkpt>
      <trkpt lat="43.22993" lon="6.49902">
        <ele>150.336</ele>
        <time>2012-10-07T10:15:01Z</time>
      </trkpt>
      <trkpt lat="43.23007" lon="6.49909">
        <ele>148.745</ele>
        <time>2012-10-07T10:15:07Z</time>
      </trkpt>
      <trkpt lat="43.23011" lon="6.49909">
        <ele>148.365</ele>
        <time>2012-10-07T10:15:08Z</time>
      </trkpt>
      <trkpt lat="43.23019" lon="6.49896">
        <ele>149.375</ele>
        <time>2012-10-07T10:15:12Z</time>
      </trkpt>
      <trkpt lat="43.23023" lon="6.49873">
        <ele>151.726</ele>
        <time>2012-10-07T10:15:18Z</time>
      </trkpt>
      <trkpt lat="43.23029" lon="6.49859">
        <ele>153.727</ele>
        <time>2012-10-07T10:15:23Z</time>
      </trkpt>
      <trkpt lat="43.23031" lon="6.49844">
        <ele>153.647</ele>
        <time>2012-10-07T10:15:26Z</time>
      </trkpt>
      <trkpt lat="43.23034" lon="6.49839">
        <ele>154.287</ele>
        <time>2012-10-07T10:15:27Z</time>
      </trkpt>
      <trkpt lat="43.23048" lon="6.49827">
        <ele>153.465</ele>
        <time>2012-10-07T10:15:32Z</time>
      </trkpt>
      <trkpt lat="43.23057" lon="6.49815">
        <ele>154.897</ele>
        <time>2012-10-07T10:15:36Z</time>
      </trkpt>
      <trkpt lat="43.23058" lon="6.49811">
        <ele>155.066</ele>
        <time>2012-10-07T10:15:37Z</time>
      </trkpt>
      <trkpt lat="43.2307" lon="6.49803">
        <ele>148.514</ele>
        <time>2012-10-07T10:15:41Z</time>
      </trkpt>
      <trkpt lat="43.2308" lon="6.49806">
        <ele>144.403</ele>
        <time>2012-10-07T10:15:44Z</time>
      </trkpt>
      <trkpt lat="43.23088" lon="6.49808">
        <ele>144.064</ele>
        <time>2012-10-07T10:15:47Z</time>
      </trkpt>
      <trkpt lat="43.2309" lon="6.49799">
        <ele>144.194</ele>
        <time>2012-10-07T10:15:50Z</time>
      </trkpt>
      <trkpt lat="43.23095" lon="6.49795">
        <ele>145.525</ele>
        <time>2012-10-07T10:15:53Z</time>
      </trkpt>
      <trkpt lat="43.23097" lon="6.49794">
        <ele>145.806</ele>
        <time>2012-10-07T10:15:54Z</time>
      </trkpt>
      <trkpt lat="43.23116" lon="6.49782">
        <ele>148.847</ele>
        <time>2012-10-07T10:16:00Z</time>
      </trkpt>
      <trkpt lat="43.23124" lon="6.49784">
        <ele>150.958</ele>
        <time>2012-10-07T10:16:03Z</time>
      </trkpt>
      <trkpt lat="43.23136" lon="6.49778">
        <ele>153.789</ele>
        <time>2012-10-07T10:16:07Z</time>
      </trkpt>
      <trkpt lat="43.23139" lon="6.49777">
        <ele>154.5</ele>
        <time>2012-10-07T10:16:08Z</time>
      </trkpt>
      <trkpt lat="43.2316" lon="6.49775">
        <ele>155.639</ele>
        <time>2012-10-07T10:16:15Z</time>
      </trkpt>
      <trkpt lat="43.23162" lon="6.49775">
        <ele>156.299</ele>
        <time>2012-10-07T10:16:16Z</time>
      </trkpt>
      <trkpt lat="43.23177" lon="6.49768">
        <ele>157.248</ele>
        <time>2012-10-07T10:16:22Z</time>
      </trkpt>
      <trkpt lat="43.23184" lon="6.49763">
        <ele>158.178</ele>
        <time>2012-10-07T10:16:24Z</time>
      </trkpt>
      <trkpt lat="43.23197" lon="6.49754">
        <ele>152.667</ele>
        <time>2012-10-07T10:16:28Z</time>
      </trkpt>
      <trkpt lat="43.23214" lon="6.49764">
        <ele>148.928</ele>
        <time>2012-10-07T10:16:35Z</time>
      </trkpt>
      <trkpt lat="43.23228" lon="6.49774">
        <ele>145.586</ele>
        <time>2012-10-07T10:16:41Z</time>
      </trkpt>
      <trkpt lat="43.23236" lon="6.49791">
        <ele>146.958</ele>
        <time>2012-10-07T10:16:48Z</time>
      </trkpt>
      <trkpt lat="43.23243" lon="6.49805">
        <ele>144.679</ele>
        <time>2012-10-07T10:16:54Z</time>
      </trkpt>
      <trkpt lat="43.23244" lon="6.49807">
        <ele>144.708</ele>
        <time>2012-10-07T10:16:55Z</time>
      </trkpt>
      <trkpt lat="43.23256" lon="6.49814">
        <ele>143.738</ele>
        <time>2012-10-07T10:17:01Z</time>
      </trkpt>
      <trkpt lat="43.23261" lon="6.49823">
        <ele>144.337</ele>
        <time>2012-10-07T10:17:05Z</time>
      </trkpt>
      <trkpt lat="43.23271" lon="6.49845">
        <ele>143.534</ele>
        <time>2012-10-07T10:17:11Z</time>
      </trkpt>
      <trkpt lat="43.23275" lon="6.49854">
        <ele>143.504</ele>
        <time>2012-10-07T10:17:13Z</time>
      </trkpt>
      <trkpt lat="43.2328" lon="6.49872">
        <ele>146.15</ele>
        <time>2012-10-07T10:17:20Z</time>
      </trkpt>
      <trkpt lat="43.23286" lon="6.4989">
        <ele>145.257</ele>
        <time>2012-10-07T10:17:28Z</time>
      </trkpt>
      <trkpt lat="43.23293" lon="6.49903">
        <ele>146.117</ele>
        <time>2012-10-07T10:17:33Z</time>
      </trkpt>
      <trkpt lat="43.23294" lon="6.49905">
        <ele>145.916</ele>
        <time>2012-10-07T10:17:34Z</time>
      </trkpt>
      <trkpt lat="43.23306" lon="6.49908">
        <ele>145.346</ele>
        <time>2012-10-07T10:17:38Z</time>
      </trkpt>
      <trkpt lat="43.23311" lon="6.49906">
        <ele>144.806</ele>
        <time>2012-10-07T10:17:40Z</time>
      </trkpt>
      <trkpt lat="43.23313" lon="6.49904">
        <ele>144.956</ele>
        <time>2012-10-07T10:17:44Z</time>
      </trkpt>
      <trkpt lat="43.23318" lon="6.49905">
        <ele>142.408</ele>
        <time>2012-10-07T10:17:48Z</time>
      </trkpt>
      <trkpt lat="43.23324" lon="6.49908">
        <ele>141.978</ele>
        <time>2012-10-07T10:17:55Z</time>
      </trkpt>
      <trkpt lat="43.23328" lon="6.49907">
        <ele>137.297</ele>
        <time>2012-10-07T10:18:07Z</time>
      </trkpt>
      <trkpt lat="43.23334" lon="6.49909">
        <ele>136.507</ele>
        <time>2012-10-07T10:18:16Z</time>
      </trkpt>
      <trkpt lat="43.23338" lon="6.49913">
        <ele>135.948</ele>
        <time>2012-10-07T10:18:23Z</time>
      </trkpt>
      <trkpt lat="43.23339" lon="6.49915">
        <ele>135.147</ele>
        <time>2012-10-07T10:18:28Z</time>
      </trkpt>
      <trkpt lat="43.23344" lon="6.49922">
        <ele>132.326</ele>
        <time>2012-10-07T10:18:34Z</time>
      </trkpt>
      <trkpt lat="43.23346" lon="6.49927">
        <ele>132.536</ele>
        <time>2012-10-07T10:18:36Z</time>
      </trkpt>
      <trkpt lat="43.2335" lon="6.4995">
        <ele>132.695</ele>
        <time>2012-10-07T10:18:42Z</time>
      </trkpt>
      <trkpt lat="43.23351" lon="6.49969">
        <ele>132.365</ele>
        <time>2012-10-07T10:18:46Z</time>
      </trkpt>
      <trkpt lat="43.23358" lon="6.49975">
        <ele>136.397</ele>
        <time>2012-10-07T10:18:50Z</time>
      </trkpt>
      <trkpt lat="43.23365" lon="6.49983">
        <ele>140.618</ele>
        <time>2012-10-07T10:18:56Z</time>
      </trkpt>
      <trkpt lat="43.23376" lon="6.49988">
        <ele>144.158</ele>
        <time>2012-10-07T10:19:03Z</time>
      </trkpt>
      <trkpt lat="43.23385" lon="6.49992">
        <ele>144.668</ele>
        <time>2012-10-07T10:19:09Z</time>
      </trkpt>
      <trkpt lat="43.23393" lon="6.49997">
        <ele>144.56</ele>
        <time>2012-10-07T10:19:15Z</time>
      </trkpt>
      <trkpt lat="43.23396" lon="6.50002">
        <ele>143.66</ele>
        <time>2012-10-07T10:19:18Z</time>
      </trkpt>
      <trkpt lat="43.23403" lon="6.50007">
        <ele>142.859</ele>
        <time>2012-10-07T10:19:24Z</time>
      </trkpt>
      <trkpt lat="43.23408" lon="6.5001">
        <ele>145.39</ele>
        <time>2012-10-07T10:19:28Z</time>
      </trkpt>
      <trkpt lat="43.23418" lon="6.50018">
        <ele>147.819</ele>
        <time>2012-10-07T10:19:37Z</time>
      </trkpt>
      <trkpt lat="43.2342" lon="6.50021">
        <ele>147.559</ele>
        <time>2012-10-07T10:19:39Z</time>
      </trkpt>
      <trkpt lat="43.23427" lon="6.50027">
        <ele>147.429</ele>
        <time>2012-10-07T10:19:46Z</time>
      </trkpt>
      <trkpt lat="43.23433" lon="6.50034">
        <ele>145.759</ele>
        <time>2012-10-07T10:19:52Z</time>
      </trkpt>
      <trkpt lat="43.23444" lon="6.5005">
        <ele>149.048</ele>
        <time>2012-10-07T10:20:01Z</time>
      </trkpt>
      <trkpt lat="43.23452" lon="6.50065">
        <ele>151.108</ele>
        <time>2012-10-07T10:20:05Z</time>
      </trkpt>
      <trkpt lat="43.23457" lon="6.50081">
        <ele>151.687</ele>
        <time>2012-10-07T10:20:09Z</time>
      </trkpt>
      <trkpt lat="43.23456" lon="6.50097">
        <ele>152.407</ele>
        <time>2012-10-07T10:20:16Z</time>
      </trkpt>
      <trkpt lat="43.23454" lon="6.50108">
        <ele>152.958</ele>
        <time>2012-10-07T10:20:22Z</time>
      </trkpt>
      <trkpt lat="43.23455" lon="6.50123">
        <ele>152.346</ele>
        <time>2012-10-07T10:20:29Z</time>
      </trkpt>
      <trkpt lat="43.23456" lon="6.50128">
        <ele>152.336</ele>
        <time>2012-10-07T10:20:31Z</time>
      </trkpt>
      <trkpt lat="43.23457" lon="6.50136">
        <ele>153.067</ele>
        <time>2012-10-07T10:20:35Z</time>
      </trkpt>
      <trkpt lat="43.23462" lon="6.50142">
        <ele>154.758</ele>
        <time>2012-10-07T10:20:39Z</time>
      </trkpt>
      <trkpt lat="43.23464" lon="6.50144">
        <ele>155.339</ele>
        <time>2012-10-07T10:20:41Z</time>
      </trkpt>
      <trkpt lat="43.23466" lon="6.50149">
        <ele>155.358</ele>
        <time>2012-10-07T10:20:44Z</time>
      </trkpt>
      <trkpt lat="43.23473" lon="6.50156">
        <ele>156.889</ele>
        <time>2012-10-07T10:20:49Z</time>
      </trkpt>
      <trkpt lat="43.23478" lon="6.50161">
        <ele>158.821</ele>
        <time>2012-10-07T10:20:53Z</time>
      </trkpt>
      <trkpt lat="43.23482" lon="6.50172">
        <ele>154.148</ele>
        <time>2012-10-07T10:21:00Z</time>
      </trkpt>
      <trkpt lat="43.23491" lon="6.50187">
        <ele>152.565</ele>
        <time>2012-10-07T10:21:05Z</time>
      </trkpt>
      <trkpt lat="43.23494" lon="6.50199">
        <ele>150.974</ele>
        <time>2012-10-07T10:21:07Z</time>
      </trkpt>
      <trkpt lat="43.23496" lon="6.50213">
        <ele>149.623</ele>
        <time>2012-10-07T10:21:10Z</time>
      </trkpt>
      <trkpt lat="43.23509" lon="6.50249">
        <ele>147.874</ele>
        <time>2012-10-07T10:21:15Z</time>
      </trkpt>
      <trkpt lat="43.23516" lon="6.50266">
        <ele>147.376</ele>
        <time>2012-10-07T10:21:19Z</time>
      </trkpt>
      <trkpt lat="43.23521" lon="6.50282">
        <ele>146.218</ele>
        <time>2012-10-07T10:21:27Z</time>
      </trkpt>
      <trkpt lat="43.23529" lon="6.50295">
        <ele>149.059</ele>
        <time>2012-10-07T10:21:36Z</time>
      </trkpt>
      <trkpt lat="43.23531" lon="6.50311">
        <ele>150.039</ele>
        <time>2012-10-07T10:21:45Z</time>
      </trkpt>
      <trkpt lat="43.2353" lon="6.50323">
        <ele>149.039</ele>
        <time>2012-10-07T10:21:52Z</time>
      </trkpt>
      <trkpt lat="43.2353" lon="6.50336">
        <ele>149.7</ele>
        <time>2012-10-07T10:21:59Z</time>
      </trkpt>
      <trkpt lat="43.2353" lon="6.50352">
        <ele>149.519</ele>
        <time>2012-10-07T10:22:07Z</time>
      </trkpt>
      <trkpt lat="43.23532" lon="6.50369">
        <ele>152.034</ele>
        <time>2012-10-07T10:22:15Z</time>
      </trkpt>
      <trkpt lat="43.23536" lon="6.50382">
        <ele>154.84</ele>
        <time>2012-10-07T10:22:22Z</time>
      </trkpt>
      <trkpt lat="43.23542" lon="6.50395">
        <ele>156.869</ele>
        <time>2012-10-07T10:22:29Z</time>
      </trkpt>
      <trkpt lat="43.2355" lon="6.50407">
        <ele>159.999</ele>
        <time>2012-10-07T10:22:37Z</time>
      </trkpt>
      <trkpt lat="43.23559" lon="6.50414">
        <ele>164.661</ele>
        <time>2012-10-07T10:22:45Z</time>
      </trkpt>
      <trkpt lat="43.23573" lon="6.5042">
        <ele>168.52</ele>
        <time>2012-10-07T10:22:53Z</time>
      </trkpt>
      <trkpt lat="43.23584" lon="6.50425">
        <ele>172.41</ele>
        <time>2012-10-07T10:23:00Z</time>
      </trkpt>
      <trkpt lat="43.23595" lon="6.50431">
        <ele>174.28</ele>
        <time>2012-10-07T10:23:05Z</time>
      </trkpt>
      <trkpt lat="43.23605" lon="6.50441">
        <ele>175.89</ele>
        <time>2012-10-07T10:23:12Z</time>
      </trkpt>
      <trkpt lat="43.23614" lon="6.50449">
        <ele>183.558</ele>
        <time>2012-10-07T10:23:55Z</time>
      </trkpt>
      <trkpt lat="43.23621" lon="6.50458">
        <ele>183.488</ele>
        <time>2012-10-07T10:24:01Z</time>
      </trkpt>
      <trkpt lat="43.23625" lon="6.5047">
        <ele>179.436</ele>
        <time>2012-10-07T10:24:05Z</time>
      </trkpt>
      <trkpt lat="43.23633" lon="6.50479">
        <ele>177.596</ele>
        <time>2012-10-07T10:24:09Z</time>
      </trkpt>
      <trkpt lat="43.23634" lon="6.5048">
        <ele>178.036</ele>
        <time>2012-10-07T10:24:10Z</time>
      </trkpt>
      <trkpt lat="43.23641" lon="6.50488">
        <ele>176.666</ele>
        <time>2012-10-07T10:24:15Z</time>
      </trkpt>
      <trkpt lat="43.23644" lon="6.50491">
        <ele>174.525</ele>
        <time>2012-10-07T10:24:18Z</time>
      </trkpt>
      <trkpt lat="43.23656" lon="6.505">
        <ele>170.556</ele>
        <time>2012-10-07T10:24:25Z</time>
      </trkpt>
      <trkpt lat="43.23667" lon="6.50505">
        <ele>172.769</ele>
        <time>2012-10-07T10:24:32Z</time>
      </trkpt>
      <trkpt lat="43.23674" lon="6.50503">
        <ele>172.648</ele>
        <time>2012-10-07T10:24:37Z</time>
      </trkpt>
      <trkpt lat="43.23684" lon="6.50509">
        <ele>174.479</ele>
        <time>2012-10-07T10:24:44Z</time>
      </trkpt>
      <trkpt lat="43.23686" lon="6.50511">
        <ele>174.719</ele>
        <time>2012-10-07T10:24:45Z</time>
      </trkpt>
      <trkpt lat="43.23693" lon="6.50519">
        <ele>177.54</ele>
        <time>2012-10-07T10:24:51Z</time>
      </trkpt>
      <trkpt lat="43.23701" lon="6.50526">
        <ele>178.569</ele>
        <time>2012-10-07T10:24:57Z</time>
      </trkpt>
      <trkpt lat="43.2371" lon="6.50532">
        <ele>178.758</ele>
        <time>2012-10-07T10:25:02Z</time>
      </trkpt>
      <trkpt lat="43.23718" lon="6.50541">
        <ele>178.658</ele>
        <time>2012-10-07T10:25:06Z</time>
      </trkpt>
      <trkpt lat="43.23722" lon="6.50545">
        <ele>178.488</ele>
        <time>2012-10-07T10:25:10Z</time>
      </trkpt>
      <trkpt lat="43.23723" lon="6.50564">
        <ele>170.073</ele>
        <time>2012-10-07T10:25:15Z</time>
      </trkpt>
      <trkpt lat="43.23724" lon="6.50581">
        <ele>165.833</ele>
        <time>2012-10-07T10:25:19Z</time>
      </trkpt>
      <trkpt lat="43.23731" lon="6.50588">
        <ele>166.187</ele>
        <time>2012-10-07T10:25:25Z</time>
      </trkpt>
      <trkpt lat="43.23741" lon="6.50592">
        <ele>167.68</ele>
        <time>2012-10-07T10:25:32Z</time>
      </trkpt>
      <trkpt lat="43.23748" lon="6.50603">
        <ele>166.998</ele>
        <time>2012-10-07T10:25:39Z</time>
      </trkpt>
      <trkpt lat="43.23747" lon="6.50616">
        <ele>164.237</ele>
        <time>2012-10-07T10:25:45Z</time>
      </trkpt>
      <trkpt lat="43.23749" lon="6.50624">
        <ele>163.75</ele>
        <time>2012-10-07T10:25:49Z</time>
      </trkpt>
      <trkpt lat="43.23756" lon="6.50624">
        <ele>166.831</ele>
        <time>2012-10-07T10:25:54Z</time>
      </trkpt>
      <trkpt lat="43.23763" lon="6.50622">
        <ele>167.101</ele>
        <time>2012-10-07T10:26:01Z</time>
      </trkpt>
      <trkpt lat="43.23765" lon="6.5062">
        <ele>167.26</ele>
        <time>2012-10-07T10:26:04Z</time>
      </trkpt>
      <trkpt lat="43.2377" lon="6.50606">
        <ele>168.969</ele>
        <time>2012-10-07T10:26:13Z</time>
      </trkpt>
      <trkpt lat="43.23778" lon="6.50593">
        <ele>171.529</ele>
        <time>2012-10-07T10:26:24Z</time>
      </trkpt>
      <trkpt lat="43.23781" lon="6.50586">
        <ele>173.12</ele>
        <time>2012-10-07T10:26:30Z</time>
      </trkpt>
      <trkpt lat="43.23782" lon="6.50584">
        <ele>173.47</ele>
        <time>2012-10-07T10:26:32Z</time>
      </trkpt>
      <trkpt lat="43.23791" lon="6.50586">
        <ele>172.25</ele>
        <time>2012-10-07T10:26:40Z</time>
      </trkpt>
      <trkpt lat="43.238" lon="6.50578">
        <ele>173.609</ele>
        <time>2012-10-07T10:26:48Z</time>
      </trkpt>
      <trkpt lat="43.23812" lon="6.50569">
        <ele>172.887</ele>
        <time>2012-10-07T10:26:54Z</time>
      </trkpt>
      <trkpt lat="43.23822" lon="6.50571">
        <ele>172.259</ele>
        <time>2012-10-07T10:26:58Z</time>
      </trkpt>
      <trkpt lat="43.23831" lon="6.50576">
        <ele>171.859</ele>
        <time>2012-10-07T10:27:05Z</time>
      </trkpt>
      <trkpt lat="43.23843" lon="6.50573">
        <ele>170.837</ele>
        <time>2012-10-07T10:27:12Z</time>
      </trkpt>
      <trkpt lat="43.23845" lon="6.50572">
        <ele>170.487</ele>
        <time>2012-10-07T10:27:13Z</time>
      </trkpt>
      <trkpt lat="43.23854" lon="6.50574">
        <ele>169.479</ele>
        <time>2012-10-07T10:27:19Z</time>
      </trkpt>
      <trkpt lat="43.23857" lon="6.50576">
        <ele>169.49</ele>
        <time>2012-10-07T10:27:21Z</time>
      </trkpt>
      <trkpt lat="43.23866" lon="6.50586">
        <ele>170.79</ele>
        <time>2012-10-07T10:27:29Z</time>
      </trkpt>
      <trkpt lat="43.23869" lon="6.50589">
        <ele>171.451</ele>
        <time>2012-10-07T10:27:32Z</time>
      </trkpt>
      <trkpt lat="43.23876" lon="6.50589">
        <ele>170.799</ele>
        <time>2012-10-07T10:27:37Z</time>
      </trkpt>
      <trkpt lat="43.23882" lon="6.50593">
        <ele>169.959</ele>
        <time>2012-10-07T10:27:42Z</time>
      </trkpt>
      <trkpt lat="43.23895" lon="6.50598">
        <ele>170.849</ele>
        <time>2012-10-07T10:27:51Z</time>
      </trkpt>
      <trkpt lat="43.23902" lon="6.50598">
        <ele>170.378</ele>
        <time>2012-10-07T10:27:56Z</time>
      </trkpt>
      <trkpt lat="43.23912" lon="6.50597">
        <ele>168.997</ele>
        <time>2012-10-07T10:28:00Z</time>
      </trkpt>
      <trkpt lat="43.23924" lon="6.50601">
        <ele>168.989</ele>
        <time>2012-10-07T10:28:06Z</time>
      </trkpt>
      <trkpt lat="43.23925" lon="6.50602">
        <ele>168.979</ele>
        <time>2012-10-07T10:28:07Z</time>
      </trkpt>
      <trkpt lat="43.23938" lon="6.506">
        <ele>168.088</ele>
        <time>2012-10-07T10:28:14Z</time>
      </trkpt>
      <trkpt lat="43.23942" lon="6.50599">
        <ele>167.297</ele>
        <time>2012-10-07T10:28:16Z</time>
      </trkpt>
      <trkpt lat="43.23947" lon="6.50605">
        <ele>166.758</ele>
        <time>2012-10-07T10:28:21Z</time>
      </trkpt>
      <trkpt lat="43.23954" lon="6.50614">
        <ele>164.438</ele>
        <time>2012-10-07T10:28:26Z</time>
      </trkpt>
      <trkpt lat="43.23957" lon="6.50619">
        <ele>163.467</ele>
        <time>2012-10-07T10:28:28Z</time>
      </trkpt>
      <trkpt lat="43.2396" lon="6.50626">
        <ele>162.197</ele>
        <time>2012-10-07T10:28:30Z</time>
      </trkpt>
      <trkpt lat="43.2397" lon="6.50629">
        <ele>159.005</ele>
        <time>2012-10-07T10:28:34Z</time>
      </trkpt>
      <trkpt lat="43.23973" lon="6.50629">
        <ele>158.555</ele>
        <time>2012-10-07T10:28:35Z</time>
      </trkpt>
      <trkpt lat="43.23981" lon="6.50639">
        <ele>154.994</ele>
        <time>2012-10-07T10:28:39Z</time>
      </trkpt>
      <trkpt lat="43.23991" lon="6.50665">
        <ele>148.282</ele>
        <time>2012-10-07T10:28:45Z</time>
      </trkpt>
      <trkpt lat="43.23991" lon="6.50675">
        <ele>145.945</ele>
        <time>2012-10-07T10:28:49Z</time>
      </trkpt>
      <trkpt lat="43.23992" lon="6.50694">
        <ele>145.469</ele>
        <time>2012-10-07T10:28:56Z</time>
      </trkpt>
      <trkpt lat="43.23999" lon="6.50708">
        <ele>145.699</ele>
        <time>2012-10-07T10:29:01Z</time>
      </trkpt>
      <trkpt lat="43.24005" lon="6.50723">
        <ele>144.849</ele>
        <time>2012-10-07T10:29:05Z</time>
      </trkpt>
      <trkpt lat="43.24006" lon="6.50727">
        <ele>144.839</ele>
        <time>2012-10-07T10:29:06Z</time>
      </trkpt>
      <trkpt lat="43.24014" lon="6.50746">
        <ele>143.028</ele>
        <time>2012-10-07T10:29:11Z</time>
      </trkpt>
      <trkpt lat="43.24022" lon="6.50755">
        <ele>141.657</ele>
        <time>2012-10-07T10:29:15Z</time>
      </trkpt>
      <trkpt lat="43.24022" lon="6.50764">
        <ele>143.841</ele>
        <time>2012-10-07T10:29:19Z</time>
      </trkpt>
      <trkpt lat="43.24024" lon="6.50777">
        <ele>143.74</ele>
        <time>2012-10-07T10:29:23Z</time>
      </trkpt>
      <trkpt lat="43.24025" lon="6.50779">
        <ele>143.47</ele>
        <time>2012-10-07T10:29:24Z</time>
      </trkpt>
      <trkpt lat="43.24025" lon="6.50796">
        <ele>142.78</ele>
        <time>2012-10-07T10:29:30Z</time>
      </trkpt>
      <trkpt lat="43.24028" lon="6.5081">
        <ele>142.851</ele>
        <time>2012-10-07T10:29:35Z</time>
      </trkpt>
      <trkpt lat="43.24032" lon="6.50821">
        <ele>141.649</ele>
        <time>2012-10-07T10:29:39Z</time>
      </trkpt>
      <trkpt lat="43.24036" lon="6.50836">
        <ele>140.369</ele>
        <time>2012-10-07T10:29:44Z</time>
      </trkpt>
      <trkpt lat="43.24037" lon="6.5084">
        <ele>140.439</ele>
        <time>2012-10-07T10:29:45Z</time>
      </trkpt>
      <trkpt lat="43.24046" lon="6.50862">
        <ele>139.129</ele>
        <time>2012-10-07T10:29:50Z</time>
      </trkpt>
      <trkpt lat="43.24054" lon="6.50876">
        <ele>139.261</ele>
        <time>2012-10-07T10:29:54Z</time>
      </trkpt>
      <trkpt lat="43.24059" lon="6.50884">
        <ele>139.15</ele>
        <time>2012-10-07T10:29:57Z</time>
      </trkpt>
      <trkpt lat="43.2407" lon="6.50903">
        <ele>138.561</ele>
        <time>2012-10-07T10:30:03Z</time>
      </trkpt>
      <trkpt lat="43.24073" lon="6.50913">
        <ele>138.09</ele>
        <time>2012-10-07T10:30:06Z</time>
      </trkpt>
      <trkpt lat="43.24083" lon="6.50925">
        <ele>137.69</ele>
        <time>2012-10-07T10:30:11Z</time>
      </trkpt>
      <trkpt lat="43.2409" lon="6.50948">
        <ele>136.77</ele>
        <time>2012-10-07T10:30:17Z</time>
      </trkpt>
      <trkpt lat="43.24096" lon="6.50967">
        <ele>135.929</ele>
        <time>2012-10-07T10:30:21Z</time>
      </trkpt>
      <trkpt lat="43.24098" lon="6.50972">
        <ele>135.489</ele>
        <time>2012-10-07T10:30:22Z</time>
      </trkpt>
      <trkpt lat="43.241" lon="6.50992">
        <ele>134.518</ele>
        <time>2012-10-07T10:30:25Z</time>
      </trkpt>
      <trkpt lat="43.24104" lon="6.51039">
        <ele>131.608</ele>
        <time>2012-10-07T10:30:31Z</time>
      </trkpt>
      <trkpt lat="43.24104" lon="6.51047">
        <ele>130.897</ele>
        <time>2012-10-07T10:30:32Z</time>
      </trkpt>
      <trkpt lat="43.24096" lon="6.51083">
        <ele>127.747</ele>
        <time>2012-10-07T10:30:37Z</time>
      </trkpt>
      <trkpt lat="43.24081" lon="6.51119">
        <ele>125.888</ele>
        <time>2012-10-07T10:30:43Z</time>
      </trkpt>
      <trkpt lat="43.24061" lon="6.51159">
        <ele>122.929</ele>
        <time>2012-10-07T10:30:50Z</time>
      </trkpt>
      <trkpt lat="43.24055" lon="6.51184">
        <ele>121.357</ele>
        <time>2012-10-07T10:30:54Z</time>
      </trkpt>
      <trkpt lat="43.24056" lon="6.51216">
        <ele>120.697</ele>
        <time>2012-10-07T10:30:58Z</time>
      </trkpt>
      <trkpt lat="43.24063" lon="6.51239">
        <ele>120.397</ele>
        <time>2012-10-07T10:31:01Z</time>
      </trkpt>
      <trkpt lat="43.24076" lon="6.51287">
        <ele>118.015</ele>
        <time>2012-10-07T10:31:06Z</time>
      </trkpt>
      <trkpt lat="43.24087" lon="6.51332">
        <ele>116.396</ele>
        <time>2012-10-07T10:31:10Z</time>
      </trkpt>
      <trkpt lat="43.24096" lon="6.51363">
        <ele>115.178</ele>
        <time>2012-10-07T10:31:14Z</time>
      </trkpt>
      <trkpt lat="43.24094" lon="6.5138">
        <ele>116.141</ele>
        <time>2012-10-07T10:31:19Z</time>
      </trkpt>
      <trkpt lat="43.24098" lon="6.51384">
        <ele>118.911</ele>
        <time>2012-10-07T10:31:23Z</time>
      </trkpt>
      <trkpt lat="43.24104" lon="6.51392">
        <ele>121.134</ele>
        <time>2012-10-07T10:31:29Z</time>
      </trkpt>
      <trkpt lat="43.24108" lon="6.51396">
        <ele>122.674</ele>
        <time>2012-10-07T10:31:32Z</time>
      </trkpt>
      <trkpt lat="43.24107" lon="6.51405">
        <ele>123.692</ele>
        <time>2012-10-07T10:31:37Z</time>
      </trkpt>
      <trkpt lat="43.24102" lon="6.51408">
        <ele>122.991</ele>
        <time>2012-10-07T10:31:39Z</time>
      </trkpt>
      <trkpt lat="43.24097" lon="6.5141">
        <ele>123.121</ele>
        <time>2012-10-07T10:31:41Z</time>
      </trkpt>
      <trkpt lat="43.24087" lon="6.51419">
        <ele>121.54</ele>
        <time>2012-10-07T10:31:46Z</time>
      </trkpt>
      <trkpt lat="43.24081" lon="6.51428">
        <ele>120.099</ele>
        <time>2012-10-07T10:31:50Z</time>
      </trkpt>
      <trkpt lat="43.24075" lon="6.51433">
        <ele>119.43</ele>
        <time>2012-10-07T10:31:54Z</time>
      </trkpt>
      <trkpt lat="43.24069" lon="6.51437">
        <ele>119.55</ele>
        <time>2012-10-07T10:31:58Z</time>
      </trkpt>
      <trkpt lat="43.24071" lon="6.51443">
        <ele>120.162</ele>
        <time>2012-10-07T10:32:02Z</time>
      </trkpt>
      <trkpt lat="43.24066" lon="6.5145">
        <ele>118.66</ele>
        <time>2012-10-07T10:32:06Z</time>
      </trkpt>
      <trkpt lat="43.24051" lon="6.51457">
        <ele>117.98</ele>
        <time>2012-10-07T10:32:12Z</time>
      </trkpt>
      <trkpt lat="43.24047" lon="6.51465">
        <ele>117.6</ele>
        <time>2012-10-07T10:32:14Z</time>
      </trkpt>
      <trkpt lat="43.24039" lon="6.51486">
        <ele>115.87</ele>
        <time>2012-10-07T10:32:19Z</time>
      </trkpt>
      <trkpt lat="43.24036" lon="6.51495">
        <ele>114.536</ele>
        <time>2012-10-07T10:32:21Z</time>
      </trkpt>
      <trkpt lat="43.2403" lon="6.5151">
        <ele>112.377</ele>
        <time>2012-10-07T10:32:25Z</time>
      </trkpt>
      <trkpt lat="43.24021" lon="6.51506">
        <ele>111.338</ele>
        <time>2012-10-07T10:32:28Z</time>
      </trkpt>
      <trkpt lat="43.24008" lon="6.51507">
        <ele>109.527</ele>
        <time>2012-10-07T10:32:31Z</time>
      </trkpt>
      <trkpt lat="43.23999" lon="6.51517">
        <ele>107.666</ele>
        <time>2012-10-07T10:32:34Z</time>
      </trkpt>
      <trkpt lat="43.24002" lon="6.51532">
        <ele>105.647</ele>
        <time>2012-10-07T10:32:37Z</time>
      </trkpt>
      <trkpt lat="43.24007" lon="6.51537">
        <ele>104.117</ele>
        <time>2012-10-07T10:32:40Z</time>
      </trkpt>
      <trkpt lat="43.24008" lon="6.5154">
        <ele>103.377</ele>
        <time>2012-10-07T10:32:41Z</time>
      </trkpt>
      <trkpt lat="43.24014" lon="6.5156">
        <ele>101.699</ele>
        <time>2012-10-07T10:32:48Z</time>
      </trkpt>
      <trkpt lat="43.24016" lon="6.51566">
        <ele>101.76</ele>
        <time>2012-10-07T10:32:50Z</time>
      </trkpt>
      <trkpt lat="43.24027" lon="6.51576">
        <ele>102.031</ele>
        <time>2012-10-07T10:32:55Z</time>
      </trkpt>
      <trkpt lat="43.24044" lon="6.51585">
        <ele>105.613</ele>
        <time>2012-10-07T10:33:00Z</time>
      </trkpt>
      <trkpt lat="43.24053" lon="6.51585">
        <ele>106.033</ele>
        <time>2012-10-07T10:33:02Z</time>
      </trkpt>
      <trkpt lat="43.24071" lon="6.51588">
        <ele>105.752</ele>
        <time>2012-10-07T10:33:06Z</time>
      </trkpt>
      <trkpt lat="43.24089" lon="6.51595">
        <ele>105.221</ele>
        <time>2012-10-07T10:33:11Z</time>
      </trkpt>
      <trkpt lat="43.24095" lon="6.516">
        <ele>105.081</ele>
        <time>2012-10-07T10:33:13Z</time>
      </trkpt>
      <trkpt lat="43.24117" lon="6.51615">
        <ele>102.339</ele>
        <time>2012-10-07T10:33:18Z</time>
      </trkpt>
      <trkpt lat="43.24128" lon="6.51638">
        <ele>99.388</ele>
        <time>2012-10-07T10:33:22Z</time>
      </trkpt>
      <trkpt lat="43.24145" lon="6.51665">
        <ele>95.506</ele>
        <time>2012-10-07T10:33:27Z</time>
      </trkpt>
      <trkpt lat="43.24162" lon="6.51688">
        <ele>93.85</ele>
        <time>2012-10-07T10:33:32Z</time>
      </trkpt>
      <trkpt lat="43.2417" lon="6.51711">
        <ele>92.439</ele>
        <time>2012-10-07T10:33:37Z</time>
      </trkpt>
      <trkpt lat="43.24169" lon="6.51731">
        <ele>90.629</ele>
        <time>2012-10-07T10:33:40Z</time>
      </trkpt>
      <trkpt lat="43.2417" lon="6.51762">
        <ele>87.338</ele>
        <time>2012-10-07T10:33:45Z</time>
      </trkpt>
      <trkpt lat="43.24179" lon="6.51771">
        <ele>86.42</ele>
        <time>2012-10-07T10:33:48Z</time>
      </trkpt>
      <trkpt lat="43.24181" lon="6.51785">
        <ele>85.991</ele>
        <time>2012-10-07T10:33:51Z</time>
      </trkpt>
      <trkpt lat="43.24179" lon="6.51808">
        <ele>86.042</ele>
        <time>2012-10-07T10:33:57Z</time>
      </trkpt>
      <trkpt lat="43.24174" lon="6.51828">
        <ele>85.182</ele>
        <time>2012-10-07T10:34:02Z</time>
      </trkpt>
      <trkpt lat="43.24165" lon="6.51856">
        <ele>84.552</ele>
        <time>2012-10-07T10:34:09Z</time>
      </trkpt>
      <trkpt lat="43.24156" lon="6.51878">
        <ele>83.842</ele>
        <time>2012-10-07T10:34:15Z</time>
      </trkpt>
      <trkpt lat="43.2415" lon="6.51904">
        <ele>83.452</ele>
        <time>2012-10-07T10:34:22Z</time>
      </trkpt>
      <trkpt lat="43.24144" lon="6.51929">
        <ele>82.311</ele>
        <time>2012-10-07T10:34:29Z</time>
      </trkpt>
      <trkpt lat="43.24154" lon="6.51951">
        <ele>80.867</ele>
        <time>2012-10-07T10:34:33Z</time>
      </trkpt>
      <trkpt lat="43.24166" lon="6.51959">
        <ele>79.746</ele>
        <time>2012-10-07T10:34:35Z</time>
      </trkpt>
      <trkpt lat="43.24226" lon="6.51983">
        <ele>77.691</ele>
        <time>2012-10-07T10:34:43Z</time>
      </trkpt>
      <trkpt lat="43.24245" lon="6.51988">
        <ele>77.831</ele>
        <time>2012-10-07T10:34:46Z</time>
      </trkpt>
      <trkpt lat="43.24264" lon="6.52003">
        <ele>76.91</ele>
        <time>2012-10-07T10:34:50Z</time>
      </trkpt>
      <trkpt lat="43.24296" lon="6.52058">
        <ele>74.841</ele>
        <time>2012-10-07T10:34:57Z</time>
      </trkpt>
      <trkpt lat="43.24319" lon="6.52112">
        <ele>73.872</ele>
        <time>2012-10-07T10:35:04Z</time>
      </trkpt>
      <trkpt lat="43.24321" lon="6.52119">
        <ele>73.862</ele>
        <time>2012-10-07T10:35:05Z</time>
      </trkpt>
      <trkpt lat="43.2434" lon="6.52156">
        <ele>74.093</ele>
        <time>2012-10-07T10:35:11Z</time>
      </trkpt>
      <trkpt lat="43.24349" lon="6.52169">
        <ele>74.964</ele>
        <time>2012-10-07T10:35:14Z</time>
      </trkpt>
      <trkpt lat="43.24356" lon="6.52166">
        <ele>77.945</ele>
        <time>2012-10-07T10:35:18Z</time>
      </trkpt>
      <trkpt lat="43.24372" lon="6.52164">
        <ele>77.672</ele>
        <time>2012-10-07T10:35:24Z</time>
      </trkpt>
      <trkpt lat="43.24392" lon="6.5216">
        <ele>75.02</ele>
        <time>2012-10-07T10:35:29Z</time>
      </trkpt>
      <trkpt lat="43.2442" lon="6.52156">
        <ele>71.008</ele>
        <time>2012-10-07T10:35:34Z</time>
      </trkpt>
      <trkpt lat="43.24435" lon="6.52153">
        <ele>68.956</ele>
        <time>2012-10-07T10:35:36Z</time>
      </trkpt>
      <trkpt lat="43.24489" lon="6.52129">
        <ele>63.389</ele>
        <time>2012-10-07T10:35:43Z</time>
      </trkpt>
      <trkpt lat="43.24531" lon="6.52104">
        <ele>60.431</ele>
        <time>2012-10-07T10:35:49Z</time>
      </trkpt>
      <trkpt lat="43.24542" lon="6.52111">
        <ele>59.902</ele>
        <time>2012-10-07T10:35:53Z</time>
      </trkpt>
      <trkpt lat="43.24544" lon="6.52119">
        <ele>59.863</ele>
        <time>2012-10-07T10:35:55Z</time>
      </trkpt>
      <trkpt lat="43.24545" lon="6.52127">
        <ele>60.094</ele>
        <time>2012-10-07T10:35:57Z</time>
      </trkpt>
      <trkpt lat="43.24552" lon="6.52128">
        <ele>60.994</ele>
        <time>2012-10-07T10:36:01Z</time>
      </trkpt>
      <trkpt lat="43.24562" lon="6.52125">
        <ele>60.332</ele>
        <time>2012-10-07T10:36:04Z</time>
      </trkpt>
      <trkpt lat="43.24581" lon="6.5212">
        <ele>58.882</ele>
        <time>2012-10-07T10:36:09Z</time>
      </trkpt>
      <trkpt lat="43.24599" lon="6.52116">
        <ele>58.012</ele>
        <time>2012-10-07T10:36:14Z</time>
      </trkpt>
      <trkpt lat="43.24603" lon="6.52115">
        <ele>57.883</ele>
        <time>2012-10-07T10:36:15Z</time>
      </trkpt>
      <trkpt lat="43.24621" lon="6.52107">
        <ele>57.203</ele>
        <time>2012-10-07T10:36:19Z</time>
      </trkpt>
      <trkpt lat="43.24643" lon="6.52107">
        <ele>55.482</ele>
        <time>2012-10-07T10:36:23Z</time>
      </trkpt>
      <trkpt lat="43.24664" lon="6.52119">
        <ele>54.242</ele>
        <time>2012-10-07T10:36:27Z</time>
      </trkpt>
      <trkpt lat="43.24686" lon="6.52141">
        <ele>54.645</ele>
        <time>2012-10-07T10:36:32Z</time>
      </trkpt>
      <trkpt lat="43.2472" lon="6.52159">
        <ele>51.581</ele>
        <time>2012-10-07T10:36:38Z</time>
      </trkpt>
      <trkpt lat="43.24734" lon="6.52163">
        <ele>50.732</ele>
        <time>2012-10-07T10:36:40Z</time>
      </trkpt>
      <trkpt lat="43.24755" lon="6.52182">
        <ele>48.602</ele>
        <time>2012-10-07T10:36:44Z</time>
      </trkpt>
      <trkpt lat="43.24773" lon="6.52196">
        <ele>47.883</ele>
        <time>2012-10-07T10:36:48Z</time>
      </trkpt>
      <trkpt lat="43.24785" lon="6.522">
        <ele>46.3</ele>
        <time>2012-10-07T10:36:50Z</time>
      </trkpt>
      <trkpt lat="43.24799" lon="6.52202">
        <ele>44.93</ele>
        <time>2012-10-07T10:36:52Z</time>
      </trkpt>
      <trkpt lat="43.24827" lon="6.52216">
        <ele>43.23</ele>
        <time>2012-10-07T10:36:56Z</time>
      </trkpt>
      <trkpt lat="43.24867" lon="6.52264">
        <ele>40.332</ele>
        <time>2012-10-07T10:37:03Z</time>
      </trkpt>
      <trkpt lat="43.2491" lon="6.52309">
        <ele>36.541</ele>
        <time>2012-10-07T10:37:10Z</time>
      </trkpt>
      <trkpt lat="43.24936" lon="6.52328">
        <ele>36.032</ele>
        <time>2012-10-07T10:37:14Z</time>
      </trkpt>
      <trkpt lat="43.24943" lon="6.52326">
        <ele>36.173</ele>
        <time>2012-10-07T10:37:15Z</time>
      </trkpt>
      <trkpt lat="43.24967" lon="6.52332">
        <ele>36.102</ele>
        <time>2012-10-07T10:37:20Z</time>
      </trkpt>
      <trkpt lat="43.24983" lon="6.52351">
        <ele>35.593</ele>
        <time>2012-10-07T10:37:24Z</time>
      </trkpt>
      <trkpt lat="43.24993" lon="6.52359">
        <ele>35.143</ele>
        <time>2012-10-07T10:37:26Z</time>
      </trkpt>
      <trkpt lat="43.25006" lon="6.52385">
        <ele>33.882</ele>
        <time>2012-10-07T10:37:30Z</time>
      </trkpt>
      <trkpt lat="43.25018" lon="6.52451">
        <ele>32.445</ele>
        <time>2012-10-07T10:37:38Z</time>
      </trkpt>
      <trkpt lat="43.25029" lon="6.52504">
        <ele>30.412</ele>
        <time>2012-10-07T10:37:44Z</time>
      </trkpt>
      <trkpt lat="43.25044" lon="6.52589">
        <ele>26.763</ele>
        <time>2012-10-07T10:37:52Z</time>
      </trkpt>
      <trkpt lat="43.25049" lon="6.52611">
        <ele>26.153</ele>
        <time>2012-10-07T10:37:54Z</time>
      </trkpt>
      <trkpt lat="43.25043" lon="6.52651">
        <ele>25.524</ele>
        <time>2012-10-07T10:37:58Z</time>
      </trkpt>
      <trkpt lat="43.25038" lon="6.52659">
        <ele>25.264</ele>
        <time>2012-10-07T10:37:59Z</time>
      </trkpt>
      <trkpt lat="43.25014" lon="6.52704">
        <ele>23.904</ele>
        <time>2012-10-07T10:38:05Z</time>
      </trkpt>
      <trkpt lat="43.25012" lon="6.52726">
        <ele>23.173</ele>
        <time>2012-10-07T10:38:08Z</time>
      </trkpt>
      <trkpt lat="43.25022" lon="6.52735">
        <ele>23.504</ele>
        <time>2012-10-07T10:38:10Z</time>
      </trkpt>
      <trkpt lat="43.25057" lon="6.52763">
        <ele>24.055</ele>
        <time>2012-10-07T10:38:17Z</time>
      </trkpt>
      <trkpt lat="43.25103" lon="6.52806">
        <ele>25.546</ele>
        <time>2012-10-07T10:38:27Z</time>
      </trkpt>
      <trkpt lat="43.2511" lon="6.52815">
        <ele>25.616</ele>
        <time>2012-10-07T10:38:29Z</time>
      </trkpt>
      <trkpt lat="43.25123" lon="6.52844">
        <ele>26.007</ele>
        <time>2012-10-07T10:38:36Z</time>
      </trkpt>
      <trkpt lat="43.25128" lon="6.52873">
        <ele>26.467</ele>
        <time>2012-10-07T10:38:44Z</time>
      </trkpt>
      <trkpt lat="43.25127" lon="6.52875">
        <ele>25.977</ele>
        <time>2012-10-07T10:38:49Z</time>
      </trkpt>
      <trkpt lat="43.25126" lon="6.52878">
        <ele>25.236</ele>
        <time>2012-10-07T10:38:55Z</time>
      </trkpt>
      <trkpt lat="43.25127" lon="6.52878">
        <ele>29.916</ele>
        <time>2012-10-07T10:39:24Z</time>
      </trkpt>
      <trkpt lat="43.25128" lon="6.52891">
        <ele>28.596</ele>
        <time>2012-10-07T10:39:30Z</time>
      </trkpt>
      <trkpt lat="43.25129" lon="6.52894">
        <ele>28.566</ele>
        <time>2012-10-07T10:39:31Z</time>
      </trkpt>
      <trkpt lat="43.25129" lon="6.52905">
        <ele>27.356</ele>
        <time>2012-10-07T10:39:38Z</time>
      </trkpt>
      <trkpt lat="43.25127" lon="6.52906">
        <ele>26.386</ele>
        <time>2012-10-07T10:39:44Z</time>
      </trkpt>
      <trkpt lat="43.25127" lon="6.52907">
        <ele>26.076</ele>
        <time>2012-10-07T10:39:45Z</time>
      </trkpt>
      <trkpt lat="43.25122" lon="6.52905">
        <ele>24.785</ele>
        <time>2012-10-07T10:39:52Z</time>
      </trkpt>
      <trkpt lat="43.25121" lon="6.52904">
        <ele>23.626</ele>
        <time>2012-10-07T10:40:03Z</time>
      </trkpt>
      <trkpt lat="43.25121" lon="6.52905">
        <ele>23.426</ele>
        <time>2012-10-07T10:40:11Z</time>
      </trkpt>
      <trkpt lat="43.25121" lon="6.52905">
        <ele>23.688</ele>
        <time>2012-10-07T10:40:16Z</time>
      </trkpt>
    </trkseg>
  </trk>
</gpx>